<?xml version="1.0" encoding="UTF-8" standalone="no" ?>
<gpx xmlns="http://www.topografix.com/GPX/1/1" xmlns:xsi="http://www.w3.org/2001/XMLSchema-instance" xsi:schemaLocation="http://www.topografix.com/GPX/1/1 http://www.topografix.com/GPX/1/1/gpx.xsd" version="1.1" creator="VisuGPX - https://www.visugpx.com">
  <metadata>
    <name>ONmove 220 - 08/08/2019</name>
  </metadata>
  <trk>
    <name><![CDATA[ONmove 220 - 08/08/2019]]></name>
    <trkseg>
      <trkpt lat="44.49415" lon="-1.07965">
        <ele>18</ele>
        <time>2019-08-08T10:16:10Z</time>
      </trkpt>
      <trkpt lat="44.49421" lon="-1.07958">
        <ele>18</ele>
        <time>2019-08-08T10:16:15Z</time>
      </trkpt>
      <trkpt lat="44.49421" lon="-1.07958">
        <ele>18</ele>
        <time>2019-08-08T10:16:20Z</time>
      </trkpt>
      <trkpt lat="44.49421" lon="-1.07958">
        <ele>18</ele>
        <time>2019-08-08T10:16:25Z</time>
      </trkpt>
      <trkpt lat="44.49421" lon="-1.07957">
        <ele>18</ele>
        <time>2019-08-08T10:16:30Z</time>
      </trkpt>
      <trkpt lat="44.49421" lon="-1.07957">
        <ele>18</ele>
        <time>2019-08-08T10:16:35Z</time>
      </trkpt>
      <trkpt lat="44.49428" lon="-1.07947">
        <ele>18</ele>
        <time>2019-08-08T10:16:40Z</time>
      </trkpt>
      <trkpt lat="44.49427" lon="-1.07949">
        <ele>18</ele>
        <time>2019-08-08T10:16:45Z</time>
      </trkpt>
      <trkpt lat="44.49426" lon="-1.07949">
        <ele>18</ele>
        <time>2019-08-08T10:16:55Z</time>
      </trkpt>
      <trkpt lat="44.49426" lon="-1.07949">
        <ele>18</ele>
        <time>2019-08-08T10:17:00Z</time>
      </trkpt>
      <trkpt lat="44.49426" lon="-1.07951">
        <ele>18</ele>
        <time>2019-08-08T10:17:05Z</time>
      </trkpt>
      <trkpt lat="44.49426" lon="-1.07951">
        <ele>18</ele>
        <time>2019-08-08T10:17:10Z</time>
      </trkpt>
      <trkpt lat="44.49426" lon="-1.07951">
        <ele>18</ele>
        <time>2019-08-08T10:17:15Z</time>
      </trkpt>
      <trkpt lat="44.49426" lon="-1.07952">
        <ele>18</ele>
        <time>2019-08-08T10:17:20Z</time>
      </trkpt>
      <trkpt lat="44.49426" lon="-1.07952">
        <ele>18</ele>
        <time>2019-08-08T10:17:25Z</time>
      </trkpt>
      <trkpt lat="44.49426" lon="-1.07952">
        <ele>18</ele>
        <time>2019-08-08T10:17:30Z</time>
      </trkpt>
      <trkpt lat="44.49426" lon="-1.07954">
        <ele>18</ele>
        <time>2019-08-08T10:17:40Z</time>
      </trkpt>
      <trkpt lat="44.49426" lon="-1.07954">
        <ele>18</ele>
        <time>2019-08-08T10:17:45Z</time>
      </trkpt>
      <trkpt lat="44.49426" lon="-1.07954">
        <ele>18</ele>
        <time>2019-08-08T10:17:50Z</time>
      </trkpt>
      <trkpt lat="44.49426" lon="-1.07954">
        <ele>18</ele>
        <time>2019-08-08T10:17:55Z</time>
      </trkpt>
      <trkpt lat="44.49426" lon="-1.07954">
        <ele>18</ele>
        <time>2019-08-08T10:18:00Z</time>
      </trkpt>
      <trkpt lat="44.49426" lon="-1.07954">
        <ele>18</ele>
        <time>2019-08-08T10:18:05Z</time>
      </trkpt>
      <trkpt lat="44.49426" lon="-1.07954">
        <ele>18</ele>
        <time>2019-08-08T10:18:10Z</time>
      </trkpt>
      <trkpt lat="44.49426" lon="-1.07954">
        <ele>18</ele>
        <time>2019-08-08T10:18:15Z</time>
      </trkpt>
      <trkpt lat="44.49427" lon="-1.07955">
        <ele>18</ele>
        <time>2019-08-08T10:18:20Z</time>
      </trkpt>
      <trkpt lat="44.49427" lon="-1.07954">
        <ele>18</ele>
        <time>2019-08-08T10:18:30Z</time>
      </trkpt>
      <trkpt lat="44.49427" lon="-1.07954">
        <ele>18</ele>
        <time>2019-08-08T10:18:35Z</time>
      </trkpt>
      <trkpt lat="44.49428" lon="-1.07954">
        <ele>18</ele>
        <time>2019-08-08T10:18:40Z</time>
      </trkpt>
      <trkpt lat="44.49428" lon="-1.07953">
        <ele>18</ele>
        <time>2019-08-08T10:18:45Z</time>
      </trkpt>
      <trkpt lat="44.49428" lon="-1.07953">
        <ele>18</ele>
        <time>2019-08-08T10:18:50Z</time>
      </trkpt>
      <trkpt lat="44.49429" lon="-1.07953">
        <ele>18</ele>
        <time>2019-08-08T10:18:55Z</time>
      </trkpt>
      <trkpt lat="44.49429" lon="-1.07955">
        <ele>18</ele>
        <time>2019-08-08T10:19:00Z</time>
      </trkpt>
      <trkpt lat="44.49429" lon="-1.07956">
        <ele>18</ele>
        <time>2019-08-08T10:19:05Z</time>
      </trkpt>
      <trkpt lat="44.4943" lon="-1.07954">
        <ele>18</ele>
        <time>2019-08-08T10:19:15Z</time>
      </trkpt>
      <trkpt lat="44.49429" lon="-1.07953">
        <ele>18</ele>
        <time>2019-08-08T10:19:20Z</time>
      </trkpt>
      <trkpt lat="44.49429" lon="-1.07953">
        <ele>18</ele>
        <time>2019-08-08T10:19:25Z</time>
      </trkpt>
      <trkpt lat="44.49429" lon="-1.07953">
        <ele>18</ele>
        <time>2019-08-08T10:19:30Z</time>
      </trkpt>
      <trkpt lat="44.49429" lon="-1.07952">
        <ele>18</ele>
        <time>2019-08-08T10:19:35Z</time>
      </trkpt>
      <trkpt lat="44.4943" lon="-1.07951">
        <ele>18</ele>
        <time>2019-08-08T10:19:40Z</time>
      </trkpt>
      <trkpt lat="44.4943" lon="-1.07948">
        <ele>18</ele>
        <time>2019-08-08T10:19:45Z</time>
      </trkpt>
      <trkpt lat="44.4943" lon="-1.07946">
        <ele>18</ele>
        <time>2019-08-08T10:19:50Z</time>
      </trkpt>
      <trkpt lat="44.4943" lon="-1.07946">
        <ele>18</ele>
        <time>2019-08-08T10:19:55Z</time>
      </trkpt>
      <trkpt lat="44.49431" lon="-1.07943">
        <ele>18</ele>
        <time>2019-08-08T10:20:05Z</time>
      </trkpt>
      <trkpt lat="44.4943" lon="-1.07942">
        <ele>18</ele>
        <time>2019-08-08T10:20:10Z</time>
      </trkpt>
      <trkpt lat="44.4943" lon="-1.07938">
        <ele>18</ele>
        <time>2019-08-08T10:20:15Z</time>
      </trkpt>
      <trkpt lat="44.49429" lon="-1.07936">
        <ele>18</ele>
        <time>2019-08-08T10:20:20Z</time>
      </trkpt>
      <trkpt lat="44.49427" lon="-1.07935">
        <ele>18</ele>
        <time>2019-08-08T10:20:25Z</time>
      </trkpt>
      <trkpt lat="44.49426" lon="-1.07933">
        <ele>18</ele>
        <time>2019-08-08T10:20:30Z</time>
      </trkpt>
      <trkpt lat="44.49424" lon="-1.07933">
        <ele>18</ele>
        <time>2019-08-08T10:20:35Z</time>
      </trkpt>
      <trkpt lat="44.49422" lon="-1.07934">
        <ele>18</ele>
        <time>2019-08-08T10:20:40Z</time>
      </trkpt>
      <trkpt lat="44.49418" lon="-1.07934">
        <ele>18</ele>
        <time>2019-08-08T10:20:50Z</time>
      </trkpt>
      <trkpt lat="44.49416" lon="-1.07935">
        <ele>18</ele>
        <time>2019-08-08T10:20:55Z</time>
      </trkpt>
      <trkpt lat="44.49414" lon="-1.07936">
        <ele>18</ele>
        <time>2019-08-08T10:21:00Z</time>
      </trkpt>
      <trkpt lat="44.49413" lon="-1.07936">
        <ele>18</ele>
        <time>2019-08-08T10:21:05Z</time>
      </trkpt>
      <trkpt lat="44.49411" lon="-1.07936">
        <ele>18</ele>
        <time>2019-08-08T10:21:10Z</time>
      </trkpt>
      <trkpt lat="44.49408" lon="-1.07936">
        <ele>18</ele>
        <time>2019-08-08T10:21:15Z</time>
      </trkpt>
      <trkpt lat="44.49405" lon="-1.07936">
        <ele>18</ele>
        <time>2019-08-08T10:21:20Z</time>
      </trkpt>
      <trkpt lat="44.494" lon="-1.07936">
        <ele>18</ele>
        <time>2019-08-08T10:21:25Z</time>
      </trkpt>
      <trkpt lat="44.49395" lon="-1.07938">
        <ele>18</ele>
        <time>2019-08-08T10:21:30Z</time>
      </trkpt>
      <trkpt lat="44.49384" lon="-1.07942">
        <ele>18</ele>
        <time>2019-08-08T10:21:40Z</time>
      </trkpt>
      <trkpt lat="44.49378" lon="-1.07945">
        <ele>18</ele>
        <time>2019-08-08T10:21:45Z</time>
      </trkpt>
      <trkpt lat="44.49372" lon="-1.07947">
        <ele>18</ele>
        <time>2019-08-08T10:21:50Z</time>
      </trkpt>
      <trkpt lat="44.49365" lon="-1.07949">
        <ele>18</ele>
        <time>2019-08-08T10:21:55Z</time>
      </trkpt>
      <trkpt lat="44.49357" lon="-1.07952">
        <ele>18</ele>
        <time>2019-08-08T10:22:00Z</time>
      </trkpt>
      <trkpt lat="44.4935" lon="-1.07953">
        <ele>18</ele>
        <time>2019-08-08T10:22:05Z</time>
      </trkpt>
      <trkpt lat="44.49344" lon="-1.07955">
        <ele>18</ele>
        <time>2019-08-08T10:22:10Z</time>
      </trkpt>
      <trkpt lat="44.49337" lon="-1.07956">
        <ele>18</ele>
        <time>2019-08-08T10:22:15Z</time>
      </trkpt>
      <trkpt lat="44.49324" lon="-1.0796">
        <ele>18</ele>
        <time>2019-08-08T10:22:25Z</time>
      </trkpt>
      <trkpt lat="44.49316" lon="-1.07961">
        <ele>18</ele>
        <time>2019-08-08T10:22:30Z</time>
      </trkpt>
      <trkpt lat="44.49307" lon="-1.07962">
        <ele>18</ele>
        <time>2019-08-08T10:22:35Z</time>
      </trkpt>
      <trkpt lat="44.49298" lon="-1.07963">
        <ele>18</ele>
        <time>2019-08-08T10:22:40Z</time>
      </trkpt>
      <trkpt lat="44.4929" lon="-1.07963">
        <ele>18</ele>
        <time>2019-08-08T10:22:45Z</time>
      </trkpt>
      <trkpt lat="44.49282" lon="-1.07962">
        <ele>18</ele>
        <time>2019-08-08T10:22:50Z</time>
      </trkpt>
      <trkpt lat="44.49274" lon="-1.0796">
        <ele>18</ele>
        <time>2019-08-08T10:22:55Z</time>
      </trkpt>
      <trkpt lat="44.49266" lon="-1.07957">
        <ele>18</ele>
        <time>2019-08-08T10:23:00Z</time>
      </trkpt>
      <trkpt lat="44.49258" lon="-1.07957">
        <ele>18</ele>
        <time>2019-08-08T10:23:05Z</time>
      </trkpt>
      <trkpt lat="44.49243" lon="-1.07957">
        <ele>18</ele>
        <time>2019-08-08T10:23:15Z</time>
      </trkpt>
      <trkpt lat="44.49235" lon="-1.07959">
        <ele>18</ele>
        <time>2019-08-08T10:23:20Z</time>
      </trkpt>
      <trkpt lat="44.49226" lon="-1.0796">
        <ele>18</ele>
        <time>2019-08-08T10:23:25Z</time>
      </trkpt>
      <trkpt lat="44.49216" lon="-1.0796">
        <ele>18</ele>
        <time>2019-08-08T10:23:30Z</time>
      </trkpt>
      <trkpt lat="44.49206" lon="-1.07959">
        <ele>18</ele>
        <time>2019-08-08T10:23:35Z</time>
      </trkpt>
      <trkpt lat="44.49196" lon="-1.07959">
        <ele>18</ele>
        <time>2019-08-08T10:23:40Z</time>
      </trkpt>
      <trkpt lat="44.49188" lon="-1.0796">
        <ele>18</ele>
        <time>2019-08-08T10:23:45Z</time>
      </trkpt>
      <trkpt lat="44.49179" lon="-1.07961">
        <ele>18</ele>
        <time>2019-08-08T10:23:50Z</time>
      </trkpt>
      <trkpt lat="44.4916" lon="-1.07965">
        <ele>18</ele>
        <time>2019-08-08T10:24:00Z</time>
      </trkpt>
      <trkpt lat="44.4915" lon="-1.07967">
        <ele>18</ele>
        <time>2019-08-08T10:24:05Z</time>
      </trkpt>
      <trkpt lat="44.49142" lon="-1.0797">
        <ele>18</ele>
        <time>2019-08-08T10:24:10Z</time>
      </trkpt>
      <trkpt lat="44.49134" lon="-1.07974">
        <ele>18</ele>
        <time>2019-08-08T10:24:15Z</time>
      </trkpt>
      <trkpt lat="44.49125" lon="-1.07979">
        <ele>18</ele>
        <time>2019-08-08T10:24:20Z</time>
      </trkpt>
      <trkpt lat="44.49117" lon="-1.07985">
        <ele>18</ele>
        <time>2019-08-08T10:24:25Z</time>
      </trkpt>
      <trkpt lat="44.49108" lon="-1.0799">
        <ele>18</ele>
        <time>2019-08-08T10:24:30Z</time>
      </trkpt>
      <trkpt lat="44.49101" lon="-1.07995">
        <ele>18</ele>
        <time>2019-08-08T10:24:35Z</time>
      </trkpt>
      <trkpt lat="44.49092" lon="-1.08001">
        <ele>18</ele>
        <time>2019-08-08T10:24:40Z</time>
      </trkpt>
      <trkpt lat="44.49073" lon="-1.08015">
        <ele>18</ele>
        <time>2019-08-08T10:24:50Z</time>
      </trkpt>
      <trkpt lat="44.49068" lon="-1.0802">
        <ele>18</ele>
        <time>2019-08-08T10:24:55Z</time>
      </trkpt>
      <trkpt lat="44.49062" lon="-1.08025">
        <ele>18</ele>
        <time>2019-08-08T10:25:00Z</time>
      </trkpt>
      <trkpt lat="44.49054" lon="-1.08028">
        <ele>18</ele>
        <time>2019-08-08T10:25:05Z</time>
      </trkpt>
      <trkpt lat="44.49047" lon="-1.08032">
        <ele>18</ele>
        <time>2019-08-08T10:25:10Z</time>
      </trkpt>
      <trkpt lat="44.4904" lon="-1.08037">
        <ele>18</ele>
        <time>2019-08-08T10:25:15Z</time>
      </trkpt>
      <trkpt lat="44.49032" lon="-1.08041">
        <ele>18</ele>
        <time>2019-08-08T10:25:20Z</time>
      </trkpt>
      <trkpt lat="44.49026" lon="-1.08045">
        <ele>18</ele>
        <time>2019-08-08T10:25:25Z</time>
      </trkpt>
      <trkpt lat="44.49022" lon="-1.08055">
        <ele>18</ele>
        <time>2019-08-08T10:25:35Z</time>
      </trkpt>
      <trkpt lat="44.49025" lon="-1.08058">
        <ele>18</ele>
        <time>2019-08-08T10:25:40Z</time>
      </trkpt>
      <trkpt lat="44.49029" lon="-1.08061">
        <ele>18</ele>
        <time>2019-08-08T10:25:45Z</time>
      </trkpt>
      <trkpt lat="44.49033" lon="-1.08062">
        <ele>18</ele>
        <time>2019-08-08T10:25:50Z</time>
      </trkpt>
      <trkpt lat="44.49038" lon="-1.08065">
        <ele>18</ele>
        <time>2019-08-08T10:25:55Z</time>
      </trkpt>
      <trkpt lat="44.49042" lon="-1.08068">
        <ele>18</ele>
        <time>2019-08-08T10:26:00Z</time>
      </trkpt>
      <trkpt lat="44.49046" lon="-1.08073">
        <ele>18</ele>
        <time>2019-08-08T10:26:05Z</time>
      </trkpt>
      <trkpt lat="44.49051" lon="-1.08079">
        <ele>18</ele>
        <time>2019-08-08T10:26:10Z</time>
      </trkpt>
      <trkpt lat="44.49057" lon="-1.08087">
        <ele>18</ele>
        <time>2019-08-08T10:26:15Z</time>
      </trkpt>
      <trkpt lat="44.49072" lon="-1.08105">
        <ele>18</ele>
        <time>2019-08-08T10:26:25Z</time>
      </trkpt>
      <trkpt lat="44.49079" lon="-1.08115">
        <ele>18</ele>
        <time>2019-08-08T10:26:30Z</time>
      </trkpt>
      <trkpt lat="44.49086" lon="-1.08125">
        <ele>18</ele>
        <time>2019-08-08T10:26:35Z</time>
      </trkpt>
      <trkpt lat="44.49094" lon="-1.08135">
        <ele>18</ele>
        <time>2019-08-08T10:26:40Z</time>
      </trkpt>
      <trkpt lat="44.49101" lon="-1.08144">
        <ele>18</ele>
        <time>2019-08-08T10:26:45Z</time>
      </trkpt>
      <trkpt lat="44.49108" lon="-1.08154">
        <ele>18</ele>
        <time>2019-08-08T10:26:50Z</time>
      </trkpt>
      <trkpt lat="44.49116" lon="-1.08163">
        <ele>18</ele>
        <time>2019-08-08T10:26:55Z</time>
      </trkpt>
      <trkpt lat="44.49124" lon="-1.08171">
        <ele>18</ele>
        <time>2019-08-08T10:27:00Z</time>
      </trkpt>
      <trkpt lat="44.4914" lon="-1.08186">
        <ele>18</ele>
        <time>2019-08-08T10:27:10Z</time>
      </trkpt>
      <trkpt lat="44.49148" lon="-1.08194">
        <ele>18</ele>
        <time>2019-08-08T10:27:15Z</time>
      </trkpt>
      <trkpt lat="44.49157" lon="-1.08202">
        <ele>18</ele>
        <time>2019-08-08T10:27:20Z</time>
      </trkpt>
      <trkpt lat="44.49166" lon="-1.0821">
        <ele>18</ele>
        <time>2019-08-08T10:27:25Z</time>
      </trkpt>
      <trkpt lat="44.49175" lon="-1.08219">
        <ele>18</ele>
        <time>2019-08-08T10:27:30Z</time>
      </trkpt>
      <trkpt lat="44.49185" lon="-1.08226">
        <ele>18</ele>
        <time>2019-08-08T10:27:35Z</time>
      </trkpt>
      <trkpt lat="44.49194" lon="-1.08234">
        <ele>18</ele>
        <time>2019-08-08T10:27:40Z</time>
      </trkpt>
      <trkpt lat="44.49203" lon="-1.08241">
        <ele>18</ele>
        <time>2019-08-08T10:27:45Z</time>
      </trkpt>
      <trkpt lat="44.49211" lon="-1.08247">
        <ele>18</ele>
        <time>2019-08-08T10:27:50Z</time>
      </trkpt>
      <trkpt lat="44.49222" lon="-1.0826">
        <ele>18</ele>
        <time>2019-08-08T10:28:00Z</time>
      </trkpt>
      <trkpt lat="44.49219" lon="-1.08265">
        <ele>18</ele>
        <time>2019-08-08T10:28:05Z</time>
      </trkpt>
      <trkpt lat="44.49214" lon="-1.08269">
        <ele>18</ele>
        <time>2019-08-08T10:28:10Z</time>
      </trkpt>
      <trkpt lat="44.49209" lon="-1.08274">
        <ele>18</ele>
        <time>2019-08-08T10:28:15Z</time>
      </trkpt>
      <trkpt lat="44.49205" lon="-1.08279">
        <ele>18</ele>
        <time>2019-08-08T10:28:20Z</time>
      </trkpt>
      <trkpt lat="44.49201" lon="-1.08285">
        <ele>18</ele>
        <time>2019-08-08T10:28:25Z</time>
      </trkpt>
      <trkpt lat="44.49196" lon="-1.08291">
        <ele>18</ele>
        <time>2019-08-08T10:28:30Z</time>
      </trkpt>
      <trkpt lat="44.49191" lon="-1.08298">
        <ele>18</ele>
        <time>2019-08-08T10:28:35Z</time>
      </trkpt>
      <trkpt lat="44.49181" lon="-1.08316">
        <ele>18</ele>
        <time>2019-08-08T10:28:45Z</time>
      </trkpt>
      <trkpt lat="44.49175" lon="-1.08324">
        <ele>18</ele>
        <time>2019-08-08T10:28:50Z</time>
      </trkpt>
      <trkpt lat="44.49168" lon="-1.08333">
        <ele>18</ele>
        <time>2019-08-08T10:28:55Z</time>
      </trkpt>
      <trkpt lat="44.49162" lon="-1.08342">
        <ele>18</ele>
        <time>2019-08-08T10:29:00Z</time>
      </trkpt>
      <trkpt lat="44.49155" lon="-1.0835">
        <ele>18</ele>
        <time>2019-08-08T10:29:05Z</time>
      </trkpt>
      <trkpt lat="44.49148" lon="-1.08359">
        <ele>18</ele>
        <time>2019-08-08T10:29:10Z</time>
      </trkpt>
      <trkpt lat="44.49142" lon="-1.0837">
        <ele>18</ele>
        <time>2019-08-08T10:29:15Z</time>
      </trkpt>
      <trkpt lat="44.49135" lon="-1.08377">
        <ele>18</ele>
        <time>2019-08-08T10:29:20Z</time>
      </trkpt>
      <trkpt lat="44.49127" lon="-1.08382">
        <ele>18</ele>
        <time>2019-08-08T10:29:25Z</time>
      </trkpt>
      <trkpt lat="44.49106" lon="-1.08391">
        <ele>18</ele>
        <time>2019-08-08T10:29:35Z</time>
      </trkpt>
      <trkpt lat="44.49095" lon="-1.08396">
        <ele>18</ele>
        <time>2019-08-08T10:29:40Z</time>
      </trkpt>
      <trkpt lat="44.49084" lon="-1.08397">
        <ele>18</ele>
        <time>2019-08-08T10:29:45Z</time>
      </trkpt>
      <trkpt lat="44.49073" lon="-1.08398">
        <ele>18</ele>
        <time>2019-08-08T10:29:50Z</time>
      </trkpt>
      <trkpt lat="44.49062" lon="-1.08399">
        <ele>18</ele>
        <time>2019-08-08T10:29:55Z</time>
      </trkpt>
      <trkpt lat="44.49052" lon="-1.08399">
        <ele>18</ele>
        <time>2019-08-08T10:30:00Z</time>
      </trkpt>
      <trkpt lat="44.49043" lon="-1.08398">
        <ele>18</ele>
        <time>2019-08-08T10:30:05Z</time>
      </trkpt>
      <trkpt lat="44.49034" lon="-1.08397">
        <ele>18</ele>
        <time>2019-08-08T10:30:10Z</time>
      </trkpt>
      <trkpt lat="44.49013" lon="-1.08402">
        <ele>18</ele>
        <time>2019-08-08T10:30:20Z</time>
      </trkpt>
      <trkpt lat="44.49001" lon="-1.08405">
        <ele>18</ele>
        <time>2019-08-08T10:30:25Z</time>
      </trkpt>
      <trkpt lat="44.48991" lon="-1.08408">
        <ele>18</ele>
        <time>2019-08-08T10:30:30Z</time>
      </trkpt>
      <trkpt lat="44.4898" lon="-1.08411">
        <ele>18</ele>
        <time>2019-08-08T10:30:35Z</time>
      </trkpt>
      <trkpt lat="44.48969" lon="-1.08413">
        <ele>18</ele>
        <time>2019-08-08T10:30:40Z</time>
      </trkpt>
      <trkpt lat="44.48958" lon="-1.08414">
        <ele>18</ele>
        <time>2019-08-08T10:30:45Z</time>
      </trkpt>
      <trkpt lat="44.48948" lon="-1.08416">
        <ele>18</ele>
        <time>2019-08-08T10:30:50Z</time>
      </trkpt>
      <trkpt lat="44.48938" lon="-1.0842">
        <ele>18</ele>
        <time>2019-08-08T10:30:55Z</time>
      </trkpt>
      <trkpt lat="44.48937" lon="-1.08427">
        <ele>18</ele>
        <time>2019-08-08T10:31:00Z</time>
      </trkpt>
      <trkpt lat="44.48943" lon="-1.08438">
        <ele>18</ele>
        <time>2019-08-08T10:31:10Z</time>
      </trkpt>
      <trkpt lat="44.48949" lon="-1.08443">
        <ele>18</ele>
        <time>2019-08-08T10:31:15Z</time>
      </trkpt>
      <trkpt lat="44.48956" lon="-1.0845">
        <ele>18</ele>
        <time>2019-08-08T10:31:20Z</time>
      </trkpt>
      <trkpt lat="44.48965" lon="-1.08456">
        <ele>18</ele>
        <time>2019-08-08T10:31:25Z</time>
      </trkpt>
      <trkpt lat="44.48974" lon="-1.08462">
        <ele>18</ele>
        <time>2019-08-08T10:31:30Z</time>
      </trkpt>
      <trkpt lat="44.48983" lon="-1.0847">
        <ele>18</ele>
        <time>2019-08-08T10:31:35Z</time>
      </trkpt>
      <trkpt lat="44.48993" lon="-1.08478">
        <ele>18</ele>
        <time>2019-08-08T10:31:40Z</time>
      </trkpt>
      <trkpt lat="44.49003" lon="-1.08483">
        <ele>18</ele>
        <time>2019-08-08T10:31:45Z</time>
      </trkpt>
      <trkpt lat="44.49021" lon="-1.08491">
        <ele>18</ele>
        <time>2019-08-08T10:31:55Z</time>
      </trkpt>
      <trkpt lat="44.49025" lon="-1.08503">
        <ele>18</ele>
        <time>2019-08-08T10:32:00Z</time>
      </trkpt>
      <trkpt lat="44.49029" lon="-1.08513">
        <ele>18</ele>
        <time>2019-08-08T10:32:05Z</time>
      </trkpt>
      <trkpt lat="44.49035" lon="-1.08525">
        <ele>18</ele>
        <time>2019-08-08T10:32:10Z</time>
      </trkpt>
      <trkpt lat="44.49043" lon="-1.08538">
        <ele>18</ele>
        <time>2019-08-08T10:32:15Z</time>
      </trkpt>
      <trkpt lat="44.49053" lon="-1.08547">
        <ele>18</ele>
        <time>2019-08-08T10:32:20Z</time>
      </trkpt>
      <trkpt lat="44.49063" lon="-1.08554">
        <ele>18</ele>
        <time>2019-08-08T10:32:25Z</time>
      </trkpt>
      <trkpt lat="44.49073" lon="-1.0856">
        <ele>18</ele>
        <time>2019-08-08T10:32:30Z</time>
      </trkpt>
      <trkpt lat="44.49091" lon="-1.08571">
        <ele>18</ele>
        <time>2019-08-08T10:32:40Z</time>
      </trkpt>
      <trkpt lat="44.49099" lon="-1.08575">
        <ele>18</ele>
        <time>2019-08-08T10:32:45Z</time>
      </trkpt>
      <trkpt lat="44.49108" lon="-1.08578">
        <ele>18</ele>
        <time>2019-08-08T10:32:50Z</time>
      </trkpt>
      <trkpt lat="44.49112" lon="-1.08583">
        <ele>18</ele>
        <time>2019-08-08T10:32:55Z</time>
      </trkpt>
      <trkpt lat="44.49113" lon="-1.08586">
        <ele>18</ele>
        <time>2019-08-08T10:33:00Z</time>
      </trkpt>
      <trkpt lat="44.49113" lon="-1.08589">
        <ele>18</ele>
        <time>2019-08-08T10:33:05Z</time>
      </trkpt>
      <trkpt lat="44.49111" lon="-1.08591">
        <ele>18</ele>
        <time>2019-08-08T10:33:10Z</time>
      </trkpt>
      <trkpt lat="44.49109" lon="-1.08594">
        <ele>18</ele>
        <time>2019-08-08T10:33:15Z</time>
      </trkpt>
      <trkpt lat="44.49104" lon="-1.08598">
        <ele>18</ele>
        <time>2019-08-08T10:33:20Z</time>
      </trkpt>
      <trkpt lat="44.49097" lon="-1.08603">
        <ele>18</ele>
        <time>2019-08-08T10:33:30Z</time>
      </trkpt>
      <trkpt lat="44.49092" lon="-1.08606">
        <ele>18</ele>
        <time>2019-08-08T10:33:35Z</time>
      </trkpt>
      <trkpt lat="44.49086" lon="-1.08609">
        <ele>18</ele>
        <time>2019-08-08T10:33:40Z</time>
      </trkpt>
      <trkpt lat="44.49078" lon="-1.08612">
        <ele>18</ele>
        <time>2019-08-08T10:33:45Z</time>
      </trkpt>
      <trkpt lat="44.4907" lon="-1.08616">
        <ele>18</ele>
        <time>2019-08-08T10:33:50Z</time>
      </trkpt>
      <trkpt lat="44.49061" lon="-1.0862">
        <ele>18</ele>
        <time>2019-08-08T10:33:55Z</time>
      </trkpt>
      <trkpt lat="44.49053" lon="-1.08624">
        <ele>18</ele>
        <time>2019-08-08T10:34:00Z</time>
      </trkpt>
      <trkpt lat="44.49044" lon="-1.0863">
        <ele>18</ele>
        <time>2019-08-08T10:34:05Z</time>
      </trkpt>
      <trkpt lat="44.49027" lon="-1.08636">
        <ele>18</ele>
        <time>2019-08-08T10:34:15Z</time>
      </trkpt>
      <trkpt lat="44.49019" lon="-1.08637">
        <ele>18</ele>
        <time>2019-08-08T10:34:20Z</time>
      </trkpt>
      <trkpt lat="44.49009" lon="-1.08637">
        <ele>18</ele>
        <time>2019-08-08T10:34:25Z</time>
      </trkpt>
      <trkpt lat="44.48999" lon="-1.08637">
        <ele>18</ele>
        <time>2019-08-08T10:34:30Z</time>
      </trkpt>
      <trkpt lat="44.48989" lon="-1.08639">
        <ele>18</ele>
        <time>2019-08-08T10:34:35Z</time>
      </trkpt>
      <trkpt lat="44.4898" lon="-1.0864">
        <ele>18</ele>
        <time>2019-08-08T10:34:40Z</time>
      </trkpt>
      <trkpt lat="44.48969" lon="-1.08641">
        <ele>18</ele>
        <time>2019-08-08T10:34:45Z</time>
      </trkpt>
      <trkpt lat="44.48958" lon="-1.08644">
        <ele>18</ele>
        <time>2019-08-08T10:34:50Z</time>
      </trkpt>
      <trkpt lat="44.48948" lon="-1.08647">
        <ele>18</ele>
        <time>2019-08-08T10:34:55Z</time>
      </trkpt>
      <trkpt lat="44.48927" lon="-1.08653">
        <ele>18</ele>
        <time>2019-08-08T10:35:05Z</time>
      </trkpt>
      <trkpt lat="44.48919" lon="-1.08659">
        <ele>18</ele>
        <time>2019-08-08T10:35:10Z</time>
      </trkpt>
      <trkpt lat="44.48918" lon="-1.08666">
        <ele>18</ele>
        <time>2019-08-08T10:35:15Z</time>
      </trkpt>
      <trkpt lat="44.48921" lon="-1.08671">
        <ele>18</ele>
        <time>2019-08-08T10:35:20Z</time>
      </trkpt>
      <trkpt lat="44.48926" lon="-1.08676">
        <ele>18</ele>
        <time>2019-08-08T10:35:25Z</time>
      </trkpt>
      <trkpt lat="44.48932" lon="-1.08681">
        <ele>18</ele>
        <time>2019-08-08T10:35:30Z</time>
      </trkpt>
      <trkpt lat="44.4894" lon="-1.08684">
        <ele>18</ele>
        <time>2019-08-08T10:35:35Z</time>
      </trkpt>
      <trkpt lat="44.48948" lon="-1.08685">
        <ele>18</ele>
        <time>2019-08-08T10:35:40Z</time>
      </trkpt>
      <trkpt lat="44.48964" lon="-1.08691">
        <ele>18</ele>
        <time>2019-08-08T10:35:50Z</time>
      </trkpt>
      <trkpt lat="44.48973" lon="-1.08694">
        <ele>18</ele>
        <time>2019-08-08T10:35:55Z</time>
      </trkpt>
      <trkpt lat="44.48982" lon="-1.08696">
        <ele>18</ele>
        <time>2019-08-08T10:36:00Z</time>
      </trkpt>
      <trkpt lat="44.48991" lon="-1.08698">
        <ele>18</ele>
        <time>2019-08-08T10:36:05Z</time>
      </trkpt>
      <trkpt lat="44.48999" lon="-1.08699">
        <ele>18</ele>
        <time>2019-08-08T10:36:10Z</time>
      </trkpt>
      <trkpt lat="44.49007" lon="-1.087">
        <ele>18</ele>
        <time>2019-08-08T10:36:15Z</time>
      </trkpt>
      <trkpt lat="44.49016" lon="-1.08702">
        <ele>18</ele>
        <time>2019-08-08T10:36:20Z</time>
      </trkpt>
      <trkpt lat="44.49025" lon="-1.08705">
        <ele>18</ele>
        <time>2019-08-08T10:36:25Z</time>
      </trkpt>
      <trkpt lat="44.49033" lon="-1.08709">
        <ele>18</ele>
        <time>2019-08-08T10:36:30Z</time>
      </trkpt>
      <trkpt lat="44.49049" lon="-1.08716">
        <ele>18</ele>
        <time>2019-08-08T10:36:40Z</time>
      </trkpt>
      <trkpt lat="44.49057" lon="-1.0872">
        <ele>18</ele>
        <time>2019-08-08T10:36:45Z</time>
      </trkpt>
      <trkpt lat="44.49066" lon="-1.08725">
        <ele>18</ele>
        <time>2019-08-08T10:36:50Z</time>
      </trkpt>
      <trkpt lat="44.49075" lon="-1.0873">
        <ele>18</ele>
        <time>2019-08-08T10:36:55Z</time>
      </trkpt>
      <trkpt lat="44.49083" lon="-1.08734">
        <ele>18</ele>
        <time>2019-08-08T10:37:00Z</time>
      </trkpt>
      <trkpt lat="44.49092" lon="-1.08739">
        <ele>18</ele>
        <time>2019-08-08T10:37:05Z</time>
      </trkpt>
      <trkpt lat="44.491" lon="-1.08744">
        <ele>18</ele>
        <time>2019-08-08T10:37:10Z</time>
      </trkpt>
      <trkpt lat="44.49108" lon="-1.08749">
        <ele>18</ele>
        <time>2019-08-08T10:37:15Z</time>
      </trkpt>
      <trkpt lat="44.49126" lon="-1.08759">
        <ele>18</ele>
        <time>2019-08-08T10:37:25Z</time>
      </trkpt>
      <trkpt lat="44.49135" lon="-1.08764">
        <ele>18</ele>
        <time>2019-08-08T10:37:30Z</time>
      </trkpt>
      <trkpt lat="44.49144" lon="-1.08769">
        <ele>18</ele>
        <time>2019-08-08T10:37:35Z</time>
      </trkpt>
      <trkpt lat="44.4915" lon="-1.08775">
        <ele>18</ele>
        <time>2019-08-08T10:37:40Z</time>
      </trkpt>
      <trkpt lat="44.4915" lon="-1.08781">
        <ele>18</ele>
        <time>2019-08-08T10:37:45Z</time>
      </trkpt>
      <trkpt lat="44.49148" lon="-1.08785">
        <ele>18</ele>
        <time>2019-08-08T10:37:50Z</time>
      </trkpt>
      <trkpt lat="44.49143" lon="-1.08787">
        <ele>18</ele>
        <time>2019-08-08T10:37:55Z</time>
      </trkpt>
      <trkpt lat="44.49138" lon="-1.0879">
        <ele>18</ele>
        <time>2019-08-08T10:38:00Z</time>
      </trkpt>
      <trkpt lat="44.49132" lon="-1.08792">
        <ele>18</ele>
        <time>2019-08-08T10:38:05Z</time>
      </trkpt>
      <trkpt lat="44.49116" lon="-1.08798">
        <ele>18</ele>
        <time>2019-08-08T10:38:15Z</time>
      </trkpt>
      <trkpt lat="44.49107" lon="-1.08801">
        <ele>18</ele>
        <time>2019-08-08T10:38:20Z</time>
      </trkpt>
      <trkpt lat="44.49098" lon="-1.08804">
        <ele>18</ele>
        <time>2019-08-08T10:38:25Z</time>
      </trkpt>
      <trkpt lat="44.4909" lon="-1.08805">
        <ele>18</ele>
        <time>2019-08-08T10:38:30Z</time>
      </trkpt>
      <trkpt lat="44.49081" lon="-1.08807">
        <ele>18</ele>
        <time>2019-08-08T10:38:35Z</time>
      </trkpt>
      <trkpt lat="44.49071" lon="-1.08809">
        <ele>18</ele>
        <time>2019-08-08T10:38:40Z</time>
      </trkpt>
      <trkpt lat="44.49062" lon="-1.08811">
        <ele>18</ele>
        <time>2019-08-08T10:38:45Z</time>
      </trkpt>
      <trkpt lat="44.49053" lon="-1.08815">
        <ele>18</ele>
        <time>2019-08-08T10:38:50Z</time>
      </trkpt>
      <trkpt lat="44.49036" lon="-1.08821">
        <ele>18</ele>
        <time>2019-08-08T10:39:00Z</time>
      </trkpt>
      <trkpt lat="44.49027" lon="-1.08824">
        <ele>18</ele>
        <time>2019-08-08T10:39:05Z</time>
      </trkpt>
      <trkpt lat="44.49018" lon="-1.08825">
        <ele>18</ele>
        <time>2019-08-08T10:39:10Z</time>
      </trkpt>
      <trkpt lat="44.4901" lon="-1.08827">
        <ele>18</ele>
        <time>2019-08-08T10:39:15Z</time>
      </trkpt>
      <trkpt lat="44.49001" lon="-1.08828">
        <ele>18</ele>
        <time>2019-08-08T10:39:20Z</time>
      </trkpt>
      <trkpt lat="44.48991" lon="-1.0883">
        <ele>18</ele>
        <time>2019-08-08T10:39:25Z</time>
      </trkpt>
      <trkpt lat="44.48982" lon="-1.08834">
        <ele>18</ele>
        <time>2019-08-08T10:39:30Z</time>
      </trkpt>
      <trkpt lat="44.48972" lon="-1.08839">
        <ele>18</ele>
        <time>2019-08-08T10:39:35Z</time>
      </trkpt>
      <trkpt lat="44.48963" lon="-1.08842">
        <ele>18</ele>
        <time>2019-08-08T10:39:40Z</time>
      </trkpt>
      <trkpt lat="44.48944" lon="-1.08854">
        <ele>18</ele>
        <time>2019-08-08T10:39:50Z</time>
      </trkpt>
      <trkpt lat="44.48933" lon="-1.08859">
        <ele>18</ele>
        <time>2019-08-08T10:39:55Z</time>
      </trkpt>
      <trkpt lat="44.48923" lon="-1.08863">
        <ele>18</ele>
        <time>2019-08-08T10:40:00Z</time>
      </trkpt>
      <trkpt lat="44.48913" lon="-1.08868">
        <ele>18</ele>
        <time>2019-08-08T10:40:05Z</time>
      </trkpt>
      <trkpt lat="44.48903" lon="-1.08872">
        <ele>18</ele>
        <time>2019-08-08T10:40:10Z</time>
      </trkpt>
      <trkpt lat="44.48894" lon="-1.08876">
        <ele>18</ele>
        <time>2019-08-08T10:40:15Z</time>
      </trkpt>
      <trkpt lat="44.48884" lon="-1.08881">
        <ele>18</ele>
        <time>2019-08-08T10:40:20Z</time>
      </trkpt>
      <trkpt lat="44.48875" lon="-1.08885">
        <ele>18</ele>
        <time>2019-08-08T10:40:25Z</time>
      </trkpt>
      <trkpt lat="44.48855" lon="-1.08893">
        <ele>18</ele>
        <time>2019-08-08T10:40:35Z</time>
      </trkpt>
      <trkpt lat="44.48851" lon="-1.089">
        <ele>18</ele>
        <time>2019-08-08T10:40:40Z</time>
      </trkpt>
      <trkpt lat="44.48852" lon="-1.08905">
        <ele>18</ele>
        <time>2019-08-08T10:40:45Z</time>
      </trkpt>
      <trkpt lat="44.48855" lon="-1.08911">
        <ele>18</ele>
        <time>2019-08-08T10:40:50Z</time>
      </trkpt>
      <trkpt lat="44.4886" lon="-1.08915">
        <ele>18</ele>
        <time>2019-08-08T10:40:55Z</time>
      </trkpt>
      <trkpt lat="44.48866" lon="-1.08919">
        <ele>18</ele>
        <time>2019-08-08T10:41:00Z</time>
      </trkpt>
      <trkpt lat="44.48873" lon="-1.08924">
        <ele>18</ele>
        <time>2019-08-08T10:41:05Z</time>
      </trkpt>
      <trkpt lat="44.48882" lon="-1.08929">
        <ele>18</ele>
        <time>2019-08-08T10:41:10Z</time>
      </trkpt>
      <trkpt lat="44.48891" lon="-1.08935">
        <ele>18</ele>
        <time>2019-08-08T10:41:15Z</time>
      </trkpt>
      <trkpt lat="44.4891" lon="-1.08949">
        <ele>18</ele>
        <time>2019-08-08T10:41:25Z</time>
      </trkpt>
      <trkpt lat="44.48919" lon="-1.08956">
        <ele>18</ele>
        <time>2019-08-08T10:41:30Z</time>
      </trkpt>
      <trkpt lat="44.48928" lon="-1.08963">
        <ele>18</ele>
        <time>2019-08-08T10:41:35Z</time>
      </trkpt>
      <trkpt lat="44.48936" lon="-1.0897">
        <ele>18</ele>
        <time>2019-08-08T10:41:40Z</time>
      </trkpt>
      <trkpt lat="44.48945" lon="-1.08978">
        <ele>18</ele>
        <time>2019-08-08T10:41:45Z</time>
      </trkpt>
      <trkpt lat="44.48953" lon="-1.08985">
        <ele>18</ele>
        <time>2019-08-08T10:41:50Z</time>
      </trkpt>
      <trkpt lat="44.4896" lon="-1.08994">
        <ele>18</ele>
        <time>2019-08-08T10:41:55Z</time>
      </trkpt>
      <trkpt lat="44.48969" lon="-1.09003">
        <ele>18</ele>
        <time>2019-08-08T10:42:00Z</time>
      </trkpt>
      <trkpt lat="44.48985" lon="-1.09022">
        <ele>18</ele>
        <time>2019-08-08T10:42:10Z</time>
      </trkpt>
      <trkpt lat="44.48994" lon="-1.09031">
        <ele>18</ele>
        <time>2019-08-08T10:42:15Z</time>
      </trkpt>
      <trkpt lat="44.49002" lon="-1.09041">
        <ele>18</ele>
        <time>2019-08-08T10:42:20Z</time>
      </trkpt>
      <trkpt lat="44.4901" lon="-1.09049">
        <ele>18</ele>
        <time>2019-08-08T10:42:25Z</time>
      </trkpt>
      <trkpt lat="44.49019" lon="-1.09058">
        <ele>18</ele>
        <time>2019-08-08T10:42:30Z</time>
      </trkpt>
      <trkpt lat="44.49027" lon="-1.09064">
        <ele>18</ele>
        <time>2019-08-08T10:42:35Z</time>
      </trkpt>
      <trkpt lat="44.49035" lon="-1.0907">
        <ele>18</ele>
        <time>2019-08-08T10:42:40Z</time>
      </trkpt>
      <trkpt lat="44.49044" lon="-1.09078">
        <ele>18</ele>
        <time>2019-08-08T10:42:45Z</time>
      </trkpt>
      <trkpt lat="44.49053" lon="-1.09085">
        <ele>18</ele>
        <time>2019-08-08T10:42:50Z</time>
      </trkpt>
      <trkpt lat="44.49072" lon="-1.09102">
        <ele>18</ele>
        <time>2019-08-08T10:43:00Z</time>
      </trkpt>
      <trkpt lat="44.4908" lon="-1.09109">
        <ele>18</ele>
        <time>2019-08-08T10:43:05Z</time>
      </trkpt>
      <trkpt lat="44.49088" lon="-1.09115">
        <ele>18</ele>
        <time>2019-08-08T10:43:10Z</time>
      </trkpt>
      <trkpt lat="44.49096" lon="-1.09119">
        <ele>18</ele>
        <time>2019-08-08T10:43:15Z</time>
      </trkpt>
      <trkpt lat="44.49103" lon="-1.09124">
        <ele>18</ele>
        <time>2019-08-08T10:43:20Z</time>
      </trkpt>
      <trkpt lat="44.49103" lon="-1.0913">
        <ele>18</ele>
        <time>2019-08-08T10:43:25Z</time>
      </trkpt>
      <trkpt lat="44.49101" lon="-1.09133">
        <ele>18</ele>
        <time>2019-08-08T10:43:30Z</time>
      </trkpt>
      <trkpt lat="44.49098" lon="-1.09139">
        <ele>18</ele>
        <time>2019-08-08T10:43:35Z</time>
      </trkpt>
      <trkpt lat="44.49091" lon="-1.09143">
        <ele>18</ele>
        <time>2019-08-08T10:43:45Z</time>
      </trkpt>
      <trkpt lat="44.49085" lon="-1.09146">
        <ele>18</ele>
        <time>2019-08-08T10:43:50Z</time>
      </trkpt>
      <trkpt lat="44.49079" lon="-1.0915">
        <ele>18</ele>
        <time>2019-08-08T10:43:55Z</time>
      </trkpt>
      <trkpt lat="44.49072" lon="-1.09153">
        <ele>18</ele>
        <time>2019-08-08T10:44:00Z</time>
      </trkpt>
      <trkpt lat="44.49066" lon="-1.09157">
        <ele>18</ele>
        <time>2019-08-08T10:44:05Z</time>
      </trkpt>
      <trkpt lat="44.4906" lon="-1.0916">
        <ele>18</ele>
        <time>2019-08-08T10:44:10Z</time>
      </trkpt>
      <trkpt lat="44.49054" lon="-1.09163">
        <ele>18</ele>
        <time>2019-08-08T10:44:15Z</time>
      </trkpt>
      <trkpt lat="44.49048" lon="-1.09166">
        <ele>18</ele>
        <time>2019-08-08T10:44:20Z</time>
      </trkpt>
      <trkpt lat="44.49042" lon="-1.0917">
        <ele>18</ele>
        <time>2019-08-08T10:44:25Z</time>
      </trkpt>
      <trkpt lat="44.49028" lon="-1.09177">
        <ele>18</ele>
        <time>2019-08-08T10:44:35Z</time>
      </trkpt>
      <trkpt lat="44.49021" lon="-1.0918">
        <ele>18</ele>
        <time>2019-08-08T10:44:40Z</time>
      </trkpt>
      <trkpt lat="44.49014" lon="-1.09184">
        <ele>18</ele>
        <time>2019-08-08T10:44:45Z</time>
      </trkpt>
      <trkpt lat="44.49006" lon="-1.09188">
        <ele>18</ele>
        <time>2019-08-08T10:44:50Z</time>
      </trkpt>
      <trkpt lat="44.48999" lon="-1.09191">
        <ele>18</ele>
        <time>2019-08-08T10:44:55Z</time>
      </trkpt>
      <trkpt lat="44.48991" lon="-1.09195">
        <ele>18</ele>
        <time>2019-08-08T10:45:00Z</time>
      </trkpt>
      <trkpt lat="44.48983" lon="-1.09199">
        <ele>18</ele>
        <time>2019-08-08T10:45:05Z</time>
      </trkpt>
      <trkpt lat="44.48977" lon="-1.09205">
        <ele>18</ele>
        <time>2019-08-08T10:45:10Z</time>
      </trkpt>
      <trkpt lat="44.48962" lon="-1.09215">
        <ele>18</ele>
        <time>2019-08-08T10:45:20Z</time>
      </trkpt>
      <trkpt lat="44.48954" lon="-1.09218">
        <ele>18</ele>
        <time>2019-08-08T10:45:25Z</time>
      </trkpt>
      <trkpt lat="44.48947" lon="-1.09224">
        <ele>18</ele>
        <time>2019-08-08T10:45:30Z</time>
      </trkpt>
      <trkpt lat="44.4894" lon="-1.09227">
        <ele>18</ele>
        <time>2019-08-08T10:45:35Z</time>
      </trkpt>
      <trkpt lat="44.48933" lon="-1.0923">
        <ele>18</ele>
        <time>2019-08-08T10:45:40Z</time>
      </trkpt>
      <trkpt lat="44.48924" lon="-1.09232">
        <ele>18</ele>
        <time>2019-08-08T10:45:45Z</time>
      </trkpt>
      <trkpt lat="44.48915" lon="-1.09235">
        <ele>18</ele>
        <time>2019-08-08T10:45:50Z</time>
      </trkpt>
      <trkpt lat="44.48905" lon="-1.09238">
        <ele>18</ele>
        <time>2019-08-08T10:45:55Z</time>
      </trkpt>
      <trkpt lat="44.48896" lon="-1.09241">
        <ele>18</ele>
        <time>2019-08-08T10:46:00Z</time>
      </trkpt>
      <trkpt lat="44.48878" lon="-1.09244">
        <ele>18</ele>
        <time>2019-08-08T10:46:10Z</time>
      </trkpt>
      <trkpt lat="44.48869" lon="-1.09246">
        <ele>18</ele>
        <time>2019-08-08T10:46:15Z</time>
      </trkpt>
      <trkpt lat="44.4886" lon="-1.09248">
        <ele>18</ele>
        <time>2019-08-08T10:46:20Z</time>
      </trkpt>
      <trkpt lat="44.48858" lon="-1.09254">
        <ele>18</ele>
        <time>2019-08-08T10:46:25Z</time>
      </trkpt>
      <trkpt lat="44.48859" lon="-1.09258">
        <ele>18</ele>
        <time>2019-08-08T10:46:30Z</time>
      </trkpt>
      <trkpt lat="44.48862" lon="-1.09261">
        <ele>18</ele>
        <time>2019-08-08T10:46:35Z</time>
      </trkpt>
      <trkpt lat="44.48866" lon="-1.09266">
        <ele>18</ele>
        <time>2019-08-08T10:46:40Z</time>
      </trkpt>
      <trkpt lat="44.48872" lon="-1.09273">
        <ele>18</ele>
        <time>2019-08-08T10:46:45Z</time>
      </trkpt>
      <trkpt lat="44.4889" lon="-1.09285">
        <ele>18</ele>
        <time>2019-08-08T10:46:55Z</time>
      </trkpt>
      <trkpt lat="44.48899" lon="-1.09293">
        <ele>18</ele>
        <time>2019-08-08T10:47:00Z</time>
      </trkpt>
      <trkpt lat="44.48908" lon="-1.09302">
        <ele>18</ele>
        <time>2019-08-08T10:47:05Z</time>
      </trkpt>
      <trkpt lat="44.48918" lon="-1.09311">
        <ele>18</ele>
        <time>2019-08-08T10:47:10Z</time>
      </trkpt>
      <trkpt lat="44.48926" lon="-1.0932">
        <ele>18</ele>
        <time>2019-08-08T10:47:15Z</time>
      </trkpt>
      <trkpt lat="44.48935" lon="-1.09331">
        <ele>18</ele>
        <time>2019-08-08T10:47:20Z</time>
      </trkpt>
      <trkpt lat="44.48944" lon="-1.0934">
        <ele>18</ele>
        <time>2019-08-08T10:47:25Z</time>
      </trkpt>
      <trkpt lat="44.48952" lon="-1.09346">
        <ele>18</ele>
        <time>2019-08-08T10:47:30Z</time>
      </trkpt>
      <trkpt lat="44.48969" lon="-1.09355">
        <ele>18</ele>
        <time>2019-08-08T10:47:40Z</time>
      </trkpt>
      <trkpt lat="44.48976" lon="-1.09358">
        <ele>18</ele>
        <time>2019-08-08T10:47:45Z</time>
      </trkpt>
      <trkpt lat="44.48984" lon="-1.09361">
        <ele>18</ele>
        <time>2019-08-08T10:47:50Z</time>
      </trkpt>
      <trkpt lat="44.48992" lon="-1.09365">
        <ele>18</ele>
        <time>2019-08-08T10:47:55Z</time>
      </trkpt>
      <trkpt lat="44.49" lon="-1.09368">
        <ele>18</ele>
        <time>2019-08-08T10:48:00Z</time>
      </trkpt>
      <trkpt lat="44.49008" lon="-1.09371">
        <ele>18</ele>
        <time>2019-08-08T10:48:05Z</time>
      </trkpt>
      <trkpt lat="44.49016" lon="-1.09374">
        <ele>18</ele>
        <time>2019-08-08T10:48:10Z</time>
      </trkpt>
      <trkpt lat="44.49025" lon="-1.09376">
        <ele>18</ele>
        <time>2019-08-08T10:48:15Z</time>
      </trkpt>
      <trkpt lat="44.49036" lon="-1.09379">
        <ele>18</ele>
        <time>2019-08-08T10:48:20Z</time>
      </trkpt>
      <trkpt lat="44.49057" lon="-1.09384">
        <ele>18</ele>
        <time>2019-08-08T10:48:30Z</time>
      </trkpt>
      <trkpt lat="44.49067" lon="-1.09389">
        <ele>18</ele>
        <time>2019-08-08T10:48:35Z</time>
      </trkpt>
      <trkpt lat="44.49077" lon="-1.09394">
        <ele>18</ele>
        <time>2019-08-08T10:48:40Z</time>
      </trkpt>
      <trkpt lat="44.49086" lon="-1.094">
        <ele>18</ele>
        <time>2019-08-08T10:48:45Z</time>
      </trkpt>
      <trkpt lat="44.49094" lon="-1.09405">
        <ele>18</ele>
        <time>2019-08-08T10:48:50Z</time>
      </trkpt>
      <trkpt lat="44.49102" lon="-1.0941">
        <ele>18</ele>
        <time>2019-08-08T10:48:55Z</time>
      </trkpt>
      <trkpt lat="44.4911" lon="-1.09415">
        <ele>18</ele>
        <time>2019-08-08T10:49:00Z</time>
      </trkpt>
      <trkpt lat="44.49119" lon="-1.09421">
        <ele>18</ele>
        <time>2019-08-08T10:49:05Z</time>
      </trkpt>
      <trkpt lat="44.49136" lon="-1.09437">
        <ele>18</ele>
        <time>2019-08-08T10:49:15Z</time>
      </trkpt>
      <trkpt lat="44.49144" lon="-1.09448">
        <ele>18</ele>
        <time>2019-08-08T10:49:20Z</time>
      </trkpt>
      <trkpt lat="44.49152" lon="-1.09456">
        <ele>18</ele>
        <time>2019-08-08T10:49:25Z</time>
      </trkpt>
      <trkpt lat="44.49159" lon="-1.09465">
        <ele>18</ele>
        <time>2019-08-08T10:49:30Z</time>
      </trkpt>
      <trkpt lat="44.49166" lon="-1.09473">
        <ele>18</ele>
        <time>2019-08-08T10:49:35Z</time>
      </trkpt>
      <trkpt lat="44.49174" lon="-1.0948">
        <ele>18</ele>
        <time>2019-08-08T10:49:40Z</time>
      </trkpt>
      <trkpt lat="44.4918" lon="-1.09488">
        <ele>18</ele>
        <time>2019-08-08T10:49:45Z</time>
      </trkpt>
      <trkpt lat="44.4918" lon="-1.09493">
        <ele>18</ele>
        <time>2019-08-08T10:49:50Z</time>
      </trkpt>
      <trkpt lat="44.49177" lon="-1.09496">
        <ele>18</ele>
        <time>2019-08-08T10:49:55Z</time>
      </trkpt>
      <trkpt lat="44.49164" lon="-1.09505">
        <ele>18</ele>
        <time>2019-08-08T10:50:05Z</time>
      </trkpt>
      <trkpt lat="44.49157" lon="-1.09509">
        <ele>18</ele>
        <time>2019-08-08T10:50:10Z</time>
      </trkpt>
      <trkpt lat="44.4915" lon="-1.09513">
        <ele>18</ele>
        <time>2019-08-08T10:50:15Z</time>
      </trkpt>
      <trkpt lat="44.49143" lon="-1.09516">
        <ele>18</ele>
        <time>2019-08-08T10:50:20Z</time>
      </trkpt>
      <trkpt lat="44.49135" lon="-1.09518">
        <ele>18</ele>
        <time>2019-08-08T10:50:25Z</time>
      </trkpt>
      <trkpt lat="44.49128" lon="-1.09519">
        <ele>18</ele>
        <time>2019-08-08T10:50:30Z</time>
      </trkpt>
      <trkpt lat="44.49121" lon="-1.09519">
        <ele>18</ele>
        <time>2019-08-08T10:50:35Z</time>
      </trkpt>
      <trkpt lat="44.49115" lon="-1.09518">
        <ele>18</ele>
        <time>2019-08-08T10:50:40Z</time>
      </trkpt>
      <trkpt lat="44.49103" lon="-1.09515">
        <ele>18</ele>
        <time>2019-08-08T10:50:50Z</time>
      </trkpt>
      <trkpt lat="44.49096" lon="-1.09515">
        <ele>18</ele>
        <time>2019-08-08T10:50:55Z</time>
      </trkpt>
      <trkpt lat="44.4909" lon="-1.09515">
        <ele>18</ele>
        <time>2019-08-08T10:51:00Z</time>
      </trkpt>
      <trkpt lat="44.49084" lon="-1.09514">
        <ele>18</ele>
        <time>2019-08-08T10:51:05Z</time>
      </trkpt>
      <trkpt lat="44.49078" lon="-1.09514">
        <ele>18</ele>
        <time>2019-08-08T10:51:10Z</time>
      </trkpt>
      <trkpt lat="44.49071" lon="-1.09515">
        <ele>18</ele>
        <time>2019-08-08T10:51:15Z</time>
      </trkpt>
      <trkpt lat="44.49066" lon="-1.09516">
        <ele>18</ele>
        <time>2019-08-08T10:51:20Z</time>
      </trkpt>
      <trkpt lat="44.49061" lon="-1.09518">
        <ele>18</ele>
        <time>2019-08-08T10:51:25Z</time>
      </trkpt>
      <trkpt lat="44.49055" lon="-1.0952">
        <ele>18</ele>
        <time>2019-08-08T10:51:30Z</time>
      </trkpt>
      <trkpt lat="44.49042" lon="-1.09525">
        <ele>18</ele>
        <time>2019-08-08T10:51:40Z</time>
      </trkpt>
      <trkpt lat="44.49037" lon="-1.09527">
        <ele>18</ele>
        <time>2019-08-08T10:51:45Z</time>
      </trkpt>
      <trkpt lat="44.49032" lon="-1.09529">
        <ele>18</ele>
        <time>2019-08-08T10:51:50Z</time>
      </trkpt>
      <trkpt lat="44.49027" lon="-1.09533">
        <ele>18</ele>
        <time>2019-08-08T10:51:55Z</time>
      </trkpt>
      <trkpt lat="44.49023" lon="-1.09535">
        <ele>18</ele>
        <time>2019-08-08T10:52:00Z</time>
      </trkpt>
      <trkpt lat="44.49019" lon="-1.09537">
        <ele>18</ele>
        <time>2019-08-08T10:52:05Z</time>
      </trkpt>
      <trkpt lat="44.49014" lon="-1.09538">
        <ele>18</ele>
        <time>2019-08-08T10:52:10Z</time>
      </trkpt>
      <trkpt lat="44.49009" lon="-1.09539">
        <ele>18</ele>
        <time>2019-08-08T10:52:15Z</time>
      </trkpt>
      <trkpt lat="44.48999" lon="-1.09542">
        <ele>18</ele>
        <time>2019-08-08T10:52:25Z</time>
      </trkpt>
      <trkpt lat="44.48994" lon="-1.09543">
        <ele>18</ele>
        <time>2019-08-08T10:52:30Z</time>
      </trkpt>
      <trkpt lat="44.48989" lon="-1.09546">
        <ele>18</ele>
        <time>2019-08-08T10:52:35Z</time>
      </trkpt>
      <trkpt lat="44.48983" lon="-1.0955">
        <ele>18</ele>
        <time>2019-08-08T10:52:40Z</time>
      </trkpt>
      <trkpt lat="44.48979" lon="-1.09552">
        <ele>18</ele>
        <time>2019-08-08T10:52:45Z</time>
      </trkpt>
      <trkpt lat="44.48974" lon="-1.09555">
        <ele>18</ele>
        <time>2019-08-08T10:52:50Z</time>
      </trkpt>
      <trkpt lat="44.48969" lon="-1.09558">
        <ele>18</ele>
        <time>2019-08-08T10:52:55Z</time>
      </trkpt>
      <trkpt lat="44.48964" lon="-1.09561">
        <ele>18</ele>
        <time>2019-08-08T10:53:00Z</time>
      </trkpt>
      <trkpt lat="44.48959" lon="-1.09565">
        <ele>18</ele>
        <time>2019-08-08T10:53:05Z</time>
      </trkpt>
      <trkpt lat="44.48947" lon="-1.0957">
        <ele>18</ele>
        <time>2019-08-08T10:53:15Z</time>
      </trkpt>
      <trkpt lat="44.4894" lon="-1.09574">
        <ele>18</ele>
        <time>2019-08-08T10:53:20Z</time>
      </trkpt>
      <trkpt lat="44.48934" lon="-1.09577">
        <ele>18</ele>
        <time>2019-08-08T10:53:25Z</time>
      </trkpt>
      <trkpt lat="44.48927" lon="-1.0958">
        <ele>18</ele>
        <time>2019-08-08T10:53:30Z</time>
      </trkpt>
      <trkpt lat="44.4892" lon="-1.09582">
        <ele>18</ele>
        <time>2019-08-08T10:53:35Z</time>
      </trkpt>
      <trkpt lat="44.48913" lon="-1.09584">
        <ele>18</ele>
        <time>2019-08-08T10:53:40Z</time>
      </trkpt>
      <trkpt lat="44.48906" lon="-1.09587">
        <ele>18</ele>
        <time>2019-08-08T10:53:45Z</time>
      </trkpt>
      <trkpt lat="44.48897" lon="-1.09589">
        <ele>18</ele>
        <time>2019-08-08T10:53:50Z</time>
      </trkpt>
      <trkpt lat="44.48883" lon="-1.09594">
        <ele>18</ele>
        <time>2019-08-08T10:54:00Z</time>
      </trkpt>
      <trkpt lat="44.48876" lon="-1.09597">
        <ele>18</ele>
        <time>2019-08-08T10:54:05Z</time>
      </trkpt>
      <trkpt lat="44.48869" lon="-1.096">
        <ele>18</ele>
        <time>2019-08-08T10:54:10Z</time>
      </trkpt>
      <trkpt lat="44.48862" lon="-1.09604">
        <ele>18</ele>
        <time>2019-08-08T10:54:15Z</time>
      </trkpt>
      <trkpt lat="44.48856" lon="-1.09607">
        <ele>18</ele>
        <time>2019-08-08T10:54:20Z</time>
      </trkpt>
      <trkpt lat="44.48848" lon="-1.09613">
        <ele>18</ele>
        <time>2019-08-08T10:54:25Z</time>
      </trkpt>
      <trkpt lat="44.48842" lon="-1.09617">
        <ele>18</ele>
        <time>2019-08-08T10:54:30Z</time>
      </trkpt>
      <trkpt lat="44.48835" lon="-1.09621">
        <ele>18</ele>
        <time>2019-08-08T10:54:35Z</time>
      </trkpt>
      <trkpt lat="44.48828" lon="-1.09624">
        <ele>18</ele>
        <time>2019-08-08T10:54:40Z</time>
      </trkpt>
      <trkpt lat="44.48816" lon="-1.09631">
        <ele>18</ele>
        <time>2019-08-08T10:54:50Z</time>
      </trkpt>
      <trkpt lat="44.4881" lon="-1.09634">
        <ele>18</ele>
        <time>2019-08-08T10:54:55Z</time>
      </trkpt>
      <trkpt lat="44.48804" lon="-1.09639">
        <ele>18</ele>
        <time>2019-08-08T10:55:00Z</time>
      </trkpt>
      <trkpt lat="44.48797" lon="-1.09643">
        <ele>18</ele>
        <time>2019-08-08T10:55:05Z</time>
      </trkpt>
      <trkpt lat="44.48793" lon="-1.09648">
        <ele>18</ele>
        <time>2019-08-08T10:55:10Z</time>
      </trkpt>
      <trkpt lat="44.48792" lon="-1.09652">
        <ele>18</ele>
        <time>2019-08-08T10:55:15Z</time>
      </trkpt>
      <trkpt lat="44.48793" lon="-1.09658">
        <ele>18</ele>
        <time>2019-08-08T10:55:20Z</time>
      </trkpt>
      <trkpt lat="44.48796" lon="-1.09661">
        <ele>18</ele>
        <time>2019-08-08T10:55:25Z</time>
      </trkpt>
      <trkpt lat="44.48804" lon="-1.09665">
        <ele>18</ele>
        <time>2019-08-08T10:55:35Z</time>
      </trkpt>
      <trkpt lat="44.48808" lon="-1.09666">
        <ele>18</ele>
        <time>2019-08-08T10:55:40Z</time>
      </trkpt>
      <trkpt lat="44.48814" lon="-1.09665">
        <ele>18</ele>
        <time>2019-08-08T10:55:45Z</time>
      </trkpt>
      <trkpt lat="44.48819" lon="-1.09665">
        <ele>18</ele>
        <time>2019-08-08T10:55:50Z</time>
      </trkpt>
      <trkpt lat="44.48823" lon="-1.09665">
        <ele>18</ele>
        <time>2019-08-08T10:55:55Z</time>
      </trkpt>
      <trkpt lat="44.48828" lon="-1.09665">
        <ele>18</ele>
        <time>2019-08-08T10:56:00Z</time>
      </trkpt>
      <trkpt lat="44.48833" lon="-1.09665">
        <ele>18</ele>
        <time>2019-08-08T10:56:05Z</time>
      </trkpt>
      <trkpt lat="44.48838" lon="-1.09665">
        <ele>18</ele>
        <time>2019-08-08T10:56:10Z</time>
      </trkpt>
      <trkpt lat="44.48842" lon="-1.09666">
        <ele>18</ele>
        <time>2019-08-08T10:56:15Z</time>
      </trkpt>
      <trkpt lat="44.4885" lon="-1.09666">
        <ele>18</ele>
        <time>2019-08-08T10:56:25Z</time>
      </trkpt>
      <trkpt lat="44.48854" lon="-1.09666">
        <ele>18</ele>
        <time>2019-08-08T10:56:30Z</time>
      </trkpt>
      <trkpt lat="44.48859" lon="-1.09665">
        <ele>18</ele>
        <time>2019-08-08T10:56:35Z</time>
      </trkpt>
      <trkpt lat="44.48862" lon="-1.09667">
        <ele>18</ele>
        <time>2019-08-08T10:56:40Z</time>
      </trkpt>
      <trkpt lat="44.48866" lon="-1.09668">
        <ele>18</ele>
        <time>2019-08-08T10:56:45Z</time>
      </trkpt>
      <trkpt lat="44.48869" lon="-1.0967">
        <ele>18</ele>
        <time>2019-08-08T10:56:50Z</time>
      </trkpt>
      <trkpt lat="44.48873" lon="-1.09672">
        <ele>18</ele>
        <time>2019-08-08T10:56:55Z</time>
      </trkpt>
      <trkpt lat="44.48878" lon="-1.09674">
        <ele>18</ele>
        <time>2019-08-08T10:57:00Z</time>
      </trkpt>
      <trkpt lat="44.48888" lon="-1.09679">
        <ele>18</ele>
        <time>2019-08-08T10:57:10Z</time>
      </trkpt>
      <trkpt lat="44.48893" lon="-1.09682">
        <ele>18</ele>
        <time>2019-08-08T10:57:15Z</time>
      </trkpt>
      <trkpt lat="44.48898" lon="-1.09686">
        <ele>18</ele>
        <time>2019-08-08T10:57:20Z</time>
      </trkpt>
      <trkpt lat="44.48904" lon="-1.09691">
        <ele>18</ele>
        <time>2019-08-08T10:57:25Z</time>
      </trkpt>
      <trkpt lat="44.48909" lon="-1.09696">
        <ele>18</ele>
        <time>2019-08-08T10:57:30Z</time>
      </trkpt>
      <trkpt lat="44.48914" lon="-1.09701">
        <ele>18</ele>
        <time>2019-08-08T10:57:35Z</time>
      </trkpt>
      <trkpt lat="44.4892" lon="-1.09705">
        <ele>18</ele>
        <time>2019-08-08T10:57:40Z</time>
      </trkpt>
      <trkpt lat="44.48927" lon="-1.09709">
        <ele>18</ele>
        <time>2019-08-08T10:57:45Z</time>
      </trkpt>
      <trkpt lat="44.48933" lon="-1.09713">
        <ele>18</ele>
        <time>2019-08-08T10:57:50Z</time>
      </trkpt>
      <trkpt lat="44.48947" lon="-1.09722">
        <ele>18</ele>
        <time>2019-08-08T10:58:00Z</time>
      </trkpt>
      <trkpt lat="44.48954" lon="-1.09725">
        <ele>18</ele>
        <time>2019-08-08T10:58:05Z</time>
      </trkpt>
      <trkpt lat="44.48961" lon="-1.09727">
        <ele>18</ele>
        <time>2019-08-08T10:58:10Z</time>
      </trkpt>
      <trkpt lat="44.48967" lon="-1.09729">
        <ele>18</ele>
        <time>2019-08-08T10:58:15Z</time>
      </trkpt>
      <trkpt lat="44.48973" lon="-1.09731">
        <ele>18</ele>
        <time>2019-08-08T10:58:20Z</time>
      </trkpt>
      <trkpt lat="44.4898" lon="-1.09731">
        <ele>18</ele>
        <time>2019-08-08T10:58:25Z</time>
      </trkpt>
      <trkpt lat="44.48986" lon="-1.09731">
        <ele>18</ele>
        <time>2019-08-08T10:58:30Z</time>
      </trkpt>
      <trkpt lat="44.48992" lon="-1.09731">
        <ele>18</ele>
        <time>2019-08-08T10:58:35Z</time>
      </trkpt>
      <trkpt lat="44.49004" lon="-1.09733">
        <ele>18</ele>
        <time>2019-08-08T10:58:45Z</time>
      </trkpt>
      <trkpt lat="44.49011" lon="-1.09735">
        <ele>18</ele>
        <time>2019-08-08T10:58:50Z</time>
      </trkpt>
      <trkpt lat="44.49017" lon="-1.09738">
        <ele>18</ele>
        <time>2019-08-08T10:58:55Z</time>
      </trkpt>
      <trkpt lat="44.49023" lon="-1.0974">
        <ele>18</ele>
        <time>2019-08-08T10:59:00Z</time>
      </trkpt>
      <trkpt lat="44.4903" lon="-1.09743">
        <ele>18</ele>
        <time>2019-08-08T10:59:05Z</time>
      </trkpt>
      <trkpt lat="44.49037" lon="-1.09747">
        <ele>18</ele>
        <time>2019-08-08T10:59:10Z</time>
      </trkpt>
      <trkpt lat="44.49044" lon="-1.09752">
        <ele>18</ele>
        <time>2019-08-08T10:59:15Z</time>
      </trkpt>
      <trkpt lat="44.49051" lon="-1.09757">
        <ele>18</ele>
        <time>2019-08-08T10:59:20Z</time>
      </trkpt>
      <trkpt lat="44.49059" lon="-1.09766">
        <ele>18</ele>
        <time>2019-08-08T10:59:25Z</time>
      </trkpt>
      <trkpt lat="44.49075" lon="-1.09782">
        <ele>18</ele>
        <time>2019-08-08T10:59:35Z</time>
      </trkpt>
      <trkpt lat="44.49083" lon="-1.0979">
        <ele>18</ele>
        <time>2019-08-08T10:59:40Z</time>
      </trkpt>
      <trkpt lat="44.4909" lon="-1.09798">
        <ele>18</ele>
        <time>2019-08-08T10:59:45Z</time>
      </trkpt>
      <trkpt lat="44.49097" lon="-1.09806">
        <ele>18</ele>
        <time>2019-08-08T10:59:50Z</time>
      </trkpt>
      <trkpt lat="44.49103" lon="-1.09814">
        <ele>18</ele>
        <time>2019-08-08T10:59:55Z</time>
      </trkpt>
      <trkpt lat="44.4911" lon="-1.09821">
        <ele>18</ele>
        <time>2019-08-08T11:00:00Z</time>
      </trkpt>
      <trkpt lat="44.49118" lon="-1.09829">
        <ele>18</ele>
        <time>2019-08-08T11:00:05Z</time>
      </trkpt>
      <trkpt lat="44.49125" lon="-1.09837">
        <ele>18</ele>
        <time>2019-08-08T11:00:10Z</time>
      </trkpt>
      <trkpt lat="44.49139" lon="-1.09852">
        <ele>18</ele>
        <time>2019-08-08T11:00:20Z</time>
      </trkpt>
      <trkpt lat="44.49147" lon="-1.0986">
        <ele>18</ele>
        <time>2019-08-08T11:00:25Z</time>
      </trkpt>
      <trkpt lat="44.49154" lon="-1.09867">
        <ele>18</ele>
        <time>2019-08-08T11:00:30Z</time>
      </trkpt>
      <trkpt lat="44.49161" lon="-1.09875">
        <ele>18</ele>
        <time>2019-08-08T11:00:35Z</time>
      </trkpt>
      <trkpt lat="44.49167" lon="-1.09881">
        <ele>18</ele>
        <time>2019-08-08T11:00:40Z</time>
      </trkpt>
      <trkpt lat="44.49174" lon="-1.09885">
        <ele>18</ele>
        <time>2019-08-08T11:00:45Z</time>
      </trkpt>
      <trkpt lat="44.49182" lon="-1.0989">
        <ele>18</ele>
        <time>2019-08-08T11:00:50Z</time>
      </trkpt>
      <trkpt lat="44.49189" lon="-1.09893">
        <ele>18</ele>
        <time>2019-08-08T11:00:55Z</time>
      </trkpt>
      <trkpt lat="44.49192" lon="-1.09899">
        <ele>18</ele>
        <time>2019-08-08T11:01:00Z</time>
      </trkpt>
      <trkpt lat="44.4919" lon="-1.09906">
        <ele>18</ele>
        <time>2019-08-08T11:01:10Z</time>
      </trkpt>
      <trkpt lat="44.49186" lon="-1.09908">
        <ele>18</ele>
        <time>2019-08-08T11:01:15Z</time>
      </trkpt>
      <trkpt lat="44.49182" lon="-1.09908">
        <ele>18</ele>
        <time>2019-08-08T11:01:20Z</time>
      </trkpt>
      <trkpt lat="44.49177" lon="-1.0991">
        <ele>18</ele>
        <time>2019-08-08T11:01:25Z</time>
      </trkpt>
      <trkpt lat="44.49173" lon="-1.09911">
        <ele>18</ele>
        <time>2019-08-08T11:01:30Z</time>
      </trkpt>
      <trkpt lat="44.49168" lon="-1.09912">
        <ele>18</ele>
        <time>2019-08-08T11:01:35Z</time>
      </trkpt>
      <trkpt lat="44.49163" lon="-1.09914">
        <ele>18</ele>
        <time>2019-08-08T11:01:40Z</time>
      </trkpt>
      <trkpt lat="44.49157" lon="-1.09916">
        <ele>18</ele>
        <time>2019-08-08T11:01:45Z</time>
      </trkpt>
      <trkpt lat="44.49143" lon="-1.09924">
        <ele>18</ele>
        <time>2019-08-08T11:01:55Z</time>
      </trkpt>
      <trkpt lat="44.49136" lon="-1.0993">
        <ele>18</ele>
        <time>2019-08-08T11:02:00Z</time>
      </trkpt>
      <trkpt lat="44.4913" lon="-1.09935">
        <ele>18</ele>
        <time>2019-08-08T11:02:05Z</time>
      </trkpt>
      <trkpt lat="44.49123" lon="-1.09942">
        <ele>18</ele>
        <time>2019-08-08T11:02:10Z</time>
      </trkpt>
      <trkpt lat="44.49117" lon="-1.09947">
        <ele>18</ele>
        <time>2019-08-08T11:02:15Z</time>
      </trkpt>
      <trkpt lat="44.49111" lon="-1.09953">
        <ele>18</ele>
        <time>2019-08-08T11:02:20Z</time>
      </trkpt>
      <trkpt lat="44.49106" lon="-1.09958">
        <ele>18</ele>
        <time>2019-08-08T11:02:25Z</time>
      </trkpt>
      <trkpt lat="44.49101" lon="-1.09962">
        <ele>18</ele>
        <time>2019-08-08T11:02:30Z</time>
      </trkpt>
      <trkpt lat="44.49097" lon="-1.09965">
        <ele>18</ele>
        <time>2019-08-08T11:02:35Z</time>
      </trkpt>
      <trkpt lat="44.49088" lon="-1.09969">
        <ele>18</ele>
        <time>2019-08-08T11:02:45Z</time>
      </trkpt>
      <trkpt lat="44.49083" lon="-1.0997">
        <ele>18</ele>
        <time>2019-08-08T11:02:50Z</time>
      </trkpt>
      <trkpt lat="44.49078" lon="-1.09972">
        <ele>18</ele>
        <time>2019-08-08T11:02:55Z</time>
      </trkpt>
      <trkpt lat="44.49071" lon="-1.09974">
        <ele>18</ele>
        <time>2019-08-08T11:03:00Z</time>
      </trkpt>
      <trkpt lat="44.49064" lon="-1.09977">
        <ele>18</ele>
        <time>2019-08-08T11:03:05Z</time>
      </trkpt>
      <trkpt lat="44.49056" lon="-1.09981">
        <ele>18</ele>
        <time>2019-08-08T11:03:10Z</time>
      </trkpt>
      <trkpt lat="44.49049" lon="-1.09985">
        <ele>18</ele>
        <time>2019-08-08T11:03:15Z</time>
      </trkpt>
      <trkpt lat="44.49041" lon="-1.09989">
        <ele>18</ele>
        <time>2019-08-08T11:03:20Z</time>
      </trkpt>
      <trkpt lat="44.49025" lon="-1.09997">
        <ele>18</ele>
        <time>2019-08-08T11:03:30Z</time>
      </trkpt>
      <trkpt lat="44.49016" lon="-1.1">
        <ele>18</ele>
        <time>2019-08-08T11:03:35Z</time>
      </trkpt>
      <trkpt lat="44.49009" lon="-1.10005">
        <ele>18</ele>
        <time>2019-08-08T11:03:40Z</time>
      </trkpt>
      <trkpt lat="44.49001" lon="-1.1001">
        <ele>18</ele>
        <time>2019-08-08T11:03:45Z</time>
      </trkpt>
      <trkpt lat="44.48994" lon="-1.10014">
        <ele>18</ele>
        <time>2019-08-08T11:03:50Z</time>
      </trkpt>
      <trkpt lat="44.48987" lon="-1.10019">
        <ele>18</ele>
        <time>2019-08-08T11:03:55Z</time>
      </trkpt>
      <trkpt lat="44.4898" lon="-1.10024">
        <ele>18</ele>
        <time>2019-08-08T11:04:00Z</time>
      </trkpt>
      <trkpt lat="44.48974" lon="-1.10028">
        <ele>18</ele>
        <time>2019-08-08T11:04:05Z</time>
      </trkpt>
      <trkpt lat="44.48963" lon="-1.10035">
        <ele>18</ele>
        <time>2019-08-08T11:04:15Z</time>
      </trkpt>
      <trkpt lat="44.48958" lon="-1.10038">
        <ele>18</ele>
        <time>2019-08-08T11:04:20Z</time>
      </trkpt>
      <trkpt lat="44.48952" lon="-1.1004">
        <ele>18</ele>
        <time>2019-08-08T11:04:25Z</time>
      </trkpt>
      <trkpt lat="44.48947" lon="-1.10042">
        <ele>18</ele>
        <time>2019-08-08T11:04:30Z</time>
      </trkpt>
      <trkpt lat="44.48945" lon="-1.10046">
        <ele>18</ele>
        <time>2019-08-08T11:04:35Z</time>
      </trkpt>
      <trkpt lat="44.48945" lon="-1.1005">
        <ele>18</ele>
        <time>2019-08-08T11:04:40Z</time>
      </trkpt>
      <trkpt lat="44.48945" lon="-1.10054">
        <ele>18</ele>
        <time>2019-08-08T11:04:45Z</time>
      </trkpt>
      <trkpt lat="44.48947" lon="-1.10056">
        <ele>18</ele>
        <time>2019-08-08T11:04:50Z</time>
      </trkpt>
      <trkpt lat="44.48951" lon="-1.10059">
        <ele>18</ele>
        <time>2019-08-08T11:04:55Z</time>
      </trkpt>
      <trkpt lat="44.48958" lon="-1.10065">
        <ele>18</ele>
        <time>2019-08-08T11:05:05Z</time>
      </trkpt>
      <trkpt lat="44.48962" lon="-1.10068">
        <ele>18</ele>
        <time>2019-08-08T11:05:10Z</time>
      </trkpt>
      <trkpt lat="44.48966" lon="-1.10071">
        <ele>18</ele>
        <time>2019-08-08T11:05:15Z</time>
      </trkpt>
      <trkpt lat="44.48971" lon="-1.10074">
        <ele>18</ele>
        <time>2019-08-08T11:05:20Z</time>
      </trkpt>
      <trkpt lat="44.48977" lon="-1.10075">
        <ele>18</ele>
        <time>2019-08-08T11:05:25Z</time>
      </trkpt>
      <trkpt lat="44.48982" lon="-1.10076">
        <ele>18</ele>
        <time>2019-08-08T11:05:30Z</time>
      </trkpt>
      <trkpt lat="44.48989" lon="-1.10076">
        <ele>18</ele>
        <time>2019-08-08T11:05:35Z</time>
      </trkpt>
      <trkpt lat="44.48996" lon="-1.10076">
        <ele>18</ele>
        <time>2019-08-08T11:05:40Z</time>
      </trkpt>
      <trkpt lat="44.49012" lon="-1.10076">
        <ele>18</ele>
        <time>2019-08-08T11:05:50Z</time>
      </trkpt>
      <trkpt lat="44.49021" lon="-1.10075">
        <ele>18</ele>
        <time>2019-08-08T11:05:55Z</time>
      </trkpt>
      <trkpt lat="44.4903" lon="-1.10075">
        <ele>18</ele>
        <time>2019-08-08T11:06:00Z</time>
      </trkpt>
      <trkpt lat="44.49039" lon="-1.10077">
        <ele>18</ele>
        <time>2019-08-08T11:06:05Z</time>
      </trkpt>
      <trkpt lat="44.49047" lon="-1.10078">
        <ele>18</ele>
        <time>2019-08-08T11:06:10Z</time>
      </trkpt>
      <trkpt lat="44.49056" lon="-1.1008">
        <ele>18</ele>
        <time>2019-08-08T11:06:15Z</time>
      </trkpt>
      <trkpt lat="44.49065" lon="-1.10081">
        <ele>18</ele>
        <time>2019-08-08T11:06:20Z</time>
      </trkpt>
      <trkpt lat="44.49073" lon="-1.10082">
        <ele>18</ele>
        <time>2019-08-08T11:06:25Z</time>
      </trkpt>
      <trkpt lat="44.49081" lon="-1.10082">
        <ele>18</ele>
        <time>2019-08-08T11:06:30Z</time>
      </trkpt>
      <trkpt lat="44.49097" lon="-1.10084">
        <ele>18</ele>
        <time>2019-08-08T11:06:40Z</time>
      </trkpt>
      <trkpt lat="44.49105" lon="-1.10085">
        <ele>18</ele>
        <time>2019-08-08T11:06:45Z</time>
      </trkpt>
      <trkpt lat="44.49113" lon="-1.10086">
        <ele>18</ele>
        <time>2019-08-08T11:06:50Z</time>
      </trkpt>
      <trkpt lat="44.49121" lon="-1.10086">
        <ele>18</ele>
        <time>2019-08-08T11:06:55Z</time>
      </trkpt>
      <trkpt lat="44.4913" lon="-1.10086">
        <ele>18</ele>
        <time>2019-08-08T11:07:00Z</time>
      </trkpt>
      <trkpt lat="44.49137" lon="-1.10088">
        <ele>18</ele>
        <time>2019-08-08T11:07:05Z</time>
      </trkpt>
      <trkpt lat="44.49143" lon="-1.10092">
        <ele>18</ele>
        <time>2019-08-08T11:07:10Z</time>
      </trkpt>
      <trkpt lat="44.49149" lon="-1.10095">
        <ele>18</ele>
        <time>2019-08-08T11:07:15Z</time>
      </trkpt>
      <trkpt lat="44.49161" lon="-1.10102">
        <ele>18</ele>
        <time>2019-08-08T11:07:25Z</time>
      </trkpt>
      <trkpt lat="44.49167" lon="-1.10106">
        <ele>18</ele>
        <time>2019-08-08T11:07:30Z</time>
      </trkpt>
      <trkpt lat="44.49173" lon="-1.10111">
        <ele>18</ele>
        <time>2019-08-08T11:07:35Z</time>
      </trkpt>
      <trkpt lat="44.49179" lon="-1.10115">
        <ele>18</ele>
        <time>2019-08-08T11:07:40Z</time>
      </trkpt>
      <trkpt lat="44.49185" lon="-1.10121">
        <ele>18</ele>
        <time>2019-08-08T11:07:45Z</time>
      </trkpt>
      <trkpt lat="44.49192" lon="-1.10126">
        <ele>18</ele>
        <time>2019-08-08T11:07:50Z</time>
      </trkpt>
      <trkpt lat="44.49198" lon="-1.10132">
        <ele>18</ele>
        <time>2019-08-08T11:07:55Z</time>
      </trkpt>
      <trkpt lat="44.49204" lon="-1.10138">
        <ele>18</ele>
        <time>2019-08-08T11:08:00Z</time>
      </trkpt>
      <trkpt lat="44.49211" lon="-1.10144">
        <ele>18</ele>
        <time>2019-08-08T11:08:05Z</time>
      </trkpt>
      <trkpt lat="44.49223" lon="-1.10155">
        <ele>18</ele>
        <time>2019-08-08T11:08:15Z</time>
      </trkpt>
      <trkpt lat="44.49229" lon="-1.10159">
        <ele>18</ele>
        <time>2019-08-08T11:08:20Z</time>
      </trkpt>
      <trkpt lat="44.49237" lon="-1.10164">
        <ele>18</ele>
        <time>2019-08-08T11:08:25Z</time>
      </trkpt>
      <trkpt lat="44.49244" lon="-1.10169">
        <ele>18</ele>
        <time>2019-08-08T11:08:30Z</time>
      </trkpt>
      <trkpt lat="44.49251" lon="-1.10175">
        <ele>18</ele>
        <time>2019-08-08T11:08:35Z</time>
      </trkpt>
      <trkpt lat="44.49258" lon="-1.1018">
        <ele>18</ele>
        <time>2019-08-08T11:08:40Z</time>
      </trkpt>
      <trkpt lat="44.49264" lon="-1.10185">
        <ele>18</ele>
        <time>2019-08-08T11:08:45Z</time>
      </trkpt>
      <trkpt lat="44.49272" lon="-1.10189">
        <ele>18</ele>
        <time>2019-08-08T11:08:50Z</time>
      </trkpt>
      <trkpt lat="44.49288" lon="-1.10201">
        <ele>18</ele>
        <time>2019-08-08T11:09:00Z</time>
      </trkpt>
      <trkpt lat="44.49296" lon="-1.10206">
        <ele>18</ele>
        <time>2019-08-08T11:09:05Z</time>
      </trkpt>
      <trkpt lat="44.49303" lon="-1.10208">
        <ele>18</ele>
        <time>2019-08-08T11:09:10Z</time>
      </trkpt>
      <trkpt lat="44.4931" lon="-1.1021">
        <ele>18</ele>
        <time>2019-08-08T11:09:15Z</time>
      </trkpt>
      <trkpt lat="44.49318" lon="-1.10211">
        <ele>18</ele>
        <time>2019-08-08T11:09:20Z</time>
      </trkpt>
      <trkpt lat="44.49325" lon="-1.10213">
        <ele>18</ele>
        <time>2019-08-08T11:09:25Z</time>
      </trkpt>
      <trkpt lat="44.49332" lon="-1.10214">
        <ele>18</ele>
        <time>2019-08-08T11:09:30Z</time>
      </trkpt>
      <trkpt lat="44.4934" lon="-1.10215">
        <ele>18</ele>
        <time>2019-08-08T11:09:35Z</time>
      </trkpt>
      <trkpt lat="44.49347" lon="-1.10217">
        <ele>18</ele>
        <time>2019-08-08T11:09:40Z</time>
      </trkpt>
      <trkpt lat="44.49362" lon="-1.10221">
        <ele>18</ele>
        <time>2019-08-08T11:09:50Z</time>
      </trkpt>
      <trkpt lat="44.4937" lon="-1.10222">
        <ele>18</ele>
        <time>2019-08-08T11:09:55Z</time>
      </trkpt>
      <trkpt lat="44.49378" lon="-1.10222">
        <ele>18</ele>
        <time>2019-08-08T11:10:00Z</time>
      </trkpt>
      <trkpt lat="44.49387" lon="-1.1022">
        <ele>18</ele>
        <time>2019-08-08T11:10:05Z</time>
      </trkpt>
      <trkpt lat="44.49396" lon="-1.1022">
        <ele>18</ele>
        <time>2019-08-08T11:10:10Z</time>
      </trkpt>
      <trkpt lat="44.49404" lon="-1.1022">
        <ele>18</ele>
        <time>2019-08-08T11:10:15Z</time>
      </trkpt>
      <trkpt lat="44.49412" lon="-1.10221">
        <ele>18</ele>
        <time>2019-08-08T11:10:20Z</time>
      </trkpt>
      <trkpt lat="44.49419" lon="-1.10221">
        <ele>18</ele>
        <time>2019-08-08T11:10:25Z</time>
      </trkpt>
      <trkpt lat="44.49434" lon="-1.10225">
        <ele>18</ele>
        <time>2019-08-08T11:10:35Z</time>
      </trkpt>
      <trkpt lat="44.4944" lon="-1.10227">
        <ele>18</ele>
        <time>2019-08-08T11:10:40Z</time>
      </trkpt>
      <trkpt lat="44.49443" lon="-1.10231">
        <ele>18</ele>
        <time>2019-08-08T11:10:45Z</time>
      </trkpt>
      <trkpt lat="44.49444" lon="-1.10234">
        <ele>18</ele>
        <time>2019-08-08T11:10:50Z</time>
      </trkpt>
      <trkpt lat="44.49443" lon="-1.10237">
        <ele>18</ele>
        <time>2019-08-08T11:10:55Z</time>
      </trkpt>
      <trkpt lat="44.49441" lon="-1.10238">
        <ele>18</ele>
        <time>2019-08-08T11:11:00Z</time>
      </trkpt>
      <trkpt lat="44.49438" lon="-1.10238">
        <ele>18</ele>
        <time>2019-08-08T11:11:05Z</time>
      </trkpt>
      <trkpt lat="44.49432" lon="-1.10235">
        <ele>18</ele>
        <time>2019-08-08T11:11:10Z</time>
      </trkpt>
      <trkpt lat="44.49425" lon="-1.10234">
        <ele>18</ele>
        <time>2019-08-08T11:11:15Z</time>
      </trkpt>
      <trkpt lat="44.4941" lon="-1.10232">
        <ele>18</ele>
        <time>2019-08-08T11:11:25Z</time>
      </trkpt>
      <trkpt lat="44.49403" lon="-1.10232">
        <ele>18</ele>
        <time>2019-08-08T11:11:30Z</time>
      </trkpt>
      <trkpt lat="44.49396" lon="-1.10231">
        <ele>18</ele>
        <time>2019-08-08T11:11:35Z</time>
      </trkpt>
      <trkpt lat="44.4939" lon="-1.1023">
        <ele>18</ele>
        <time>2019-08-08T11:11:40Z</time>
      </trkpt>
      <trkpt lat="44.49382" lon="-1.1023">
        <ele>18</ele>
        <time>2019-08-08T11:11:45Z</time>
      </trkpt>
      <trkpt lat="44.49374" lon="-1.10231">
        <ele>18</ele>
        <time>2019-08-08T11:11:50Z</time>
      </trkpt>
      <trkpt lat="44.49367" lon="-1.10232">
        <ele>18</ele>
        <time>2019-08-08T11:11:55Z</time>
      </trkpt>
      <trkpt lat="44.4936" lon="-1.10233">
        <ele>18</ele>
        <time>2019-08-08T11:12:00Z</time>
      </trkpt>
      <trkpt lat="44.49347" lon="-1.10231">
        <ele>18</ele>
        <time>2019-08-08T11:12:10Z</time>
      </trkpt>
      <trkpt lat="44.49339" lon="-1.10229">
        <ele>18</ele>
        <time>2019-08-08T11:12:15Z</time>
      </trkpt>
      <trkpt lat="44.49331" lon="-1.10227">
        <ele>18</ele>
        <time>2019-08-08T11:12:20Z</time>
      </trkpt>
      <trkpt lat="44.49323" lon="-1.10225">
        <ele>18</ele>
        <time>2019-08-08T11:12:25Z</time>
      </trkpt>
      <trkpt lat="44.49314" lon="-1.10224">
        <ele>18</ele>
        <time>2019-08-08T11:12:30Z</time>
      </trkpt>
      <trkpt lat="44.49307" lon="-1.10224">
        <ele>18</ele>
        <time>2019-08-08T11:12:35Z</time>
      </trkpt>
      <trkpt lat="44.49299" lon="-1.10223">
        <ele>18</ele>
        <time>2019-08-08T11:12:40Z</time>
      </trkpt>
      <trkpt lat="44.49292" lon="-1.10223">
        <ele>18</ele>
        <time>2019-08-08T11:12:45Z</time>
      </trkpt>
      <trkpt lat="44.49284" lon="-1.10223">
        <ele>18</ele>
        <time>2019-08-08T11:12:50Z</time>
      </trkpt>
      <trkpt lat="44.49269" lon="-1.10225">
        <ele>18</ele>
        <time>2019-08-08T11:13:00Z</time>
      </trkpt>
      <trkpt lat="44.49262" lon="-1.10225">
        <ele>18</ele>
        <time>2019-08-08T11:13:05Z</time>
      </trkpt>
      <trkpt lat="44.49256" lon="-1.10224">
        <ele>18</ele>
        <time>2019-08-08T11:13:10Z</time>
      </trkpt>
      <trkpt lat="44.4925" lon="-1.10221">
        <ele>18</ele>
        <time>2019-08-08T11:13:15Z</time>
      </trkpt>
      <trkpt lat="44.49243" lon="-1.10218">
        <ele>18</ele>
        <time>2019-08-08T11:13:20Z</time>
      </trkpt>
      <trkpt lat="44.49237" lon="-1.10216">
        <ele>18</ele>
        <time>2019-08-08T11:13:25Z</time>
      </trkpt>
      <trkpt lat="44.4923" lon="-1.10214">
        <ele>18</ele>
        <time>2019-08-08T11:13:30Z</time>
      </trkpt>
      <trkpt lat="44.49223" lon="-1.10211">
        <ele>18</ele>
        <time>2019-08-08T11:13:35Z</time>
      </trkpt>
      <trkpt lat="44.49209" lon="-1.10207">
        <ele>18</ele>
        <time>2019-08-08T11:13:45Z</time>
      </trkpt>
      <trkpt lat="44.49202" lon="-1.10205">
        <ele>18</ele>
        <time>2019-08-08T11:13:50Z</time>
      </trkpt>
      <trkpt lat="44.49195" lon="-1.10204">
        <ele>18</ele>
        <time>2019-08-08T11:13:55Z</time>
      </trkpt>
      <trkpt lat="44.49187" lon="-1.10203">
        <ele>18</ele>
        <time>2019-08-08T11:14:00Z</time>
      </trkpt>
      <trkpt lat="44.4918" lon="-1.10204">
        <ele>18</ele>
        <time>2019-08-08T11:14:05Z</time>
      </trkpt>
      <trkpt lat="44.49173" lon="-1.10205">
        <ele>18</ele>
        <time>2019-08-08T11:14:10Z</time>
      </trkpt>
      <trkpt lat="44.49166" lon="-1.10208">
        <ele>18</ele>
        <time>2019-08-08T11:14:15Z</time>
      </trkpt>
      <trkpt lat="44.49159" lon="-1.1021">
        <ele>18</ele>
        <time>2019-08-08T11:14:20Z</time>
      </trkpt>
      <trkpt lat="44.49152" lon="-1.10212">
        <ele>18</ele>
        <time>2019-08-08T11:14:25Z</time>
      </trkpt>
      <trkpt lat="44.49139" lon="-1.10216">
        <ele>18</ele>
        <time>2019-08-08T11:14:35Z</time>
      </trkpt>
      <trkpt lat="44.49132" lon="-1.10216">
        <ele>18</ele>
        <time>2019-08-08T11:14:40Z</time>
      </trkpt>
      <trkpt lat="44.49126" lon="-1.10214">
        <ele>18</ele>
        <time>2019-08-08T11:14:45Z</time>
      </trkpt>
      <trkpt lat="44.49119" lon="-1.1021">
        <ele>18</ele>
        <time>2019-08-08T11:14:50Z</time>
      </trkpt>
      <trkpt lat="44.49112" lon="-1.10206">
        <ele>18</ele>
        <time>2019-08-08T11:14:55Z</time>
      </trkpt>
      <trkpt lat="44.49105" lon="-1.10202">
        <ele>18</ele>
        <time>2019-08-08T11:15:00Z</time>
      </trkpt>
      <trkpt lat="44.49097" lon="-1.10197">
        <ele>18</ele>
        <time>2019-08-08T11:15:05Z</time>
      </trkpt>
      <trkpt lat="44.49089" lon="-1.10194">
        <ele>18</ele>
        <time>2019-08-08T11:15:10Z</time>
      </trkpt>
      <trkpt lat="44.49072" lon="-1.10186">
        <ele>18</ele>
        <time>2019-08-08T11:15:20Z</time>
      </trkpt>
      <trkpt lat="44.49064" lon="-1.10181">
        <ele>18</ele>
        <time>2019-08-08T11:15:25Z</time>
      </trkpt>
      <trkpt lat="44.49056" lon="-1.10176">
        <ele>18</ele>
        <time>2019-08-08T11:15:30Z</time>
      </trkpt>
      <trkpt lat="44.49049" lon="-1.10171">
        <ele>18</ele>
        <time>2019-08-08T11:15:35Z</time>
      </trkpt>
      <trkpt lat="44.49042" lon="-1.10166">
        <ele>18</ele>
        <time>2019-08-08T11:15:40Z</time>
      </trkpt>
      <trkpt lat="44.49036" lon="-1.1016">
        <ele>18</ele>
        <time>2019-08-08T11:15:45Z</time>
      </trkpt>
      <trkpt lat="44.49029" lon="-1.10158">
        <ele>18</ele>
        <time>2019-08-08T11:15:50Z</time>
      </trkpt>
      <trkpt lat="44.49025" lon="-1.10162">
        <ele>18</ele>
        <time>2019-08-08T11:15:55Z</time>
      </trkpt>
      <trkpt lat="44.49023" lon="-1.10165">
        <ele>18</ele>
        <time>2019-08-08T11:16:00Z</time>
      </trkpt>
      <trkpt lat="44.49023" lon="-1.10172">
        <ele>18</ele>
        <time>2019-08-08T11:16:10Z</time>
      </trkpt>
      <trkpt lat="44.49026" lon="-1.10174">
        <ele>18</ele>
        <time>2019-08-08T11:16:15Z</time>
      </trkpt>
      <trkpt lat="44.49029" lon="-1.10177">
        <ele>18</ele>
        <time>2019-08-08T11:16:20Z</time>
      </trkpt>
      <trkpt lat="44.49033" lon="-1.10181">
        <ele>18</ele>
        <time>2019-08-08T11:16:25Z</time>
      </trkpt>
      <trkpt lat="44.49037" lon="-1.10187">
        <ele>18</ele>
        <time>2019-08-08T11:16:30Z</time>
      </trkpt>
      <trkpt lat="44.49042" lon="-1.10193">
        <ele>18</ele>
        <time>2019-08-08T11:16:35Z</time>
      </trkpt>
      <trkpt lat="44.49047" lon="-1.10198">
        <ele>18</ele>
        <time>2019-08-08T11:16:40Z</time>
      </trkpt>
      <trkpt lat="44.49053" lon="-1.10202">
        <ele>18</ele>
        <time>2019-08-08T11:16:45Z</time>
      </trkpt>
      <trkpt lat="44.49065" lon="-1.1021">
        <ele>18</ele>
        <time>2019-08-08T11:16:55Z</time>
      </trkpt>
      <trkpt lat="44.49072" lon="-1.10214">
        <ele>18</ele>
        <time>2019-08-08T11:17:00Z</time>
      </trkpt>
      <trkpt lat="44.49077" lon="-1.10218">
        <ele>18</ele>
        <time>2019-08-08T11:17:05Z</time>
      </trkpt>
      <trkpt lat="44.49083" lon="-1.10221">
        <ele>18</ele>
        <time>2019-08-08T11:17:10Z</time>
      </trkpt>
      <trkpt lat="44.49088" lon="-1.10224">
        <ele>18</ele>
        <time>2019-08-08T11:17:15Z</time>
      </trkpt>
      <trkpt lat="44.49094" lon="-1.10226">
        <ele>18</ele>
        <time>2019-08-08T11:17:20Z</time>
      </trkpt>
      <trkpt lat="44.491" lon="-1.10228">
        <ele>18</ele>
        <time>2019-08-08T11:17:25Z</time>
      </trkpt>
      <trkpt lat="44.49107" lon="-1.10231">
        <ele>18</ele>
        <time>2019-08-08T11:17:30Z</time>
      </trkpt>
      <trkpt lat="44.49113" lon="-1.10234">
        <ele>18</ele>
        <time>2019-08-08T11:17:35Z</time>
      </trkpt>
      <trkpt lat="44.49127" lon="-1.10241">
        <ele>18</ele>
        <time>2019-08-08T11:17:45Z</time>
      </trkpt>
      <trkpt lat="44.49134" lon="-1.10244">
        <ele>18</ele>
        <time>2019-08-08T11:17:50Z</time>
      </trkpt>
      <trkpt lat="44.49142" lon="-1.10248">
        <ele>18</ele>
        <time>2019-08-08T11:17:55Z</time>
      </trkpt>
      <trkpt lat="44.49149" lon="-1.10251">
        <ele>18</ele>
        <time>2019-08-08T11:18:00Z</time>
      </trkpt>
      <trkpt lat="44.49157" lon="-1.10255">
        <ele>18</ele>
        <time>2019-08-08T11:18:05Z</time>
      </trkpt>
      <trkpt lat="44.49164" lon="-1.10258">
        <ele>18</ele>
        <time>2019-08-08T11:18:10Z</time>
      </trkpt>
      <trkpt lat="44.49171" lon="-1.10261">
        <ele>18</ele>
        <time>2019-08-08T11:18:15Z</time>
      </trkpt>
      <trkpt lat="44.49179" lon="-1.10265">
        <ele>18</ele>
        <time>2019-08-08T11:18:20Z</time>
      </trkpt>
      <trkpt lat="44.49193" lon="-1.1027">
        <ele>18</ele>
        <time>2019-08-08T11:18:30Z</time>
      </trkpt>
      <trkpt lat="44.49199" lon="-1.10272">
        <ele>18</ele>
        <time>2019-08-08T11:18:35Z</time>
      </trkpt>
      <trkpt lat="44.49206" lon="-1.10275">
        <ele>18</ele>
        <time>2019-08-08T11:18:40Z</time>
      </trkpt>
      <trkpt lat="44.49212" lon="-1.10279">
        <ele>18</ele>
        <time>2019-08-08T11:18:45Z</time>
      </trkpt>
      <trkpt lat="44.49218" lon="-1.10282">
        <ele>18</ele>
        <time>2019-08-08T11:18:50Z</time>
      </trkpt>
      <trkpt lat="44.49223" lon="-1.10286">
        <ele>18</ele>
        <time>2019-08-08T11:18:55Z</time>
      </trkpt>
      <trkpt lat="44.49228" lon="-1.1029">
        <ele>18</ele>
        <time>2019-08-08T11:19:00Z</time>
      </trkpt>
      <trkpt lat="44.49233" lon="-1.10295">
        <ele>18</ele>
        <time>2019-08-08T11:19:05Z</time>
      </trkpt>
      <trkpt lat="44.49242" lon="-1.10303">
        <ele>18</ele>
        <time>2019-08-08T11:19:15Z</time>
      </trkpt>
      <trkpt lat="44.49247" lon="-1.10308">
        <ele>18</ele>
        <time>2019-08-08T11:19:20Z</time>
      </trkpt>
      <trkpt lat="44.49253" lon="-1.10313">
        <ele>18</ele>
        <time>2019-08-08T11:19:25Z</time>
      </trkpt>
      <trkpt lat="44.4926" lon="-1.10319">
        <ele>18</ele>
        <time>2019-08-08T11:19:30Z</time>
      </trkpt>
      <trkpt lat="44.49267" lon="-1.10325">
        <ele>18</ele>
        <time>2019-08-08T11:19:35Z</time>
      </trkpt>
      <trkpt lat="44.49273" lon="-1.10333">
        <ele>18</ele>
        <time>2019-08-08T11:19:40Z</time>
      </trkpt>
      <trkpt lat="44.4928" lon="-1.10339">
        <ele>18</ele>
        <time>2019-08-08T11:19:45Z</time>
      </trkpt>
      <trkpt lat="44.49286" lon="-1.10346">
        <ele>18</ele>
        <time>2019-08-08T11:19:50Z</time>
      </trkpt>
      <trkpt lat="44.49292" lon="-1.10352">
        <ele>18</ele>
        <time>2019-08-08T11:19:55Z</time>
      </trkpt>
      <trkpt lat="44.49304" lon="-1.10363">
        <ele>18</ele>
        <time>2019-08-08T11:20:05Z</time>
      </trkpt>
      <trkpt lat="44.4931" lon="-1.10367">
        <ele>18</ele>
        <time>2019-08-08T11:20:10Z</time>
      </trkpt>
      <trkpt lat="44.49316" lon="-1.10373">
        <ele>18</ele>
        <time>2019-08-08T11:20:15Z</time>
      </trkpt>
      <trkpt lat="44.49321" lon="-1.10378">
        <ele>18</ele>
        <time>2019-08-08T11:20:20Z</time>
      </trkpt>
      <trkpt lat="44.49328" lon="-1.10384">
        <ele>18</ele>
        <time>2019-08-08T11:20:25Z</time>
      </trkpt>
      <trkpt lat="44.49334" lon="-1.1039">
        <ele>18</ele>
        <time>2019-08-08T11:20:30Z</time>
      </trkpt>
      <trkpt lat="44.4934" lon="-1.10397">
        <ele>18</ele>
        <time>2019-08-08T11:20:35Z</time>
      </trkpt>
      <trkpt lat="44.49346" lon="-1.10403">
        <ele>18</ele>
        <time>2019-08-08T11:20:40Z</time>
      </trkpt>
      <trkpt lat="44.49358" lon="-1.10414">
        <ele>18</ele>
        <time>2019-08-08T11:20:50Z</time>
      </trkpt>
      <trkpt lat="44.49364" lon="-1.1042">
        <ele>18</ele>
        <time>2019-08-08T11:20:55Z</time>
      </trkpt>
      <trkpt lat="44.4937" lon="-1.10425">
        <ele>18</ele>
        <time>2019-08-08T11:21:00Z</time>
      </trkpt>
      <trkpt lat="44.49375" lon="-1.1043">
        <ele>18</ele>
        <time>2019-08-08T11:21:05Z</time>
      </trkpt>
      <trkpt lat="44.49381" lon="-1.10434">
        <ele>18</ele>
        <time>2019-08-08T11:21:10Z</time>
      </trkpt>
      <trkpt lat="44.49387" lon="-1.10439">
        <ele>18</ele>
        <time>2019-08-08T11:21:15Z</time>
      </trkpt>
      <trkpt lat="44.49392" lon="-1.10443">
        <ele>18</ele>
        <time>2019-08-08T11:21:20Z</time>
      </trkpt>
      <trkpt lat="44.49398" lon="-1.10447">
        <ele>18</ele>
        <time>2019-08-08T11:21:25Z</time>
      </trkpt>
      <trkpt lat="44.49403" lon="-1.10451">
        <ele>18</ele>
        <time>2019-08-08T11:21:30Z</time>
      </trkpt>
      <trkpt lat="44.49413" lon="-1.10459">
        <ele>18</ele>
        <time>2019-08-08T11:21:40Z</time>
      </trkpt>
      <trkpt lat="44.49418" lon="-1.10462">
        <ele>18</ele>
        <time>2019-08-08T11:21:45Z</time>
      </trkpt>
      <trkpt lat="44.49422" lon="-1.10465">
        <ele>18</ele>
        <time>2019-08-08T11:21:50Z</time>
      </trkpt>
      <trkpt lat="44.49426" lon="-1.10467">
        <ele>18</ele>
        <time>2019-08-08T11:21:55Z</time>
      </trkpt>
      <trkpt lat="44.4943" lon="-1.10471">
        <ele>18</ele>
        <time>2019-08-08T11:22:00Z</time>
      </trkpt>
      <trkpt lat="44.49434" lon="-1.10474">
        <ele>18</ele>
        <time>2019-08-08T11:22:05Z</time>
      </trkpt>
      <trkpt lat="44.49438" lon="-1.10476">
        <ele>18</ele>
        <time>2019-08-08T11:22:10Z</time>
      </trkpt>
      <trkpt lat="44.49442" lon="-1.10479">
        <ele>18</ele>
        <time>2019-08-08T11:22:15Z</time>
      </trkpt>
      <trkpt lat="44.49449" lon="-1.10485">
        <ele>18</ele>
        <time>2019-08-08T11:22:25Z</time>
      </trkpt>
      <trkpt lat="44.49451" lon="-1.10488">
        <ele>18</ele>
        <time>2019-08-08T11:22:30Z</time>
      </trkpt>
      <trkpt lat="44.49454" lon="-1.10492">
        <ele>18</ele>
        <time>2019-08-08T11:22:35Z</time>
      </trkpt>
      <trkpt lat="44.49457" lon="-1.10494">
        <ele>18</ele>
        <time>2019-08-08T11:22:40Z</time>
      </trkpt>
      <trkpt lat="44.49459" lon="-1.10497">
        <ele>18</ele>
        <time>2019-08-08T11:22:45Z</time>
      </trkpt>
      <trkpt lat="44.49461" lon="-1.105">
        <ele>18</ele>
        <time>2019-08-08T11:22:50Z</time>
      </trkpt>
      <trkpt lat="44.49464" lon="-1.10502">
        <ele>18</ele>
        <time>2019-08-08T11:22:55Z</time>
      </trkpt>
      <trkpt lat="44.49467" lon="-1.10505">
        <ele>18</ele>
        <time>2019-08-08T11:23:00Z</time>
      </trkpt>
      <trkpt lat="44.4947" lon="-1.10508">
        <ele>18</ele>
        <time>2019-08-08T11:23:05Z</time>
      </trkpt>
      <trkpt lat="44.49475" lon="-1.10514">
        <ele>18</ele>
        <time>2019-08-08T11:23:15Z</time>
      </trkpt>
      <trkpt lat="44.49477" lon="-1.10519">
        <ele>18</ele>
        <time>2019-08-08T11:23:20Z</time>
      </trkpt>
      <trkpt lat="44.49479" lon="-1.10523">
        <ele>18</ele>
        <time>2019-08-08T11:23:25Z</time>
      </trkpt>
      <trkpt lat="44.49481" lon="-1.10524">
        <ele>18</ele>
        <time>2019-08-08T11:23:30Z</time>
      </trkpt>
      <trkpt lat="44.49483" lon="-1.10526">
        <ele>18</ele>
        <time>2019-08-08T11:23:35Z</time>
      </trkpt>
      <trkpt lat="44.49485" lon="-1.10527">
        <ele>18</ele>
        <time>2019-08-08T11:23:40Z</time>
      </trkpt>
      <trkpt lat="44.49488" lon="-1.10529">
        <ele>18</ele>
        <time>2019-08-08T11:23:45Z</time>
      </trkpt>
      <trkpt lat="44.49489" lon="-1.10531">
        <ele>18</ele>
        <time>2019-08-08T11:23:50Z</time>
      </trkpt>
      <trkpt lat="44.49494" lon="-1.10536">
        <ele>18</ele>
        <time>2019-08-08T11:24:00Z</time>
      </trkpt>
      <trkpt lat="44.49497" lon="-1.10539">
        <ele>18</ele>
        <time>2019-08-08T11:24:05Z</time>
      </trkpt>
      <trkpt lat="44.495" lon="-1.10543">
        <ele>18</ele>
        <time>2019-08-08T11:24:10Z</time>
      </trkpt>
      <trkpt lat="44.49504" lon="-1.10546">
        <ele>18</ele>
        <time>2019-08-08T11:24:15Z</time>
      </trkpt>
      <trkpt lat="44.49507" lon="-1.1055">
        <ele>18</ele>
        <time>2019-08-08T11:24:20Z</time>
      </trkpt>
      <trkpt lat="44.4951" lon="-1.10554">
        <ele>18</ele>
        <time>2019-08-08T11:24:25Z</time>
      </trkpt>
      <trkpt lat="44.49514" lon="-1.10558">
        <ele>18</ele>
        <time>2019-08-08T11:24:30Z</time>
      </trkpt>
      <trkpt lat="44.49518" lon="-1.10563">
        <ele>18</ele>
        <time>2019-08-08T11:24:35Z</time>
      </trkpt>
      <trkpt lat="44.49523" lon="-1.10569">
        <ele>18</ele>
        <time>2019-08-08T11:24:40Z</time>
      </trkpt>
      <trkpt lat="44.49533" lon="-1.10581">
        <ele>18</ele>
        <time>2019-08-08T11:24:50Z</time>
      </trkpt>
      <trkpt lat="44.49539" lon="-1.10587">
        <ele>18</ele>
        <time>2019-08-08T11:24:55Z</time>
      </trkpt>
      <trkpt lat="44.49544" lon="-1.10594">
        <ele>18</ele>
        <time>2019-08-08T11:25:00Z</time>
      </trkpt>
      <trkpt lat="44.4955" lon="-1.10602">
        <ele>18</ele>
        <time>2019-08-08T11:25:05Z</time>
      </trkpt>
      <trkpt lat="44.49556" lon="-1.10609">
        <ele>18</ele>
        <time>2019-08-08T11:25:10Z</time>
      </trkpt>
      <trkpt lat="44.49561" lon="-1.10618">
        <ele>18</ele>
        <time>2019-08-08T11:25:15Z</time>
      </trkpt>
      <trkpt lat="44.49567" lon="-1.10627">
        <ele>18</ele>
        <time>2019-08-08T11:25:20Z</time>
      </trkpt>
      <trkpt lat="44.49573" lon="-1.10635">
        <ele>18</ele>
        <time>2019-08-08T11:25:25Z</time>
      </trkpt>
      <trkpt lat="44.49586" lon="-1.1065">
        <ele>18</ele>
        <time>2019-08-08T11:25:35Z</time>
      </trkpt>
      <trkpt lat="44.49593" lon="-1.10657">
        <ele>18</ele>
        <time>2019-08-08T11:25:40Z</time>
      </trkpt>
      <trkpt lat="44.49599" lon="-1.10663">
        <ele>18</ele>
        <time>2019-08-08T11:25:45Z</time>
      </trkpt>
      <trkpt lat="44.49605" lon="-1.10671">
        <ele>18</ele>
        <time>2019-08-08T11:25:50Z</time>
      </trkpt>
      <trkpt lat="44.49611" lon="-1.10678">
        <ele>18</ele>
        <time>2019-08-08T11:25:55Z</time>
      </trkpt>
      <trkpt lat="44.49617" lon="-1.10685">
        <ele>18</ele>
        <time>2019-08-08T11:26:00Z</time>
      </trkpt>
      <trkpt lat="44.49622" lon="-1.1069">
        <ele>18</ele>
        <time>2019-08-08T11:26:05Z</time>
      </trkpt>
      <trkpt lat="44.49628" lon="-1.10696">
        <ele>18</ele>
        <time>2019-08-08T11:26:10Z</time>
      </trkpt>
      <trkpt lat="44.49634" lon="-1.10702">
        <ele>18</ele>
        <time>2019-08-08T11:26:15Z</time>
      </trkpt>
      <trkpt lat="44.49643" lon="-1.10718">
        <ele>18</ele>
        <time>2019-08-08T11:26:25Z</time>
      </trkpt>
      <trkpt lat="44.49648" lon="-1.10724">
        <ele>18</ele>
        <time>2019-08-08T11:26:30Z</time>
      </trkpt>
      <trkpt lat="44.49654" lon="-1.1073">
        <ele>18</ele>
        <time>2019-08-08T11:26:35Z</time>
      </trkpt>
      <trkpt lat="44.49659" lon="-1.10734">
        <ele>18</ele>
        <time>2019-08-08T11:26:40Z</time>
      </trkpt>
      <trkpt lat="44.49664" lon="-1.10738">
        <ele>18</ele>
        <time>2019-08-08T11:26:45Z</time>
      </trkpt>
      <trkpt lat="44.49669" lon="-1.10742">
        <ele>18</ele>
        <time>2019-08-08T11:26:50Z</time>
      </trkpt>
      <trkpt lat="44.49675" lon="-1.10746">
        <ele>18</ele>
        <time>2019-08-08T11:26:55Z</time>
      </trkpt>
      <trkpt lat="44.4968" lon="-1.1075">
        <ele>18</ele>
        <time>2019-08-08T11:27:00Z</time>
      </trkpt>
      <trkpt lat="44.49691" lon="-1.10753">
        <ele>18</ele>
        <time>2019-08-08T11:27:10Z</time>
      </trkpt>
      <trkpt lat="44.49696" lon="-1.10755">
        <ele>18</ele>
        <time>2019-08-08T11:27:15Z</time>
      </trkpt>
      <trkpt lat="44.49701" lon="-1.10755">
        <ele>18</ele>
        <time>2019-08-08T11:27:20Z</time>
      </trkpt>
      <trkpt lat="44.49707" lon="-1.10756">
        <ele>18</ele>
        <time>2019-08-08T11:27:25Z</time>
      </trkpt>
      <trkpt lat="44.49712" lon="-1.10759">
        <ele>18</ele>
        <time>2019-08-08T11:27:30Z</time>
      </trkpt>
      <trkpt lat="44.49716" lon="-1.10761">
        <ele>18</ele>
        <time>2019-08-08T11:27:35Z</time>
      </trkpt>
      <trkpt lat="44.4972" lon="-1.10762">
        <ele>18</ele>
        <time>2019-08-08T11:27:40Z</time>
      </trkpt>
      <trkpt lat="44.49725" lon="-1.10764">
        <ele>18</ele>
        <time>2019-08-08T11:27:45Z</time>
      </trkpt>
      <trkpt lat="44.49729" lon="-1.10766">
        <ele>18</ele>
        <time>2019-08-08T11:27:50Z</time>
      </trkpt>
      <trkpt lat="44.49735" lon="-1.10771">
        <ele>18</ele>
        <time>2019-08-08T11:28:00Z</time>
      </trkpt>
      <trkpt lat="44.49739" lon="-1.10774">
        <ele>18</ele>
        <time>2019-08-08T11:28:05Z</time>
      </trkpt>
      <trkpt lat="44.49743" lon="-1.10776">
        <ele>18</ele>
        <time>2019-08-08T11:28:10Z</time>
      </trkpt>
      <trkpt lat="44.49747" lon="-1.10778">
        <ele>18</ele>
        <time>2019-08-08T11:28:15Z</time>
      </trkpt>
      <trkpt lat="44.49751" lon="-1.1078">
        <ele>18</ele>
        <time>2019-08-08T11:28:20Z</time>
      </trkpt>
      <trkpt lat="44.49755" lon="-1.10783">
        <ele>18</ele>
        <time>2019-08-08T11:28:25Z</time>
      </trkpt>
      <trkpt lat="44.49759" lon="-1.10785">
        <ele>18</ele>
        <time>2019-08-08T11:28:30Z</time>
      </trkpt>
      <trkpt lat="44.49764" lon="-1.10788">
        <ele>18</ele>
        <time>2019-08-08T11:28:35Z</time>
      </trkpt>
      <trkpt lat="44.49772" lon="-1.10795">
        <ele>18</ele>
        <time>2019-08-08T11:28:45Z</time>
      </trkpt>
      <trkpt lat="44.49777" lon="-1.10801">
        <ele>18</ele>
        <time>2019-08-08T11:28:50Z</time>
      </trkpt>
      <trkpt lat="44.4978" lon="-1.10808">
        <ele>18</ele>
        <time>2019-08-08T11:28:55Z</time>
      </trkpt>
      <trkpt lat="44.49784" lon="-1.10816">
        <ele>18</ele>
        <time>2019-08-08T11:29:00Z</time>
      </trkpt>
      <trkpt lat="44.49788" lon="-1.10824">
        <ele>18</ele>
        <time>2019-08-08T11:29:05Z</time>
      </trkpt>
      <trkpt lat="44.49791" lon="-1.10832">
        <ele>18</ele>
        <time>2019-08-08T11:29:10Z</time>
      </trkpt>
      <trkpt lat="44.49795" lon="-1.10839">
        <ele>18</ele>
        <time>2019-08-08T11:29:15Z</time>
      </trkpt>
      <trkpt lat="44.49798" lon="-1.10846">
        <ele>18</ele>
        <time>2019-08-08T11:29:20Z</time>
      </trkpt>
      <trkpt lat="44.49802" lon="-1.10852">
        <ele>18</ele>
        <time>2019-08-08T11:29:25Z</time>
      </trkpt>
      <trkpt lat="44.49808" lon="-1.10865">
        <ele>18</ele>
        <time>2019-08-08T11:29:35Z</time>
      </trkpt>
      <trkpt lat="44.49812" lon="-1.10871">
        <ele>18</ele>
        <time>2019-08-08T11:29:40Z</time>
      </trkpt>
      <trkpt lat="44.49817" lon="-1.10877">
        <ele>18</ele>
        <time>2019-08-08T11:29:45Z</time>
      </trkpt>
      <trkpt lat="44.49821" lon="-1.10882">
        <ele>18</ele>
        <time>2019-08-08T11:29:50Z</time>
      </trkpt>
      <trkpt lat="44.49826" lon="-1.10888">
        <ele>18</ele>
        <time>2019-08-08T11:29:55Z</time>
      </trkpt>
      <trkpt lat="44.49831" lon="-1.10895">
        <ele>18</ele>
        <time>2019-08-08T11:30:00Z</time>
      </trkpt>
      <trkpt lat="44.49837" lon="-1.10902">
        <ele>18</ele>
        <time>2019-08-08T11:30:05Z</time>
      </trkpt>
      <trkpt lat="44.49844" lon="-1.10909">
        <ele>18</ele>
        <time>2019-08-08T11:30:10Z</time>
      </trkpt>
      <trkpt lat="44.49856" lon="-1.10924">
        <ele>18</ele>
        <time>2019-08-08T11:30:20Z</time>
      </trkpt>
      <trkpt lat="44.49861" lon="-1.10931">
        <ele>18</ele>
        <time>2019-08-08T11:30:25Z</time>
      </trkpt>
      <trkpt lat="44.49865" lon="-1.10938">
        <ele>18</ele>
        <time>2019-08-08T11:30:30Z</time>
      </trkpt>
      <trkpt lat="44.49868" lon="-1.10945">
        <ele>18</ele>
        <time>2019-08-08T11:30:35Z</time>
      </trkpt>
      <trkpt lat="44.49871" lon="-1.1095">
        <ele>18</ele>
        <time>2019-08-08T11:30:40Z</time>
      </trkpt>
      <trkpt lat="44.49874" lon="-1.10956">
        <ele>18</ele>
        <time>2019-08-08T11:30:45Z</time>
      </trkpt>
      <trkpt lat="44.49877" lon="-1.10962">
        <ele>18</ele>
        <time>2019-08-08T11:30:50Z</time>
      </trkpt>
      <trkpt lat="44.4988" lon="-1.10966">
        <ele>18</ele>
        <time>2019-08-08T11:30:55Z</time>
      </trkpt>
      <trkpt lat="44.49883" lon="-1.1097">
        <ele>18</ele>
        <time>2019-08-08T11:31:00Z</time>
      </trkpt>
      <trkpt lat="44.49892" lon="-1.10979">
        <ele>18</ele>
        <time>2019-08-08T11:31:10Z</time>
      </trkpt>
      <trkpt lat="44.49897" lon="-1.10984">
        <ele>18</ele>
        <time>2019-08-08T11:31:15Z</time>
      </trkpt>
      <trkpt lat="44.49901" lon="-1.10989">
        <ele>18</ele>
        <time>2019-08-08T11:31:20Z</time>
      </trkpt>
      <trkpt lat="44.49906" lon="-1.10994">
        <ele>18</ele>
        <time>2019-08-08T11:31:25Z</time>
      </trkpt>
      <trkpt lat="44.49911" lon="-1.10997">
        <ele>18</ele>
        <time>2019-08-08T11:31:30Z</time>
      </trkpt>
      <trkpt lat="44.49916" lon="-1.11">
        <ele>18</ele>
        <time>2019-08-08T11:31:35Z</time>
      </trkpt>
      <trkpt lat="44.49925" lon="-1.11003">
        <ele>18</ele>
        <time>2019-08-08T11:31:40Z</time>
      </trkpt>
      <trkpt lat="44.49933" lon="-1.11006">
        <ele>18</ele>
        <time>2019-08-08T11:31:45Z</time>
      </trkpt>
      <trkpt lat="44.49948" lon="-1.11013">
        <ele>18</ele>
        <time>2019-08-08T11:31:55Z</time>
      </trkpt>
      <trkpt lat="44.49955" lon="-1.11016">
        <ele>18</ele>
        <time>2019-08-08T11:32:00Z</time>
      </trkpt>
      <trkpt lat="44.49962" lon="-1.11019">
        <ele>18</ele>
        <time>2019-08-08T11:32:05Z</time>
      </trkpt>
      <trkpt lat="44.49969" lon="-1.11021">
        <ele>18</ele>
        <time>2019-08-08T11:32:10Z</time>
      </trkpt>
      <trkpt lat="44.49975" lon="-1.11023">
        <ele>18</ele>
        <time>2019-08-08T11:32:15Z</time>
      </trkpt>
      <trkpt lat="44.4998" lon="-1.11024">
        <ele>18</ele>
        <time>2019-08-08T11:32:20Z</time>
      </trkpt>
      <trkpt lat="44.49985" lon="-1.11026">
        <ele>18</ele>
        <time>2019-08-08T11:32:25Z</time>
      </trkpt>
      <trkpt lat="44.49992" lon="-1.11029">
        <ele>18</ele>
        <time>2019-08-08T11:32:30Z</time>
      </trkpt>
      <trkpt lat="44.49996" lon="-1.11031">
        <ele>18</ele>
        <time>2019-08-08T11:32:35Z</time>
      </trkpt>
      <trkpt lat="44.49999" lon="-1.11037">
        <ele>18</ele>
        <time>2019-08-08T11:32:45Z</time>
      </trkpt>
      <trkpt lat="44.5" lon="-1.11039">
        <ele>18</ele>
        <time>2019-08-08T11:32:50Z</time>
      </trkpt>
      <trkpt lat="44.5" lon="-1.11041">
        <ele>18</ele>
        <time>2019-08-08T11:32:55Z</time>
      </trkpt>
      <trkpt lat="44.5" lon="-1.11042">
        <ele>18</ele>
        <time>2019-08-08T11:33:00Z</time>
      </trkpt>
      <trkpt lat="44.5" lon="-1.11043">
        <ele>18</ele>
        <time>2019-08-08T11:33:05Z</time>
      </trkpt>
      <trkpt lat="44.5" lon="-1.11044">
        <ele>18</ele>
        <time>2019-08-08T11:33:10Z</time>
      </trkpt>
      <trkpt lat="44.50001" lon="-1.11046">
        <ele>18</ele>
        <time>2019-08-08T11:33:15Z</time>
      </trkpt>
      <trkpt lat="44.50002" lon="-1.11047">
        <ele>18</ele>
        <time>2019-08-08T11:33:20Z</time>
      </trkpt>
      <trkpt lat="44.50004" lon="-1.11047">
        <ele>18</ele>
        <time>2019-08-08T11:33:30Z</time>
      </trkpt>
      <trkpt lat="44.50007" lon="-1.11048">
        <ele>18</ele>
        <time>2019-08-08T11:33:35Z</time>
      </trkpt>
      <trkpt lat="44.5001" lon="-1.11048">
        <ele>18</ele>
        <time>2019-08-08T11:33:40Z</time>
      </trkpt>
      <trkpt lat="44.50014" lon="-1.1105">
        <ele>18</ele>
        <time>2019-08-08T11:33:45Z</time>
      </trkpt>
      <trkpt lat="44.50017" lon="-1.11051">
        <ele>18</ele>
        <time>2019-08-08T11:33:50Z</time>
      </trkpt>
      <trkpt lat="44.50022" lon="-1.11053">
        <ele>18</ele>
        <time>2019-08-08T11:33:55Z</time>
      </trkpt>
      <trkpt lat="44.50026" lon="-1.11053">
        <ele>18</ele>
        <time>2019-08-08T11:34:00Z</time>
      </trkpt>
      <trkpt lat="44.5003" lon="-1.11054">
        <ele>18</ele>
        <time>2019-08-08T11:34:05Z</time>
      </trkpt>
      <trkpt lat="44.50038" lon="-1.11053">
        <ele>18</ele>
        <time>2019-08-08T11:34:15Z</time>
      </trkpt>
      <trkpt lat="44.50042" lon="-1.11053">
        <ele>18</ele>
        <time>2019-08-08T11:34:20Z</time>
      </trkpt>
      <trkpt lat="44.50045" lon="-1.11053">
        <ele>18</ele>
        <time>2019-08-08T11:34:25Z</time>
      </trkpt>
      <trkpt lat="44.50049" lon="-1.11053">
        <ele>18</ele>
        <time>2019-08-08T11:34:30Z</time>
      </trkpt>
      <trkpt lat="44.50053" lon="-1.11054">
        <ele>18</ele>
        <time>2019-08-08T11:34:35Z</time>
      </trkpt>
      <trkpt lat="44.50057" lon="-1.11054">
        <ele>18</ele>
        <time>2019-08-08T11:34:40Z</time>
      </trkpt>
      <trkpt lat="44.5006" lon="-1.11054">
        <ele>18</ele>
        <time>2019-08-08T11:34:45Z</time>
      </trkpt>
      <trkpt lat="44.50063" lon="-1.11054">
        <ele>18</ele>
        <time>2019-08-08T11:34:50Z</time>
      </trkpt>
      <trkpt lat="44.50065" lon="-1.11052">
        <ele>18</ele>
        <time>2019-08-08T11:34:55Z</time>
      </trkpt>
      <trkpt lat="44.5007" lon="-1.11047">
        <ele>18</ele>
        <time>2019-08-08T11:35:05Z</time>
      </trkpt>
      <trkpt lat="44.50071" lon="-1.11044">
        <ele>18</ele>
        <time>2019-08-08T11:35:10Z</time>
      </trkpt>
      <trkpt lat="44.50073" lon="-1.11041">
        <ele>18</ele>
        <time>2019-08-08T11:35:15Z</time>
      </trkpt>
      <trkpt lat="44.50074" lon="-1.11037">
        <ele>18</ele>
        <time>2019-08-08T11:35:20Z</time>
      </trkpt>
      <trkpt lat="44.50075" lon="-1.11033">
        <ele>18</ele>
        <time>2019-08-08T11:35:25Z</time>
      </trkpt>
      <trkpt lat="44.50075" lon="-1.11028">
        <ele>18</ele>
        <time>2019-08-08T11:35:30Z</time>
      </trkpt>
      <trkpt lat="44.50073" lon="-1.11024">
        <ele>18</ele>
        <time>2019-08-08T11:35:35Z</time>
      </trkpt>
      <trkpt lat="44.50071" lon="-1.1102">
        <ele>18</ele>
        <time>2019-08-08T11:35:40Z</time>
      </trkpt>
      <trkpt lat="44.50066" lon="-1.11016">
        <ele>18</ele>
        <time>2019-08-08T11:35:50Z</time>
      </trkpt>
      <trkpt lat="44.50063" lon="-1.11015">
        <ele>18</ele>
        <time>2019-08-08T11:35:55Z</time>
      </trkpt>
      <trkpt lat="44.50061" lon="-1.11016">
        <ele>18</ele>
        <time>2019-08-08T11:36:00Z</time>
      </trkpt>
      <trkpt lat="44.50059" lon="-1.11016">
        <ele>18</ele>
        <time>2019-08-08T11:36:05Z</time>
      </trkpt>
      <trkpt lat="44.50056" lon="-1.11016">
        <ele>18</ele>
        <time>2019-08-08T11:36:10Z</time>
      </trkpt>
      <trkpt lat="44.50054" lon="-1.11016">
        <ele>18</ele>
        <time>2019-08-08T11:36:15Z</time>
      </trkpt>
      <trkpt lat="44.50051" lon="-1.11017">
        <ele>18</ele>
        <time>2019-08-08T11:36:20Z</time>
      </trkpt>
      <trkpt lat="44.50048" lon="-1.11016">
        <ele>18</ele>
        <time>2019-08-08T11:36:25Z</time>
      </trkpt>
      <trkpt lat="44.50044" lon="-1.11017">
        <ele>18</ele>
        <time>2019-08-08T11:36:30Z</time>
      </trkpt>
      <trkpt lat="44.50035" lon="-1.11015">
        <ele>18</ele>
        <time>2019-08-08T11:36:40Z</time>
      </trkpt>
      <trkpt lat="44.50029" lon="-1.11014">
        <ele>18</ele>
        <time>2019-08-08T11:36:45Z</time>
      </trkpt>
      <trkpt lat="44.50024" lon="-1.11013">
        <ele>18</ele>
        <time>2019-08-08T11:36:50Z</time>
      </trkpt>
      <trkpt lat="44.50018" lon="-1.11011">
        <ele>18</ele>
        <time>2019-08-08T11:36:55Z</time>
      </trkpt>
      <trkpt lat="44.50011" lon="-1.1101">
        <ele>18</ele>
        <time>2019-08-08T11:37:00Z</time>
      </trkpt>
      <trkpt lat="44.50005" lon="-1.11009">
        <ele>18</ele>
        <time>2019-08-08T11:37:05Z</time>
      </trkpt>
      <trkpt lat="44.5" lon="-1.11008">
        <ele>18</ele>
        <time>2019-08-08T11:37:10Z</time>
      </trkpt>
      <trkpt lat="44.49996" lon="-1.11007">
        <ele>18</ele>
        <time>2019-08-08T11:37:15Z</time>
      </trkpt>
      <trkpt lat="44.49986" lon="-1.11003">
        <ele>18</ele>
        <time>2019-08-08T11:37:25Z</time>
      </trkpt>
      <trkpt lat="44.49982" lon="-1.11">
        <ele>18</ele>
        <time>2019-08-08T11:37:30Z</time>
      </trkpt>
      <trkpt lat="44.49977" lon="-1.10997">
        <ele>18</ele>
        <time>2019-08-08T11:37:35Z</time>
      </trkpt>
      <trkpt lat="44.49972" lon="-1.10994">
        <ele>18</ele>
        <time>2019-08-08T11:37:40Z</time>
      </trkpt>
      <trkpt lat="44.49967" lon="-1.1099">
        <ele>18</ele>
        <time>2019-08-08T11:37:45Z</time>
      </trkpt>
      <trkpt lat="44.49962" lon="-1.10987">
        <ele>18</ele>
        <time>2019-08-08T11:37:50Z</time>
      </trkpt>
      <trkpt lat="44.49957" lon="-1.10982">
        <ele>18</ele>
        <time>2019-08-08T11:37:55Z</time>
      </trkpt>
      <trkpt lat="44.49951" lon="-1.10978">
        <ele>18</ele>
        <time>2019-08-08T11:38:00Z</time>
      </trkpt>
      <trkpt lat="44.49945" lon="-1.10973">
        <ele>18</ele>
        <time>2019-08-08T11:38:05Z</time>
      </trkpt>
      <trkpt lat="44.49934" lon="-1.10963">
        <ele>18</ele>
        <time>2019-08-08T11:38:15Z</time>
      </trkpt>
      <trkpt lat="44.49929" lon="-1.10957">
        <ele>18</ele>
        <time>2019-08-08T11:38:20Z</time>
      </trkpt>
      <trkpt lat="44.49923" lon="-1.10954">
        <ele>18</ele>
        <time>2019-08-08T11:38:25Z</time>
      </trkpt>
      <trkpt lat="44.49918" lon="-1.1095">
        <ele>18</ele>
        <time>2019-08-08T11:38:30Z</time>
      </trkpt>
      <trkpt lat="44.49912" lon="-1.10945">
        <ele>18</ele>
        <time>2019-08-08T11:38:35Z</time>
      </trkpt>
      <trkpt lat="44.49907" lon="-1.10941">
        <ele>18</ele>
        <time>2019-08-08T11:38:40Z</time>
      </trkpt>
      <trkpt lat="44.49901" lon="-1.10936">
        <ele>18</ele>
        <time>2019-08-08T11:38:45Z</time>
      </trkpt>
      <trkpt lat="44.49895" lon="-1.10932">
        <ele>18</ele>
        <time>2019-08-08T11:38:50Z</time>
      </trkpt>
      <trkpt lat="44.49884" lon="-1.10926">
        <ele>18</ele>
        <time>2019-08-08T11:39:00Z</time>
      </trkpt>
      <trkpt lat="44.49879" lon="-1.10922">
        <ele>18</ele>
        <time>2019-08-08T11:39:05Z</time>
      </trkpt>
      <trkpt lat="44.49873" lon="-1.10917">
        <ele>18</ele>
        <time>2019-08-08T11:39:10Z</time>
      </trkpt>
      <trkpt lat="44.49868" lon="-1.10912">
        <ele>18</ele>
        <time>2019-08-08T11:39:15Z</time>
      </trkpt>
      <trkpt lat="44.49862" lon="-1.10905">
        <ele>18</ele>
        <time>2019-08-08T11:39:20Z</time>
      </trkpt>
      <trkpt lat="44.49857" lon="-1.10899">
        <ele>18</ele>
        <time>2019-08-08T11:39:25Z</time>
      </trkpt>
      <trkpt lat="44.49851" lon="-1.10894">
        <ele>18</ele>
        <time>2019-08-08T11:39:30Z</time>
      </trkpt>
      <trkpt lat="44.49845" lon="-1.10888">
        <ele>18</ele>
        <time>2019-08-08T11:39:35Z</time>
      </trkpt>
      <trkpt lat="44.49839" lon="-1.10882">
        <ele>18</ele>
        <time>2019-08-08T11:39:40Z</time>
      </trkpt>
      <trkpt lat="44.49827" lon="-1.10871">
        <ele>18</ele>
        <time>2019-08-08T11:39:50Z</time>
      </trkpt>
      <trkpt lat="44.4982" lon="-1.10865">
        <ele>18</ele>
        <time>2019-08-08T11:39:55Z</time>
      </trkpt>
      <trkpt lat="44.49813" lon="-1.10861">
        <ele>18</ele>
        <time>2019-08-08T11:40:00Z</time>
      </trkpt>
      <trkpt lat="44.49806" lon="-1.10857">
        <ele>18</ele>
        <time>2019-08-08T11:40:05Z</time>
      </trkpt>
      <trkpt lat="44.49799" lon="-1.10854">
        <ele>18</ele>
        <time>2019-08-08T11:40:10Z</time>
      </trkpt>
      <trkpt lat="44.49793" lon="-1.10851">
        <ele>18</ele>
        <time>2019-08-08T11:40:15Z</time>
      </trkpt>
      <trkpt lat="44.49786" lon="-1.10848">
        <ele>18</ele>
        <time>2019-08-08T11:40:20Z</time>
      </trkpt>
      <trkpt lat="44.49779" lon="-1.10847">
        <ele>18</ele>
        <time>2019-08-08T11:40:25Z</time>
      </trkpt>
      <trkpt lat="44.49766" lon="-1.10844">
        <ele>18</ele>
        <time>2019-08-08T11:40:35Z</time>
      </trkpt>
      <trkpt lat="44.4976" lon="-1.10843">
        <ele>18</ele>
        <time>2019-08-08T11:40:40Z</time>
      </trkpt>
      <trkpt lat="44.49754" lon="-1.10843">
        <ele>18</ele>
        <time>2019-08-08T11:40:45Z</time>
      </trkpt>
      <trkpt lat="44.49749" lon="-1.1084">
        <ele>18</ele>
        <time>2019-08-08T11:40:50Z</time>
      </trkpt>
      <trkpt lat="44.49743" lon="-1.10837">
        <ele>18</ele>
        <time>2019-08-08T11:40:55Z</time>
      </trkpt>
      <trkpt lat="44.49737" lon="-1.10835">
        <ele>18</ele>
        <time>2019-08-08T11:41:00Z</time>
      </trkpt>
      <trkpt lat="44.49733" lon="-1.10834">
        <ele>18</ele>
        <time>2019-08-08T11:41:05Z</time>
      </trkpt>
      <trkpt lat="44.49728" lon="-1.1083">
        <ele>18</ele>
        <time>2019-08-08T11:41:10Z</time>
      </trkpt>
      <trkpt lat="44.49723" lon="-1.10826">
        <ele>18</ele>
        <time>2019-08-08T11:41:15Z</time>
      </trkpt>
      <trkpt lat="44.49713" lon="-1.10814">
        <ele>18</ele>
        <time>2019-08-08T11:41:25Z</time>
      </trkpt>
      <trkpt lat="44.49707" lon="-1.10809">
        <ele>18</ele>
        <time>2019-08-08T11:41:30Z</time>
      </trkpt>
      <trkpt lat="44.49701" lon="-1.10805">
        <ele>18</ele>
        <time>2019-08-08T11:41:35Z</time>
      </trkpt>
      <trkpt lat="44.49695" lon="-1.108">
        <ele>18</ele>
        <time>2019-08-08T11:41:40Z</time>
      </trkpt>
      <trkpt lat="44.49689" lon="-1.10796">
        <ele>18</ele>
        <time>2019-08-08T11:41:45Z</time>
      </trkpt>
      <trkpt lat="44.49683" lon="-1.10792">
        <ele>18</ele>
        <time>2019-08-08T11:41:50Z</time>
      </trkpt>
      <trkpt lat="44.49676" lon="-1.10789">
        <ele>18</ele>
        <time>2019-08-08T11:41:55Z</time>
      </trkpt>
      <trkpt lat="44.4967" lon="-1.10785">
        <ele>18</ele>
        <time>2019-08-08T11:42:00Z</time>
      </trkpt>
      <trkpt lat="44.49657" lon="-1.10776">
        <ele>18</ele>
        <time>2019-08-08T11:42:10Z</time>
      </trkpt>
      <trkpt lat="44.4965" lon="-1.10771">
        <ele>18</ele>
        <time>2019-08-08T11:42:15Z</time>
      </trkpt>
      <trkpt lat="44.49643" lon="-1.10767">
        <ele>18</ele>
        <time>2019-08-08T11:42:20Z</time>
      </trkpt>
      <trkpt lat="44.49635" lon="-1.10764">
        <ele>18</ele>
        <time>2019-08-08T11:42:25Z</time>
      </trkpt>
      <trkpt lat="44.49628" lon="-1.10761">
        <ele>18</ele>
        <time>2019-08-08T11:42:30Z</time>
      </trkpt>
      <trkpt lat="44.49623" lon="-1.10758">
        <ele>18</ele>
        <time>2019-08-08T11:42:35Z</time>
      </trkpt>
      <trkpt lat="44.49615" lon="-1.10756">
        <ele>18</ele>
        <time>2019-08-08T11:42:40Z</time>
      </trkpt>
      <trkpt lat="44.49608" lon="-1.10751">
        <ele>18</ele>
        <time>2019-08-08T11:42:45Z</time>
      </trkpt>
      <trkpt lat="44.49603" lon="-1.10746">
        <ele>18</ele>
        <time>2019-08-08T11:42:50Z</time>
      </trkpt>
      <trkpt lat="44.49594" lon="-1.1074">
        <ele>18</ele>
        <time>2019-08-08T11:43:00Z</time>
      </trkpt>
      <trkpt lat="44.49588" lon="-1.10737">
        <ele>18</ele>
        <time>2019-08-08T11:43:05Z</time>
      </trkpt>
      <trkpt lat="44.49583" lon="-1.10735">
        <ele>18</ele>
        <time>2019-08-08T11:43:10Z</time>
      </trkpt>
      <trkpt lat="44.49577" lon="-1.10733">
        <ele>18</ele>
        <time>2019-08-08T11:43:15Z</time>
      </trkpt>
      <trkpt lat="44.49573" lon="-1.10731">
        <ele>18</ele>
        <time>2019-08-08T11:43:20Z</time>
      </trkpt>
      <trkpt lat="44.49568" lon="-1.10728">
        <ele>18</ele>
        <time>2019-08-08T11:43:25Z</time>
      </trkpt>
      <trkpt lat="44.49562" lon="-1.10721">
        <ele>18</ele>
        <time>2019-08-08T11:43:30Z</time>
      </trkpt>
      <trkpt lat="44.49554" lon="-1.10713">
        <ele>18</ele>
        <time>2019-08-08T11:43:35Z</time>
      </trkpt>
      <trkpt lat="44.4954" lon="-1.10692">
        <ele>18</ele>
        <time>2019-08-08T11:43:45Z</time>
      </trkpt>
      <trkpt lat="44.49533" lon="-1.10684">
        <ele>18</ele>
        <time>2019-08-08T11:43:50Z</time>
      </trkpt>
      <trkpt lat="44.49522" lon="-1.10672">
        <ele>18</ele>
        <time>2019-08-08T11:43:55Z</time>
      </trkpt>
      <trkpt lat="44.49513" lon="-1.10662">
        <ele>18</ele>
        <time>2019-08-08T11:44:00Z</time>
      </trkpt>
      <trkpt lat="44.49504" lon="-1.10653">
        <ele>18</ele>
        <time>2019-08-08T11:44:05Z</time>
      </trkpt>
      <trkpt lat="44.49495" lon="-1.10644">
        <ele>18</ele>
        <time>2019-08-08T11:44:10Z</time>
      </trkpt>
      <trkpt lat="44.49487" lon="-1.10639">
        <ele>18</ele>
        <time>2019-08-08T11:44:15Z</time>
      </trkpt>
      <trkpt lat="44.49477" lon="-1.10628">
        <ele>18</ele>
        <time>2019-08-08T11:44:20Z</time>
      </trkpt>
      <trkpt lat="44.4947" lon="-1.10619">
        <ele>18</ele>
        <time>2019-08-08T11:44:25Z</time>
      </trkpt>
      <trkpt lat="44.49458" lon="-1.10602">
        <ele>18</ele>
        <time>2019-08-08T11:44:35Z</time>
      </trkpt>
      <trkpt lat="44.49451" lon="-1.10595">
        <ele>18</ele>
        <time>2019-08-08T11:44:40Z</time>
      </trkpt>
      <trkpt lat="44.49446" lon="-1.10599">
        <ele>18</ele>
        <time>2019-08-08T11:44:45Z</time>
      </trkpt>
      <trkpt lat="44.49446" lon="-1.10605">
        <ele>18</ele>
        <time>2019-08-08T11:44:50Z</time>
      </trkpt>
      <trkpt lat="44.49446" lon="-1.1061">
        <ele>18</ele>
        <time>2019-08-08T11:44:55Z</time>
      </trkpt>
      <trkpt lat="44.4945" lon="-1.10618">
        <ele>18</ele>
        <time>2019-08-08T11:45:00Z</time>
      </trkpt>
      <trkpt lat="44.49455" lon="-1.10624">
        <ele>18</ele>
        <time>2019-08-08T11:45:05Z</time>
      </trkpt>
      <trkpt lat="44.49463" lon="-1.10633">
        <ele>18</ele>
        <time>2019-08-08T11:45:10Z</time>
      </trkpt>
      <trkpt lat="44.49479" lon="-1.10651">
        <ele>18</ele>
        <time>2019-08-08T11:45:20Z</time>
      </trkpt>
      <trkpt lat="44.49486" lon="-1.10658">
        <ele>18</ele>
        <time>2019-08-08T11:45:25Z</time>
      </trkpt>
      <trkpt lat="44.49491" lon="-1.10664">
        <ele>18</ele>
        <time>2019-08-08T11:45:30Z</time>
      </trkpt>
      <trkpt lat="44.49498" lon="-1.10674">
        <ele>18</ele>
        <time>2019-08-08T11:45:35Z</time>
      </trkpt>
      <trkpt lat="44.49505" lon="-1.10682">
        <ele>18</ele>
        <time>2019-08-08T11:45:40Z</time>
      </trkpt>
      <trkpt lat="44.49512" lon="-1.10688">
        <ele>18</ele>
        <time>2019-08-08T11:45:45Z</time>
      </trkpt>
      <trkpt lat="44.4952" lon="-1.10694">
        <ele>18</ele>
        <time>2019-08-08T11:45:50Z</time>
      </trkpt>
      <trkpt lat="44.49526" lon="-1.107">
        <ele>18</ele>
        <time>2019-08-08T11:45:55Z</time>
      </trkpt>
      <trkpt lat="44.49535" lon="-1.10707">
        <ele>18</ele>
        <time>2019-08-08T11:46:00Z</time>
      </trkpt>
      <trkpt lat="44.49551" lon="-1.10719">
        <ele>18</ele>
        <time>2019-08-08T11:46:10Z</time>
      </trkpt>
      <trkpt lat="44.49557" lon="-1.10723">
        <ele>18</ele>
        <time>2019-08-08T11:46:15Z</time>
      </trkpt>
      <trkpt lat="44.49563" lon="-1.10727">
        <ele>18</ele>
        <time>2019-08-08T11:46:20Z</time>
      </trkpt>
      <trkpt lat="44.49573" lon="-1.10731">
        <ele>18</ele>
        <time>2019-08-08T11:46:25Z</time>
      </trkpt>
      <trkpt lat="44.49578" lon="-1.10732">
        <ele>18</ele>
        <time>2019-08-08T11:46:30Z</time>
      </trkpt>
      <trkpt lat="44.49585" lon="-1.10733">
        <ele>18</ele>
        <time>2019-08-08T11:46:35Z</time>
      </trkpt>
      <trkpt lat="44.49589" lon="-1.10734">
        <ele>18</ele>
        <time>2019-08-08T11:46:40Z</time>
      </trkpt>
      <trkpt lat="44.49594" lon="-1.10735">
        <ele>18</ele>
        <time>2019-08-08T11:46:45Z</time>
      </trkpt>
      <trkpt lat="44.49604" lon="-1.10737">
        <ele>18</ele>
        <time>2019-08-08T11:46:55Z</time>
      </trkpt>
      <trkpt lat="44.49608" lon="-1.10738">
        <ele>18</ele>
        <time>2019-08-08T11:47:00Z</time>
      </trkpt>
      <trkpt lat="44.49612" lon="-1.10739">
        <ele>18</ele>
        <time>2019-08-08T11:47:05Z</time>
      </trkpt>
      <trkpt lat="44.49616" lon="-1.10738">
        <ele>18</ele>
        <time>2019-08-08T11:47:10Z</time>
      </trkpt>
      <trkpt lat="44.49619" lon="-1.10738">
        <ele>18</ele>
        <time>2019-08-08T11:47:15Z</time>
      </trkpt>
      <trkpt lat="44.49623" lon="-1.10738">
        <ele>18</ele>
        <time>2019-08-08T11:47:20Z</time>
      </trkpt>
      <trkpt lat="44.49627" lon="-1.10737">
        <ele>18</ele>
        <time>2019-08-08T11:47:25Z</time>
      </trkpt>
      <trkpt lat="44.49631" lon="-1.10738">
        <ele>18</ele>
        <time>2019-08-08T11:47:30Z</time>
      </trkpt>
      <trkpt lat="44.49634" lon="-1.10739">
        <ele>18</ele>
        <time>2019-08-08T11:47:35Z</time>
      </trkpt>
      <trkpt lat="44.49643" lon="-1.10741">
        <ele>18</ele>
        <time>2019-08-08T11:47:45Z</time>
      </trkpt>
      <trkpt lat="44.49648" lon="-1.10743">
        <ele>18</ele>
        <time>2019-08-08T11:47:50Z</time>
      </trkpt>
      <trkpt lat="44.49653" lon="-1.10745">
        <ele>18</ele>
        <time>2019-08-08T11:47:55Z</time>
      </trkpt>
      <trkpt lat="44.49656" lon="-1.10747">
        <ele>18</ele>
        <time>2019-08-08T11:48:00Z</time>
      </trkpt>
      <trkpt lat="44.49661" lon="-1.1075">
        <ele>18</ele>
        <time>2019-08-08T11:48:05Z</time>
      </trkpt>
      <trkpt lat="44.49665" lon="-1.10754">
        <ele>18</ele>
        <time>2019-08-08T11:48:10Z</time>
      </trkpt>
      <trkpt lat="44.49669" lon="-1.10757">
        <ele>18</ele>
        <time>2019-08-08T11:48:15Z</time>
      </trkpt>
      <trkpt lat="44.49673" lon="-1.1076">
        <ele>18</ele>
        <time>2019-08-08T11:48:20Z</time>
      </trkpt>
      <trkpt lat="44.49681" lon="-1.10766">
        <ele>18</ele>
        <time>2019-08-08T11:48:30Z</time>
      </trkpt>
      <trkpt lat="44.49684" lon="-1.10768">
        <ele>18</ele>
        <time>2019-08-08T11:48:35Z</time>
      </trkpt>
      <trkpt lat="44.49688" lon="-1.10769">
        <ele>18</ele>
        <time>2019-08-08T11:48:40Z</time>
      </trkpt>
      <trkpt lat="44.4969" lon="-1.1077">
        <ele>18</ele>
        <time>2019-08-08T11:48:45Z</time>
      </trkpt>
      <trkpt lat="44.49694" lon="-1.10773">
        <ele>18</ele>
        <time>2019-08-08T11:48:50Z</time>
      </trkpt>
      <trkpt lat="44.49699" lon="-1.10775">
        <ele>18</ele>
        <time>2019-08-08T11:48:55Z</time>
      </trkpt>
      <trkpt lat="44.49703" lon="-1.10777">
        <ele>18</ele>
        <time>2019-08-08T11:49:00Z</time>
      </trkpt>
      <trkpt lat="44.49706" lon="-1.10781">
        <ele>18</ele>
        <time>2019-08-08T11:49:05Z</time>
      </trkpt>
      <trkpt lat="44.49709" lon="-1.10783">
        <ele>18</ele>
        <time>2019-08-08T11:49:10Z</time>
      </trkpt>
      <trkpt lat="44.49715" lon="-1.10788">
        <ele>18</ele>
        <time>2019-08-08T11:49:20Z</time>
      </trkpt>
      <trkpt lat="44.49718" lon="-1.10793">
        <ele>18</ele>
        <time>2019-08-08T11:49:25Z</time>
      </trkpt>
      <trkpt lat="44.49721" lon="-1.10797">
        <ele>18</ele>
        <time>2019-08-08T11:49:30Z</time>
      </trkpt>
      <trkpt lat="44.49723" lon="-1.108">
        <ele>18</ele>
        <time>2019-08-08T11:49:35Z</time>
      </trkpt>
      <trkpt lat="44.49725" lon="-1.10804">
        <ele>18</ele>
        <time>2019-08-08T11:49:40Z</time>
      </trkpt>
      <trkpt lat="44.49727" lon="-1.10807">
        <ele>18</ele>
        <time>2019-08-08T11:49:45Z</time>
      </trkpt>
      <trkpt lat="44.4973" lon="-1.10812">
        <ele>18</ele>
        <time>2019-08-08T11:49:50Z</time>
      </trkpt>
      <trkpt lat="44.49735" lon="-1.10817">
        <ele>18</ele>
        <time>2019-08-08T11:49:55Z</time>
      </trkpt>
      <trkpt lat="44.49742" lon="-1.10825">
        <ele>18</ele>
        <time>2019-08-08T11:50:05Z</time>
      </trkpt>
      <trkpt lat="44.49745" lon="-1.10829">
        <ele>18</ele>
        <time>2019-08-08T11:50:10Z</time>
      </trkpt>
      <trkpt lat="44.49748" lon="-1.10832">
        <ele>18</ele>
        <time>2019-08-08T11:50:15Z</time>
      </trkpt>
      <trkpt lat="44.49751" lon="-1.10835">
        <ele>18</ele>
        <time>2019-08-08T11:50:20Z</time>
      </trkpt>
      <trkpt lat="44.49755" lon="-1.1084">
        <ele>18</ele>
        <time>2019-08-08T11:50:25Z</time>
      </trkpt>
      <trkpt lat="44.49757" lon="-1.10841">
        <ele>18</ele>
        <time>2019-08-08T11:50:30Z</time>
      </trkpt>
      <trkpt lat="44.4976" lon="-1.10844">
        <ele>18</ele>
        <time>2019-08-08T11:50:35Z</time>
      </trkpt>
      <trkpt lat="44.49764" lon="-1.10847">
        <ele>18</ele>
        <time>2019-08-08T11:50:40Z</time>
      </trkpt>
      <trkpt lat="44.49773" lon="-1.10852">
        <ele>18</ele>
        <time>2019-08-08T11:50:50Z</time>
      </trkpt>
      <trkpt lat="44.49777" lon="-1.10854">
        <ele>18</ele>
        <time>2019-08-08T11:50:55Z</time>
      </trkpt>
      <trkpt lat="44.49779" lon="-1.10857">
        <ele>18</ele>
        <time>2019-08-08T11:51:00Z</time>
      </trkpt>
      <trkpt lat="44.49782" lon="-1.1086">
        <ele>18</ele>
        <time>2019-08-08T11:51:05Z</time>
      </trkpt>
      <trkpt lat="44.49785" lon="-1.10861">
        <ele>18</ele>
        <time>2019-08-08T11:51:10Z</time>
      </trkpt>
      <trkpt lat="44.49788" lon="-1.10865">
        <ele>18</ele>
        <time>2019-08-08T11:51:15Z</time>
      </trkpt>
      <trkpt lat="44.4979" lon="-1.1087">
        <ele>18</ele>
        <time>2019-08-08T11:51:20Z</time>
      </trkpt>
      <trkpt lat="44.49793" lon="-1.10873">
        <ele>18</ele>
        <time>2019-08-08T11:51:25Z</time>
      </trkpt>
      <trkpt lat="44.49797" lon="-1.10875">
        <ele>18</ele>
        <time>2019-08-08T11:51:30Z</time>
      </trkpt>
      <trkpt lat="44.49803" lon="-1.10879">
        <ele>18</ele>
        <time>2019-08-08T11:51:40Z</time>
      </trkpt>
      <trkpt lat="44.49806" lon="-1.10882">
        <ele>18</ele>
        <time>2019-08-08T11:51:45Z</time>
      </trkpt>
      <trkpt lat="44.49809" lon="-1.10885">
        <ele>18</ele>
        <time>2019-08-08T11:51:50Z</time>
      </trkpt>
      <trkpt lat="44.49811" lon="-1.10889">
        <ele>18</ele>
        <time>2019-08-08T11:51:55Z</time>
      </trkpt>
      <trkpt lat="44.49813" lon="-1.10893">
        <ele>18</ele>
        <time>2019-08-08T11:52:00Z</time>
      </trkpt>
      <trkpt lat="44.49814" lon="-1.10896">
        <ele>18</ele>
        <time>2019-08-08T11:52:05Z</time>
      </trkpt>
      <trkpt lat="44.49815" lon="-1.109">
        <ele>18</ele>
        <time>2019-08-08T11:52:10Z</time>
      </trkpt>
      <trkpt lat="44.49817" lon="-1.10906">
        <ele>18</ele>
        <time>2019-08-08T11:52:15Z</time>
      </trkpt>
      <trkpt lat="44.49818" lon="-1.10922">
        <ele>18</ele>
        <time>2019-08-08T11:52:25Z</time>
      </trkpt>
      <trkpt lat="44.49818" lon="-1.1093">
        <ele>18</ele>
        <time>2019-08-08T11:52:30Z</time>
      </trkpt>
      <trkpt lat="44.49819" lon="-1.10938">
        <ele>18</ele>
        <time>2019-08-08T11:52:35Z</time>
      </trkpt>
      <trkpt lat="44.4982" lon="-1.10942">
        <ele>18</ele>
        <time>2019-08-08T11:52:40Z</time>
      </trkpt>
      <trkpt lat="44.4982" lon="-1.10949">
        <ele>18</ele>
        <time>2019-08-08T11:52:45Z</time>
      </trkpt>
      <trkpt lat="44.4982" lon="-1.10958">
        <ele>18</ele>
        <time>2019-08-08T11:52:50Z</time>
      </trkpt>
      <trkpt lat="44.49821" lon="-1.10966">
        <ele>18</ele>
        <time>2019-08-08T11:52:55Z</time>
      </trkpt>
      <trkpt lat="44.49821" lon="-1.10972">
        <ele>18</ele>
        <time>2019-08-08T11:53:00Z</time>
      </trkpt>
      <trkpt lat="44.49822" lon="-1.10979">
        <ele>18</ele>
        <time>2019-08-08T11:53:05Z</time>
      </trkpt>
      <trkpt lat="44.49823" lon="-1.1099">
        <ele>18</ele>
        <time>2019-08-08T11:53:15Z</time>
      </trkpt>
      <trkpt lat="44.49824" lon="-1.10996">
        <ele>18</ele>
        <time>2019-08-08T11:53:20Z</time>
      </trkpt>
      <trkpt lat="44.49824" lon="-1.11">
        <ele>18</ele>
        <time>2019-08-08T11:53:25Z</time>
      </trkpt>
      <trkpt lat="44.49824" lon="-1.11005">
        <ele>18</ele>
        <time>2019-08-08T11:53:30Z</time>
      </trkpt>
      <trkpt lat="44.49824" lon="-1.11007">
        <ele>18</ele>
        <time>2019-08-08T11:53:35Z</time>
      </trkpt>
      <trkpt lat="44.49826" lon="-1.11007">
        <ele>18</ele>
        <time>2019-08-08T11:53:40Z</time>
      </trkpt>
      <trkpt lat="44.49827" lon="-1.11008">
        <ele>18</ele>
        <time>2019-08-08T11:53:45Z</time>
      </trkpt>
      <trkpt lat="44.49829" lon="-1.1101">
        <ele>18</ele>
        <time>2019-08-08T11:53:50Z</time>
      </trkpt>
      <trkpt lat="44.49833" lon="-1.11016">
        <ele>18</ele>
        <time>2019-08-08T11:54:00Z</time>
      </trkpt>
      <trkpt lat="44.49837" lon="-1.11018">
        <ele>18</ele>
        <time>2019-08-08T11:54:05Z</time>
      </trkpt>
      <trkpt lat="44.49841" lon="-1.11022">
        <ele>18</ele>
        <time>2019-08-08T11:54:10Z</time>
      </trkpt>
      <trkpt lat="44.49847" lon="-1.11026">
        <ele>18</ele>
        <time>2019-08-08T11:54:15Z</time>
      </trkpt>
      <trkpt lat="44.49851" lon="-1.11031">
        <ele>18</ele>
        <time>2019-08-08T11:54:20Z</time>
      </trkpt>
      <trkpt lat="44.49853" lon="-1.11035">
        <ele>18</ele>
        <time>2019-08-08T11:54:25Z</time>
      </trkpt>
      <trkpt lat="44.49857" lon="-1.11041">
        <ele>18</ele>
        <time>2019-08-08T11:54:30Z</time>
      </trkpt>
      <trkpt lat="44.49861" lon="-1.11051">
        <ele>18</ele>
        <time>2019-08-08T11:54:35Z</time>
      </trkpt>
      <trkpt lat="44.49865" lon="-1.11057">
        <ele>18</ele>
        <time>2019-08-08T11:54:40Z</time>
      </trkpt>
      <trkpt lat="44.4987" lon="-1.11064">
        <ele>18</ele>
        <time>2019-08-08T11:54:50Z</time>
      </trkpt>
      <trkpt lat="44.49871" lon="-1.1107">
        <ele>18</ele>
        <time>2019-08-08T11:54:55Z</time>
      </trkpt>
      <trkpt lat="44.49874" lon="-1.11076">
        <ele>18</ele>
        <time>2019-08-08T11:55:00Z</time>
      </trkpt>
      <trkpt lat="44.49876" lon="-1.1108">
        <ele>18</ele>
        <time>2019-08-08T11:55:05Z</time>
      </trkpt>
      <trkpt lat="44.4988" lon="-1.11087">
        <ele>18</ele>
        <time>2019-08-08T11:55:10Z</time>
      </trkpt>
      <trkpt lat="44.49884" lon="-1.11093">
        <ele>18</ele>
        <time>2019-08-08T11:55:15Z</time>
      </trkpt>
      <trkpt lat="44.49885" lon="-1.11097">
        <ele>18</ele>
        <time>2019-08-08T11:55:20Z</time>
      </trkpt>
      <trkpt lat="44.49885" lon="-1.11106">
        <ele>18</ele>
        <time>2019-08-08T11:55:25Z</time>
      </trkpt>
      <trkpt lat="44.4989" lon="-1.11116">
        <ele>18</ele>
        <time>2019-08-08T11:55:35Z</time>
      </trkpt>
      <trkpt lat="44.49894" lon="-1.11123">
        <ele>18</ele>
        <time>2019-08-08T11:55:40Z</time>
      </trkpt>
      <trkpt lat="44.49901" lon="-1.11131">
        <ele>18</ele>
        <time>2019-08-08T11:55:45Z</time>
      </trkpt>
      <trkpt lat="44.49905" lon="-1.11138">
        <ele>18</ele>
        <time>2019-08-08T11:55:50Z</time>
      </trkpt>
      <trkpt lat="44.49911" lon="-1.11147">
        <ele>18</ele>
        <time>2019-08-08T11:55:55Z</time>
      </trkpt>
      <trkpt lat="44.49914" lon="-1.11156">
        <ele>18</ele>
        <time>2019-08-08T11:56:00Z</time>
      </trkpt>
      <trkpt lat="44.49918" lon="-1.11167">
        <ele>18</ele>
        <time>2019-08-08T11:56:05Z</time>
      </trkpt>
      <trkpt lat="44.49922" lon="-1.11177">
        <ele>18</ele>
        <time>2019-08-08T11:56:10Z</time>
      </trkpt>
      <trkpt lat="44.49924" lon="-1.11185">
        <ele>18</ele>
        <time>2019-08-08T11:56:15Z</time>
      </trkpt>
      <trkpt lat="44.49928" lon="-1.11203">
        <ele>18</ele>
        <time>2019-08-08T11:56:25Z</time>
      </trkpt>
      <trkpt lat="44.4993" lon="-1.11207">
        <ele>18</ele>
        <time>2019-08-08T11:56:30Z</time>
      </trkpt>
      <trkpt lat="44.49934" lon="-1.11213">
        <ele>18</ele>
        <time>2019-08-08T11:56:35Z</time>
      </trkpt>
      <trkpt lat="44.49933" lon="-1.11217">
        <ele>18</ele>
        <time>2019-08-08T11:56:40Z</time>
      </trkpt>
      <trkpt lat="44.49932" lon="-1.1122">
        <ele>18</ele>
        <time>2019-08-08T11:56:45Z</time>
      </trkpt>
      <trkpt lat="44.49929" lon="-1.11222">
        <ele>18</ele>
        <time>2019-08-08T11:56:50Z</time>
      </trkpt>
      <trkpt lat="44.49925" lon="-1.11222">
        <ele>18</ele>
        <time>2019-08-08T11:56:55Z</time>
      </trkpt>
      <trkpt lat="44.4992" lon="-1.11224">
        <ele>18</ele>
        <time>2019-08-08T11:57:00Z</time>
      </trkpt>
      <trkpt lat="44.49908" lon="-1.11232">
        <ele>18</ele>
        <time>2019-08-08T11:57:10Z</time>
      </trkpt>
      <trkpt lat="44.49902" lon="-1.11236">
        <ele>18</ele>
        <time>2019-08-08T11:57:15Z</time>
      </trkpt>
      <trkpt lat="44.49896" lon="-1.11242">
        <ele>18</ele>
        <time>2019-08-08T11:57:20Z</time>
      </trkpt>
      <trkpt lat="44.49889" lon="-1.11248">
        <ele>18</ele>
        <time>2019-08-08T11:57:25Z</time>
      </trkpt>
      <trkpt lat="44.49881" lon="-1.11255">
        <ele>18</ele>
        <time>2019-08-08T11:57:30Z</time>
      </trkpt>
      <trkpt lat="44.49874" lon="-1.11262">
        <ele>18</ele>
        <time>2019-08-08T11:57:35Z</time>
      </trkpt>
      <trkpt lat="44.4987" lon="-1.11269">
        <ele>18</ele>
        <time>2019-08-08T11:57:40Z</time>
      </trkpt>
      <trkpt lat="44.49864" lon="-1.11274">
        <ele>18</ele>
        <time>2019-08-08T11:57:45Z</time>
      </trkpt>
      <trkpt lat="44.49854" lon="-1.11281">
        <ele>18</ele>
        <time>2019-08-08T11:57:50Z</time>
      </trkpt>
      <trkpt lat="44.4984" lon="-1.11289">
        <ele>18</ele>
        <time>2019-08-08T11:58:00Z</time>
      </trkpt>
      <trkpt lat="44.49834" lon="-1.11292">
        <ele>18</ele>
        <time>2019-08-08T11:58:05Z</time>
      </trkpt>
      <trkpt lat="44.49828" lon="-1.11294">
        <ele>18</ele>
        <time>2019-08-08T11:58:10Z</time>
      </trkpt>
      <trkpt lat="44.49819" lon="-1.11296">
        <ele>18</ele>
        <time>2019-08-08T11:58:15Z</time>
      </trkpt>
      <trkpt lat="44.4981" lon="-1.113">
        <ele>18</ele>
        <time>2019-08-08T11:58:20Z</time>
      </trkpt>
      <trkpt lat="44.49802" lon="-1.11305">
        <ele>18</ele>
        <time>2019-08-08T11:58:25Z</time>
      </trkpt>
      <trkpt lat="44.49791" lon="-1.11311">
        <ele>18</ele>
        <time>2019-08-08T11:58:30Z</time>
      </trkpt>
      <trkpt lat="44.49783" lon="-1.11318">
        <ele>18</ele>
        <time>2019-08-08T11:58:35Z</time>
      </trkpt>
      <trkpt lat="44.49768" lon="-1.11329">
        <ele>18</ele>
        <time>2019-08-08T11:58:45Z</time>
      </trkpt>
      <trkpt lat="44.4976" lon="-1.11335">
        <ele>18</ele>
        <time>2019-08-08T11:58:50Z</time>
      </trkpt>
      <trkpt lat="44.49752" lon="-1.11339">
        <ele>18</ele>
        <time>2019-08-08T11:58:55Z</time>
      </trkpt>
      <trkpt lat="44.49742" lon="-1.11345">
        <ele>18</ele>
        <time>2019-08-08T11:59:00Z</time>
      </trkpt>
      <trkpt lat="44.49736" lon="-1.11349">
        <ele>18</ele>
        <time>2019-08-08T11:59:05Z</time>
      </trkpt>
      <trkpt lat="44.49729" lon="-1.11351">
        <ele>18</ele>
        <time>2019-08-08T11:59:10Z</time>
      </trkpt>
      <trkpt lat="44.4972" lon="-1.11354">
        <ele>18</ele>
        <time>2019-08-08T11:59:15Z</time>
      </trkpt>
      <trkpt lat="44.49708" lon="-1.11357">
        <ele>18</ele>
        <time>2019-08-08T11:59:20Z</time>
      </trkpt>
      <trkpt lat="44.49699" lon="-1.1136">
        <ele>18</ele>
        <time>2019-08-08T11:59:25Z</time>
      </trkpt>
      <trkpt lat="44.49681" lon="-1.11366">
        <ele>18</ele>
        <time>2019-08-08T11:59:35Z</time>
      </trkpt>
      <trkpt lat="44.49672" lon="-1.1137">
        <ele>18</ele>
        <time>2019-08-08T11:59:40Z</time>
      </trkpt>
      <trkpt lat="44.49664" lon="-1.11374">
        <ele>18</ele>
        <time>2019-08-08T11:59:45Z</time>
      </trkpt>
      <trkpt lat="44.49654" lon="-1.11378">
        <ele>18</ele>
        <time>2019-08-08T11:59:50Z</time>
      </trkpt>
      <trkpt lat="44.49647" lon="-1.11381">
        <ele>18</ele>
        <time>2019-08-08T11:59:55Z</time>
      </trkpt>
      <trkpt lat="44.49639" lon="-1.11387">
        <ele>18</ele>
        <time>2019-08-08T12:00:00Z</time>
      </trkpt>
      <trkpt lat="44.49632" lon="-1.11391">
        <ele>18</ele>
        <time>2019-08-08T12:00:05Z</time>
      </trkpt>
      <trkpt lat="44.49625" lon="-1.11396">
        <ele>18</ele>
        <time>2019-08-08T12:00:10Z</time>
      </trkpt>
      <trkpt lat="44.49611" lon="-1.11406">
        <ele>18</ele>
        <time>2019-08-08T12:00:20Z</time>
      </trkpt>
      <trkpt lat="44.49605" lon="-1.11408">
        <ele>18</ele>
        <time>2019-08-08T12:00:25Z</time>
      </trkpt>
      <trkpt lat="44.49599" lon="-1.11412">
        <ele>18</ele>
        <time>2019-08-08T12:00:30Z</time>
      </trkpt>
      <trkpt lat="44.49595" lon="-1.11414">
        <ele>18</ele>
        <time>2019-08-08T12:00:35Z</time>
      </trkpt>
      <trkpt lat="44.49589" lon="-1.11417">
        <ele>18</ele>
        <time>2019-08-08T12:00:40Z</time>
      </trkpt>
      <trkpt lat="44.49583" lon="-1.11421">
        <ele>18</ele>
        <time>2019-08-08T12:00:45Z</time>
      </trkpt>
      <trkpt lat="44.49575" lon="-1.11425">
        <ele>18</ele>
        <time>2019-08-08T12:00:50Z</time>
      </trkpt>
      <trkpt lat="44.49567" lon="-1.11429">
        <ele>18</ele>
        <time>2019-08-08T12:00:55Z</time>
      </trkpt>
      <trkpt lat="44.49561" lon="-1.11433">
        <ele>18</ele>
        <time>2019-08-08T12:01:00Z</time>
      </trkpt>
      <trkpt lat="44.49545" lon="-1.11443">
        <ele>18</ele>
        <time>2019-08-08T12:01:10Z</time>
      </trkpt>
      <trkpt lat="44.49537" lon="-1.11452">
        <ele>18</ele>
        <time>2019-08-08T12:01:15Z</time>
      </trkpt>
      <trkpt lat="44.49532" lon="-1.11458">
        <ele>18</ele>
        <time>2019-08-08T12:01:20Z</time>
      </trkpt>
      <trkpt lat="44.49526" lon="-1.11465">
        <ele>18</ele>
        <time>2019-08-08T12:01:25Z</time>
      </trkpt>
      <trkpt lat="44.49518" lon="-1.11468">
        <ele>18</ele>
        <time>2019-08-08T12:01:30Z</time>
      </trkpt>
      <trkpt lat="44.49512" lon="-1.11474">
        <ele>18</ele>
        <time>2019-08-08T12:01:35Z</time>
      </trkpt>
      <trkpt lat="44.49505" lon="-1.11479">
        <ele>18</ele>
        <time>2019-08-08T12:01:40Z</time>
      </trkpt>
      <trkpt lat="44.49498" lon="-1.11486">
        <ele>18</ele>
        <time>2019-08-08T12:01:45Z</time>
      </trkpt>
      <trkpt lat="44.49486" lon="-1.11491">
        <ele>18</ele>
        <time>2019-08-08T12:01:55Z</time>
      </trkpt>
      <trkpt lat="44.49478" lon="-1.11493">
        <ele>18</ele>
        <time>2019-08-08T12:02:00Z</time>
      </trkpt>
      <trkpt lat="44.49469" lon="-1.11495">
        <ele>18</ele>
        <time>2019-08-08T12:02:05Z</time>
      </trkpt>
      <trkpt lat="44.49459" lon="-1.11496">
        <ele>18</ele>
        <time>2019-08-08T12:02:10Z</time>
      </trkpt>
      <trkpt lat="44.49448" lon="-1.11503">
        <ele>18</ele>
        <time>2019-08-08T12:02:15Z</time>
      </trkpt>
      <trkpt lat="44.49439" lon="-1.1151">
        <ele>18</ele>
        <time>2019-08-08T12:02:20Z</time>
      </trkpt>
      <trkpt lat="44.49433" lon="-1.11516">
        <ele>18</ele>
        <time>2019-08-08T12:02:25Z</time>
      </trkpt>
      <trkpt lat="44.49424" lon="-1.11523">
        <ele>18</ele>
        <time>2019-08-08T12:02:30Z</time>
      </trkpt>
      <trkpt lat="44.49416" lon="-1.1153">
        <ele>18</ele>
        <time>2019-08-08T12:02:35Z</time>
      </trkpt>
      <trkpt lat="44.494" lon="-1.11543">
        <ele>18</ele>
        <time>2019-08-08T12:02:45Z</time>
      </trkpt>
      <trkpt lat="44.49392" lon="-1.1155">
        <ele>18</ele>
        <time>2019-08-08T12:02:50Z</time>
      </trkpt>
      <trkpt lat="44.49384" lon="-1.11556">
        <ele>18</ele>
        <time>2019-08-08T12:02:55Z</time>
      </trkpt>
      <trkpt lat="44.49376" lon="-1.11561">
        <ele>18</ele>
        <time>2019-08-08T12:03:00Z</time>
      </trkpt>
      <trkpt lat="44.49366" lon="-1.11565">
        <ele>18</ele>
        <time>2019-08-08T12:03:05Z</time>
      </trkpt>
      <trkpt lat="44.49359" lon="-1.11568">
        <ele>18</ele>
        <time>2019-08-08T12:03:10Z</time>
      </trkpt>
      <trkpt lat="44.49353" lon="-1.11572">
        <ele>18</ele>
        <time>2019-08-08T12:03:15Z</time>
      </trkpt>
      <trkpt lat="44.49346" lon="-1.11577">
        <ele>18</ele>
        <time>2019-08-08T12:03:20Z</time>
      </trkpt>
      <trkpt lat="44.49331" lon="-1.11589">
        <ele>18</ele>
        <time>2019-08-08T12:03:30Z</time>
      </trkpt>
      <trkpt lat="44.49326" lon="-1.11593">
        <ele>18</ele>
        <time>2019-08-08T12:03:35Z</time>
      </trkpt>
      <trkpt lat="44.4932" lon="-1.116">
        <ele>18</ele>
        <time>2019-08-08T12:03:40Z</time>
      </trkpt>
      <trkpt lat="44.49314" lon="-1.11608">
        <ele>18</ele>
        <time>2019-08-08T12:03:45Z</time>
      </trkpt>
      <trkpt lat="44.49308" lon="-1.11615">
        <ele>18</ele>
        <time>2019-08-08T12:03:50Z</time>
      </trkpt>
      <trkpt lat="44.49302" lon="-1.11623">
        <ele>18</ele>
        <time>2019-08-08T12:03:55Z</time>
      </trkpt>
      <trkpt lat="44.49298" lon="-1.11626">
        <ele>18</ele>
        <time>2019-08-08T12:04:00Z</time>
      </trkpt>
      <trkpt lat="44.49293" lon="-1.11632">
        <ele>18</ele>
        <time>2019-08-08T12:04:05Z</time>
      </trkpt>
      <trkpt lat="44.49287" lon="-1.11636">
        <ele>18</ele>
        <time>2019-08-08T12:04:10Z</time>
      </trkpt>
      <trkpt lat="44.49271" lon="-1.11645">
        <ele>18</ele>
        <time>2019-08-08T12:04:20Z</time>
      </trkpt>
      <trkpt lat="44.49262" lon="-1.11653">
        <ele>18</ele>
        <time>2019-08-08T12:04:25Z</time>
      </trkpt>
      <trkpt lat="44.49257" lon="-1.11659">
        <ele>18</ele>
        <time>2019-08-08T12:04:30Z</time>
      </trkpt>
      <trkpt lat="44.49251" lon="-1.11667">
        <ele>18</ele>
        <time>2019-08-08T12:04:35Z</time>
      </trkpt>
      <trkpt lat="44.49243" lon="-1.11675">
        <ele>18</ele>
        <time>2019-08-08T12:04:40Z</time>
      </trkpt>
      <trkpt lat="44.49236" lon="-1.11684">
        <ele>18</ele>
        <time>2019-08-08T12:04:45Z</time>
      </trkpt>
      <trkpt lat="44.49229" lon="-1.11691">
        <ele>18</ele>
        <time>2019-08-08T12:04:50Z</time>
      </trkpt>
      <trkpt lat="44.49224" lon="-1.11696">
        <ele>18</ele>
        <time>2019-08-08T12:04:55Z</time>
      </trkpt>
      <trkpt lat="44.49211" lon="-1.11711">
        <ele>18</ele>
        <time>2019-08-08T12:05:05Z</time>
      </trkpt>
      <trkpt lat="44.49204" lon="-1.11717">
        <ele>18</ele>
        <time>2019-08-08T12:05:10Z</time>
      </trkpt>
      <trkpt lat="44.49198" lon="-1.11724">
        <ele>18</ele>
        <time>2019-08-08T12:05:15Z</time>
      </trkpt>
      <trkpt lat="44.49191" lon="-1.11732">
        <ele>18</ele>
        <time>2019-08-08T12:05:20Z</time>
      </trkpt>
      <trkpt lat="44.49185" lon="-1.11739">
        <ele>18</ele>
        <time>2019-08-08T12:05:25Z</time>
      </trkpt>
      <trkpt lat="44.49178" lon="-1.11746">
        <ele>18</ele>
        <time>2019-08-08T12:05:30Z</time>
      </trkpt>
      <trkpt lat="44.49171" lon="-1.11754">
        <ele>18</ele>
        <time>2019-08-08T12:05:35Z</time>
      </trkpt>
      <trkpt lat="44.49166" lon="-1.1176">
        <ele>18</ele>
        <time>2019-08-08T12:05:40Z</time>
      </trkpt>
      <trkpt lat="44.49155" lon="-1.11774">
        <ele>18</ele>
        <time>2019-08-08T12:05:50Z</time>
      </trkpt>
      <trkpt lat="44.4915" lon="-1.11781">
        <ele>18</ele>
        <time>2019-08-08T12:05:55Z</time>
      </trkpt>
      <trkpt lat="44.49144" lon="-1.11788">
        <ele>18</ele>
        <time>2019-08-08T12:06:00Z</time>
      </trkpt>
      <trkpt lat="44.49139" lon="-1.11792">
        <ele>18</ele>
        <time>2019-08-08T12:06:05Z</time>
      </trkpt>
      <trkpt lat="44.49133" lon="-1.11799">
        <ele>18</ele>
        <time>2019-08-08T12:06:10Z</time>
      </trkpt>
      <trkpt lat="44.49127" lon="-1.11805">
        <ele>18</ele>
        <time>2019-08-08T12:06:15Z</time>
      </trkpt>
      <trkpt lat="44.49121" lon="-1.11812">
        <ele>18</ele>
        <time>2019-08-08T12:06:20Z</time>
      </trkpt>
      <trkpt lat="44.49115" lon="-1.1182">
        <ele>18</ele>
        <time>2019-08-08T12:06:25Z</time>
      </trkpt>
      <trkpt lat="44.49112" lon="-1.11824">
        <ele>18</ele>
        <time>2019-08-08T12:06:30Z</time>
      </trkpt>
      <trkpt lat="44.49103" lon="-1.11837">
        <ele>18</ele>
        <time>2019-08-08T12:06:40Z</time>
      </trkpt>
      <trkpt lat="44.49099" lon="-1.11843">
        <ele>18</ele>
        <time>2019-08-08T12:06:45Z</time>
      </trkpt>
      <trkpt lat="44.49096" lon="-1.11847">
        <ele>18</ele>
        <time>2019-08-08T12:06:50Z</time>
      </trkpt>
      <trkpt lat="44.49092" lon="-1.11851">
        <ele>18</ele>
        <time>2019-08-08T12:06:55Z</time>
      </trkpt>
      <trkpt lat="44.49087" lon="-1.11857">
        <ele>18</ele>
        <time>2019-08-08T12:07:00Z</time>
      </trkpt>
      <trkpt lat="44.49081" lon="-1.11865">
        <ele>18</ele>
        <time>2019-08-08T12:07:05Z</time>
      </trkpt>
      <trkpt lat="44.49076" lon="-1.11874">
        <ele>18</ele>
        <time>2019-08-08T12:07:10Z</time>
      </trkpt>
      <trkpt lat="44.4907" lon="-1.11883">
        <ele>18</ele>
        <time>2019-08-08T12:07:15Z</time>
      </trkpt>
      <trkpt lat="44.4906" lon="-1.11901">
        <ele>18</ele>
        <time>2019-08-08T12:07:25Z</time>
      </trkpt>
      <trkpt lat="44.49055" lon="-1.1191">
        <ele>18</ele>
        <time>2019-08-08T12:07:30Z</time>
      </trkpt>
      <trkpt lat="44.4905" lon="-1.11918">
        <ele>18</ele>
        <time>2019-08-08T12:07:35Z</time>
      </trkpt>
      <trkpt lat="44.49045" lon="-1.11926">
        <ele>18</ele>
        <time>2019-08-08T12:07:40Z</time>
      </trkpt>
      <trkpt lat="44.4904" lon="-1.11936">
        <ele>18</ele>
        <time>2019-08-08T12:07:45Z</time>
      </trkpt>
      <trkpt lat="44.49037" lon="-1.11942">
        <ele>18</ele>
        <time>2019-08-08T12:07:50Z</time>
      </trkpt>
      <trkpt lat="44.49032" lon="-1.11949">
        <ele>18</ele>
        <time>2019-08-08T12:07:55Z</time>
      </trkpt>
      <trkpt lat="44.49027" lon="-1.11955">
        <ele>18</ele>
        <time>2019-08-08T12:08:00Z</time>
      </trkpt>
      <trkpt lat="44.49019" lon="-1.11963">
        <ele>18</ele>
        <time>2019-08-08T12:08:05Z</time>
      </trkpt>
      <trkpt lat="44.49009" lon="-1.11977">
        <ele>18</ele>
        <time>2019-08-08T12:08:15Z</time>
      </trkpt>
      <trkpt lat="44.49005" lon="-1.11983">
        <ele>18</ele>
        <time>2019-08-08T12:08:20Z</time>
      </trkpt>
      <trkpt lat="44.48999" lon="-1.11991">
        <ele>18</ele>
        <time>2019-08-08T12:08:25Z</time>
      </trkpt>
      <trkpt lat="44.48993" lon="-1.12">
        <ele>18</ele>
        <time>2019-08-08T12:08:30Z</time>
      </trkpt>
      <trkpt lat="44.48987" lon="-1.1201">
        <ele>18</ele>
        <time>2019-08-08T12:08:35Z</time>
      </trkpt>
      <trkpt lat="44.48984" lon="-1.12018">
        <ele>18</ele>
        <time>2019-08-08T12:08:40Z</time>
      </trkpt>
      <trkpt lat="44.4898" lon="-1.12026">
        <ele>18</ele>
        <time>2019-08-08T12:08:45Z</time>
      </trkpt>
      <trkpt lat="44.48975" lon="-1.12031">
        <ele>18</ele>
        <time>2019-08-08T12:08:50Z</time>
      </trkpt>
      <trkpt lat="44.48966" lon="-1.12046">
        <ele>18</ele>
        <time>2019-08-08T12:09:00Z</time>
      </trkpt>
      <trkpt lat="44.48962" lon="-1.12054">
        <ele>18</ele>
        <time>2019-08-08T12:09:05Z</time>
      </trkpt>
      <trkpt lat="44.48958" lon="-1.12061">
        <ele>18</ele>
        <time>2019-08-08T12:09:10Z</time>
      </trkpt>
      <trkpt lat="44.48954" lon="-1.12068">
        <ele>18</ele>
        <time>2019-08-08T12:09:15Z</time>
      </trkpt>
      <trkpt lat="44.4895" lon="-1.12076">
        <ele>18</ele>
        <time>2019-08-08T12:09:20Z</time>
      </trkpt>
      <trkpt lat="44.48946" lon="-1.12085">
        <ele>18</ele>
        <time>2019-08-08T12:09:25Z</time>
      </trkpt>
      <trkpt lat="44.48943" lon="-1.12091">
        <ele>18</ele>
        <time>2019-08-08T12:09:30Z</time>
      </trkpt>
      <trkpt lat="44.4894" lon="-1.12096">
        <ele>18</ele>
        <time>2019-08-08T12:09:35Z</time>
      </trkpt>
      <trkpt lat="44.48936" lon="-1.121">
        <ele>18</ele>
        <time>2019-08-08T12:09:40Z</time>
      </trkpt>
      <trkpt lat="44.48927" lon="-1.12106">
        <ele>18</ele>
        <time>2019-08-08T12:09:50Z</time>
      </trkpt>
      <trkpt lat="44.48924" lon="-1.12109">
        <ele>18</ele>
        <time>2019-08-08T12:09:55Z</time>
      </trkpt>
      <trkpt lat="44.48918" lon="-1.12113">
        <ele>18</ele>
        <time>2019-08-08T12:10:00Z</time>
      </trkpt>
      <trkpt lat="44.48913" lon="-1.12118">
        <ele>18</ele>
        <time>2019-08-08T12:10:05Z</time>
      </trkpt>
      <trkpt lat="44.48907" lon="-1.12123">
        <ele>18</ele>
        <time>2019-08-08T12:10:10Z</time>
      </trkpt>
      <trkpt lat="44.48901" lon="-1.12128">
        <ele>18</ele>
        <time>2019-08-08T12:10:15Z</time>
      </trkpt>
      <trkpt lat="44.48896" lon="-1.12131">
        <ele>18</ele>
        <time>2019-08-08T12:10:20Z</time>
      </trkpt>
      <trkpt lat="44.48889" lon="-1.12136">
        <ele>18</ele>
        <time>2019-08-08T12:10:25Z</time>
      </trkpt>
      <trkpt lat="44.48877" lon="-1.12145">
        <ele>18</ele>
        <time>2019-08-08T12:10:35Z</time>
      </trkpt>
      <trkpt lat="44.48869" lon="-1.12151">
        <ele>18</ele>
        <time>2019-08-08T12:10:40Z</time>
      </trkpt>
      <trkpt lat="44.48863" lon="-1.12158">
        <ele>18</ele>
        <time>2019-08-08T12:10:45Z</time>
      </trkpt>
      <trkpt lat="44.48857" lon="-1.12165">
        <ele>18</ele>
        <time>2019-08-08T12:10:50Z</time>
      </trkpt>
      <trkpt lat="44.4885" lon="-1.12172">
        <ele>18</ele>
        <time>2019-08-08T12:10:55Z</time>
      </trkpt>
      <trkpt lat="44.48845" lon="-1.12177">
        <ele>18</ele>
        <time>2019-08-08T12:11:00Z</time>
      </trkpt>
      <trkpt lat="44.48839" lon="-1.12184">
        <ele>18</ele>
        <time>2019-08-08T12:11:05Z</time>
      </trkpt>
      <trkpt lat="44.48833" lon="-1.12192">
        <ele>18</ele>
        <time>2019-08-08T12:11:10Z</time>
      </trkpt>
      <trkpt lat="44.48826" lon="-1.12198">
        <ele>18</ele>
        <time>2019-08-08T12:11:15Z</time>
      </trkpt>
      <trkpt lat="44.48811" lon="-1.12215">
        <ele>18</ele>
        <time>2019-08-08T12:11:25Z</time>
      </trkpt>
      <trkpt lat="44.48811" lon="-1.12221">
        <ele>18</ele>
        <time>2019-08-08T12:11:30Z</time>
      </trkpt>
      <trkpt lat="44.48814" lon="-1.12226">
        <ele>18</ele>
        <time>2019-08-08T12:11:35Z</time>
      </trkpt>
      <trkpt lat="44.48819" lon="-1.12227">
        <ele>18</ele>
        <time>2019-08-08T12:11:40Z</time>
      </trkpt>
      <trkpt lat="44.48825" lon="-1.12228">
        <ele>18</ele>
        <time>2019-08-08T12:11:45Z</time>
      </trkpt>
      <trkpt lat="44.48833" lon="-1.12228">
        <ele>18</ele>
        <time>2019-08-08T12:11:50Z</time>
      </trkpt>
      <trkpt lat="44.48839" lon="-1.1223">
        <ele>18</ele>
        <time>2019-08-08T12:11:55Z</time>
      </trkpt>
      <trkpt lat="44.48849" lon="-1.12231">
        <ele>18</ele>
        <time>2019-08-08T12:12:00Z</time>
      </trkpt>
      <trkpt lat="44.48864" lon="-1.12239">
        <ele>18</ele>
        <time>2019-08-08T12:12:10Z</time>
      </trkpt>
      <trkpt lat="44.48871" lon="-1.12247">
        <ele>18</ele>
        <time>2019-08-08T12:12:15Z</time>
      </trkpt>
      <trkpt lat="44.48875" lon="-1.12251">
        <ele>18</ele>
        <time>2019-08-08T12:12:20Z</time>
      </trkpt>
      <trkpt lat="44.4888" lon="-1.12256">
        <ele>18</ele>
        <time>2019-08-08T12:12:25Z</time>
      </trkpt>
      <trkpt lat="44.48887" lon="-1.1226">
        <ele>18</ele>
        <time>2019-08-08T12:12:30Z</time>
      </trkpt>
      <trkpt lat="44.48895" lon="-1.12265">
        <ele>18</ele>
        <time>2019-08-08T12:12:35Z</time>
      </trkpt>
      <trkpt lat="44.48901" lon="-1.12269">
        <ele>18</ele>
        <time>2019-08-08T12:12:40Z</time>
      </trkpt>
      <trkpt lat="44.48907" lon="-1.12272">
        <ele>18</ele>
        <time>2019-08-08T12:12:45Z</time>
      </trkpt>
      <trkpt lat="44.48914" lon="-1.12277">
        <ele>18</ele>
        <time>2019-08-08T12:12:50Z</time>
      </trkpt>
      <trkpt lat="44.48931" lon="-1.12289">
        <ele>18</ele>
        <time>2019-08-08T12:13:00Z</time>
      </trkpt>
      <trkpt lat="44.4894" lon="-1.12296">
        <ele>18</ele>
        <time>2019-08-08T12:13:05Z</time>
      </trkpt>
      <trkpt lat="44.4895" lon="-1.12304">
        <ele>18</ele>
        <time>2019-08-08T12:13:10Z</time>
      </trkpt>
      <trkpt lat="44.48959" lon="-1.12312">
        <ele>18</ele>
        <time>2019-08-08T12:13:15Z</time>
      </trkpt>
      <trkpt lat="44.4897" lon="-1.12321">
        <ele>18</ele>
        <time>2019-08-08T12:13:20Z</time>
      </trkpt>
      <trkpt lat="44.48977" lon="-1.12328">
        <ele>18</ele>
        <time>2019-08-08T12:13:25Z</time>
      </trkpt>
      <trkpt lat="44.48986" lon="-1.12337">
        <ele>18</ele>
        <time>2019-08-08T12:13:30Z</time>
      </trkpt>
      <trkpt lat="44.48994" lon="-1.12345">
        <ele>18</ele>
        <time>2019-08-08T12:13:35Z</time>
      </trkpt>
      <trkpt lat="44.49009" lon="-1.12357">
        <ele>18</ele>
        <time>2019-08-08T12:13:45Z</time>
      </trkpt>
      <trkpt lat="44.49017" lon="-1.12363">
        <ele>18</ele>
        <time>2019-08-08T12:13:50Z</time>
      </trkpt>
      <trkpt lat="44.49025" lon="-1.1237">
        <ele>18</ele>
        <time>2019-08-08T12:13:55Z</time>
      </trkpt>
      <trkpt lat="44.49032" lon="-1.12378">
        <ele>18</ele>
        <time>2019-08-08T12:14:00Z</time>
      </trkpt>
      <trkpt lat="44.49038" lon="-1.12385">
        <ele>18</ele>
        <time>2019-08-08T12:14:05Z</time>
      </trkpt>
      <trkpt lat="44.49044" lon="-1.12392">
        <ele>18</ele>
        <time>2019-08-08T12:14:10Z</time>
      </trkpt>
      <trkpt lat="44.49049" lon="-1.12399">
        <ele>18</ele>
        <time>2019-08-08T12:14:15Z</time>
      </trkpt>
      <trkpt lat="44.49055" lon="-1.12406">
        <ele>18</ele>
        <time>2019-08-08T12:14:20Z</time>
      </trkpt>
      <trkpt lat="44.49063" lon="-1.12411">
        <ele>18</ele>
        <time>2019-08-08T12:14:25Z</time>
      </trkpt>
      <trkpt lat="44.49081" lon="-1.12422">
        <ele>18</ele>
        <time>2019-08-08T12:14:35Z</time>
      </trkpt>
      <trkpt lat="44.4909" lon="-1.12427">
        <ele>18</ele>
        <time>2019-08-08T12:14:40Z</time>
      </trkpt>
      <trkpt lat="44.49099" lon="-1.12433">
        <ele>18</ele>
        <time>2019-08-08T12:14:45Z</time>
      </trkpt>
      <trkpt lat="44.49107" lon="-1.1244">
        <ele>18</ele>
        <time>2019-08-08T12:14:50Z</time>
      </trkpt>
      <trkpt lat="44.49115" lon="-1.12447">
        <ele>18</ele>
        <time>2019-08-08T12:14:55Z</time>
      </trkpt>
      <trkpt lat="44.49122" lon="-1.12453">
        <ele>18</ele>
        <time>2019-08-08T12:15:00Z</time>
      </trkpt>
      <trkpt lat="44.49129" lon="-1.12458">
        <ele>18</ele>
        <time>2019-08-08T12:15:05Z</time>
      </trkpt>
      <trkpt lat="44.49137" lon="-1.12463">
        <ele>18</ele>
        <time>2019-08-08T12:15:10Z</time>
      </trkpt>
      <trkpt lat="44.49154" lon="-1.12476">
        <ele>18</ele>
        <time>2019-08-08T12:15:20Z</time>
      </trkpt>
      <trkpt lat="44.49162" lon="-1.12482">
        <ele>18</ele>
        <time>2019-08-08T12:15:25Z</time>
      </trkpt>
      <trkpt lat="44.49171" lon="-1.12488">
        <ele>18</ele>
        <time>2019-08-08T12:15:30Z</time>
      </trkpt>
      <trkpt lat="44.49177" lon="-1.12492">
        <ele>18</ele>
        <time>2019-08-08T12:15:35Z</time>
      </trkpt>
      <trkpt lat="44.49185" lon="-1.12498">
        <ele>18</ele>
        <time>2019-08-08T12:15:40Z</time>
      </trkpt>
      <trkpt lat="44.49193" lon="-1.12504">
        <ele>18</ele>
        <time>2019-08-08T12:15:45Z</time>
      </trkpt>
      <trkpt lat="44.49198" lon="-1.1251">
        <ele>18</ele>
        <time>2019-08-08T12:15:50Z</time>
      </trkpt>
      <trkpt lat="44.49204" lon="-1.12517">
        <ele>18</ele>
        <time>2019-08-08T12:15:55Z</time>
      </trkpt>
      <trkpt lat="44.49211" lon="-1.12521">
        <ele>18</ele>
        <time>2019-08-08T12:16:00Z</time>
      </trkpt>
      <trkpt lat="44.49222" lon="-1.12527">
        <ele>18</ele>
        <time>2019-08-08T12:16:10Z</time>
      </trkpt>
      <trkpt lat="44.4923" lon="-1.12532">
        <ele>18</ele>
        <time>2019-08-08T12:16:15Z</time>
      </trkpt>
      <trkpt lat="44.49237" lon="-1.12536">
        <ele>18</ele>
        <time>2019-08-08T12:16:20Z</time>
      </trkpt>
      <trkpt lat="44.49244" lon="-1.12542">
        <ele>18</ele>
        <time>2019-08-08T12:16:25Z</time>
      </trkpt>
      <trkpt lat="44.49252" lon="-1.12549">
        <ele>18</ele>
        <time>2019-08-08T12:16:30Z</time>
      </trkpt>
      <trkpt lat="44.49259" lon="-1.12557">
        <ele>18</ele>
        <time>2019-08-08T12:16:35Z</time>
      </trkpt>
      <trkpt lat="44.49267" lon="-1.12566">
        <ele>18</ele>
        <time>2019-08-08T12:16:40Z</time>
      </trkpt>
      <trkpt lat="44.49275" lon="-1.12574">
        <ele>18</ele>
        <time>2019-08-08T12:16:45Z</time>
      </trkpt>
      <trkpt lat="44.49292" lon="-1.12592">
        <ele>18</ele>
        <time>2019-08-08T12:16:55Z</time>
      </trkpt>
      <trkpt lat="44.49301" lon="-1.12602">
        <ele>18</ele>
        <time>2019-08-08T12:17:00Z</time>
      </trkpt>
      <trkpt lat="44.49312" lon="-1.12612">
        <ele>18</ele>
        <time>2019-08-08T12:17:05Z</time>
      </trkpt>
      <trkpt lat="44.49325" lon="-1.12618">
        <ele>18</ele>
        <time>2019-08-08T12:17:10Z</time>
      </trkpt>
      <trkpt lat="44.49337" lon="-1.12624">
        <ele>18</ele>
        <time>2019-08-08T12:17:15Z</time>
      </trkpt>
      <trkpt lat="44.49352" lon="-1.12629">
        <ele>18</ele>
        <time>2019-08-08T12:17:20Z</time>
      </trkpt>
      <trkpt lat="44.49363" lon="-1.12632">
        <ele>18</ele>
        <time>2019-08-08T12:17:25Z</time>
      </trkpt>
      <trkpt lat="44.49377" lon="-1.12635">
        <ele>18</ele>
        <time>2019-08-08T12:17:30Z</time>
      </trkpt>
      <trkpt lat="44.49389" lon="-1.12638">
        <ele>18</ele>
        <time>2019-08-08T12:17:35Z</time>
      </trkpt>
      <trkpt lat="44.49409" lon="-1.12646">
        <ele>18</ele>
        <time>2019-08-08T12:17:45Z</time>
      </trkpt>
      <trkpt lat="44.49419" lon="-1.12652">
        <ele>18</ele>
        <time>2019-08-08T12:17:50Z</time>
      </trkpt>
      <trkpt lat="44.49432" lon="-1.12658">
        <ele>18</ele>
        <time>2019-08-08T12:17:55Z</time>
      </trkpt>
      <trkpt lat="44.49441" lon="-1.12664">
        <ele>18</ele>
        <time>2019-08-08T12:18:00Z</time>
      </trkpt>
      <trkpt lat="44.49447" lon="-1.12674">
        <ele>18</ele>
        <time>2019-08-08T12:18:05Z</time>
      </trkpt>
      <trkpt lat="44.49454" lon="-1.1268">
        <ele>18</ele>
        <time>2019-08-08T12:18:10Z</time>
      </trkpt>
      <trkpt lat="44.49464" lon="-1.12683">
        <ele>18</ele>
        <time>2019-08-08T12:18:15Z</time>
      </trkpt>
      <trkpt lat="44.49476" lon="-1.12682">
        <ele>18</ele>
        <time>2019-08-08T12:18:20Z</time>
      </trkpt>
      <trkpt lat="44.495" lon="-1.12683">
        <ele>18</ele>
        <time>2019-08-08T12:18:30Z</time>
      </trkpt>
      <trkpt lat="44.49512" lon="-1.12684">
        <ele>18</ele>
        <time>2019-08-08T12:18:35Z</time>
      </trkpt>
      <trkpt lat="44.49523" lon="-1.1269">
        <ele>18</ele>
        <time>2019-08-08T12:18:40Z</time>
      </trkpt>
      <trkpt lat="44.49533" lon="-1.12699">
        <ele>18</ele>
        <time>2019-08-08T12:18:45Z</time>
      </trkpt>
      <trkpt lat="44.49542" lon="-1.12708">
        <ele>18</ele>
        <time>2019-08-08T12:18:50Z</time>
      </trkpt>
      <trkpt lat="44.49551" lon="-1.12718">
        <ele>18</ele>
        <time>2019-08-08T12:18:55Z</time>
      </trkpt>
      <trkpt lat="44.49561" lon="-1.12729">
        <ele>18</ele>
        <time>2019-08-08T12:19:00Z</time>
      </trkpt>
      <trkpt lat="44.49571" lon="-1.12737">
        <ele>18</ele>
        <time>2019-08-08T12:19:05Z</time>
      </trkpt>
      <trkpt lat="44.4958" lon="-1.12748">
        <ele>18</ele>
        <time>2019-08-08T12:19:10Z</time>
      </trkpt>
      <trkpt lat="44.49596" lon="-1.12763">
        <ele>18</ele>
        <time>2019-08-08T12:19:20Z</time>
      </trkpt>
      <trkpt lat="44.49605" lon="-1.12771">
        <ele>18</ele>
        <time>2019-08-08T12:19:25Z</time>
      </trkpt>
      <trkpt lat="44.49614" lon="-1.1278">
        <ele>18</ele>
        <time>2019-08-08T12:19:30Z</time>
      </trkpt>
      <trkpt lat="44.49621" lon="-1.12789">
        <ele>18</ele>
        <time>2019-08-08T12:19:35Z</time>
      </trkpt>
      <trkpt lat="44.49629" lon="-1.12797">
        <ele>18</ele>
        <time>2019-08-08T12:19:40Z</time>
      </trkpt>
      <trkpt lat="44.49639" lon="-1.12806">
        <ele>18</ele>
        <time>2019-08-08T12:19:45Z</time>
      </trkpt>
      <trkpt lat="44.49646" lon="-1.12812">
        <ele>18</ele>
        <time>2019-08-08T12:19:50Z</time>
      </trkpt>
      <trkpt lat="44.49655" lon="-1.12817">
        <ele>18</ele>
        <time>2019-08-08T12:19:55Z</time>
      </trkpt>
      <trkpt lat="44.49673" lon="-1.12828">
        <ele>18</ele>
        <time>2019-08-08T12:20:05Z</time>
      </trkpt>
      <trkpt lat="44.49681" lon="-1.12833">
        <ele>18</ele>
        <time>2019-08-08T12:20:10Z</time>
      </trkpt>
      <trkpt lat="44.49689" lon="-1.12838">
        <ele>18</ele>
        <time>2019-08-08T12:20:15Z</time>
      </trkpt>
      <trkpt lat="44.49698" lon="-1.12844">
        <ele>18</ele>
        <time>2019-08-08T12:20:20Z</time>
      </trkpt>
      <trkpt lat="44.49708" lon="-1.12849">
        <ele>18</ele>
        <time>2019-08-08T12:20:25Z</time>
      </trkpt>
      <trkpt lat="44.49718" lon="-1.12855">
        <ele>18</ele>
        <time>2019-08-08T12:20:30Z</time>
      </trkpt>
      <trkpt lat="44.49728" lon="-1.12863">
        <ele>18</ele>
        <time>2019-08-08T12:20:35Z</time>
      </trkpt>
      <trkpt lat="44.49737" lon="-1.12872">
        <ele>18</ele>
        <time>2019-08-08T12:20:40Z</time>
      </trkpt>
      <trkpt lat="44.49755" lon="-1.12889">
        <ele>18</ele>
        <time>2019-08-08T12:20:50Z</time>
      </trkpt>
      <trkpt lat="44.49765" lon="-1.12897">
        <ele>18</ele>
        <time>2019-08-08T12:20:55Z</time>
      </trkpt>
      <trkpt lat="44.49775" lon="-1.12909">
        <ele>18</ele>
        <time>2019-08-08T12:21:00Z</time>
      </trkpt>
      <trkpt lat="44.49783" lon="-1.12917">
        <ele>18</ele>
        <time>2019-08-08T12:21:05Z</time>
      </trkpt>
      <trkpt lat="44.49791" lon="-1.12926">
        <ele>18</ele>
        <time>2019-08-08T12:21:10Z</time>
      </trkpt>
      <trkpt lat="44.498" lon="-1.12936">
        <ele>18</ele>
        <time>2019-08-08T12:21:15Z</time>
      </trkpt>
      <trkpt lat="44.49808" lon="-1.12945">
        <ele>18</ele>
        <time>2019-08-08T12:21:20Z</time>
      </trkpt>
      <trkpt lat="44.49816" lon="-1.12953">
        <ele>18</ele>
        <time>2019-08-08T12:21:25Z</time>
      </trkpt>
      <trkpt lat="44.49825" lon="-1.1296">
        <ele>18</ele>
        <time>2019-08-08T12:21:30Z</time>
      </trkpt>
      <trkpt lat="44.49843" lon="-1.12975">
        <ele>18</ele>
        <time>2019-08-08T12:21:40Z</time>
      </trkpt>
      <trkpt lat="44.49851" lon="-1.12984">
        <ele>18</ele>
        <time>2019-08-08T12:21:45Z</time>
      </trkpt>
      <trkpt lat="44.4986" lon="-1.12993">
        <ele>18</ele>
        <time>2019-08-08T12:21:50Z</time>
      </trkpt>
      <trkpt lat="44.49869" lon="-1.13001">
        <ele>18</ele>
        <time>2019-08-08T12:21:55Z</time>
      </trkpt>
      <trkpt lat="44.49879" lon="-1.1301">
        <ele>18</ele>
        <time>2019-08-08T12:22:00Z</time>
      </trkpt>
      <trkpt lat="44.49888" lon="-1.1302">
        <ele>18</ele>
        <time>2019-08-08T12:22:05Z</time>
      </trkpt>
      <trkpt lat="44.49898" lon="-1.13028">
        <ele>18</ele>
        <time>2019-08-08T12:22:10Z</time>
      </trkpt>
      <trkpt lat="44.49909" lon="-1.13036">
        <ele>18</ele>
        <time>2019-08-08T12:22:15Z</time>
      </trkpt>
      <trkpt lat="44.49929" lon="-1.13052">
        <ele>18</ele>
        <time>2019-08-08T12:22:25Z</time>
      </trkpt>
      <trkpt lat="44.49938" lon="-1.1306">
        <ele>18</ele>
        <time>2019-08-08T12:22:30Z</time>
      </trkpt>
      <trkpt lat="44.49947" lon="-1.13069">
        <ele>18</ele>
        <time>2019-08-08T12:22:35Z</time>
      </trkpt>
      <trkpt lat="44.49956" lon="-1.13078">
        <ele>18</ele>
        <time>2019-08-08T12:22:40Z</time>
      </trkpt>
      <trkpt lat="44.49964" lon="-1.13087">
        <ele>18</ele>
        <time>2019-08-08T12:22:45Z</time>
      </trkpt>
      <trkpt lat="44.49973" lon="-1.13097">
        <ele>18</ele>
        <time>2019-08-08T12:22:50Z</time>
      </trkpt>
      <trkpt lat="44.49981" lon="-1.13105">
        <ele>18</ele>
        <time>2019-08-08T12:22:55Z</time>
      </trkpt>
      <trkpt lat="44.4999" lon="-1.13114">
        <ele>18</ele>
        <time>2019-08-08T12:23:00Z</time>
      </trkpt>
      <trkpt lat="44.49999" lon="-1.13122">
        <ele>18</ele>
        <time>2019-08-08T12:23:05Z</time>
      </trkpt>
      <trkpt lat="44.50015" lon="-1.1314">
        <ele>18</ele>
        <time>2019-08-08T12:23:15Z</time>
      </trkpt>
      <trkpt lat="44.50022" lon="-1.13149">
        <ele>18</ele>
        <time>2019-08-08T12:23:20Z</time>
      </trkpt>
      <trkpt lat="44.5003" lon="-1.13157">
        <ele>18</ele>
        <time>2019-08-08T12:23:25Z</time>
      </trkpt>
      <trkpt lat="44.50037" lon="-1.13165">
        <ele>18</ele>
        <time>2019-08-08T12:23:30Z</time>
      </trkpt>
      <trkpt lat="44.50046" lon="-1.13173">
        <ele>18</ele>
        <time>2019-08-08T12:23:35Z</time>
      </trkpt>
      <trkpt lat="44.50054" lon="-1.13181">
        <ele>18</ele>
        <time>2019-08-08T12:23:40Z</time>
      </trkpt>
      <trkpt lat="44.50063" lon="-1.1319">
        <ele>18</ele>
        <time>2019-08-08T12:23:45Z</time>
      </trkpt>
      <trkpt lat="44.50073" lon="-1.13198">
        <ele>18</ele>
        <time>2019-08-08T12:23:50Z</time>
      </trkpt>
      <trkpt lat="44.50093" lon="-1.13214">
        <ele>18</ele>
        <time>2019-08-08T12:24:00Z</time>
      </trkpt>
      <trkpt lat="44.50103" lon="-1.13221">
        <ele>18</ele>
        <time>2019-08-08T12:24:05Z</time>
      </trkpt>
      <trkpt lat="44.50113" lon="-1.13228">
        <ele>18</ele>
        <time>2019-08-08T12:24:10Z</time>
      </trkpt>
      <trkpt lat="44.50124" lon="-1.13236">
        <ele>18</ele>
        <time>2019-08-08T12:24:15Z</time>
      </trkpt>
      <trkpt lat="44.50133" lon="-1.13245">
        <ele>18</ele>
        <time>2019-08-08T12:24:20Z</time>
      </trkpt>
      <trkpt lat="44.50144" lon="-1.13252">
        <ele>18</ele>
        <time>2019-08-08T12:24:25Z</time>
      </trkpt>
      <trkpt lat="44.50154" lon="-1.13263">
        <ele>18</ele>
        <time>2019-08-08T12:24:30Z</time>
      </trkpt>
      <trkpt lat="44.50162" lon="-1.13274">
        <ele>18</ele>
        <time>2019-08-08T12:24:35Z</time>
      </trkpt>
      <trkpt lat="44.50171" lon="-1.13285">
        <ele>18</ele>
        <time>2019-08-08T12:24:40Z</time>
      </trkpt>
      <trkpt lat="44.5019" lon="-1.13304">
        <ele>18</ele>
        <time>2019-08-08T12:24:50Z</time>
      </trkpt>
      <trkpt lat="44.50198" lon="-1.13314">
        <ele>18</ele>
        <time>2019-08-08T12:24:55Z</time>
      </trkpt>
      <trkpt lat="44.50208" lon="-1.13321">
        <ele>18</ele>
        <time>2019-08-08T12:25:00Z</time>
      </trkpt>
      <trkpt lat="44.50217" lon="-1.13329">
        <ele>18</ele>
        <time>2019-08-08T12:25:05Z</time>
      </trkpt>
      <trkpt lat="44.50227" lon="-1.13338">
        <ele>18</ele>
        <time>2019-08-08T12:25:10Z</time>
      </trkpt>
      <trkpt lat="44.50236" lon="-1.13347">
        <ele>18</ele>
        <time>2019-08-08T12:25:15Z</time>
      </trkpt>
      <trkpt lat="44.50245" lon="-1.13355">
        <ele>18</ele>
        <time>2019-08-08T12:25:20Z</time>
      </trkpt>
      <trkpt lat="44.50255" lon="-1.13363">
        <ele>18</ele>
        <time>2019-08-08T12:25:25Z</time>
      </trkpt>
      <trkpt lat="44.50273" lon="-1.13379">
        <ele>18</ele>
        <time>2019-08-08T12:25:35Z</time>
      </trkpt>
      <trkpt lat="44.50282" lon="-1.13387">
        <ele>18</ele>
        <time>2019-08-08T12:25:40Z</time>
      </trkpt>
      <trkpt lat="44.50292" lon="-1.13395">
        <ele>18</ele>
        <time>2019-08-08T12:25:45Z</time>
      </trkpt>
      <trkpt lat="44.50301" lon="-1.13403">
        <ele>18</ele>
        <time>2019-08-08T12:25:50Z</time>
      </trkpt>
      <trkpt lat="44.50312" lon="-1.13411">
        <ele>18</ele>
        <time>2019-08-08T12:25:55Z</time>
      </trkpt>
      <trkpt lat="44.50322" lon="-1.13419">
        <ele>18</ele>
        <time>2019-08-08T12:26:00Z</time>
      </trkpt>
      <trkpt lat="44.50333" lon="-1.13426">
        <ele>18</ele>
        <time>2019-08-08T12:26:05Z</time>
      </trkpt>
      <trkpt lat="44.50343" lon="-1.13435">
        <ele>18</ele>
        <time>2019-08-08T12:26:10Z</time>
      </trkpt>
      <trkpt lat="44.50352" lon="-1.13445">
        <ele>18</ele>
        <time>2019-08-08T12:26:15Z</time>
      </trkpt>
      <trkpt lat="44.5037" lon="-1.13466">
        <ele>18</ele>
        <time>2019-08-08T12:26:25Z</time>
      </trkpt>
      <trkpt lat="44.50379" lon="-1.13475">
        <ele>18</ele>
        <time>2019-08-08T12:26:30Z</time>
      </trkpt>
      <trkpt lat="44.50387" lon="-1.13485">
        <ele>18</ele>
        <time>2019-08-08T12:26:35Z</time>
      </trkpt>
      <trkpt lat="44.50395" lon="-1.13495">
        <ele>18</ele>
        <time>2019-08-08T12:26:40Z</time>
      </trkpt>
      <trkpt lat="44.50404" lon="-1.13504">
        <ele>18</ele>
        <time>2019-08-08T12:26:45Z</time>
      </trkpt>
      <trkpt lat="44.5041" lon="-1.13517">
        <ele>18</ele>
        <time>2019-08-08T12:26:50Z</time>
      </trkpt>
      <trkpt lat="44.50418" lon="-1.13528">
        <ele>18</ele>
        <time>2019-08-08T12:26:55Z</time>
      </trkpt>
      <trkpt lat="44.50427" lon="-1.13538">
        <ele>18</ele>
        <time>2019-08-08T12:27:00Z</time>
      </trkpt>
      <trkpt lat="44.50445" lon="-1.1356">
        <ele>18</ele>
        <time>2019-08-08T12:27:10Z</time>
      </trkpt>
      <trkpt lat="44.50454" lon="-1.13571">
        <ele>18</ele>
        <time>2019-08-08T12:27:15Z</time>
      </trkpt>
      <trkpt lat="44.50462" lon="-1.13583">
        <ele>18</ele>
        <time>2019-08-08T12:27:20Z</time>
      </trkpt>
      <trkpt lat="44.50469" lon="-1.13595">
        <ele>18</ele>
        <time>2019-08-08T12:27:25Z</time>
      </trkpt>
      <trkpt lat="44.50477" lon="-1.13605">
        <ele>18</ele>
        <time>2019-08-08T12:27:30Z</time>
      </trkpt>
      <trkpt lat="44.50485" lon="-1.13616">
        <ele>18</ele>
        <time>2019-08-08T12:27:35Z</time>
      </trkpt>
      <trkpt lat="44.50493" lon="-1.13626">
        <ele>18</ele>
        <time>2019-08-08T12:27:40Z</time>
      </trkpt>
      <trkpt lat="44.50501" lon="-1.13638">
        <ele>18</ele>
        <time>2019-08-08T12:27:45Z</time>
      </trkpt>
      <trkpt lat="44.5051" lon="-1.13649">
        <ele>18</ele>
        <time>2019-08-08T12:27:50Z</time>
      </trkpt>
      <trkpt lat="44.50525" lon="-1.13672">
        <ele>18</ele>
        <time>2019-08-08T12:28:00Z</time>
      </trkpt>
      <trkpt lat="44.50532" lon="-1.13684">
        <ele>18</ele>
        <time>2019-08-08T12:28:05Z</time>
      </trkpt>
      <trkpt lat="44.50539" lon="-1.13695">
        <ele>18</ele>
        <time>2019-08-08T12:28:10Z</time>
      </trkpt>
      <trkpt lat="44.50544" lon="-1.13707">
        <ele>18</ele>
        <time>2019-08-08T12:28:15Z</time>
      </trkpt>
      <trkpt lat="44.50552" lon="-1.13718">
        <ele>18</ele>
        <time>2019-08-08T12:28:20Z</time>
      </trkpt>
      <trkpt lat="44.5056" lon="-1.13729">
        <ele>18</ele>
        <time>2019-08-08T12:28:25Z</time>
      </trkpt>
      <trkpt lat="44.50568" lon="-1.13741">
        <ele>18</ele>
        <time>2019-08-08T12:28:30Z</time>
      </trkpt>
      <trkpt lat="44.50576" lon="-1.13753">
        <ele>18</ele>
        <time>2019-08-08T12:28:35Z</time>
      </trkpt>
      <trkpt lat="44.50591" lon="-1.13778">
        <ele>18</ele>
        <time>2019-08-08T12:28:45Z</time>
      </trkpt>
      <trkpt lat="44.506" lon="-1.13789">
        <ele>18</ele>
        <time>2019-08-08T12:28:50Z</time>
      </trkpt>
      <trkpt lat="44.50608" lon="-1.13801">
        <ele>18</ele>
        <time>2019-08-08T12:28:55Z</time>
      </trkpt>
      <trkpt lat="44.50615" lon="-1.13814">
        <ele>18</ele>
        <time>2019-08-08T12:29:00Z</time>
      </trkpt>
      <trkpt lat="44.50623" lon="-1.13825">
        <ele>18</ele>
        <time>2019-08-08T12:29:05Z</time>
      </trkpt>
      <trkpt lat="44.5063" lon="-1.13838">
        <ele>18</ele>
        <time>2019-08-08T12:29:10Z</time>
      </trkpt>
      <trkpt lat="44.50637" lon="-1.1385">
        <ele>18</ele>
        <time>2019-08-08T12:29:15Z</time>
      </trkpt>
      <trkpt lat="44.50644" lon="-1.1386">
        <ele>18</ele>
        <time>2019-08-08T12:29:20Z</time>
      </trkpt>
      <trkpt lat="44.50652" lon="-1.13871">
        <ele>18</ele>
        <time>2019-08-08T12:29:25Z</time>
      </trkpt>
      <trkpt lat="44.50665" lon="-1.13894">
        <ele>18</ele>
        <time>2019-08-08T12:29:35Z</time>
      </trkpt>
      <trkpt lat="44.50672" lon="-1.13904">
        <ele>18</ele>
        <time>2019-08-08T12:29:40Z</time>
      </trkpt>
      <trkpt lat="44.50681" lon="-1.13914">
        <ele>18</ele>
        <time>2019-08-08T12:29:45Z</time>
      </trkpt>
      <trkpt lat="44.5069" lon="-1.13922">
        <ele>18</ele>
        <time>2019-08-08T12:29:50Z</time>
      </trkpt>
      <trkpt lat="44.50698" lon="-1.13933">
        <ele>18</ele>
        <time>2019-08-08T12:29:55Z</time>
      </trkpt>
      <trkpt lat="44.50706" lon="-1.13945">
        <ele>18</ele>
        <time>2019-08-08T12:30:00Z</time>
      </trkpt>
      <trkpt lat="44.50714" lon="-1.13956">
        <ele>18</ele>
        <time>2019-08-08T12:30:05Z</time>
      </trkpt>
      <trkpt lat="44.50723" lon="-1.13964">
        <ele>18</ele>
        <time>2019-08-08T12:30:10Z</time>
      </trkpt>
      <trkpt lat="44.50739" lon="-1.13984">
        <ele>18</ele>
        <time>2019-08-08T12:30:20Z</time>
      </trkpt>
      <trkpt lat="44.50747" lon="-1.13993">
        <ele>18</ele>
        <time>2019-08-08T12:30:25Z</time>
      </trkpt>
      <trkpt lat="44.50753" lon="-1.14002">
        <ele>18</ele>
        <time>2019-08-08T12:30:30Z</time>
      </trkpt>
      <trkpt lat="44.5076" lon="-1.14012">
        <ele>18</ele>
        <time>2019-08-08T12:30:35Z</time>
      </trkpt>
      <trkpt lat="44.50766" lon="-1.14024">
        <ele>18</ele>
        <time>2019-08-08T12:30:40Z</time>
      </trkpt>
      <trkpt lat="44.50772" lon="-1.14036">
        <ele>18</ele>
        <time>2019-08-08T12:30:45Z</time>
      </trkpt>
      <trkpt lat="44.50779" lon="-1.14047">
        <ele>18</ele>
        <time>2019-08-08T12:30:50Z</time>
      </trkpt>
      <trkpt lat="44.50786" lon="-1.14056">
        <ele>18</ele>
        <time>2019-08-08T12:30:55Z</time>
      </trkpt>
      <trkpt lat="44.50794" lon="-1.14067">
        <ele>18</ele>
        <time>2019-08-08T12:31:00Z</time>
      </trkpt>
      <trkpt lat="44.50806" lon="-1.14087">
        <ele>18</ele>
        <time>2019-08-08T12:31:10Z</time>
      </trkpt>
      <trkpt lat="44.50812" lon="-1.14098">
        <ele>18</ele>
        <time>2019-08-08T12:31:15Z</time>
      </trkpt>
      <trkpt lat="44.50818" lon="-1.14108">
        <ele>18</ele>
        <time>2019-08-08T12:31:20Z</time>
      </trkpt>
      <trkpt lat="44.50825" lon="-1.14119">
        <ele>18</ele>
        <time>2019-08-08T12:31:25Z</time>
      </trkpt>
      <trkpt lat="44.5083" lon="-1.1413">
        <ele>18</ele>
        <time>2019-08-08T12:31:30Z</time>
      </trkpt>
      <trkpt lat="44.50834" lon="-1.14143">
        <ele>18</ele>
        <time>2019-08-08T12:31:35Z</time>
      </trkpt>
      <trkpt lat="44.50838" lon="-1.14155">
        <ele>18</ele>
        <time>2019-08-08T12:31:40Z</time>
      </trkpt>
      <trkpt lat="44.50843" lon="-1.14167">
        <ele>18</ele>
        <time>2019-08-08T12:31:45Z</time>
      </trkpt>
      <trkpt lat="44.50852" lon="-1.14193">
        <ele>18</ele>
        <time>2019-08-08T12:31:55Z</time>
      </trkpt>
      <trkpt lat="44.50858" lon="-1.14205">
        <ele>18</ele>
        <time>2019-08-08T12:32:00Z</time>
      </trkpt>
      <trkpt lat="44.50863" lon="-1.14216">
        <ele>18</ele>
        <time>2019-08-08T12:32:05Z</time>
      </trkpt>
      <trkpt lat="44.50869" lon="-1.14227">
        <ele>18</ele>
        <time>2019-08-08T12:32:10Z</time>
      </trkpt>
      <trkpt lat="44.50875" lon="-1.14237">
        <ele>18</ele>
        <time>2019-08-08T12:32:15Z</time>
      </trkpt>
      <trkpt lat="44.50881" lon="-1.14246">
        <ele>18</ele>
        <time>2019-08-08T12:32:20Z</time>
      </trkpt>
      <trkpt lat="44.50888" lon="-1.14255">
        <ele>18</ele>
        <time>2019-08-08T12:32:25Z</time>
      </trkpt>
      <trkpt lat="44.50895" lon="-1.14264">
        <ele>18</ele>
        <time>2019-08-08T12:32:30Z</time>
      </trkpt>
      <trkpt lat="44.50902" lon="-1.14274">
        <ele>18</ele>
        <time>2019-08-08T12:32:35Z</time>
      </trkpt>
      <trkpt lat="44.50916" lon="-1.14295">
        <ele>18</ele>
        <time>2019-08-08T12:32:45Z</time>
      </trkpt>
      <trkpt lat="44.50924" lon="-1.14306">
        <ele>18</ele>
        <time>2019-08-08T12:32:50Z</time>
      </trkpt>
      <trkpt lat="44.50932" lon="-1.14317">
        <ele>18</ele>
        <time>2019-08-08T12:32:55Z</time>
      </trkpt>
      <trkpt lat="44.50939" lon="-1.14327">
        <ele>18</ele>
        <time>2019-08-08T12:33:00Z</time>
      </trkpt>
      <trkpt lat="44.50946" lon="-1.14338">
        <ele>18</ele>
        <time>2019-08-08T12:33:05Z</time>
      </trkpt>
      <trkpt lat="44.50952" lon="-1.14348">
        <ele>18</ele>
        <time>2019-08-08T12:33:10Z</time>
      </trkpt>
      <trkpt lat="44.50959" lon="-1.14358">
        <ele>18</ele>
        <time>2019-08-08T12:33:15Z</time>
      </trkpt>
      <trkpt lat="44.50965" lon="-1.14371">
        <ele>18</ele>
        <time>2019-08-08T12:33:20Z</time>
      </trkpt>
      <trkpt lat="44.50977" lon="-1.14393">
        <ele>18</ele>
        <time>2019-08-08T12:33:30Z</time>
      </trkpt>
      <trkpt lat="44.50984" lon="-1.14404">
        <ele>18</ele>
        <time>2019-08-08T12:33:35Z</time>
      </trkpt>
      <trkpt lat="44.50991" lon="-1.14414">
        <ele>18</ele>
        <time>2019-08-08T12:33:40Z</time>
      </trkpt>
      <trkpt lat="44.50997" lon="-1.14426">
        <ele>18</ele>
        <time>2019-08-08T12:33:45Z</time>
      </trkpt>
      <trkpt lat="44.51005" lon="-1.14437">
        <ele>18</ele>
        <time>2019-08-08T12:33:50Z</time>
      </trkpt>
      <trkpt lat="44.51012" lon="-1.14448">
        <ele>18</ele>
        <time>2019-08-08T12:33:55Z</time>
      </trkpt>
      <trkpt lat="44.51019" lon="-1.14461">
        <ele>18</ele>
        <time>2019-08-08T12:34:00Z</time>
      </trkpt>
      <trkpt lat="44.51026" lon="-1.14474">
        <ele>18</ele>
        <time>2019-08-08T12:34:05Z</time>
      </trkpt>
      <trkpt lat="44.51034" lon="-1.14488">
        <ele>18</ele>
        <time>2019-08-08T12:34:10Z</time>
      </trkpt>
      <trkpt lat="44.51051" lon="-1.14513">
        <ele>18</ele>
        <time>2019-08-08T12:34:20Z</time>
      </trkpt>
      <trkpt lat="44.5106" lon="-1.14525">
        <ele>18</ele>
        <time>2019-08-08T12:34:25Z</time>
      </trkpt>
      <trkpt lat="44.51068" lon="-1.14536">
        <ele>18</ele>
        <time>2019-08-08T12:34:30Z</time>
      </trkpt>
      <trkpt lat="44.51077" lon="-1.14548">
        <ele>18</ele>
        <time>2019-08-08T12:34:35Z</time>
      </trkpt>
      <trkpt lat="44.51085" lon="-1.14561">
        <ele>18</ele>
        <time>2019-08-08T12:34:40Z</time>
      </trkpt>
      <trkpt lat="44.51091" lon="-1.14574">
        <ele>18</ele>
        <time>2019-08-08T12:34:45Z</time>
      </trkpt>
      <trkpt lat="44.51098" lon="-1.14586">
        <ele>18</ele>
        <time>2019-08-08T12:34:50Z</time>
      </trkpt>
      <trkpt lat="44.51104" lon="-1.14596">
        <ele>18</ele>
        <time>2019-08-08T12:34:55Z</time>
      </trkpt>
      <trkpt lat="44.51118" lon="-1.1462">
        <ele>18</ele>
        <time>2019-08-08T12:35:05Z</time>
      </trkpt>
      <trkpt lat="44.51123" lon="-1.14632">
        <ele>18</ele>
        <time>2019-08-08T12:35:10Z</time>
      </trkpt>
      <trkpt lat="44.51129" lon="-1.14643">
        <ele>18</ele>
        <time>2019-08-08T12:35:15Z</time>
      </trkpt>
      <trkpt lat="44.51135" lon="-1.14654">
        <ele>18</ele>
        <time>2019-08-08T12:35:20Z</time>
      </trkpt>
      <trkpt lat="44.51143" lon="-1.14664">
        <ele>18</ele>
        <time>2019-08-08T12:35:25Z</time>
      </trkpt>
      <trkpt lat="44.51145" lon="-1.14673">
        <ele>18</ele>
        <time>2019-08-08T12:35:30Z</time>
      </trkpt>
      <trkpt lat="44.51141" lon="-1.14677">
        <ele>18</ele>
        <time>2019-08-08T12:35:35Z</time>
      </trkpt>
      <trkpt lat="44.51135" lon="-1.14681">
        <ele>18</ele>
        <time>2019-08-08T12:35:40Z</time>
      </trkpt>
      <trkpt lat="44.51129" lon="-1.14686">
        <ele>18</ele>
        <time>2019-08-08T12:35:45Z</time>
      </trkpt>
      <trkpt lat="44.51117" lon="-1.14697">
        <ele>18</ele>
        <time>2019-08-08T12:35:55Z</time>
      </trkpt>
      <trkpt lat="44.51111" lon="-1.14705">
        <ele>18</ele>
        <time>2019-08-08T12:36:00Z</time>
      </trkpt>
      <trkpt lat="44.51105" lon="-1.14712">
        <ele>18</ele>
        <time>2019-08-08T12:36:05Z</time>
      </trkpt>
      <trkpt lat="44.511" lon="-1.1472">
        <ele>18</ele>
        <time>2019-08-08T12:36:10Z</time>
      </trkpt>
      <trkpt lat="44.51094" lon="-1.14728">
        <ele>18</ele>
        <time>2019-08-08T12:36:15Z</time>
      </trkpt>
      <trkpt lat="44.51088" lon="-1.14736">
        <ele>18</ele>
        <time>2019-08-08T12:36:20Z</time>
      </trkpt>
      <trkpt lat="44.51081" lon="-1.14742">
        <ele>18</ele>
        <time>2019-08-08T12:36:25Z</time>
      </trkpt>
      <trkpt lat="44.51073" lon="-1.14749">
        <ele>18</ele>
        <time>2019-08-08T12:36:30Z</time>
      </trkpt>
      <trkpt lat="44.51058" lon="-1.14759">
        <ele>18</ele>
        <time>2019-08-08T12:36:40Z</time>
      </trkpt>
      <trkpt lat="44.51051" lon="-1.14766">
        <ele>18</ele>
        <time>2019-08-08T12:36:45Z</time>
      </trkpt>
      <trkpt lat="44.51045" lon="-1.14775">
        <ele>18</ele>
        <time>2019-08-08T12:36:50Z</time>
      </trkpt>
      <trkpt lat="44.5104" lon="-1.14783">
        <ele>18</ele>
        <time>2019-08-08T12:36:55Z</time>
      </trkpt>
      <trkpt lat="44.51034" lon="-1.14791">
        <ele>18</ele>
        <time>2019-08-08T12:37:00Z</time>
      </trkpt>
      <trkpt lat="44.51028" lon="-1.148">
        <ele>18</ele>
        <time>2019-08-08T12:37:05Z</time>
      </trkpt>
      <trkpt lat="44.51022" lon="-1.14809">
        <ele>18</ele>
        <time>2019-08-08T12:37:10Z</time>
      </trkpt>
      <trkpt lat="44.51014" lon="-1.14817">
        <ele>18</ele>
        <time>2019-08-08T12:37:15Z</time>
      </trkpt>
      <trkpt lat="44.51" lon="-1.14833">
        <ele>18</ele>
        <time>2019-08-08T12:37:25Z</time>
      </trkpt>
      <trkpt lat="44.50993" lon="-1.14843">
        <ele>18</ele>
        <time>2019-08-08T12:37:30Z</time>
      </trkpt>
      <trkpt lat="44.50987" lon="-1.14852">
        <ele>18</ele>
        <time>2019-08-08T12:37:35Z</time>
      </trkpt>
      <trkpt lat="44.50982" lon="-1.14861">
        <ele>18</ele>
        <time>2019-08-08T12:37:40Z</time>
      </trkpt>
      <trkpt lat="44.50976" lon="-1.14869">
        <ele>18</ele>
        <time>2019-08-08T12:37:45Z</time>
      </trkpt>
      <trkpt lat="44.50968" lon="-1.14878">
        <ele>18</ele>
        <time>2019-08-08T12:37:50Z</time>
      </trkpt>
      <trkpt lat="44.50961" lon="-1.14887">
        <ele>18</ele>
        <time>2019-08-08T12:37:55Z</time>
      </trkpt>
      <trkpt lat="44.50955" lon="-1.14897">
        <ele>18</ele>
        <time>2019-08-08T12:38:00Z</time>
      </trkpt>
      <trkpt lat="44.5095" lon="-1.14907">
        <ele>18</ele>
        <time>2019-08-08T12:38:05Z</time>
      </trkpt>
      <trkpt lat="44.50937" lon="-1.14926">
        <ele>18</ele>
        <time>2019-08-08T12:38:15Z</time>
      </trkpt>
      <trkpt lat="44.50931" lon="-1.14934">
        <ele>18</ele>
        <time>2019-08-08T12:38:20Z</time>
      </trkpt>
      <trkpt lat="44.50923" lon="-1.14943">
        <ele>18</ele>
        <time>2019-08-08T12:38:25Z</time>
      </trkpt>
      <trkpt lat="44.50916" lon="-1.14953">
        <ele>18</ele>
        <time>2019-08-08T12:38:30Z</time>
      </trkpt>
      <trkpt lat="44.50909" lon="-1.14961">
        <ele>18</ele>
        <time>2019-08-08T12:38:35Z</time>
      </trkpt>
      <trkpt lat="44.509" lon="-1.14968">
        <ele>18</ele>
        <time>2019-08-08T12:38:40Z</time>
      </trkpt>
      <trkpt lat="44.50891" lon="-1.14976">
        <ele>18</ele>
        <time>2019-08-08T12:38:45Z</time>
      </trkpt>
      <trkpt lat="44.50881" lon="-1.14985">
        <ele>18</ele>
        <time>2019-08-08T12:38:50Z</time>
      </trkpt>
      <trkpt lat="44.50861" lon="-1.15004">
        <ele>18</ele>
        <time>2019-08-08T12:39:00Z</time>
      </trkpt>
      <trkpt lat="44.50854" lon="-1.15016">
        <ele>18</ele>
        <time>2019-08-08T12:39:05Z</time>
      </trkpt>
      <trkpt lat="44.50846" lon="-1.15026">
        <ele>18</ele>
        <time>2019-08-08T12:39:10Z</time>
      </trkpt>
      <trkpt lat="44.50838" lon="-1.15036">
        <ele>18</ele>
        <time>2019-08-08T12:39:15Z</time>
      </trkpt>
      <trkpt lat="44.50828" lon="-1.15044">
        <ele>18</ele>
        <time>2019-08-08T12:39:20Z</time>
      </trkpt>
      <trkpt lat="44.50818" lon="-1.15053">
        <ele>18</ele>
        <time>2019-08-08T12:39:25Z</time>
      </trkpt>
      <trkpt lat="44.50808" lon="-1.15063">
        <ele>18</ele>
        <time>2019-08-08T12:39:30Z</time>
      </trkpt>
      <trkpt lat="44.50802" lon="-1.15075">
        <ele>18</ele>
        <time>2019-08-08T12:39:35Z</time>
      </trkpt>
      <trkpt lat="44.50794" lon="-1.15083">
        <ele>18</ele>
        <time>2019-08-08T12:39:40Z</time>
      </trkpt>
      <trkpt lat="44.50778" lon="-1.15103">
        <ele>18</ele>
        <time>2019-08-08T12:39:50Z</time>
      </trkpt>
      <trkpt lat="44.5077" lon="-1.15113">
        <ele>18</ele>
        <time>2019-08-08T12:39:55Z</time>
      </trkpt>
      <trkpt lat="44.50765" lon="-1.15126">
        <ele>18</ele>
        <time>2019-08-08T12:40:00Z</time>
      </trkpt>
      <trkpt lat="44.50759" lon="-1.15137">
        <ele>18</ele>
        <time>2019-08-08T12:40:05Z</time>
      </trkpt>
      <trkpt lat="44.50753" lon="-1.15149">
        <ele>18</ele>
        <time>2019-08-08T12:40:10Z</time>
      </trkpt>
      <trkpt lat="44.50747" lon="-1.15163">
        <ele>18</ele>
        <time>2019-08-08T12:40:15Z</time>
      </trkpt>
      <trkpt lat="44.50741" lon="-1.15176">
        <ele>18</ele>
        <time>2019-08-08T12:40:20Z</time>
      </trkpt>
      <trkpt lat="44.50733" lon="-1.15187">
        <ele>18</ele>
        <time>2019-08-08T12:40:25Z</time>
      </trkpt>
      <trkpt lat="44.50716" lon="-1.15209">
        <ele>18</ele>
        <time>2019-08-08T12:40:35Z</time>
      </trkpt>
      <trkpt lat="44.50709" lon="-1.1522">
        <ele>18</ele>
        <time>2019-08-08T12:40:40Z</time>
      </trkpt>
      <trkpt lat="44.50702" lon="-1.15229">
        <ele>18</ele>
        <time>2019-08-08T12:40:45Z</time>
      </trkpt>
      <trkpt lat="44.50695" lon="-1.15235">
        <ele>18</ele>
        <time>2019-08-08T12:40:50Z</time>
      </trkpt>
      <trkpt lat="44.50685" lon="-1.15243">
        <ele>18</ele>
        <time>2019-08-08T12:40:55Z</time>
      </trkpt>
      <trkpt lat="44.50676" lon="-1.15252">
        <ele>18</ele>
        <time>2019-08-08T12:41:00Z</time>
      </trkpt>
      <trkpt lat="44.50669" lon="-1.15261">
        <ele>18</ele>
        <time>2019-08-08T12:41:05Z</time>
      </trkpt>
      <trkpt lat="44.50663" lon="-1.15269">
        <ele>18</ele>
        <time>2019-08-08T12:41:10Z</time>
      </trkpt>
      <trkpt lat="44.50657" lon="-1.15273">
        <ele>18</ele>
        <time>2019-08-08T12:41:15Z</time>
      </trkpt>
      <trkpt lat="44.5064" lon="-1.1528">
        <ele>18</ele>
        <time>2019-08-08T12:41:25Z</time>
      </trkpt>
      <trkpt lat="44.50632" lon="-1.15285">
        <ele>18</ele>
        <time>2019-08-08T12:41:30Z</time>
      </trkpt>
      <trkpt lat="44.50623" lon="-1.1529">
        <ele>18</ele>
        <time>2019-08-08T12:41:35Z</time>
      </trkpt>
      <trkpt lat="44.50614" lon="-1.15293">
        <ele>18</ele>
        <time>2019-08-08T12:41:40Z</time>
      </trkpt>
      <trkpt lat="44.50605" lon="-1.15298">
        <ele>18</ele>
        <time>2019-08-08T12:41:45Z</time>
      </trkpt>
      <trkpt lat="44.50596" lon="-1.15305">
        <ele>18</ele>
        <time>2019-08-08T12:41:50Z</time>
      </trkpt>
      <trkpt lat="44.50587" lon="-1.1531">
        <ele>18</ele>
        <time>2019-08-08T12:41:55Z</time>
      </trkpt>
      <trkpt lat="44.50577" lon="-1.15314">
        <ele>18</ele>
        <time>2019-08-08T12:42:00Z</time>
      </trkpt>
      <trkpt lat="44.50556" lon="-1.15319">
        <ele>18</ele>
        <time>2019-08-08T12:42:10Z</time>
      </trkpt>
      <trkpt lat="44.50545" lon="-1.15321">
        <ele>18</ele>
        <time>2019-08-08T12:42:15Z</time>
      </trkpt>
      <trkpt lat="44.50534" lon="-1.15325">
        <ele>18</ele>
        <time>2019-08-08T12:42:20Z</time>
      </trkpt>
      <trkpt lat="44.50524" lon="-1.15332">
        <ele>18</ele>
        <time>2019-08-08T12:42:25Z</time>
      </trkpt>
      <trkpt lat="44.50514" lon="-1.15338">
        <ele>18</ele>
        <time>2019-08-08T12:42:30Z</time>
      </trkpt>
      <trkpt lat="44.50505" lon="-1.15344">
        <ele>18</ele>
        <time>2019-08-08T12:42:35Z</time>
      </trkpt>
      <trkpt lat="44.50494" lon="-1.15351">
        <ele>18</ele>
        <time>2019-08-08T12:42:40Z</time>
      </trkpt>
      <trkpt lat="44.50484" lon="-1.15356">
        <ele>18</ele>
        <time>2019-08-08T12:42:45Z</time>
      </trkpt>
      <trkpt lat="44.50474" lon="-1.15363">
        <ele>18</ele>
        <time>2019-08-08T12:42:50Z</time>
      </trkpt>
      <trkpt lat="44.50459" lon="-1.15382">
        <ele>18</ele>
        <time>2019-08-08T12:43:00Z</time>
      </trkpt>
      <trkpt lat="44.50451" lon="-1.15392">
        <ele>18</ele>
        <time>2019-08-08T12:43:05Z</time>
      </trkpt>
      <trkpt lat="44.50443" lon="-1.15402">
        <ele>18</ele>
        <time>2019-08-08T12:43:10Z</time>
      </trkpt>
      <trkpt lat="44.50436" lon="-1.15413">
        <ele>18</ele>
        <time>2019-08-08T12:43:15Z</time>
      </trkpt>
      <trkpt lat="44.5043" lon="-1.15425">
        <ele>18</ele>
        <time>2019-08-08T12:43:20Z</time>
      </trkpt>
      <trkpt lat="44.50423" lon="-1.15435">
        <ele>18</ele>
        <time>2019-08-08T12:43:25Z</time>
      </trkpt>
      <trkpt lat="44.50417" lon="-1.15445">
        <ele>18</ele>
        <time>2019-08-08T12:43:30Z</time>
      </trkpt>
      <trkpt lat="44.50411" lon="-1.15454">
        <ele>18</ele>
        <time>2019-08-08T12:43:35Z</time>
      </trkpt>
      <trkpt lat="44.50398" lon="-1.15474">
        <ele>18</ele>
        <time>2019-08-08T12:43:45Z</time>
      </trkpt>
      <trkpt lat="44.50392" lon="-1.15484">
        <ele>18</ele>
        <time>2019-08-08T12:43:50Z</time>
      </trkpt>
      <trkpt lat="44.50384" lon="-1.15492">
        <ele>18</ele>
        <time>2019-08-08T12:43:55Z</time>
      </trkpt>
      <trkpt lat="44.50377" lon="-1.15503">
        <ele>18</ele>
        <time>2019-08-08T12:44:00Z</time>
      </trkpt>
      <trkpt lat="44.50369" lon="-1.15514">
        <ele>18</ele>
        <time>2019-08-08T12:44:05Z</time>
      </trkpt>
      <trkpt lat="44.50361" lon="-1.15525">
        <ele>18</ele>
        <time>2019-08-08T12:44:10Z</time>
      </trkpt>
      <trkpt lat="44.50353" lon="-1.15536">
        <ele>18</ele>
        <time>2019-08-08T12:44:15Z</time>
      </trkpt>
      <trkpt lat="44.50345" lon="-1.15546">
        <ele>18</ele>
        <time>2019-08-08T12:44:20Z</time>
      </trkpt>
      <trkpt lat="44.50337" lon="-1.15557">
        <ele>18</ele>
        <time>2019-08-08T12:44:25Z</time>
      </trkpt>
      <trkpt lat="44.5032" lon="-1.15579">
        <ele>18</ele>
        <time>2019-08-08T12:44:35Z</time>
      </trkpt>
      <trkpt lat="44.50312" lon="-1.15589">
        <ele>18</ele>
        <time>2019-08-08T12:44:40Z</time>
      </trkpt>
      <trkpt lat="44.50303" lon="-1.15597">
        <ele>18</ele>
        <time>2019-08-08T12:44:45Z</time>
      </trkpt>
      <trkpt lat="44.50295" lon="-1.15607">
        <ele>18</ele>
        <time>2019-08-08T12:44:50Z</time>
      </trkpt>
      <trkpt lat="44.50289" lon="-1.15618">
        <ele>18</ele>
        <time>2019-08-08T12:44:55Z</time>
      </trkpt>
      <trkpt lat="44.50283" lon="-1.15627">
        <ele>18</ele>
        <time>2019-08-08T12:45:00Z</time>
      </trkpt>
      <trkpt lat="44.50275" lon="-1.15635">
        <ele>18</ele>
        <time>2019-08-08T12:45:05Z</time>
      </trkpt>
      <trkpt lat="44.50268" lon="-1.15644">
        <ele>18</ele>
        <time>2019-08-08T12:45:10Z</time>
      </trkpt>
      <trkpt lat="44.5025" lon="-1.15663">
        <ele>18</ele>
        <time>2019-08-08T12:45:20Z</time>
      </trkpt>
      <trkpt lat="44.50241" lon="-1.15672">
        <ele>18</ele>
        <time>2019-08-08T12:45:25Z</time>
      </trkpt>
      <trkpt lat="44.50232" lon="-1.15681">
        <ele>18</ele>
        <time>2019-08-08T12:45:30Z</time>
      </trkpt>
      <trkpt lat="44.50224" lon="-1.15691">
        <ele>18</ele>
        <time>2019-08-08T12:45:35Z</time>
      </trkpt>
      <trkpt lat="44.50216" lon="-1.15701">
        <ele>18</ele>
        <time>2019-08-08T12:45:40Z</time>
      </trkpt>
      <trkpt lat="44.50209" lon="-1.15711">
        <ele>18</ele>
        <time>2019-08-08T12:45:45Z</time>
      </trkpt>
      <trkpt lat="44.502" lon="-1.15721">
        <ele>18</ele>
        <time>2019-08-08T12:45:50Z</time>
      </trkpt>
      <trkpt lat="44.50192" lon="-1.15732">
        <ele>18</ele>
        <time>2019-08-08T12:45:55Z</time>
      </trkpt>
      <trkpt lat="44.50185" lon="-1.15744">
        <ele>18</ele>
        <time>2019-08-08T12:46:00Z</time>
      </trkpt>
      <trkpt lat="44.50167" lon="-1.15764">
        <ele>18</ele>
        <time>2019-08-08T12:46:10Z</time>
      </trkpt>
      <trkpt lat="44.50162" lon="-1.15776">
        <ele>18</ele>
        <time>2019-08-08T12:46:15Z</time>
      </trkpt>
      <trkpt lat="44.50156" lon="-1.15789">
        <ele>18</ele>
        <time>2019-08-08T12:46:20Z</time>
      </trkpt>
      <trkpt lat="44.50151" lon="-1.15801">
        <ele>18</ele>
        <time>2019-08-08T12:46:25Z</time>
      </trkpt>
      <trkpt lat="44.50144" lon="-1.15812">
        <ele>18</ele>
        <time>2019-08-08T12:46:30Z</time>
      </trkpt>
      <trkpt lat="44.50139" lon="-1.15823">
        <ele>18</ele>
        <time>2019-08-08T12:46:35Z</time>
      </trkpt>
      <trkpt lat="44.50132" lon="-1.15833">
        <ele>18</ele>
        <time>2019-08-08T12:46:40Z</time>
      </trkpt>
      <trkpt lat="44.50125" lon="-1.15844">
        <ele>18</ele>
        <time>2019-08-08T12:46:45Z</time>
      </trkpt>
      <trkpt lat="44.50112" lon="-1.15865">
        <ele>18</ele>
        <time>2019-08-08T12:46:55Z</time>
      </trkpt>
      <trkpt lat="44.50104" lon="-1.15876">
        <ele>18</ele>
        <time>2019-08-08T12:47:00Z</time>
      </trkpt>
      <trkpt lat="44.50097" lon="-1.15887">
        <ele>18</ele>
        <time>2019-08-08T12:47:05Z</time>
      </trkpt>
      <trkpt lat="44.5009" lon="-1.15897">
        <ele>18</ele>
        <time>2019-08-08T12:47:10Z</time>
      </trkpt>
      <trkpt lat="44.50083" lon="-1.15907">
        <ele>18</ele>
        <time>2019-08-08T12:47:15Z</time>
      </trkpt>
      <trkpt lat="44.50077" lon="-1.15918">
        <ele>18</ele>
        <time>2019-08-08T12:47:20Z</time>
      </trkpt>
      <trkpt lat="44.5007" lon="-1.15929">
        <ele>18</ele>
        <time>2019-08-08T12:47:25Z</time>
      </trkpt>
      <trkpt lat="44.50064" lon="-1.15939">
        <ele>18</ele>
        <time>2019-08-08T12:47:30Z</time>
      </trkpt>
      <trkpt lat="44.50057" lon="-1.15949">
        <ele>18</ele>
        <time>2019-08-08T12:47:35Z</time>
      </trkpt>
      <trkpt lat="44.50045" lon="-1.15971">
        <ele>18</ele>
        <time>2019-08-08T12:47:45Z</time>
      </trkpt>
      <trkpt lat="44.50038" lon="-1.15983">
        <ele>18</ele>
        <time>2019-08-08T12:47:50Z</time>
      </trkpt>
      <trkpt lat="44.50032" lon="-1.15994">
        <ele>18</ele>
        <time>2019-08-08T12:47:55Z</time>
      </trkpt>
      <trkpt lat="44.50026" lon="-1.16005">
        <ele>18</ele>
        <time>2019-08-08T12:48:00Z</time>
      </trkpt>
      <trkpt lat="44.50018" lon="-1.16013">
        <ele>18</ele>
        <time>2019-08-08T12:48:05Z</time>
      </trkpt>
      <trkpt lat="44.5001" lon="-1.1602">
        <ele>18</ele>
        <time>2019-08-08T12:48:10Z</time>
      </trkpt>
      <trkpt lat="44.50001" lon="-1.16027">
        <ele>18</ele>
        <time>2019-08-08T12:48:15Z</time>
      </trkpt>
      <trkpt lat="44.49993" lon="-1.16034">
        <ele>18</ele>
        <time>2019-08-08T12:48:20Z</time>
      </trkpt>
      <trkpt lat="44.49977" lon="-1.16048">
        <ele>18</ele>
        <time>2019-08-08T12:48:30Z</time>
      </trkpt>
      <trkpt lat="44.49969" lon="-1.16054">
        <ele>18</ele>
        <time>2019-08-08T12:48:35Z</time>
      </trkpt>
      <trkpt lat="44.49961" lon="-1.16061">
        <ele>18</ele>
        <time>2019-08-08T12:48:40Z</time>
      </trkpt>
      <trkpt lat="44.49952" lon="-1.16068">
        <ele>18</ele>
        <time>2019-08-08T12:48:45Z</time>
      </trkpt>
      <trkpt lat="44.49944" lon="-1.16074">
        <ele>18</ele>
        <time>2019-08-08T12:48:50Z</time>
      </trkpt>
      <trkpt lat="44.49935" lon="-1.1608">
        <ele>18</ele>
        <time>2019-08-08T12:48:55Z</time>
      </trkpt>
      <trkpt lat="44.49926" lon="-1.16087">
        <ele>18</ele>
        <time>2019-08-08T12:49:00Z</time>
      </trkpt>
      <trkpt lat="44.49917" lon="-1.16095">
        <ele>18</ele>
        <time>2019-08-08T12:49:05Z</time>
      </trkpt>
      <trkpt lat="44.49908" lon="-1.16102">
        <ele>18</ele>
        <time>2019-08-08T12:49:10Z</time>
      </trkpt>
      <trkpt lat="44.49888" lon="-1.16111">
        <ele>18</ele>
        <time>2019-08-08T12:49:20Z</time>
      </trkpt>
      <trkpt lat="44.49877" lon="-1.16115">
        <ele>18</ele>
        <time>2019-08-08T12:49:25Z</time>
      </trkpt>
      <trkpt lat="44.49866" lon="-1.1612">
        <ele>18</ele>
        <time>2019-08-08T12:49:30Z</time>
      </trkpt>
      <trkpt lat="44.49856" lon="-1.16127">
        <ele>18</ele>
        <time>2019-08-08T12:49:35Z</time>
      </trkpt>
      <trkpt lat="44.49846" lon="-1.1613">
        <ele>18</ele>
        <time>2019-08-08T12:49:40Z</time>
      </trkpt>
      <trkpt lat="44.49836" lon="-1.16131">
        <ele>18</ele>
        <time>2019-08-08T12:49:45Z</time>
      </trkpt>
      <trkpt lat="44.49824" lon="-1.16132">
        <ele>18</ele>
        <time>2019-08-08T12:49:50Z</time>
      </trkpt>
      <trkpt lat="44.49815" lon="-1.1614">
        <ele>18</ele>
        <time>2019-08-08T12:49:55Z</time>
      </trkpt>
      <trkpt lat="44.49794" lon="-1.16155">
        <ele>18</ele>
        <time>2019-08-08T12:50:05Z</time>
      </trkpt>
      <trkpt lat="44.49782" lon="-1.16163">
        <ele>18</ele>
        <time>2019-08-08T12:50:10Z</time>
      </trkpt>
      <trkpt lat="44.49771" lon="-1.16171">
        <ele>18</ele>
        <time>2019-08-08T12:50:15Z</time>
      </trkpt>
      <trkpt lat="44.49759" lon="-1.16179">
        <ele>18</ele>
        <time>2019-08-08T12:50:20Z</time>
      </trkpt>
      <trkpt lat="44.49748" lon="-1.16188">
        <ele>18</ele>
        <time>2019-08-08T12:50:25Z</time>
      </trkpt>
      <trkpt lat="44.49736" lon="-1.16195">
        <ele>18</ele>
        <time>2019-08-08T12:50:30Z</time>
      </trkpt>
      <trkpt lat="44.49725" lon="-1.16204">
        <ele>18</ele>
        <time>2019-08-08T12:50:35Z</time>
      </trkpt>
      <trkpt lat="44.49714" lon="-1.16214">
        <ele>18</ele>
        <time>2019-08-08T12:50:40Z</time>
      </trkpt>
      <trkpt lat="44.49704" lon="-1.16225">
        <ele>18</ele>
        <time>2019-08-08T12:50:45Z</time>
      </trkpt>
      <trkpt lat="44.49683" lon="-1.16244">
        <ele>18</ele>
        <time>2019-08-08T12:50:55Z</time>
      </trkpt>
      <trkpt lat="44.49673" lon="-1.16254">
        <ele>18</ele>
        <time>2019-08-08T12:51:00Z</time>
      </trkpt>
      <trkpt lat="44.49662" lon="-1.16264">
        <ele>18</ele>
        <time>2019-08-08T12:51:05Z</time>
      </trkpt>
      <trkpt lat="44.49652" lon="-1.16272">
        <ele>18</ele>
        <time>2019-08-08T12:51:10Z</time>
      </trkpt>
      <trkpt lat="44.49641" lon="-1.16281">
        <ele>18</ele>
        <time>2019-08-08T12:51:15Z</time>
      </trkpt>
      <trkpt lat="44.49631" lon="-1.16292">
        <ele>18</ele>
        <time>2019-08-08T12:51:20Z</time>
      </trkpt>
      <trkpt lat="44.49621" lon="-1.16303">
        <ele>18</ele>
        <time>2019-08-08T12:51:25Z</time>
      </trkpt>
      <trkpt lat="44.49612" lon="-1.16313">
        <ele>18</ele>
        <time>2019-08-08T12:51:30Z</time>
      </trkpt>
      <trkpt lat="44.49592" lon="-1.16333">
        <ele>18</ele>
        <time>2019-08-08T12:51:40Z</time>
      </trkpt>
      <trkpt lat="44.49582" lon="-1.16343">
        <ele>18</ele>
        <time>2019-08-08T12:51:45Z</time>
      </trkpt>
      <trkpt lat="44.49571" lon="-1.16352">
        <ele>18</ele>
        <time>2019-08-08T12:51:50Z</time>
      </trkpt>
      <trkpt lat="44.49562" lon="-1.16364">
        <ele>18</ele>
        <time>2019-08-08T12:51:55Z</time>
      </trkpt>
      <trkpt lat="44.49552" lon="-1.16374">
        <ele>18</ele>
        <time>2019-08-08T12:52:00Z</time>
      </trkpt>
      <trkpt lat="44.49541" lon="-1.16383">
        <ele>18</ele>
        <time>2019-08-08T12:52:05Z</time>
      </trkpt>
      <trkpt lat="44.49531" lon="-1.16393">
        <ele>18</ele>
        <time>2019-08-08T12:52:10Z</time>
      </trkpt>
      <trkpt lat="44.49521" lon="-1.16405">
        <ele>18</ele>
        <time>2019-08-08T12:52:15Z</time>
      </trkpt>
      <trkpt lat="44.49503" lon="-1.16426">
        <ele>18</ele>
        <time>2019-08-08T12:52:25Z</time>
      </trkpt>
      <trkpt lat="44.49493" lon="-1.16436">
        <ele>18</ele>
        <time>2019-08-08T12:52:30Z</time>
      </trkpt>
      <trkpt lat="44.49484" lon="-1.16448">
        <ele>18</ele>
        <time>2019-08-08T12:52:35Z</time>
      </trkpt>
      <trkpt lat="44.49475" lon="-1.16461">
        <ele>18</ele>
        <time>2019-08-08T12:52:40Z</time>
      </trkpt>
      <trkpt lat="44.49466" lon="-1.16474">
        <ele>18</ele>
        <time>2019-08-08T12:52:45Z</time>
      </trkpt>
      <trkpt lat="44.49458" lon="-1.16488">
        <ele>18</ele>
        <time>2019-08-08T12:52:50Z</time>
      </trkpt>
      <trkpt lat="44.4945" lon="-1.16501">
        <ele>18</ele>
        <time>2019-08-08T12:52:55Z</time>
      </trkpt>
      <trkpt lat="44.49443" lon="-1.16514">
        <ele>18</ele>
        <time>2019-08-08T12:53:00Z</time>
      </trkpt>
      <trkpt lat="44.49434" lon="-1.16528">
        <ele>18</ele>
        <time>2019-08-08T12:53:05Z</time>
      </trkpt>
      <trkpt lat="44.49416" lon="-1.16552">
        <ele>18</ele>
        <time>2019-08-08T12:53:15Z</time>
      </trkpt>
      <trkpt lat="44.49405" lon="-1.16562">
        <ele>18</ele>
        <time>2019-08-08T12:53:20Z</time>
      </trkpt>
      <trkpt lat="44.49395" lon="-1.16571">
        <ele>18</ele>
        <time>2019-08-08T12:53:25Z</time>
      </trkpt>
      <trkpt lat="44.49386" lon="-1.16582">
        <ele>18</ele>
        <time>2019-08-08T12:53:30Z</time>
      </trkpt>
      <trkpt lat="44.49377" lon="-1.16593">
        <ele>18</ele>
        <time>2019-08-08T12:53:35Z</time>
      </trkpt>
      <trkpt lat="44.49369" lon="-1.16605">
        <ele>18</ele>
        <time>2019-08-08T12:53:40Z</time>
      </trkpt>
      <trkpt lat="44.49362" lon="-1.16615">
        <ele>18</ele>
        <time>2019-08-08T12:53:45Z</time>
      </trkpt>
      <trkpt lat="44.49352" lon="-1.16624">
        <ele>18</ele>
        <time>2019-08-08T12:53:50Z</time>
      </trkpt>
      <trkpt lat="44.49334" lon="-1.16647">
        <ele>18</ele>
        <time>2019-08-08T12:54:00Z</time>
      </trkpt>
      <trkpt lat="44.49325" lon="-1.16659">
        <ele>18</ele>
        <time>2019-08-08T12:54:05Z</time>
      </trkpt>
      <trkpt lat="44.49317" lon="-1.16671">
        <ele>18</ele>
        <time>2019-08-08T12:54:10Z</time>
      </trkpt>
      <trkpt lat="44.49309" lon="-1.16683">
        <ele>18</ele>
        <time>2019-08-08T12:54:15Z</time>
      </trkpt>
      <trkpt lat="44.49301" lon="-1.16694">
        <ele>18</ele>
        <time>2019-08-08T12:54:20Z</time>
      </trkpt>
      <trkpt lat="44.49293" lon="-1.16705">
        <ele>18</ele>
        <time>2019-08-08T12:54:25Z</time>
      </trkpt>
      <trkpt lat="44.49284" lon="-1.16716">
        <ele>18</ele>
        <time>2019-08-08T12:54:30Z</time>
      </trkpt>
      <trkpt lat="44.49276" lon="-1.16727">
        <ele>18</ele>
        <time>2019-08-08T12:54:35Z</time>
      </trkpt>
      <trkpt lat="44.49267" lon="-1.16738">
        <ele>18</ele>
        <time>2019-08-08T12:54:40Z</time>
      </trkpt>
      <trkpt lat="44.49249" lon="-1.1676">
        <ele>18</ele>
        <time>2019-08-08T12:54:50Z</time>
      </trkpt>
      <trkpt lat="44.4924" lon="-1.16772">
        <ele>18</ele>
        <time>2019-08-08T12:54:55Z</time>
      </trkpt>
      <trkpt lat="44.49231" lon="-1.16782">
        <ele>18</ele>
        <time>2019-08-08T12:55:00Z</time>
      </trkpt>
      <trkpt lat="44.49222" lon="-1.16794">
        <ele>18</ele>
        <time>2019-08-08T12:55:05Z</time>
      </trkpt>
      <trkpt lat="44.49213" lon="-1.16804">
        <ele>18</ele>
        <time>2019-08-08T12:55:10Z</time>
      </trkpt>
      <trkpt lat="44.49204" lon="-1.16816">
        <ele>18</ele>
        <time>2019-08-08T12:55:15Z</time>
      </trkpt>
      <trkpt lat="44.49195" lon="-1.16827">
        <ele>18</ele>
        <time>2019-08-08T12:55:20Z</time>
      </trkpt>
      <trkpt lat="44.49187" lon="-1.16839">
        <ele>18</ele>
        <time>2019-08-08T12:55:25Z</time>
      </trkpt>
      <trkpt lat="44.49172" lon="-1.16862">
        <ele>18</ele>
        <time>2019-08-08T12:55:35Z</time>
      </trkpt>
      <trkpt lat="44.49165" lon="-1.16874">
        <ele>18</ele>
        <time>2019-08-08T12:55:40Z</time>
      </trkpt>
      <trkpt lat="44.49157" lon="-1.16886">
        <ele>18</ele>
        <time>2019-08-08T12:55:45Z</time>
      </trkpt>
      <trkpt lat="44.49149" lon="-1.16898">
        <ele>18</ele>
        <time>2019-08-08T12:55:50Z</time>
      </trkpt>
      <trkpt lat="44.49141" lon="-1.1691">
        <ele>18</ele>
        <time>2019-08-08T12:55:55Z</time>
      </trkpt>
      <trkpt lat="44.49134" lon="-1.16922">
        <ele>18</ele>
        <time>2019-08-08T12:56:00Z</time>
      </trkpt>
      <trkpt lat="44.49126" lon="-1.16934">
        <ele>18</ele>
        <time>2019-08-08T12:56:05Z</time>
      </trkpt>
      <trkpt lat="44.49118" lon="-1.16945">
        <ele>18</ele>
        <time>2019-08-08T12:56:10Z</time>
      </trkpt>
      <trkpt lat="44.4911" lon="-1.16957">
        <ele>18</ele>
        <time>2019-08-08T12:56:15Z</time>
      </trkpt>
      <trkpt lat="44.49094" lon="-1.16979">
        <ele>18</ele>
        <time>2019-08-08T12:56:25Z</time>
      </trkpt>
      <trkpt lat="44.49086" lon="-1.16989">
        <ele>18</ele>
        <time>2019-08-08T12:56:30Z</time>
      </trkpt>
      <trkpt lat="44.49079" lon="-1.16998">
        <ele>18</ele>
        <time>2019-08-08T12:56:35Z</time>
      </trkpt>
      <trkpt lat="44.4907" lon="-1.17008">
        <ele>18</ele>
        <time>2019-08-08T12:56:40Z</time>
      </trkpt>
      <trkpt lat="44.49062" lon="-1.17019">
        <ele>18</ele>
        <time>2019-08-08T12:56:45Z</time>
      </trkpt>
      <trkpt lat="44.49055" lon="-1.1703">
        <ele>18</ele>
        <time>2019-08-08T12:56:50Z</time>
      </trkpt>
      <trkpt lat="44.49046" lon="-1.1704">
        <ele>18</ele>
        <time>2019-08-08T12:56:55Z</time>
      </trkpt>
      <trkpt lat="44.49038" lon="-1.1705">
        <ele>18</ele>
        <time>2019-08-08T12:57:00Z</time>
      </trkpt>
      <trkpt lat="44.4902" lon="-1.17066">
        <ele>18</ele>
        <time>2019-08-08T12:57:10Z</time>
      </trkpt>
      <trkpt lat="44.4901" lon="-1.17074">
        <ele>18</ele>
        <time>2019-08-08T12:57:15Z</time>
      </trkpt>
      <trkpt lat="44.49001" lon="-1.17083">
        <ele>18</ele>
        <time>2019-08-08T12:57:20Z</time>
      </trkpt>
      <trkpt lat="44.48992" lon="-1.17091">
        <ele>18</ele>
        <time>2019-08-08T12:57:25Z</time>
      </trkpt>
      <trkpt lat="44.48984" lon="-1.171">
        <ele>18</ele>
        <time>2019-08-08T12:57:30Z</time>
      </trkpt>
      <trkpt lat="44.48976" lon="-1.17108">
        <ele>18</ele>
        <time>2019-08-08T12:57:35Z</time>
      </trkpt>
      <trkpt lat="44.48967" lon="-1.17117">
        <ele>18</ele>
        <time>2019-08-08T12:57:40Z</time>
      </trkpt>
      <trkpt lat="44.48959" lon="-1.17129">
        <ele>18</ele>
        <time>2019-08-08T12:57:45Z</time>
      </trkpt>
      <trkpt lat="44.48951" lon="-1.17141">
        <ele>18</ele>
        <time>2019-08-08T12:57:50Z</time>
      </trkpt>
      <trkpt lat="44.48936" lon="-1.17166">
        <ele>18</ele>
        <time>2019-08-08T12:58:00Z</time>
      </trkpt>
      <trkpt lat="44.48929" lon="-1.17179">
        <ele>18</ele>
        <time>2019-08-08T12:58:05Z</time>
      </trkpt>
      <trkpt lat="44.48923" lon="-1.17193">
        <ele>18</ele>
        <time>2019-08-08T12:58:10Z</time>
      </trkpt>
      <trkpt lat="44.48916" lon="-1.17206">
        <ele>18</ele>
        <time>2019-08-08T12:58:15Z</time>
      </trkpt>
      <trkpt lat="44.48909" lon="-1.17219">
        <ele>18</ele>
        <time>2019-08-08T12:58:20Z</time>
      </trkpt>
      <trkpt lat="44.48902" lon="-1.17232">
        <ele>18</ele>
        <time>2019-08-08T12:58:25Z</time>
      </trkpt>
      <trkpt lat="44.48895" lon="-1.17244">
        <ele>18</ele>
        <time>2019-08-08T12:58:30Z</time>
      </trkpt>
      <trkpt lat="44.48887" lon="-1.17255">
        <ele>18</ele>
        <time>2019-08-08T12:58:35Z</time>
      </trkpt>
      <trkpt lat="44.48872" lon="-1.17279">
        <ele>18</ele>
        <time>2019-08-08T12:58:45Z</time>
      </trkpt>
      <trkpt lat="44.48865" lon="-1.17291">
        <ele>18</ele>
        <time>2019-08-08T12:58:50Z</time>
      </trkpt>
      <trkpt lat="44.48857" lon="-1.17303">
        <ele>18</ele>
        <time>2019-08-08T12:58:55Z</time>
      </trkpt>
      <trkpt lat="44.48849" lon="-1.17315">
        <ele>18</ele>
        <time>2019-08-08T12:59:00Z</time>
      </trkpt>
      <trkpt lat="44.48841" lon="-1.17327">
        <ele>18</ele>
        <time>2019-08-08T12:59:05Z</time>
      </trkpt>
      <trkpt lat="44.48832" lon="-1.1734">
        <ele>18</ele>
        <time>2019-08-08T12:59:10Z</time>
      </trkpt>
      <trkpt lat="44.48824" lon="-1.17353">
        <ele>18</ele>
        <time>2019-08-08T12:59:15Z</time>
      </trkpt>
      <trkpt lat="44.48817" lon="-1.17366">
        <ele>18</ele>
        <time>2019-08-08T12:59:20Z</time>
      </trkpt>
      <trkpt lat="44.48809" lon="-1.17378">
        <ele>18</ele>
        <time>2019-08-08T12:59:25Z</time>
      </trkpt>
      <trkpt lat="44.48792" lon="-1.174">
        <ele>18</ele>
        <time>2019-08-08T12:59:35Z</time>
      </trkpt>
      <trkpt lat="44.48783" lon="-1.1741">
        <ele>18</ele>
        <time>2019-08-08T12:59:40Z</time>
      </trkpt>
      <trkpt lat="44.48776" lon="-1.17422">
        <ele>18</ele>
        <time>2019-08-08T12:59:45Z</time>
      </trkpt>
      <trkpt lat="44.48768" lon="-1.17433">
        <ele>18</ele>
        <time>2019-08-08T12:59:50Z</time>
      </trkpt>
      <trkpt lat="44.4876" lon="-1.17443">
        <ele>18</ele>
        <time>2019-08-08T12:59:55Z</time>
      </trkpt>
      <trkpt lat="44.48753" lon="-1.17454">
        <ele>18</ele>
        <time>2019-08-08T13:00:00Z</time>
      </trkpt>
      <trkpt lat="44.48745" lon="-1.17466">
        <ele>18</ele>
        <time>2019-08-08T13:00:05Z</time>
      </trkpt>
      <trkpt lat="44.48738" lon="-1.17479">
        <ele>18</ele>
        <time>2019-08-08T13:00:10Z</time>
      </trkpt>
      <trkpt lat="44.48725" lon="-1.17506">
        <ele>18</ele>
        <time>2019-08-08T13:00:20Z</time>
      </trkpt>
      <trkpt lat="44.48718" lon="-1.17519">
        <ele>18</ele>
        <time>2019-08-08T13:00:25Z</time>
      </trkpt>
      <trkpt lat="44.48712" lon="-1.17532">
        <ele>18</ele>
        <time>2019-08-08T13:00:30Z</time>
      </trkpt>
      <trkpt lat="44.48706" lon="-1.17545">
        <ele>18</ele>
        <time>2019-08-08T13:00:35Z</time>
      </trkpt>
      <trkpt lat="44.48701" lon="-1.17557">
        <ele>18</ele>
        <time>2019-08-08T13:00:40Z</time>
      </trkpt>
      <trkpt lat="44.48694" lon="-1.1757">
        <ele>18</ele>
        <time>2019-08-08T13:00:45Z</time>
      </trkpt>
      <trkpt lat="44.48688" lon="-1.17582">
        <ele>18</ele>
        <time>2019-08-08T13:00:50Z</time>
      </trkpt>
      <trkpt lat="44.48682" lon="-1.17595">
        <ele>18</ele>
        <time>2019-08-08T13:00:55Z</time>
      </trkpt>
      <trkpt lat="44.48676" lon="-1.17608">
        <ele>18</ele>
        <time>2019-08-08T13:01:00Z</time>
      </trkpt>
      <trkpt lat="44.48666" lon="-1.17633">
        <ele>18</ele>
        <time>2019-08-08T13:01:10Z</time>
      </trkpt>
      <trkpt lat="44.4866" lon="-1.17645">
        <ele>18</ele>
        <time>2019-08-08T13:01:15Z</time>
      </trkpt>
      <trkpt lat="44.48654" lon="-1.17657">
        <ele>18</ele>
        <time>2019-08-08T13:01:20Z</time>
      </trkpt>
      <trkpt lat="44.48647" lon="-1.17669">
        <ele>18</ele>
        <time>2019-08-08T13:01:25Z</time>
      </trkpt>
      <trkpt lat="44.4864" lon="-1.17681">
        <ele>18</ele>
        <time>2019-08-08T13:01:30Z</time>
      </trkpt>
      <trkpt lat="44.48633" lon="-1.17694">
        <ele>18</ele>
        <time>2019-08-08T13:01:35Z</time>
      </trkpt>
      <trkpt lat="44.48626" lon="-1.17708">
        <ele>18</ele>
        <time>2019-08-08T13:01:40Z</time>
      </trkpt>
      <trkpt lat="44.4862" lon="-1.17721">
        <ele>18</ele>
        <time>2019-08-08T13:01:45Z</time>
      </trkpt>
      <trkpt lat="44.48607" lon="-1.17746">
        <ele>18</ele>
        <time>2019-08-08T13:01:55Z</time>
      </trkpt>
      <trkpt lat="44.48601" lon="-1.1776">
        <ele>18</ele>
        <time>2019-08-08T13:02:00Z</time>
      </trkpt>
      <trkpt lat="44.48595" lon="-1.17774">
        <ele>18</ele>
        <time>2019-08-08T13:02:05Z</time>
      </trkpt>
      <trkpt lat="44.48589" lon="-1.17788">
        <ele>18</ele>
        <time>2019-08-08T13:02:10Z</time>
      </trkpt>
      <trkpt lat="44.48583" lon="-1.17802">
        <ele>18</ele>
        <time>2019-08-08T13:02:15Z</time>
      </trkpt>
      <trkpt lat="44.48578" lon="-1.17816">
        <ele>18</ele>
        <time>2019-08-08T13:02:20Z</time>
      </trkpt>
      <trkpt lat="44.48573" lon="-1.17829">
        <ele>18</ele>
        <time>2019-08-08T13:02:25Z</time>
      </trkpt>
      <trkpt lat="44.48569" lon="-1.17844">
        <ele>18</ele>
        <time>2019-08-08T13:02:30Z</time>
      </trkpt>
      <trkpt lat="44.48565" lon="-1.17859">
        <ele>18</ele>
        <time>2019-08-08T13:02:35Z</time>
      </trkpt>
      <trkpt lat="44.48556" lon="-1.17885">
        <ele>18</ele>
        <time>2019-08-08T13:02:45Z</time>
      </trkpt>
      <trkpt lat="44.4855" lon="-1.17899">
        <ele>18</ele>
        <time>2019-08-08T13:02:50Z</time>
      </trkpt>
      <trkpt lat="44.48544" lon="-1.17913">
        <ele>18</ele>
        <time>2019-08-08T13:02:55Z</time>
      </trkpt>
      <trkpt lat="44.48537" lon="-1.17927">
        <ele>18</ele>
        <time>2019-08-08T13:03:00Z</time>
      </trkpt>
      <trkpt lat="44.4853" lon="-1.1794">
        <ele>18</ele>
        <time>2019-08-08T13:03:05Z</time>
      </trkpt>
      <trkpt lat="44.48522" lon="-1.17953">
        <ele>18</ele>
        <time>2019-08-08T13:03:10Z</time>
      </trkpt>
      <trkpt lat="44.48515" lon="-1.17967">
        <ele>18</ele>
        <time>2019-08-08T13:03:15Z</time>
      </trkpt>
      <trkpt lat="44.48509" lon="-1.17981">
        <ele>18</ele>
        <time>2019-08-08T13:03:20Z</time>
      </trkpt>
      <trkpt lat="44.48494" lon="-1.18006">
        <ele>18</ele>
        <time>2019-08-08T13:03:30Z</time>
      </trkpt>
      <trkpt lat="44.48488" lon="-1.18018">
        <ele>18</ele>
        <time>2019-08-08T13:03:35Z</time>
      </trkpt>
      <trkpt lat="44.48483" lon="-1.18028">
        <ele>18</ele>
        <time>2019-08-08T13:03:40Z</time>
      </trkpt>
      <trkpt lat="44.48477" lon="-1.18039">
        <ele>18</ele>
        <time>2019-08-08T13:03:45Z</time>
      </trkpt>
      <trkpt lat="44.48471" lon="-1.1805">
        <ele>18</ele>
        <time>2019-08-08T13:03:50Z</time>
      </trkpt>
      <trkpt lat="44.48466" lon="-1.18061">
        <ele>18</ele>
        <time>2019-08-08T13:03:55Z</time>
      </trkpt>
      <trkpt lat="44.48461" lon="-1.18073">
        <ele>18</ele>
        <time>2019-08-08T13:04:00Z</time>
      </trkpt>
      <trkpt lat="44.48457" lon="-1.18084">
        <ele>18</ele>
        <time>2019-08-08T13:04:05Z</time>
      </trkpt>
      <trkpt lat="44.48452" lon="-1.18095">
        <ele>18</ele>
        <time>2019-08-08T13:04:10Z</time>
      </trkpt>
      <trkpt lat="44.48443" lon="-1.18117">
        <ele>18</ele>
        <time>2019-08-08T13:04:20Z</time>
      </trkpt>
      <trkpt lat="44.48438" lon="-1.18128">
        <ele>18</ele>
        <time>2019-08-08T13:04:25Z</time>
      </trkpt>
      <trkpt lat="44.48434" lon="-1.18139">
        <ele>18</ele>
        <time>2019-08-08T13:04:30Z</time>
      </trkpt>
      <trkpt lat="44.48429" lon="-1.18148">
        <ele>18</ele>
        <time>2019-08-08T13:04:35Z</time>
      </trkpt>
      <trkpt lat="44.48423" lon="-1.18158">
        <ele>18</ele>
        <time>2019-08-08T13:04:40Z</time>
      </trkpt>
      <trkpt lat="44.48418" lon="-1.18168">
        <ele>18</ele>
        <time>2019-08-08T13:04:45Z</time>
      </trkpt>
      <trkpt lat="44.48413" lon="-1.18177">
        <ele>18</ele>
        <time>2019-08-08T13:04:50Z</time>
      </trkpt>
      <trkpt lat="44.48408" lon="-1.18186">
        <ele>18</ele>
        <time>2019-08-08T13:04:55Z</time>
      </trkpt>
      <trkpt lat="44.48396" lon="-1.18202">
        <ele>18</ele>
        <time>2019-08-08T13:05:05Z</time>
      </trkpt>
      <trkpt lat="44.48389" lon="-1.1821">
        <ele>18</ele>
        <time>2019-08-08T13:05:10Z</time>
      </trkpt>
      <trkpt lat="44.48381" lon="-1.18219">
        <ele>18</ele>
        <time>2019-08-08T13:05:15Z</time>
      </trkpt>
      <trkpt lat="44.48373" lon="-1.18227">
        <ele>18</ele>
        <time>2019-08-08T13:05:20Z</time>
      </trkpt>
      <trkpt lat="44.48365" lon="-1.18235">
        <ele>18</ele>
        <time>2019-08-08T13:05:25Z</time>
      </trkpt>
      <trkpt lat="44.48358" lon="-1.18243">
        <ele>18</ele>
        <time>2019-08-08T13:05:30Z</time>
      </trkpt>
      <trkpt lat="44.48351" lon="-1.18249">
        <ele>18</ele>
        <time>2019-08-08T13:05:35Z</time>
      </trkpt>
      <trkpt lat="44.48343" lon="-1.18254">
        <ele>18</ele>
        <time>2019-08-08T13:05:40Z</time>
      </trkpt>
      <trkpt lat="44.48333" lon="-1.18259">
        <ele>18</ele>
        <time>2019-08-08T13:05:45Z</time>
      </trkpt>
      <trkpt lat="44.48313" lon="-1.18271">
        <ele>18</ele>
        <time>2019-08-08T13:05:55Z</time>
      </trkpt>
      <trkpt lat="44.48303" lon="-1.18277">
        <ele>18</ele>
        <time>2019-08-08T13:06:00Z</time>
      </trkpt>
      <trkpt lat="44.48293" lon="-1.18283">
        <ele>18</ele>
        <time>2019-08-08T13:06:05Z</time>
      </trkpt>
      <trkpt lat="44.48283" lon="-1.18288">
        <ele>18</ele>
        <time>2019-08-08T13:06:10Z</time>
      </trkpt>
      <trkpt lat="44.48273" lon="-1.18291">
        <ele>18</ele>
        <time>2019-08-08T13:06:15Z</time>
      </trkpt>
      <trkpt lat="44.48264" lon="-1.18297">
        <ele>18</ele>
        <time>2019-08-08T13:06:20Z</time>
      </trkpt>
      <trkpt lat="44.48254" lon="-1.18303">
        <ele>18</ele>
        <time>2019-08-08T13:06:25Z</time>
      </trkpt>
      <trkpt lat="44.48245" lon="-1.18309">
        <ele>18</ele>
        <time>2019-08-08T13:06:30Z</time>
      </trkpt>
      <trkpt lat="44.48227" lon="-1.18321">
        <ele>18</ele>
        <time>2019-08-08T13:06:40Z</time>
      </trkpt>
      <trkpt lat="44.48218" lon="-1.18328">
        <ele>18</ele>
        <time>2019-08-08T13:06:45Z</time>
      </trkpt>
      <trkpt lat="44.48209" lon="-1.18335">
        <ele>18</ele>
        <time>2019-08-08T13:06:50Z</time>
      </trkpt>
      <trkpt lat="44.482" lon="-1.18342">
        <ele>18</ele>
        <time>2019-08-08T13:06:55Z</time>
      </trkpt>
      <trkpt lat="44.48191" lon="-1.18349">
        <ele>18</ele>
        <time>2019-08-08T13:07:00Z</time>
      </trkpt>
      <trkpt lat="44.48181" lon="-1.18356">
        <ele>18</ele>
        <time>2019-08-08T13:07:05Z</time>
      </trkpt>
      <trkpt lat="44.48172" lon="-1.18363">
        <ele>18</ele>
        <time>2019-08-08T13:07:10Z</time>
      </trkpt>
      <trkpt lat="44.48161" lon="-1.18369">
        <ele>18</ele>
        <time>2019-08-08T13:07:15Z</time>
      </trkpt>
      <trkpt lat="44.48143" lon="-1.18386">
        <ele>18</ele>
        <time>2019-08-08T13:07:25Z</time>
      </trkpt>
      <trkpt lat="44.48135" lon="-1.18397">
        <ele>18</ele>
        <time>2019-08-08T13:07:30Z</time>
      </trkpt>
      <trkpt lat="44.48127" lon="-1.18407">
        <ele>18</ele>
        <time>2019-08-08T13:07:35Z</time>
      </trkpt>
      <trkpt lat="44.48119" lon="-1.18418">
        <ele>18</ele>
        <time>2019-08-08T13:07:40Z</time>
      </trkpt>
      <trkpt lat="44.48111" lon="-1.18428">
        <ele>18</ele>
        <time>2019-08-08T13:07:45Z</time>
      </trkpt>
      <trkpt lat="44.48104" lon="-1.18437">
        <ele>18</ele>
        <time>2019-08-08T13:07:50Z</time>
      </trkpt>
      <trkpt lat="44.48096" lon="-1.18446">
        <ele>18</ele>
        <time>2019-08-08T13:07:55Z</time>
      </trkpt>
      <trkpt lat="44.48089" lon="-1.18455">
        <ele>18</ele>
        <time>2019-08-08T13:08:00Z</time>
      </trkpt>
      <trkpt lat="44.48082" lon="-1.18465">
        <ele>18</ele>
        <time>2019-08-08T13:08:05Z</time>
      </trkpt>
      <trkpt lat="44.4807" lon="-1.18485">
        <ele>18</ele>
        <time>2019-08-08T13:08:15Z</time>
      </trkpt>
      <trkpt lat="44.48065" lon="-1.18497">
        <ele>18</ele>
        <time>2019-08-08T13:08:20Z</time>
      </trkpt>
      <trkpt lat="44.4806" lon="-1.18508">
        <ele>18</ele>
        <time>2019-08-08T13:08:25Z</time>
      </trkpt>
      <trkpt lat="44.48055" lon="-1.18517">
        <ele>18</ele>
        <time>2019-08-08T13:08:30Z</time>
      </trkpt>
      <trkpt lat="44.48049" lon="-1.18526">
        <ele>18</ele>
        <time>2019-08-08T13:08:35Z</time>
      </trkpt>
      <trkpt lat="44.48043" lon="-1.18536">
        <ele>18</ele>
        <time>2019-08-08T13:08:40Z</time>
      </trkpt>
      <trkpt lat="44.48038" lon="-1.18545">
        <ele>18</ele>
        <time>2019-08-08T13:08:45Z</time>
      </trkpt>
      <trkpt lat="44.48031" lon="-1.18552">
        <ele>18</ele>
        <time>2019-08-08T13:08:50Z</time>
      </trkpt>
      <trkpt lat="44.48018" lon="-1.18569">
        <ele>18</ele>
        <time>2019-08-08T13:09:00Z</time>
      </trkpt>
      <trkpt lat="44.48012" lon="-1.18578">
        <ele>18</ele>
        <time>2019-08-08T13:09:05Z</time>
      </trkpt>
      <trkpt lat="44.48005" lon="-1.18586">
        <ele>18</ele>
        <time>2019-08-08T13:09:10Z</time>
      </trkpt>
      <trkpt lat="44.47998" lon="-1.18594">
        <ele>18</ele>
        <time>2019-08-08T13:09:15Z</time>
      </trkpt>
      <trkpt lat="44.47991" lon="-1.18603">
        <ele>18</ele>
        <time>2019-08-08T13:09:20Z</time>
      </trkpt>
      <trkpt lat="44.47985" lon="-1.18613">
        <ele>18</ele>
        <time>2019-08-08T13:09:25Z</time>
      </trkpt>
      <trkpt lat="44.47978" lon="-1.18622">
        <ele>18</ele>
        <time>2019-08-08T13:09:30Z</time>
      </trkpt>
      <trkpt lat="44.47971" lon="-1.1863">
        <ele>18</ele>
        <time>2019-08-08T13:09:35Z</time>
      </trkpt>
      <trkpt lat="44.47964" lon="-1.18639">
        <ele>18</ele>
        <time>2019-08-08T13:09:40Z</time>
      </trkpt>
      <trkpt lat="44.47954" lon="-1.18662">
        <ele>18</ele>
        <time>2019-08-08T13:09:50Z</time>
      </trkpt>
      <trkpt lat="44.47949" lon="-1.18673">
        <ele>18</ele>
        <time>2019-08-08T13:09:55Z</time>
      </trkpt>
      <trkpt lat="44.47943" lon="-1.18684">
        <ele>18</ele>
        <time>2019-08-08T13:10:00Z</time>
      </trkpt>
      <trkpt lat="44.47937" lon="-1.18696">
        <ele>18</ele>
        <time>2019-08-08T13:10:05Z</time>
      </trkpt>
      <trkpt lat="44.47931" lon="-1.18706">
        <ele>18</ele>
        <time>2019-08-08T13:10:10Z</time>
      </trkpt>
      <trkpt lat="44.47925" lon="-1.18716">
        <ele>18</ele>
        <time>2019-08-08T13:10:15Z</time>
      </trkpt>
      <trkpt lat="44.47918" lon="-1.18726">
        <ele>18</ele>
        <time>2019-08-08T13:10:20Z</time>
      </trkpt>
      <trkpt lat="44.47911" lon="-1.18735">
        <ele>18</ele>
        <time>2019-08-08T13:10:25Z</time>
      </trkpt>
      <trkpt lat="44.47899" lon="-1.18745">
        <ele>18</ele>
        <time>2019-08-08T13:10:35Z</time>
      </trkpt>
      <trkpt lat="44.47892" lon="-1.18744">
        <ele>18</ele>
        <time>2019-08-08T13:10:40Z</time>
      </trkpt>
      <trkpt lat="44.47884" lon="-1.18743">
        <ele>18</ele>
        <time>2019-08-08T13:10:45Z</time>
      </trkpt>
      <trkpt lat="44.47877" lon="-1.18743">
        <ele>18</ele>
        <time>2019-08-08T13:10:50Z</time>
      </trkpt>
      <trkpt lat="44.47868" lon="-1.18745">
        <ele>18</ele>
        <time>2019-08-08T13:10:55Z</time>
      </trkpt>
      <trkpt lat="44.47859" lon="-1.1875">
        <ele>18</ele>
        <time>2019-08-08T13:11:00Z</time>
      </trkpt>
      <trkpt lat="44.47851" lon="-1.18756">
        <ele>18</ele>
        <time>2019-08-08T13:11:05Z</time>
      </trkpt>
      <trkpt lat="44.47846" lon="-1.18764">
        <ele>18</ele>
        <time>2019-08-08T13:11:10Z</time>
      </trkpt>
      <trkpt lat="44.47845" lon="-1.18771">
        <ele>18</ele>
        <time>2019-08-08T13:11:15Z</time>
      </trkpt>
      <trkpt lat="44.47854" lon="-1.18783">
        <ele>18</ele>
        <time>2019-08-08T13:11:25Z</time>
      </trkpt>
      <trkpt lat="44.47859" lon="-1.1879">
        <ele>18</ele>
        <time>2019-08-08T13:11:30Z</time>
      </trkpt>
      <trkpt lat="44.47866" lon="-1.18797">
        <ele>18</ele>
        <time>2019-08-08T13:11:35Z</time>
      </trkpt>
      <trkpt lat="44.47874" lon="-1.18804">
        <ele>18</ele>
        <time>2019-08-08T13:11:40Z</time>
      </trkpt>
      <trkpt lat="44.47881" lon="-1.18813">
        <ele>18</ele>
        <time>2019-08-08T13:11:45Z</time>
      </trkpt>
      <trkpt lat="44.47888" lon="-1.18819">
        <ele>18</ele>
        <time>2019-08-08T13:11:50Z</time>
      </trkpt>
      <trkpt lat="44.47896" lon="-1.18826">
        <ele>18</ele>
        <time>2019-08-08T13:11:55Z</time>
      </trkpt>
      <trkpt lat="44.47903" lon="-1.18835">
        <ele>18</ele>
        <time>2019-08-08T13:12:00Z</time>
      </trkpt>
      <trkpt lat="44.47918" lon="-1.18853">
        <ele>18</ele>
        <time>2019-08-08T13:12:10Z</time>
      </trkpt>
      <trkpt lat="44.47927" lon="-1.18861">
        <ele>18</ele>
        <time>2019-08-08T13:12:15Z</time>
      </trkpt>
      <trkpt lat="44.47935" lon="-1.18871">
        <ele>18</ele>
        <time>2019-08-08T13:12:20Z</time>
      </trkpt>
      <trkpt lat="44.47942" lon="-1.18883">
        <ele>18</ele>
        <time>2019-08-08T13:12:25Z</time>
      </trkpt>
      <trkpt lat="44.47949" lon="-1.18894">
        <ele>18</ele>
        <time>2019-08-08T13:12:30Z</time>
      </trkpt>
      <trkpt lat="44.47956" lon="-1.18902">
        <ele>18</ele>
        <time>2019-08-08T13:12:35Z</time>
      </trkpt>
      <trkpt lat="44.47963" lon="-1.1891">
        <ele>18</ele>
        <time>2019-08-08T13:12:40Z</time>
      </trkpt>
      <trkpt lat="44.4797" lon="-1.18918">
        <ele>18</ele>
        <time>2019-08-08T13:12:45Z</time>
      </trkpt>
      <trkpt lat="44.47978" lon="-1.18925">
        <ele>18</ele>
        <time>2019-08-08T13:12:50Z</time>
      </trkpt>
      <trkpt lat="44.47997" lon="-1.18942">
        <ele>18</ele>
        <time>2019-08-08T13:13:00Z</time>
      </trkpt>
      <trkpt lat="44.48007" lon="-1.18951">
        <ele>18</ele>
        <time>2019-08-08T13:13:05Z</time>
      </trkpt>
      <trkpt lat="44.48016" lon="-1.18958">
        <ele>18</ele>
        <time>2019-08-08T13:13:10Z</time>
      </trkpt>
      <trkpt lat="44.48025" lon="-1.18964">
        <ele>18</ele>
        <time>2019-08-08T13:13:15Z</time>
      </trkpt>
      <trkpt lat="44.48034" lon="-1.1897">
        <ele>18</ele>
        <time>2019-08-08T13:13:20Z</time>
      </trkpt>
      <trkpt lat="44.4804" lon="-1.18978">
        <ele>18</ele>
        <time>2019-08-08T13:13:25Z</time>
      </trkpt>
      <trkpt lat="44.48046" lon="-1.18988">
        <ele>18</ele>
        <time>2019-08-08T13:13:30Z</time>
      </trkpt>
      <trkpt lat="44.48053" lon="-1.18996">
        <ele>18</ele>
        <time>2019-08-08T13:13:35Z</time>
      </trkpt>
      <trkpt lat="44.48069" lon="-1.1901">
        <ele>18</ele>
        <time>2019-08-08T13:13:45Z</time>
      </trkpt>
      <trkpt lat="44.48078" lon="-1.19011">
        <ele>18</ele>
        <time>2019-08-08T13:13:50Z</time>
      </trkpt>
      <trkpt lat="44.48087" lon="-1.1901">
        <ele>18</ele>
        <time>2019-08-08T13:13:55Z</time>
      </trkpt>
      <trkpt lat="44.48094" lon="-1.19014">
        <ele>18</ele>
        <time>2019-08-08T13:14:00Z</time>
      </trkpt>
      <trkpt lat="44.48098" lon="-1.19021">
        <ele>18</ele>
        <time>2019-08-08T13:14:05Z</time>
      </trkpt>
      <trkpt lat="44.48102" lon="-1.1903">
        <ele>18</ele>
        <time>2019-08-08T13:14:10Z</time>
      </trkpt>
      <trkpt lat="44.48105" lon="-1.1904">
        <ele>18</ele>
        <time>2019-08-08T13:14:15Z</time>
      </trkpt>
      <trkpt lat="44.48107" lon="-1.19051">
        <ele>18</ele>
        <time>2019-08-08T13:14:20Z</time>
      </trkpt>
      <trkpt lat="44.48109" lon="-1.19059">
        <ele>18</ele>
        <time>2019-08-08T13:14:25Z</time>
      </trkpt>
      <trkpt lat="44.48118" lon="-1.19063">
        <ele>18</ele>
        <time>2019-08-08T13:14:35Z</time>
      </trkpt>
      <trkpt lat="44.48125" lon="-1.19064">
        <ele>18</ele>
        <time>2019-08-08T13:14:40Z</time>
      </trkpt>
      <trkpt lat="44.48132" lon="-1.19065">
        <ele>18</ele>
        <time>2019-08-08T13:14:45Z</time>
      </trkpt>
      <trkpt lat="44.48139" lon="-1.19064">
        <ele>18</ele>
        <time>2019-08-08T13:14:50Z</time>
      </trkpt>
      <trkpt lat="44.48146" lon="-1.19062">
        <ele>18</ele>
        <time>2019-08-08T13:14:55Z</time>
      </trkpt>
      <trkpt lat="44.48154" lon="-1.19059">
        <ele>18</ele>
        <time>2019-08-08T13:15:00Z</time>
      </trkpt>
      <trkpt lat="44.48164" lon="-1.19057">
        <ele>18</ele>
        <time>2019-08-08T13:15:05Z</time>
      </trkpt>
      <trkpt lat="44.48174" lon="-1.19056">
        <ele>18</ele>
        <time>2019-08-08T13:15:10Z</time>
      </trkpt>
      <trkpt lat="44.48192" lon="-1.19053">
        <ele>18</ele>
        <time>2019-08-08T13:15:20Z</time>
      </trkpt>
      <trkpt lat="44.482" lon="-1.19052">
        <ele>18</ele>
        <time>2019-08-08T13:15:25Z</time>
      </trkpt>
      <trkpt lat="44.48208" lon="-1.19049">
        <ele>18</ele>
        <time>2019-08-08T13:15:30Z</time>
      </trkpt>
      <trkpt lat="44.48215" lon="-1.19047">
        <ele>18</ele>
        <time>2019-08-08T13:15:35Z</time>
      </trkpt>
      <trkpt lat="44.48223" lon="-1.19043">
        <ele>18</ele>
        <time>2019-08-08T13:15:40Z</time>
      </trkpt>
      <trkpt lat="44.4823" lon="-1.19039">
        <ele>18</ele>
        <time>2019-08-08T13:15:45Z</time>
      </trkpt>
      <trkpt lat="44.4824" lon="-1.1904">
        <ele>18</ele>
        <time>2019-08-08T13:15:50Z</time>
      </trkpt>
      <trkpt lat="44.48249" lon="-1.19046">
        <ele>18</ele>
        <time>2019-08-08T13:15:55Z</time>
      </trkpt>
      <trkpt lat="44.48258" lon="-1.1905">
        <ele>18</ele>
        <time>2019-08-08T13:16:00Z</time>
      </trkpt>
      <trkpt lat="44.48277" lon="-1.19055">
        <ele>18</ele>
        <time>2019-08-08T13:16:10Z</time>
      </trkpt>
      <trkpt lat="44.48287" lon="-1.19057">
        <ele>18</ele>
        <time>2019-08-08T13:16:15Z</time>
      </trkpt>
      <trkpt lat="44.48298" lon="-1.19056">
        <ele>18</ele>
        <time>2019-08-08T13:16:20Z</time>
      </trkpt>
      <trkpt lat="44.48309" lon="-1.19055">
        <ele>18</ele>
        <time>2019-08-08T13:16:25Z</time>
      </trkpt>
      <trkpt lat="44.48319" lon="-1.19054">
        <ele>18</ele>
        <time>2019-08-08T13:16:30Z</time>
      </trkpt>
      <trkpt lat="44.4833" lon="-1.19052">
        <ele>18</ele>
        <time>2019-08-08T13:16:35Z</time>
      </trkpt>
      <trkpt lat="44.4834" lon="-1.19051">
        <ele>18</ele>
        <time>2019-08-08T13:16:40Z</time>
      </trkpt>
      <trkpt lat="44.48351" lon="-1.19053">
        <ele>18</ele>
        <time>2019-08-08T13:16:45Z</time>
      </trkpt>
      <trkpt lat="44.48373" lon="-1.1906">
        <ele>18</ele>
        <time>2019-08-08T13:16:55Z</time>
      </trkpt>
      <trkpt lat="44.48383" lon="-1.19065">
        <ele>18</ele>
        <time>2019-08-08T13:17:00Z</time>
      </trkpt>
      <trkpt lat="44.48392" lon="-1.1907">
        <ele>18</ele>
        <time>2019-08-08T13:17:05Z</time>
      </trkpt>
      <trkpt lat="44.48402" lon="-1.19074">
        <ele>18</ele>
        <time>2019-08-08T13:17:10Z</time>
      </trkpt>
      <trkpt lat="44.48411" lon="-1.19078">
        <ele>18</ele>
        <time>2019-08-08T13:17:15Z</time>
      </trkpt>
      <trkpt lat="44.48421" lon="-1.19082">
        <ele>18</ele>
        <time>2019-08-08T13:17:20Z</time>
      </trkpt>
      <trkpt lat="44.48431" lon="-1.19086">
        <ele>18</ele>
        <time>2019-08-08T13:17:25Z</time>
      </trkpt>
      <trkpt lat="44.48441" lon="-1.19089">
        <ele>18</ele>
        <time>2019-08-08T13:17:30Z</time>
      </trkpt>
      <trkpt lat="44.4845" lon="-1.19091">
        <ele>18</ele>
        <time>2019-08-08T13:17:35Z</time>
      </trkpt>
      <trkpt lat="44.4845" lon="-1.19102">
        <ele>18</ele>
        <time>2019-08-08T13:17:45Z</time>
      </trkpt>
      <trkpt lat="44.48446" lon="-1.19108">
        <ele>18</ele>
        <time>2019-08-08T13:17:50Z</time>
      </trkpt>
      <trkpt lat="44.4844" lon="-1.19114">
        <ele>18</ele>
        <time>2019-08-08T13:17:55Z</time>
      </trkpt>
      <trkpt lat="44.48434" lon="-1.19122">
        <ele>18</ele>
        <time>2019-08-08T13:18:00Z</time>
      </trkpt>
      <trkpt lat="44.48428" lon="-1.19128">
        <ele>18</ele>
        <time>2019-08-08T13:18:05Z</time>
      </trkpt>
      <trkpt lat="44.48422" lon="-1.19133">
        <ele>18</ele>
        <time>2019-08-08T13:18:10Z</time>
      </trkpt>
      <trkpt lat="44.48416" lon="-1.19137">
        <ele>18</ele>
        <time>2019-08-08T13:18:15Z</time>
      </trkpt>
      <trkpt lat="44.4841" lon="-1.19138">
        <ele>18</ele>
        <time>2019-08-08T13:18:20Z</time>
      </trkpt>
      <trkpt lat="44.48396" lon="-1.19141">
        <ele>18</ele>
        <time>2019-08-08T13:18:30Z</time>
      </trkpt>
      <trkpt lat="44.4839" lon="-1.19142">
        <ele>18</ele>
        <time>2019-08-08T13:18:35Z</time>
      </trkpt>
      <trkpt lat="44.48383" lon="-1.19144">
        <ele>18</ele>
        <time>2019-08-08T13:18:40Z</time>
      </trkpt>
      <trkpt lat="44.48376" lon="-1.19146">
        <ele>18</ele>
        <time>2019-08-08T13:18:45Z</time>
      </trkpt>
      <trkpt lat="44.48367" lon="-1.19148">
        <ele>18</ele>
        <time>2019-08-08T13:18:50Z</time>
      </trkpt>
      <trkpt lat="44.48358" lon="-1.1915">
        <ele>18</ele>
        <time>2019-08-08T13:18:55Z</time>
      </trkpt>
      <trkpt lat="44.4835" lon="-1.19152">
        <ele>18</ele>
        <time>2019-08-08T13:19:00Z</time>
      </trkpt>
      <trkpt lat="44.48342" lon="-1.19152">
        <ele>18</ele>
        <time>2019-08-08T13:19:05Z</time>
      </trkpt>
      <trkpt lat="44.48333" lon="-1.19153">
        <ele>18</ele>
        <time>2019-08-08T13:19:10Z</time>
      </trkpt>
      <trkpt lat="44.48316" lon="-1.19158">
        <ele>18</ele>
        <time>2019-08-08T13:19:20Z</time>
      </trkpt>
      <trkpt lat="44.48308" lon="-1.19162">
        <ele>18</ele>
        <time>2019-08-08T13:19:25Z</time>
      </trkpt>
      <trkpt lat="44.48299" lon="-1.19166">
        <ele>18</ele>
        <time>2019-08-08T13:19:30Z</time>
      </trkpt>
      <trkpt lat="44.48291" lon="-1.19169">
        <ele>18</ele>
        <time>2019-08-08T13:19:35Z</time>
      </trkpt>
      <trkpt lat="44.48282" lon="-1.19173">
        <ele>18</ele>
        <time>2019-08-08T13:19:40Z</time>
      </trkpt>
      <trkpt lat="44.48273" lon="-1.19177">
        <ele>18</ele>
        <time>2019-08-08T13:19:45Z</time>
      </trkpt>
      <trkpt lat="44.48264" lon="-1.19181">
        <ele>18</ele>
        <time>2019-08-08T13:19:50Z</time>
      </trkpt>
      <trkpt lat="44.48255" lon="-1.19186">
        <ele>18</ele>
        <time>2019-08-08T13:19:55Z</time>
      </trkpt>
      <trkpt lat="44.48236" lon="-1.19195">
        <ele>18</ele>
        <time>2019-08-08T13:20:05Z</time>
      </trkpt>
      <trkpt lat="44.48227" lon="-1.19198">
        <ele>18</ele>
        <time>2019-08-08T13:20:10Z</time>
      </trkpt>
      <trkpt lat="44.48218" lon="-1.192">
        <ele>18</ele>
        <time>2019-08-08T13:20:15Z</time>
      </trkpt>
      <trkpt lat="44.48209" lon="-1.19203">
        <ele>18</ele>
        <time>2019-08-08T13:20:20Z</time>
      </trkpt>
      <trkpt lat="44.48201" lon="-1.19206">
        <ele>18</ele>
        <time>2019-08-08T13:20:25Z</time>
      </trkpt>
      <trkpt lat="44.48193" lon="-1.1921">
        <ele>18</ele>
        <time>2019-08-08T13:20:30Z</time>
      </trkpt>
      <trkpt lat="44.48186" lon="-1.19214">
        <ele>18</ele>
        <time>2019-08-08T13:20:35Z</time>
      </trkpt>
      <trkpt lat="44.48179" lon="-1.19216">
        <ele>18</ele>
        <time>2019-08-08T13:20:40Z</time>
      </trkpt>
      <trkpt lat="44.48172" lon="-1.19217">
        <ele>18</ele>
        <time>2019-08-08T13:20:45Z</time>
      </trkpt>
      <trkpt lat="44.48158" lon="-1.19215">
        <ele>18</ele>
        <time>2019-08-08T13:20:55Z</time>
      </trkpt>
      <trkpt lat="44.48149" lon="-1.19215">
        <ele>18</ele>
        <time>2019-08-08T13:21:00Z</time>
      </trkpt>
      <trkpt lat="44.48141" lon="-1.19219">
        <ele>18</ele>
        <time>2019-08-08T13:21:05Z</time>
      </trkpt>
      <trkpt lat="44.48131" lon="-1.19223">
        <ele>18</ele>
        <time>2019-08-08T13:21:10Z</time>
      </trkpt>
      <trkpt lat="44.48121" lon="-1.19228">
        <ele>18</ele>
        <time>2019-08-08T13:21:15Z</time>
      </trkpt>
      <trkpt lat="44.48112" lon="-1.19233">
        <ele>18</ele>
        <time>2019-08-08T13:21:20Z</time>
      </trkpt>
      <trkpt lat="44.48103" lon="-1.19239">
        <ele>18</ele>
        <time>2019-08-08T13:21:25Z</time>
      </trkpt>
      <trkpt lat="44.48094" lon="-1.19246">
        <ele>18</ele>
        <time>2019-08-08T13:21:30Z</time>
      </trkpt>
      <trkpt lat="44.48076" lon="-1.19256">
        <ele>18</ele>
        <time>2019-08-08T13:21:40Z</time>
      </trkpt>
      <trkpt lat="44.48067" lon="-1.1926">
        <ele>18</ele>
        <time>2019-08-08T13:21:45Z</time>
      </trkpt>
      <trkpt lat="44.48058" lon="-1.19264">
        <ele>18</ele>
        <time>2019-08-08T13:21:50Z</time>
      </trkpt>
      <trkpt lat="44.48055" lon="-1.19272">
        <ele>18</ele>
        <time>2019-08-08T13:21:55Z</time>
      </trkpt>
      <trkpt lat="44.48057" lon="-1.19279">
        <ele>18</ele>
        <time>2019-08-08T13:22:00Z</time>
      </trkpt>
      <trkpt lat="44.48063" lon="-1.19285">
        <ele>18</ele>
        <time>2019-08-08T13:22:05Z</time>
      </trkpt>
      <trkpt lat="44.48069" lon="-1.19291">
        <ele>18</ele>
        <time>2019-08-08T13:22:10Z</time>
      </trkpt>
      <trkpt lat="44.48076" lon="-1.19299">
        <ele>18</ele>
        <time>2019-08-08T13:22:15Z</time>
      </trkpt>
      <trkpt lat="44.48083" lon="-1.19307">
        <ele>18</ele>
        <time>2019-08-08T13:22:20Z</time>
      </trkpt>
      <trkpt lat="44.48099" lon="-1.19323">
        <ele>18</ele>
        <time>2019-08-08T13:22:30Z</time>
      </trkpt>
      <trkpt lat="44.48108" lon="-1.1933">
        <ele>18</ele>
        <time>2019-08-08T13:22:35Z</time>
      </trkpt>
      <trkpt lat="44.48117" lon="-1.19337">
        <ele>18</ele>
        <time>2019-08-08T13:22:40Z</time>
      </trkpt>
      <trkpt lat="44.48125" lon="-1.19344">
        <ele>18</ele>
        <time>2019-08-08T13:22:45Z</time>
      </trkpt>
      <trkpt lat="44.48132" lon="-1.1935">
        <ele>18</ele>
        <time>2019-08-08T13:22:50Z</time>
      </trkpt>
      <trkpt lat="44.48139" lon="-1.19355">
        <ele>18</ele>
        <time>2019-08-08T13:22:55Z</time>
      </trkpt>
      <trkpt lat="44.48145" lon="-1.1936">
        <ele>18</ele>
        <time>2019-08-08T13:23:00Z</time>
      </trkpt>
      <trkpt lat="44.4815" lon="-1.19365">
        <ele>18</ele>
        <time>2019-08-08T13:23:05Z</time>
      </trkpt>
      <trkpt lat="44.48161" lon="-1.19376">
        <ele>18</ele>
        <time>2019-08-08T13:23:15Z</time>
      </trkpt>
      <trkpt lat="44.48164" lon="-1.19381">
        <ele>18</ele>
        <time>2019-08-08T13:23:20Z</time>
      </trkpt>
      <trkpt lat="44.48165" lon="-1.19388">
        <ele>18</ele>
        <time>2019-08-08T13:23:25Z</time>
      </trkpt>
      <trkpt lat="44.48166" lon="-1.19395">
        <ele>18</ele>
        <time>2019-08-08T13:23:30Z</time>
      </trkpt>
      <trkpt lat="44.48167" lon="-1.19403">
        <ele>18</ele>
        <time>2019-08-08T13:23:35Z</time>
      </trkpt>
      <trkpt lat="44.4817" lon="-1.19409">
        <ele>18</ele>
        <time>2019-08-08T13:23:40Z</time>
      </trkpt>
      <trkpt lat="44.48174" lon="-1.19414">
        <ele>18</ele>
        <time>2019-08-08T13:23:45Z</time>
      </trkpt>
      <trkpt lat="44.48179" lon="-1.1942">
        <ele>18</ele>
        <time>2019-08-08T13:23:50Z</time>
      </trkpt>
      <trkpt lat="44.48189" lon="-1.19436">
        <ele>18</ele>
        <time>2019-08-08T13:24:00Z</time>
      </trkpt>
      <trkpt lat="44.48193" lon="-1.19446">
        <ele>18</ele>
        <time>2019-08-08T13:24:05Z</time>
      </trkpt>
      <trkpt lat="44.48197" lon="-1.19457">
        <ele>18</ele>
        <time>2019-08-08T13:24:10Z</time>
      </trkpt>
      <trkpt lat="44.48201" lon="-1.19467">
        <ele>18</ele>
        <time>2019-08-08T13:24:15Z</time>
      </trkpt>
      <trkpt lat="44.48208" lon="-1.1947">
        <ele>18</ele>
        <time>2019-08-08T13:24:20Z</time>
      </trkpt>
      <trkpt lat="44.48216" lon="-1.19475">
        <ele>18</ele>
        <time>2019-08-08T13:24:25Z</time>
      </trkpt>
      <trkpt lat="44.48224" lon="-1.19479">
        <ele>18</ele>
        <time>2019-08-08T13:24:30Z</time>
      </trkpt>
      <trkpt lat="44.48231" lon="-1.19483">
        <ele>18</ele>
        <time>2019-08-08T13:24:35Z</time>
      </trkpt>
      <trkpt lat="44.48239" lon="-1.19486">
        <ele>18</ele>
        <time>2019-08-08T13:24:40Z</time>
      </trkpt>
      <trkpt lat="44.48251" lon="-1.19501">
        <ele>18</ele>
        <time>2019-08-08T13:24:50Z</time>
      </trkpt>
      <trkpt lat="44.48257" lon="-1.19504">
        <ele>18</ele>
        <time>2019-08-08T13:24:55Z</time>
      </trkpt>
      <trkpt lat="44.48264" lon="-1.19506">
        <ele>18</ele>
        <time>2019-08-08T13:25:00Z</time>
      </trkpt>
      <trkpt lat="44.48271" lon="-1.19508">
        <ele>18</ele>
        <time>2019-08-08T13:25:05Z</time>
      </trkpt>
      <trkpt lat="44.48278" lon="-1.19514">
        <ele>18</ele>
        <time>2019-08-08T13:25:10Z</time>
      </trkpt>
      <trkpt lat="44.48285" lon="-1.1952">
        <ele>18</ele>
        <time>2019-08-08T13:25:15Z</time>
      </trkpt>
      <trkpt lat="44.48293" lon="-1.19527">
        <ele>18</ele>
        <time>2019-08-08T13:25:20Z</time>
      </trkpt>
      <trkpt lat="44.48301" lon="-1.19534">
        <ele>18</ele>
        <time>2019-08-08T13:25:25Z</time>
      </trkpt>
      <trkpt lat="44.48319" lon="-1.19544">
        <ele>18</ele>
        <time>2019-08-08T13:25:35Z</time>
      </trkpt>
      <trkpt lat="44.48329" lon="-1.19548">
        <ele>18</ele>
        <time>2019-08-08T13:25:40Z</time>
      </trkpt>
      <trkpt lat="44.48338" lon="-1.19554">
        <ele>18</ele>
        <time>2019-08-08T13:25:45Z</time>
      </trkpt>
      <trkpt lat="44.48347" lon="-1.19562">
        <ele>18</ele>
        <time>2019-08-08T13:25:50Z</time>
      </trkpt>
      <trkpt lat="44.48356" lon="-1.19567">
        <ele>18</ele>
        <time>2019-08-08T13:25:55Z</time>
      </trkpt>
      <trkpt lat="44.48365" lon="-1.1957">
        <ele>18</ele>
        <time>2019-08-08T13:26:00Z</time>
      </trkpt>
      <trkpt lat="44.48375" lon="-1.19569">
        <ele>18</ele>
        <time>2019-08-08T13:26:05Z</time>
      </trkpt>
      <trkpt lat="44.48385" lon="-1.19569">
        <ele>18</ele>
        <time>2019-08-08T13:26:10Z</time>
      </trkpt>
      <trkpt lat="44.48394" lon="-1.19569">
        <ele>18</ele>
        <time>2019-08-08T13:26:15Z</time>
      </trkpt>
      <trkpt lat="44.48412" lon="-1.19581">
        <ele>18</ele>
        <time>2019-08-08T13:26:25Z</time>
      </trkpt>
      <trkpt lat="44.48421" lon="-1.19587">
        <ele>18</ele>
        <time>2019-08-08T13:26:30Z</time>
      </trkpt>
      <trkpt lat="44.48429" lon="-1.19597">
        <ele>18</ele>
        <time>2019-08-08T13:26:35Z</time>
      </trkpt>
      <trkpt lat="44.48436" lon="-1.19607">
        <ele>18</ele>
        <time>2019-08-08T13:26:40Z</time>
      </trkpt>
      <trkpt lat="44.48444" lon="-1.19617">
        <ele>18</ele>
        <time>2019-08-08T13:26:45Z</time>
      </trkpt>
      <trkpt lat="44.48451" lon="-1.19628">
        <ele>18</ele>
        <time>2019-08-08T13:26:50Z</time>
      </trkpt>
      <trkpt lat="44.48459" lon="-1.19639">
        <ele>18</ele>
        <time>2019-08-08T13:26:55Z</time>
      </trkpt>
      <trkpt lat="44.48467" lon="-1.1965">
        <ele>18</ele>
        <time>2019-08-08T13:27:00Z</time>
      </trkpt>
      <trkpt lat="44.48484" lon="-1.1967">
        <ele>18</ele>
        <time>2019-08-08T13:27:10Z</time>
      </trkpt>
      <trkpt lat="44.48492" lon="-1.1968">
        <ele>18</ele>
        <time>2019-08-08T13:27:15Z</time>
      </trkpt>
      <trkpt lat="44.48499" lon="-1.1969">
        <ele>18</ele>
        <time>2019-08-08T13:27:20Z</time>
      </trkpt>
      <trkpt lat="44.48504" lon="-1.19701">
        <ele>18</ele>
        <time>2019-08-08T13:27:25Z</time>
      </trkpt>
      <trkpt lat="44.48508" lon="-1.19714">
        <ele>18</ele>
        <time>2019-08-08T13:27:30Z</time>
      </trkpt>
      <trkpt lat="44.4851" lon="-1.19726">
        <ele>18</ele>
        <time>2019-08-08T13:27:35Z</time>
      </trkpt>
      <trkpt lat="44.4851" lon="-1.19739">
        <ele>18</ele>
        <time>2019-08-08T13:27:40Z</time>
      </trkpt>
      <trkpt lat="44.4851" lon="-1.19752">
        <ele>18</ele>
        <time>2019-08-08T13:27:45Z</time>
      </trkpt>
      <trkpt lat="44.4851" lon="-1.19764">
        <ele>18</ele>
        <time>2019-08-08T13:27:50Z</time>
      </trkpt>
      <trkpt lat="44.4851" lon="-1.1979">
        <ele>18</ele>
        <time>2019-08-08T13:28:00Z</time>
      </trkpt>
      <trkpt lat="44.48509" lon="-1.19803">
        <ele>18</ele>
        <time>2019-08-08T13:28:05Z</time>
      </trkpt>
      <trkpt lat="44.48508" lon="-1.19815">
        <ele>18</ele>
        <time>2019-08-08T13:28:10Z</time>
      </trkpt>
      <trkpt lat="44.48507" lon="-1.19828">
        <ele>18</ele>
        <time>2019-08-08T13:28:15Z</time>
      </trkpt>
      <trkpt lat="44.48506" lon="-1.1984">
        <ele>18</ele>
        <time>2019-08-08T13:28:20Z</time>
      </trkpt>
      <trkpt lat="44.48505" lon="-1.1985">
        <ele>18</ele>
        <time>2019-08-08T13:28:25Z</time>
      </trkpt>
      <trkpt lat="44.48505" lon="-1.1986">
        <ele>18</ele>
        <time>2019-08-08T13:28:30Z</time>
      </trkpt>
      <trkpt lat="44.48506" lon="-1.19868">
        <ele>18</ele>
        <time>2019-08-08T13:28:35Z</time>
      </trkpt>
      <trkpt lat="44.48506" lon="-1.19882">
        <ele>18</ele>
        <time>2019-08-08T13:28:45Z</time>
      </trkpt>
      <trkpt lat="44.48504" lon="-1.19887">
        <ele>18</ele>
        <time>2019-08-08T13:28:50Z</time>
      </trkpt>
      <trkpt lat="44.48501" lon="-1.19893">
        <ele>18</ele>
        <time>2019-08-08T13:28:55Z</time>
      </trkpt>
      <trkpt lat="44.48499" lon="-1.19897">
        <ele>18</ele>
        <time>2019-08-08T13:29:00Z</time>
      </trkpt>
      <trkpt lat="44.48496" lon="-1.19901">
        <ele>18</ele>
        <time>2019-08-08T13:29:05Z</time>
      </trkpt>
      <trkpt lat="44.48494" lon="-1.19905">
        <ele>18</ele>
        <time>2019-08-08T13:29:10Z</time>
      </trkpt>
      <trkpt lat="44.48492" lon="-1.19907">
        <ele>18</ele>
        <time>2019-08-08T13:29:15Z</time>
      </trkpt>
      <trkpt lat="44.4849" lon="-1.19908">
        <ele>18</ele>
        <time>2019-08-08T13:29:20Z</time>
      </trkpt>
      <trkpt lat="44.4849" lon="-1.19908">
        <ele>18</ele>
        <time>2019-08-08T13:29:25Z</time>
      </trkpt>
      <trkpt lat="44.4849" lon="-1.19909">
        <ele>18</ele>
        <time>2019-08-08T13:29:35Z</time>
      </trkpt>
      <trkpt lat="44.4849" lon="-1.19908">
        <ele>18</ele>
        <time>2019-08-08T13:29:40Z</time>
      </trkpt>
      <trkpt lat="44.4849" lon="-1.19908">
        <ele>18</ele>
        <time>2019-08-08T13:29:45Z</time>
      </trkpt>
      <trkpt lat="44.4849" lon="-1.19908">
        <ele>18</ele>
        <time>2019-08-08T13:29:50Z</time>
      </trkpt>
      <trkpt lat="44.4849" lon="-1.19908">
        <ele>18</ele>
        <time>2019-08-08T13:29:55Z</time>
      </trkpt>
      <trkpt lat="44.4849" lon="-1.19908">
        <ele>18</ele>
        <time>2019-08-08T13:30:00Z</time>
      </trkpt>
      <trkpt lat="44.4849" lon="-1.19907">
        <ele>18</ele>
        <time>2019-08-08T13:30:05Z</time>
      </trkpt>
      <trkpt lat="44.48489" lon="-1.19906">
        <ele>18</ele>
        <time>2019-08-08T13:30:10Z</time>
      </trkpt>
      <trkpt lat="44.48489" lon="-1.19904">
        <ele>18</ele>
        <time>2019-08-08T13:30:20Z</time>
      </trkpt>
      <trkpt lat="44.48489" lon="-1.19902">
        <ele>18</ele>
        <time>2019-08-08T13:30:25Z</time>
      </trkpt>
      <trkpt lat="44.48488" lon="-1.19899">
        <ele>18</ele>
        <time>2019-08-08T13:30:30Z</time>
      </trkpt>
      <trkpt lat="44.48486" lon="-1.19897">
        <ele>18</ele>
        <time>2019-08-08T13:30:35Z</time>
      </trkpt>
      <trkpt lat="44.48484" lon="-1.19897">
        <ele>18</ele>
        <time>2019-08-08T13:30:40Z</time>
      </trkpt>
      <trkpt lat="44.48483" lon="-1.19898">
        <ele>18</ele>
        <time>2019-08-08T13:30:45Z</time>
      </trkpt>
      <trkpt lat="44.48482" lon="-1.19898">
        <ele>18</ele>
        <time>2019-08-08T13:30:50Z</time>
      </trkpt>
      <trkpt lat="44.48481" lon="-1.19898">
        <ele>18</ele>
        <time>2019-08-08T13:30:55Z</time>
      </trkpt>
      <trkpt lat="44.4848" lon="-1.19898">
        <ele>18</ele>
        <time>2019-08-08T13:31:00Z</time>
      </trkpt>
      <trkpt lat="44.48477" lon="-1.19899">
        <ele>18</ele>
        <time>2019-08-08T13:31:10Z</time>
      </trkpt>
      <trkpt lat="44.48476" lon="-1.19903">
        <ele>18</ele>
        <time>2019-08-08T13:31:15Z</time>
      </trkpt>
      <trkpt lat="44.48475" lon="-1.19905">
        <ele>18</ele>
        <time>2019-08-08T13:31:20Z</time>
      </trkpt>
      <trkpt lat="44.48475" lon="-1.19907">
        <ele>18</ele>
        <time>2019-08-08T13:31:25Z</time>
      </trkpt>
      <trkpt lat="44.48474" lon="-1.19908">
        <ele>18</ele>
        <time>2019-08-08T13:31:30Z</time>
      </trkpt>
      <trkpt lat="44.48474" lon="-1.1991">
        <ele>18</ele>
        <time>2019-08-08T13:31:35Z</time>
      </trkpt>
      <trkpt lat="44.48472" lon="-1.1991">
        <ele>18</ele>
        <time>2019-08-08T13:31:40Z</time>
      </trkpt>
      <trkpt lat="44.48471" lon="-1.19911">
        <ele>18</ele>
        <time>2019-08-08T13:31:45Z</time>
      </trkpt>
      <trkpt lat="44.4847" lon="-1.19914">
        <ele>18</ele>
        <time>2019-08-08T13:31:55Z</time>
      </trkpt>
      <trkpt lat="44.4847" lon="-1.19916">
        <ele>18</ele>
        <time>2019-08-08T13:32:00Z</time>
      </trkpt>
      <trkpt lat="44.4847" lon="-1.19918">
        <ele>18</ele>
        <time>2019-08-08T13:32:05Z</time>
      </trkpt>
      <trkpt lat="44.48469" lon="-1.19919">
        <ele>18</ele>
        <time>2019-08-08T13:32:10Z</time>
      </trkpt>
      <trkpt lat="44.48468" lon="-1.19921">
        <ele>18</ele>
        <time>2019-08-08T13:32:15Z</time>
      </trkpt>
      <trkpt lat="44.48468" lon="-1.19923">
        <ele>18</ele>
        <time>2019-08-08T13:32:20Z</time>
      </trkpt>
      <trkpt lat="44.48468" lon="-1.19925">
        <ele>18</ele>
        <time>2019-08-08T13:32:25Z</time>
      </trkpt>
      <trkpt lat="44.48468" lon="-1.19928">
        <ele>18</ele>
        <time>2019-08-08T13:32:30Z</time>
      </trkpt>
      <trkpt lat="44.48468" lon="-1.1993">
        <ele>18</ele>
        <time>2019-08-08T13:32:35Z</time>
      </trkpt>
      <trkpt lat="44.48468" lon="-1.19932">
        <ele>18</ele>
        <time>2019-08-08T13:32:45Z</time>
      </trkpt>
      <trkpt lat="44.48468" lon="-1.19933">
        <ele>18</ele>
        <time>2019-08-08T13:32:50Z</time>
      </trkpt>
      <trkpt lat="44.48468" lon="-1.19934">
        <ele>18</ele>
        <time>2019-08-08T13:32:55Z</time>
      </trkpt>
      <trkpt lat="44.48468" lon="-1.19935">
        <ele>18</ele>
        <time>2019-08-08T13:33:00Z</time>
      </trkpt>
      <trkpt lat="44.48468" lon="-1.19935">
        <ele>18</ele>
        <time>2019-08-08T13:33:05Z</time>
      </trkpt>
      <trkpt lat="44.48468" lon="-1.19936">
        <ele>18</ele>
        <time>2019-08-08T13:33:10Z</time>
      </trkpt>
      <trkpt lat="44.48468" lon="-1.19937">
        <ele>18</ele>
        <time>2019-08-08T13:33:15Z</time>
      </trkpt>
      <trkpt lat="44.4847" lon="-1.19936">
        <ele>18</ele>
        <time>2019-08-08T13:33:20Z</time>
      </trkpt>
      <trkpt lat="44.48472" lon="-1.19936">
        <ele>18</ele>
        <time>2019-08-08T13:33:30Z</time>
      </trkpt>
      <trkpt lat="44.48473" lon="-1.19935">
        <ele>18</ele>
        <time>2019-08-08T13:33:35Z</time>
      </trkpt>
      <trkpt lat="44.48474" lon="-1.19935">
        <ele>18</ele>
        <time>2019-08-08T13:33:40Z</time>
      </trkpt>
      <trkpt lat="44.48474" lon="-1.19935">
        <ele>18</ele>
        <time>2019-08-08T13:33:45Z</time>
      </trkpt>
      <trkpt lat="44.48474" lon="-1.19935">
        <ele>18</ele>
        <time>2019-08-08T13:33:50Z</time>
      </trkpt>
      <trkpt lat="44.48475" lon="-1.19934">
        <ele>18</ele>
        <time>2019-08-08T13:33:55Z</time>
      </trkpt>
      <trkpt lat="44.48475" lon="-1.19933">
        <ele>18</ele>
        <time>2019-08-08T13:34:00Z</time>
      </trkpt>
      <trkpt lat="44.48475" lon="-1.19932">
        <ele>18</ele>
        <time>2019-08-08T13:34:05Z</time>
      </trkpt>
      <trkpt lat="44.48474" lon="-1.19931">
        <ele>18</ele>
        <time>2019-08-08T13:34:10Z</time>
      </trkpt>
      <trkpt lat="44.48473" lon="-1.19929">
        <ele>18</ele>
        <time>2019-08-08T13:34:20Z</time>
      </trkpt>
      <trkpt lat="44.48473" lon="-1.1993">
        <ele>18</ele>
        <time>2019-08-08T13:34:25Z</time>
      </trkpt>
      <trkpt lat="44.48474" lon="-1.1993">
        <ele>18</ele>
        <time>2019-08-08T13:34:30Z</time>
      </trkpt>
      <trkpt lat="44.48475" lon="-1.19931">
        <ele>18</ele>
        <time>2019-08-08T13:34:35Z</time>
      </trkpt>
      <trkpt lat="44.48475" lon="-1.19931">
        <ele>18</ele>
        <time>2019-08-08T13:34:40Z</time>
      </trkpt>
      <trkpt lat="44.48476" lon="-1.19931">
        <ele>18</ele>
        <time>2019-08-08T13:34:45Z</time>
      </trkpt>
      <trkpt lat="44.48477" lon="-1.19931">
        <ele>18</ele>
        <time>2019-08-08T13:34:50Z</time>
      </trkpt>
      <trkpt lat="44.48477" lon="-1.19932">
        <ele>18</ele>
        <time>2019-08-08T13:34:55Z</time>
      </trkpt>
      <trkpt lat="44.48476" lon="-1.19934">
        <ele>18</ele>
        <time>2019-08-08T13:35:05Z</time>
      </trkpt>
      <trkpt lat="44.48475" lon="-1.19934">
        <ele>18</ele>
        <time>2019-08-08T13:35:10Z</time>
      </trkpt>
      <trkpt lat="44.48475" lon="-1.19935">
        <ele>18</ele>
        <time>2019-08-08T13:35:15Z</time>
      </trkpt>
      <trkpt lat="44.48475" lon="-1.19935">
        <ele>18</ele>
        <time>2019-08-08T13:35:20Z</time>
      </trkpt>
      <trkpt lat="44.48475" lon="-1.19936">
        <ele>18</ele>
        <time>2019-08-08T13:35:25Z</time>
      </trkpt>
      <trkpt lat="44.48475" lon="-1.19937">
        <ele>18</ele>
        <time>2019-08-08T13:35:30Z</time>
      </trkpt>
      <trkpt lat="44.48476" lon="-1.19938">
        <ele>18</ele>
        <time>2019-08-08T13:35:35Z</time>
      </trkpt>
      <trkpt lat="44.48475" lon="-1.19939">
        <ele>18</ele>
        <time>2019-08-08T13:35:40Z</time>
      </trkpt>
      <trkpt lat="44.48474" lon="-1.19941">
        <ele>18</ele>
        <time>2019-08-08T13:35:45Z</time>
      </trkpt>
      <trkpt lat="44.48471" lon="-1.19944">
        <ele>18</ele>
        <time>2019-08-08T13:35:55Z</time>
      </trkpt>
      <trkpt lat="44.48469" lon="-1.19946">
        <ele>18</ele>
        <time>2019-08-08T13:36:00Z</time>
      </trkpt>
      <trkpt lat="44.48468" lon="-1.1995">
        <ele>18</ele>
        <time>2019-08-08T13:36:05Z</time>
      </trkpt>
      <trkpt lat="44.48467" lon="-1.19954">
        <ele>18</ele>
        <time>2019-08-08T13:36:10Z</time>
      </trkpt>
      <trkpt lat="44.48466" lon="-1.19958">
        <ele>18</ele>
        <time>2019-08-08T13:36:15Z</time>
      </trkpt>
      <trkpt lat="44.48465" lon="-1.19961">
        <ele>18</ele>
        <time>2019-08-08T13:36:20Z</time>
      </trkpt>
      <trkpt lat="44.48464" lon="-1.19963">
        <ele>18</ele>
        <time>2019-08-08T13:36:25Z</time>
      </trkpt>
      <trkpt lat="44.48464" lon="-1.19963">
        <ele>18</ele>
        <time>2019-08-08T13:36:30Z</time>
      </trkpt>
      <trkpt lat="44.48467" lon="-1.19959">
        <ele>18</ele>
        <time>2019-08-08T13:36:40Z</time>
      </trkpt>
      <trkpt lat="44.48468" lon="-1.19956">
        <ele>18</ele>
        <time>2019-08-08T13:36:45Z</time>
      </trkpt>
      <trkpt lat="44.48469" lon="-1.19952">
        <ele>18</ele>
        <time>2019-08-08T13:36:50Z</time>
      </trkpt>
      <trkpt lat="44.48469" lon="-1.19953">
        <ele>18</ele>
        <time>2019-08-08T13:36:55Z</time>
      </trkpt>
      <trkpt lat="44.48468" lon="-1.19955">
        <ele>18</ele>
        <time>2019-08-08T13:37:00Z</time>
      </trkpt>
      <trkpt lat="44.48466" lon="-1.19958">
        <ele>18</ele>
        <time>2019-08-08T13:37:05Z</time>
      </trkpt>
      <trkpt lat="44.48467" lon="-1.19959">
        <ele>18</ele>
        <time>2019-08-08T13:37:10Z</time>
      </trkpt>
      <trkpt lat="44.48466" lon="-1.19959">
        <ele>18</ele>
        <time>2019-08-08T13:37:15Z</time>
      </trkpt>
      <trkpt lat="44.48466" lon="-1.19959">
        <ele>18</ele>
        <time>2019-08-08T13:37:20Z</time>
      </trkpt>
      <trkpt lat="44.48462" lon="-1.19955">
        <ele>18</ele>
        <time>2019-08-08T13:37:30Z</time>
      </trkpt>
      <trkpt lat="44.48461" lon="-1.19955">
        <ele>18</ele>
        <time>2019-08-08T13:37:35Z</time>
      </trkpt>
      <trkpt lat="44.48461" lon="-1.19955">
        <ele>18</ele>
        <time>2019-08-08T13:37:40Z</time>
      </trkpt>
      <trkpt lat="44.48461" lon="-1.19955">
        <ele>18</ele>
        <time>2019-08-08T13:37:45Z</time>
      </trkpt>
      <trkpt lat="44.48461" lon="-1.19955">
        <ele>18</ele>
        <time>2019-08-08T13:37:50Z</time>
      </trkpt>
      <trkpt lat="44.48462" lon="-1.19955">
        <ele>18</ele>
        <time>2019-08-08T13:37:55Z</time>
      </trkpt>
      <trkpt lat="44.48462" lon="-1.19955">
        <ele>18</ele>
        <time>2019-08-08T13:38:00Z</time>
      </trkpt>
      <trkpt lat="44.48462" lon="-1.19955">
        <ele>18</ele>
        <time>2019-08-08T13:38:05Z</time>
      </trkpt>
      <trkpt lat="44.48463" lon="-1.19955">
        <ele>18</ele>
        <time>2019-08-08T13:38:15Z</time>
      </trkpt>
      <trkpt lat="44.48466" lon="-1.19956">
        <ele>18</ele>
        <time>2019-08-08T13:38:20Z</time>
      </trkpt>
      <trkpt lat="44.48468" lon="-1.19955">
        <ele>18</ele>
        <time>2019-08-08T13:38:25Z</time>
      </trkpt>
      <trkpt lat="44.4847" lon="-1.19955">
        <ele>18</ele>
        <time>2019-08-08T13:38:30Z</time>
      </trkpt>
      <trkpt lat="44.4847" lon="-1.19955">
        <ele>18</ele>
        <time>2019-08-08T13:38:35Z</time>
      </trkpt>
      <trkpt lat="44.4847" lon="-1.19955">
        <ele>18</ele>
        <time>2019-08-08T13:38:40Z</time>
      </trkpt>
      <trkpt lat="44.4847" lon="-1.19954">
        <ele>18</ele>
        <time>2019-08-08T13:38:45Z</time>
      </trkpt>
      <trkpt lat="44.48467" lon="-1.19954">
        <ele>18</ele>
        <time>2019-08-08T13:38:50Z</time>
      </trkpt>
      <trkpt lat="44.48462" lon="-1.19959">
        <ele>18</ele>
        <time>2019-08-08T13:39:00Z</time>
      </trkpt>
      <trkpt lat="44.48459" lon="-1.19962">
        <ele>18</ele>
        <time>2019-08-08T13:39:05Z</time>
      </trkpt>
      <trkpt lat="44.48457" lon="-1.19966">
        <ele>18</ele>
        <time>2019-08-08T13:39:10Z</time>
      </trkpt>
      <trkpt lat="44.48455" lon="-1.19968">
        <ele>18</ele>
        <time>2019-08-08T13:39:15Z</time>
      </trkpt>
      <trkpt lat="44.48453" lon="-1.19971">
        <ele>18</ele>
        <time>2019-08-08T13:39:20Z</time>
      </trkpt>
      <trkpt lat="44.4845" lon="-1.19972">
        <ele>18</ele>
        <time>2019-08-08T13:39:25Z</time>
      </trkpt>
      <trkpt lat="44.4845" lon="-1.19971">
        <ele>18</ele>
        <time>2019-08-08T13:39:30Z</time>
      </trkpt>
      <trkpt lat="44.4845" lon="-1.19971">
        <ele>18</ele>
        <time>2019-08-08T13:39:35Z</time>
      </trkpt>
      <trkpt lat="44.4845" lon="-1.19971">
        <ele>18</ele>
        <time>2019-08-08T13:39:40Z</time>
      </trkpt>
      <trkpt lat="44.48449" lon="-1.19971">
        <ele>18</ele>
        <time>2019-08-08T13:39:50Z</time>
      </trkpt>
      <trkpt lat="44.48449" lon="-1.19971">
        <ele>18</ele>
        <time>2019-08-08T13:39:55Z</time>
      </trkpt>
      <trkpt lat="44.48449" lon="-1.19971">
        <ele>18</ele>
        <time>2019-08-08T13:40:00Z</time>
      </trkpt>
      <trkpt lat="44.48447" lon="-1.19971">
        <ele>18</ele>
        <time>2019-08-08T13:40:05Z</time>
      </trkpt>
      <trkpt lat="44.48446" lon="-1.19971">
        <ele>18</ele>
        <time>2019-08-08T13:40:10Z</time>
      </trkpt>
      <trkpt lat="44.48445" lon="-1.19972">
        <ele>18</ele>
        <time>2019-08-08T13:40:15Z</time>
      </trkpt>
      <trkpt lat="44.48443" lon="-1.19973">
        <ele>18</ele>
        <time>2019-08-08T13:40:20Z</time>
      </trkpt>
      <trkpt lat="44.48443" lon="-1.19972">
        <ele>18</ele>
        <time>2019-08-08T13:40:25Z</time>
      </trkpt>
      <trkpt lat="44.48443" lon="-1.19972">
        <ele>18</ele>
        <time>2019-08-08T13:40:35Z</time>
      </trkpt>
      <trkpt lat="44.48443" lon="-1.19972">
        <ele>18</ele>
        <time>2019-08-08T13:40:40Z</time>
      </trkpt>
      <trkpt lat="44.48443" lon="-1.19972">
        <ele>18</ele>
        <time>2019-08-08T13:40:45Z</time>
      </trkpt>
      <trkpt lat="44.48443" lon="-1.19972">
        <ele>18</ele>
        <time>2019-08-08T13:40:50Z</time>
      </trkpt>
      <trkpt lat="44.48441" lon="-1.19975">
        <ele>18</ele>
        <time>2019-08-08T13:40:55Z</time>
      </trkpt>
      <trkpt lat="44.4844" lon="-1.19979">
        <ele>18</ele>
        <time>2019-08-08T13:41:00Z</time>
      </trkpt>
      <trkpt lat="44.4844" lon="-1.19981">
        <ele>18</ele>
        <time>2019-08-08T13:41:05Z</time>
      </trkpt>
      <trkpt lat="44.4844" lon="-1.19982">
        <ele>18</ele>
        <time>2019-08-08T13:41:10Z</time>
      </trkpt>
      <trkpt lat="44.4844" lon="-1.19983">
        <ele>19</ele>
        <time>2019-08-08T13:41:15Z</time>
      </trkpt>
      <trkpt lat="44.48437" lon="-1.19989">
        <ele>19</ele>
        <time>2019-08-08T13:41:25Z</time>
      </trkpt>
      <trkpt lat="44.48435" lon="-1.19994">
        <ele>21</ele>
        <time>2019-08-08T13:41:30Z</time>
      </trkpt>
      <trkpt lat="44.48433" lon="-1.19998">
        <ele>21</ele>
        <time>2019-08-08T13:41:35Z</time>
      </trkpt>
      <trkpt lat="44.48434" lon="-1.2">
        <ele>23</ele>
        <time>2019-08-08T13:41:40Z</time>
      </trkpt>
      <trkpt lat="44.48434" lon="-1.20003">
        <ele>23</ele>
        <time>2019-08-08T13:41:45Z</time>
      </trkpt>
      <trkpt lat="44.48434" lon="-1.20005">
        <ele>23</ele>
        <time>2019-08-08T13:41:50Z</time>
      </trkpt>
      <trkpt lat="44.48434" lon="-1.20006">
        <ele>23</ele>
        <time>2019-08-08T13:41:55Z</time>
      </trkpt>
      <trkpt lat="44.48435" lon="-1.20006">
        <ele>23</ele>
        <time>2019-08-08T13:42:00Z</time>
      </trkpt>
      <trkpt lat="44.48436" lon="-1.20008">
        <ele>23</ele>
        <time>2019-08-08T13:42:10Z</time>
      </trkpt>
      <trkpt lat="44.48436" lon="-1.20009">
        <ele>26</ele>
        <time>2019-08-08T13:42:15Z</time>
      </trkpt>
      <trkpt lat="44.48436" lon="-1.20009">
        <ele>26</ele>
        <time>2019-08-08T13:42:20Z</time>
      </trkpt>
      <trkpt lat="44.48436" lon="-1.20008">
        <ele>23</ele>
        <time>2019-08-08T13:42:25Z</time>
      </trkpt>
      <trkpt lat="44.48436" lon="-1.20008">
        <ele>23</ele>
        <time>2019-08-08T13:42:30Z</time>
      </trkpt>
      <trkpt lat="44.48436" lon="-1.20008">
        <ele>23</ele>
        <time>2019-08-08T13:42:35Z</time>
      </trkpt>
      <trkpt lat="44.48435" lon="-1.20005">
        <ele>23</ele>
        <time>2019-08-08T13:42:40Z</time>
      </trkpt>
      <trkpt lat="44.48435" lon="-1.20004">
        <ele>23</ele>
        <time>2019-08-08T13:42:45Z</time>
      </trkpt>
      <trkpt lat="44.48435" lon="-1.20003">
        <ele>23</ele>
        <time>2019-08-08T13:42:50Z</time>
      </trkpt>
      <trkpt lat="44.48435" lon="-1.20003">
        <ele>23</ele>
        <time>2019-08-08T13:43:00Z</time>
      </trkpt>
      <trkpt lat="44.48435" lon="-1.20002">
        <ele>23</ele>
        <time>2019-08-08T13:43:05Z</time>
      </trkpt>
      <trkpt lat="44.48435" lon="-1.20002">
        <ele>23</ele>
        <time>2019-08-08T13:43:10Z</time>
      </trkpt>
      <trkpt lat="44.48435" lon="-1.20002">
        <ele>23</ele>
        <time>2019-08-08T13:43:15Z</time>
      </trkpt>
      <trkpt lat="44.48435" lon="-1.20002">
        <ele>23</ele>
        <time>2019-08-08T13:43:20Z</time>
      </trkpt>
      <trkpt lat="44.48435" lon="-1.20002">
        <ele>23</ele>
        <time>2019-08-08T13:43:25Z</time>
      </trkpt>
      <trkpt lat="44.48435" lon="-1.20002">
        <ele>23</ele>
        <time>2019-08-08T13:43:30Z</time>
      </trkpt>
      <trkpt lat="44.48437" lon="-1.19999">
        <ele>21</ele>
        <time>2019-08-08T13:43:35Z</time>
      </trkpt>
      <trkpt lat="44.48439" lon="-1.19993">
        <ele>20</ele>
        <time>2019-08-08T13:43:45Z</time>
      </trkpt>
      <trkpt lat="44.48437" lon="-1.19997">
        <ele>21</ele>
        <time>2019-08-08T13:43:50Z</time>
      </trkpt>
      <trkpt lat="44.48433" lon="-1.19999">
        <ele>21</ele>
        <time>2019-08-08T13:43:55Z</time>
      </trkpt>
      <trkpt lat="44.4843" lon="-1.20001">
        <ele>24</ele>
        <time>2019-08-08T13:44:00Z</time>
      </trkpt>
      <trkpt lat="44.48429" lon="-1.20005">
        <ele>24</ele>
        <time>2019-08-08T13:44:05Z</time>
      </trkpt>
      <trkpt lat="44.48429" lon="-1.20007">
        <ele>24</ele>
        <time>2019-08-08T13:44:10Z</time>
      </trkpt>
      <trkpt lat="44.48429" lon="-1.20008">
        <ele>24</ele>
        <time>2019-08-08T13:44:15Z</time>
      </trkpt>
      <trkpt lat="44.48429" lon="-1.20009">
        <ele>26</ele>
        <time>2019-08-08T13:44:20Z</time>
      </trkpt>
      <trkpt lat="44.48428" lon="-1.20009">
        <ele>26</ele>
        <time>2019-08-08T13:44:25Z</time>
      </trkpt>
      <trkpt lat="44.48428" lon="-1.2001">
        <ele>26</ele>
        <time>2019-08-08T13:44:35Z</time>
      </trkpt>
      <trkpt lat="44.48428" lon="-1.2001">
        <ele>26</ele>
        <time>2019-08-08T13:44:40Z</time>
      </trkpt>
      <trkpt lat="44.48428" lon="-1.2001">
        <ele>26</ele>
        <time>2019-08-08T13:44:45Z</time>
      </trkpt>
      <trkpt lat="44.48428" lon="-1.20011">
        <ele>26</ele>
        <time>2019-08-08T13:44:50Z</time>
      </trkpt>
      <trkpt lat="44.48428" lon="-1.20011">
        <ele>26</ele>
        <time>2019-08-08T13:44:55Z</time>
      </trkpt>
      <trkpt lat="44.48428" lon="-1.20012">
        <ele>26</ele>
        <time>2019-08-08T13:45:00Z</time>
      </trkpt>
      <trkpt lat="44.48428" lon="-1.20012">
        <ele>26</ele>
        <time>2019-08-08T13:45:05Z</time>
      </trkpt>
      <trkpt lat="44.48427" lon="-1.20011">
        <ele>26</ele>
        <time>2019-08-08T13:45:10Z</time>
      </trkpt>
      <trkpt lat="44.48427" lon="-1.2001">
        <ele>26</ele>
        <time>2019-08-08T13:45:20Z</time>
      </trkpt>
      <trkpt lat="44.48426" lon="-1.2001">
        <ele>26</ele>
        <time>2019-08-08T13:45:25Z</time>
      </trkpt>
      <trkpt lat="44.48426" lon="-1.20009">
        <ele>26</ele>
        <time>2019-08-08T13:45:30Z</time>
      </trkpt>
      <trkpt lat="44.48426" lon="-1.20009">
        <ele>26</ele>
        <time>2019-08-08T13:45:35Z</time>
      </trkpt>
      <trkpt lat="44.48426" lon="-1.20009">
        <ele>26</ele>
        <time>2019-08-08T13:45:40Z</time>
      </trkpt>
      <trkpt lat="44.48426" lon="-1.20009">
        <ele>26</ele>
        <time>2019-08-08T13:45:45Z</time>
      </trkpt>
      <trkpt lat="44.48427" lon="-1.2001">
        <ele>26</ele>
        <time>2019-08-08T13:45:50Z</time>
      </trkpt>
      <trkpt lat="44.48427" lon="-1.2001">
        <ele>26</ele>
        <time>2019-08-08T13:45:55Z</time>
      </trkpt>
      <trkpt lat="44.48427" lon="-1.2001">
        <ele>26</ele>
        <time>2019-08-08T13:46:00Z</time>
      </trkpt>
      <trkpt lat="44.48426" lon="-1.20012">
        <ele>26</ele>
        <time>2019-08-08T13:46:10Z</time>
      </trkpt>
      <trkpt lat="44.48425" lon="-1.20015">
        <ele>27</ele>
        <time>2019-08-08T13:46:15Z</time>
      </trkpt>
      <trkpt lat="44.48424" lon="-1.20016">
        <ele>27</ele>
        <time>2019-08-08T13:46:20Z</time>
      </trkpt>
      <trkpt lat="44.48424" lon="-1.20017">
        <ele>27</ele>
        <time>2019-08-08T13:46:25Z</time>
      </trkpt>
      <trkpt lat="44.48425" lon="-1.20017">
        <ele>27</ele>
        <time>2019-08-08T13:46:30Z</time>
      </trkpt>
      <trkpt lat="44.48425" lon="-1.20017">
        <ele>27</ele>
        <time>2019-08-08T13:46:35Z</time>
      </trkpt>
      <trkpt lat="44.48427" lon="-1.20018">
        <ele>27</ele>
        <time>2019-08-08T13:46:40Z</time>
      </trkpt>
      <trkpt lat="44.48427" lon="-1.2002">
        <ele>27</ele>
        <time>2019-08-08T13:46:45Z</time>
      </trkpt>
      <trkpt lat="44.48427" lon="-1.20021">
        <ele>27</ele>
        <time>2019-08-08T13:46:55Z</time>
      </trkpt>
      <trkpt lat="44.48428" lon="-1.20019">
        <ele>27</ele>
        <time>2019-08-08T13:47:00Z</time>
      </trkpt>
      <trkpt lat="44.4843" lon="-1.20018">
        <ele>27</ele>
        <time>2019-08-08T13:47:05Z</time>
      </trkpt>
      <trkpt lat="44.4843" lon="-1.20018">
        <ele>27</ele>
        <time>2019-08-08T13:47:10Z</time>
      </trkpt>
      <trkpt lat="44.4843" lon="-1.20016">
        <ele>26</ele>
        <time>2019-08-08T13:47:15Z</time>
      </trkpt>
      <trkpt lat="44.48425" lon="-1.20011">
        <ele>27</ele>
        <time>2019-08-08T13:47:20Z</time>
      </trkpt>
      <trkpt lat="44.48424" lon="-1.20009">
        <ele>27</ele>
        <time>2019-08-08T13:47:25Z</time>
      </trkpt>
      <trkpt lat="44.48424" lon="-1.20009">
        <ele>27</ele>
        <time>2019-08-08T13:47:30Z</time>
      </trkpt>
      <trkpt lat="44.48424" lon="-1.20009">
        <ele>27</ele>
        <time>2019-08-08T13:47:35Z</time>
      </trkpt>
      <trkpt lat="44.48424" lon="-1.20006">
        <ele>25</ele>
        <time>2019-08-08T13:47:45Z</time>
      </trkpt>
      <trkpt lat="44.48424" lon="-1.20003">
        <ele>25</ele>
        <time>2019-08-08T13:47:50Z</time>
      </trkpt>
      <trkpt lat="44.48425" lon="-1.19999">
        <ele>22</ele>
        <time>2019-08-08T13:47:55Z</time>
      </trkpt>
      <trkpt lat="44.48425" lon="-1.19994">
        <ele>22</ele>
        <time>2019-08-08T13:48:00Z</time>
      </trkpt>
      <trkpt lat="44.48425" lon="-1.19989">
        <ele>19</ele>
        <time>2019-08-08T13:48:05Z</time>
      </trkpt>
      <trkpt lat="44.48424" lon="-1.19984">
        <ele>19</ele>
        <time>2019-08-08T13:48:10Z</time>
      </trkpt>
      <trkpt lat="44.48424" lon="-1.19983">
        <ele>18</ele>
        <time>2019-08-08T13:48:15Z</time>
      </trkpt>
      <trkpt lat="44.48424" lon="-1.19983">
        <ele>19</ele>
        <time>2019-08-08T13:48:20Z</time>
      </trkpt>
      <trkpt lat="44.48424" lon="-1.19983">
        <ele>19</ele>
        <time>2019-08-08T13:48:30Z</time>
      </trkpt>
      <trkpt lat="44.48424" lon="-1.19983">
        <ele>19</ele>
        <time>2019-08-08T13:48:35Z</time>
      </trkpt>
      <trkpt lat="44.48424" lon="-1.19983">
        <ele>19</ele>
        <time>2019-08-08T13:48:40Z</time>
      </trkpt>
      <trkpt lat="44.48423" lon="-1.19982">
        <ele>18</ele>
        <time>2019-08-08T13:48:45Z</time>
      </trkpt>
      <trkpt lat="44.48422" lon="-1.1998">
        <ele>18</ele>
        <time>2019-08-08T13:48:50Z</time>
      </trkpt>
      <trkpt lat="44.48422" lon="-1.19979">
        <ele>18</ele>
        <time>2019-08-08T13:48:55Z</time>
      </trkpt>
      <trkpt lat="44.48421" lon="-1.19979">
        <ele>18</ele>
        <time>2019-08-08T13:49:00Z</time>
      </trkpt>
      <trkpt lat="44.48421" lon="-1.19979">
        <ele>18</ele>
        <time>2019-08-08T13:49:05Z</time>
      </trkpt>
      <trkpt lat="44.48421" lon="-1.19979">
        <ele>18</ele>
        <time>2019-08-08T13:49:10Z</time>
      </trkpt>
      <trkpt lat="44.4842" lon="-1.19979">
        <ele>18</ele>
        <time>2019-08-08T13:49:20Z</time>
      </trkpt>
      <trkpt lat="44.48419" lon="-1.19978">
        <ele>18</ele>
        <time>2019-08-08T13:49:25Z</time>
      </trkpt>
      <trkpt lat="44.48418" lon="-1.19978">
        <ele>18</ele>
        <time>2019-08-08T13:49:30Z</time>
      </trkpt>
      <trkpt lat="44.48418" lon="-1.19978">
        <ele>18</ele>
        <time>2019-08-08T13:49:35Z</time>
      </trkpt>
      <trkpt lat="44.48417" lon="-1.19977">
        <ele>18</ele>
        <time>2019-08-08T13:49:40Z</time>
      </trkpt>
      <trkpt lat="44.48416" lon="-1.19977">
        <ele>18</ele>
        <time>2019-08-08T13:49:45Z</time>
      </trkpt>
      <trkpt lat="44.48416" lon="-1.19977">
        <ele>18</ele>
        <time>2019-08-08T13:49:50Z</time>
      </trkpt>
      <trkpt lat="44.48416" lon="-1.19978">
        <ele>18</ele>
        <time>2019-08-08T13:49:55Z</time>
      </trkpt>
      <trkpt lat="44.48417" lon="-1.19982">
        <ele>18</ele>
        <time>2019-08-08T13:50:05Z</time>
      </trkpt>
      <trkpt lat="44.48419" lon="-1.19986">
        <ele>20</ele>
        <time>2019-08-08T13:50:10Z</time>
      </trkpt>
      <trkpt lat="44.48423" lon="-1.19992">
        <ele>22</ele>
        <time>2019-08-08T13:50:15Z</time>
      </trkpt>
      <trkpt lat="44.48427" lon="-1.19996">
        <ele>21</ele>
        <time>2019-08-08T13:50:20Z</time>
      </trkpt>
      <trkpt lat="44.48431" lon="-1.19997">
        <ele>21</ele>
        <time>2019-08-08T13:50:25Z</time>
      </trkpt>
      <trkpt lat="44.48434" lon="-1.19995">
        <ele>21</ele>
        <time>2019-08-08T13:50:30Z</time>
      </trkpt>
      <trkpt lat="44.48436" lon="-1.19992">
        <ele>21</ele>
        <time>2019-08-08T13:50:35Z</time>
      </trkpt>
      <trkpt lat="44.48436" lon="-1.19992">
        <ele>21</ele>
        <time>2019-08-08T13:50:40Z</time>
      </trkpt>
      <trkpt lat="44.48436" lon="-1.19992">
        <ele>21</ele>
        <time>2019-08-08T13:50:45Z</time>
      </trkpt>
      <trkpt lat="44.48434" lon="-1.19999">
        <ele>21</ele>
        <time>2019-08-08T13:50:55Z</time>
      </trkpt>
      <trkpt lat="44.48431" lon="-1.2">
        <ele>21</ele>
        <time>2019-08-08T13:51:00Z</time>
      </trkpt>
      <trkpt lat="44.48431" lon="-1.2">
        <ele>21</ele>
        <time>2019-08-08T13:51:05Z</time>
      </trkpt>
      <trkpt lat="44.48431" lon="-1.2">
        <ele>21</ele>
        <time>2019-08-08T13:51:10Z</time>
      </trkpt>
      <trkpt lat="44.48431" lon="-1.2">
        <ele>21</ele>
        <time>2019-08-08T13:51:15Z</time>
      </trkpt>
      <trkpt lat="44.48431" lon="-1.2">
        <ele>21</ele>
        <time>2019-08-08T13:51:20Z</time>
      </trkpt>
      <trkpt lat="44.48431" lon="-1.2">
        <ele>21</ele>
        <time>2019-08-08T13:51:25Z</time>
      </trkpt>
      <trkpt lat="44.48431" lon="-1.2">
        <ele>21</ele>
        <time>2019-08-08T13:51:30Z</time>
      </trkpt>
      <trkpt lat="44.48431" lon="-1.2">
        <ele>24</ele>
        <time>2019-08-08T13:51:40Z</time>
      </trkpt>
      <trkpt lat="44.4843" lon="-1.2">
        <ele>24</ele>
        <time>2019-08-08T13:51:45Z</time>
      </trkpt>
      <trkpt lat="44.48431" lon="-1.20001">
        <ele>24</ele>
        <time>2019-08-08T13:51:50Z</time>
      </trkpt>
      <trkpt lat="44.48432" lon="-1.19999">
        <ele>21</ele>
        <time>2019-08-08T13:51:55Z</time>
      </trkpt>
      <trkpt lat="44.48436" lon="-1.19993">
        <ele>21</ele>
        <time>2019-08-08T13:52:00Z</time>
      </trkpt>
      <trkpt lat="44.48438" lon="-1.1999">
        <ele>19</ele>
        <time>2019-08-08T13:52:05Z</time>
      </trkpt>
      <trkpt lat="44.48441" lon="-1.19985">
        <ele>19</ele>
        <time>2019-08-08T13:52:10Z</time>
      </trkpt>
      <trkpt lat="44.48443" lon="-1.19981">
        <ele>18</ele>
        <time>2019-08-08T13:52:15Z</time>
      </trkpt>
      <trkpt lat="44.48445" lon="-1.19981">
        <ele>18</ele>
        <time>2019-08-08T13:52:20Z</time>
      </trkpt>
      <trkpt lat="44.48448" lon="-1.19982">
        <ele>18</ele>
        <time>2019-08-08T13:52:30Z</time>
      </trkpt>
      <trkpt lat="44.48449" lon="-1.19983">
        <ele>19</ele>
        <time>2019-08-08T13:52:35Z</time>
      </trkpt>
      <trkpt lat="44.48449" lon="-1.19983">
        <ele>19</ele>
        <time>2019-08-08T13:52:40Z</time>
      </trkpt>
      <trkpt lat="44.48449" lon="-1.19983">
        <ele>19</ele>
        <time>2019-08-08T13:52:45Z</time>
      </trkpt>
      <trkpt lat="44.48449" lon="-1.19983">
        <ele>19</ele>
        <time>2019-08-08T13:52:50Z</time>
      </trkpt>
      <trkpt lat="44.48449" lon="-1.19983">
        <ele>19</ele>
        <time>2019-08-08T13:52:55Z</time>
      </trkpt>
      <trkpt lat="44.48449" lon="-1.19983">
        <ele>19</ele>
        <time>2019-08-08T13:53:00Z</time>
      </trkpt>
      <trkpt lat="44.48449" lon="-1.19983">
        <ele>19</ele>
        <time>2019-08-08T13:53:05Z</time>
      </trkpt>
      <trkpt lat="44.48449" lon="-1.19983">
        <ele>19</ele>
        <time>2019-08-08T13:53:15Z</time>
      </trkpt>
      <trkpt lat="44.48449" lon="-1.19983">
        <ele>19</ele>
        <time>2019-08-08T13:53:20Z</time>
      </trkpt>
      <trkpt lat="44.48449" lon="-1.19983">
        <ele>19</ele>
        <time>2019-08-08T13:53:25Z</time>
      </trkpt>
      <trkpt lat="44.48449" lon="-1.19983">
        <ele>19</ele>
        <time>2019-08-08T13:53:30Z</time>
      </trkpt>
      <trkpt lat="44.48449" lon="-1.19983">
        <ele>19</ele>
        <time>2019-08-08T13:53:35Z</time>
      </trkpt>
      <trkpt lat="44.48449" lon="-1.19983">
        <ele>19</ele>
        <time>2019-08-08T13:53:40Z</time>
      </trkpt>
      <trkpt lat="44.48449" lon="-1.19983">
        <ele>19</ele>
        <time>2019-08-08T13:53:45Z</time>
      </trkpt>
      <trkpt lat="44.48448" lon="-1.19983">
        <ele>19</ele>
        <time>2019-08-08T13:53:50Z</time>
      </trkpt>
      <trkpt lat="44.48448" lon="-1.19983">
        <ele>18</ele>
        <time>2019-08-08T13:54:00Z</time>
      </trkpt>
      <trkpt lat="44.48448" lon="-1.19983">
        <ele>18</ele>
        <time>2019-08-08T13:54:05Z</time>
      </trkpt>
      <trkpt lat="44.48448" lon="-1.19983">
        <ele>18</ele>
        <time>2019-08-08T13:54:10Z</time>
      </trkpt>
      <trkpt lat="44.48448" lon="-1.19983">
        <ele>18</ele>
        <time>2019-08-08T13:54:15Z</time>
      </trkpt>
      <trkpt lat="44.48448" lon="-1.19983">
        <ele>19</ele>
        <time>2019-08-08T13:54:20Z</time>
      </trkpt>
      <trkpt lat="44.48448" lon="-1.19983">
        <ele>19</ele>
        <time>2019-08-08T13:54:25Z</time>
      </trkpt>
      <trkpt lat="44.48448" lon="-1.19983">
        <ele>19</ele>
        <time>2019-08-08T13:54:30Z</time>
      </trkpt>
      <trkpt lat="44.48448" lon="-1.19983">
        <ele>19</ele>
        <time>2019-08-08T13:54:35Z</time>
      </trkpt>
      <trkpt lat="44.48445" lon="-1.19981">
        <ele>18</ele>
        <time>2019-08-08T13:54:40Z</time>
      </trkpt>
      <trkpt lat="44.48444" lon="-1.1998">
        <ele>18</ele>
        <time>2019-08-08T13:54:50Z</time>
      </trkpt>
      <trkpt lat="44.48444" lon="-1.1998">
        <ele>18</ele>
        <time>2019-08-08T13:54:55Z</time>
      </trkpt>
      <trkpt lat="44.48445" lon="-1.1998">
        <ele>18</ele>
        <time>2019-08-08T13:55:00Z</time>
      </trkpt>
      <trkpt lat="44.48445" lon="-1.1998">
        <ele>18</ele>
        <time>2019-08-08T13:55:05Z</time>
      </trkpt>
      <trkpt lat="44.48445" lon="-1.1998">
        <ele>18</ele>
        <time>2019-08-08T13:55:10Z</time>
      </trkpt>
      <trkpt lat="44.48445" lon="-1.1998">
        <ele>18</ele>
        <time>2019-08-08T13:55:15Z</time>
      </trkpt>
      <trkpt lat="44.48446" lon="-1.1998">
        <ele>18</ele>
        <time>2019-08-08T13:55:20Z</time>
      </trkpt>
      <trkpt lat="44.48446" lon="-1.1998">
        <ele>18</ele>
        <time>2019-08-08T13:55:25Z</time>
      </trkpt>
      <trkpt lat="44.48446" lon="-1.1998">
        <ele>18</ele>
        <time>2019-08-08T13:55:35Z</time>
      </trkpt>
      <trkpt lat="44.48446" lon="-1.1998">
        <ele>18</ele>
        <time>2019-08-08T13:55:40Z</time>
      </trkpt>
      <trkpt lat="44.48446" lon="-1.1998">
        <ele>18</ele>
        <time>2019-08-08T13:55:45Z</time>
      </trkpt>
      <trkpt lat="44.48446" lon="-1.1998">
        <ele>18</ele>
        <time>2019-08-08T13:55:50Z</time>
      </trkpt>
      <trkpt lat="44.48446" lon="-1.1998">
        <ele>18</ele>
        <time>2019-08-08T13:55:55Z</time>
      </trkpt>
      <trkpt lat="44.48446" lon="-1.19979">
        <ele>18</ele>
        <time>2019-08-08T13:56:00Z</time>
      </trkpt>
      <trkpt lat="44.48448" lon="-1.19979">
        <ele>18</ele>
        <time>2019-08-08T13:56:05Z</time>
      </trkpt>
      <trkpt lat="44.48448" lon="-1.19979">
        <ele>18</ele>
        <time>2019-08-08T13:56:10Z</time>
      </trkpt>
      <trkpt lat="44.48448" lon="-1.19979">
        <ele>18</ele>
        <time>2019-08-08T13:56:15Z</time>
      </trkpt>
      <trkpt lat="44.48448" lon="-1.19978">
        <ele>18</ele>
        <time>2019-08-08T13:56:25Z</time>
      </trkpt>
      <trkpt lat="44.48448" lon="-1.19978">
        <ele>18</ele>
        <time>2019-08-08T13:56:30Z</time>
      </trkpt>
      <trkpt lat="44.48448" lon="-1.19978">
        <ele>18</ele>
        <time>2019-08-08T13:56:35Z</time>
      </trkpt>
      <trkpt lat="44.48448" lon="-1.19978">
        <ele>18</ele>
        <time>2019-08-08T13:56:40Z</time>
      </trkpt>
      <trkpt lat="44.48448" lon="-1.19978">
        <ele>18</ele>
        <time>2019-08-08T13:56:45Z</time>
      </trkpt>
      <trkpt lat="44.48447" lon="-1.19978">
        <ele>18</ele>
        <time>2019-08-08T13:56:50Z</time>
      </trkpt>
      <trkpt lat="44.48447" lon="-1.19979">
        <ele>18</ele>
        <time>2019-08-08T13:56:55Z</time>
      </trkpt>
      <trkpt lat="44.48447" lon="-1.19979">
        <ele>18</ele>
        <time>2019-08-08T13:57:00Z</time>
      </trkpt>
      <trkpt lat="44.48447" lon="-1.19979">
        <ele>18</ele>
        <time>2019-08-08T13:57:10Z</time>
      </trkpt>
      <trkpt lat="44.48447" lon="-1.19979">
        <ele>18</ele>
        <time>2019-08-08T13:57:15Z</time>
      </trkpt>
      <trkpt lat="44.48447" lon="-1.19979">
        <ele>18</ele>
        <time>2019-08-08T13:57:20Z</time>
      </trkpt>
      <trkpt lat="44.48447" lon="-1.1998">
        <ele>18</ele>
        <time>2019-08-08T13:57:25Z</time>
      </trkpt>
      <trkpt lat="44.48447" lon="-1.1998">
        <ele>18</ele>
        <time>2019-08-08T13:57:30Z</time>
      </trkpt>
      <trkpt lat="44.48447" lon="-1.1998">
        <ele>18</ele>
        <time>2019-08-08T13:57:35Z</time>
      </trkpt>
      <trkpt lat="44.48447" lon="-1.1998">
        <ele>18</ele>
        <time>2019-08-08T13:57:40Z</time>
      </trkpt>
      <trkpt lat="44.48447" lon="-1.1998">
        <ele>18</ele>
        <time>2019-08-08T13:57:45Z</time>
      </trkpt>
      <trkpt lat="44.48447" lon="-1.1998">
        <ele>18</ele>
        <time>2019-08-08T13:57:50Z</time>
      </trkpt>
      <trkpt lat="44.48447" lon="-1.1998">
        <ele>18</ele>
        <time>2019-08-08T13:58:00Z</time>
      </trkpt>
      <trkpt lat="44.48447" lon="-1.1998">
        <ele>18</ele>
        <time>2019-08-08T13:58:05Z</time>
      </trkpt>
      <trkpt lat="44.48447" lon="-1.1998">
        <ele>18</ele>
        <time>2019-08-08T13:58:10Z</time>
      </trkpt>
      <trkpt lat="44.48447" lon="-1.1998">
        <ele>18</ele>
        <time>2019-08-08T13:58:15Z</time>
      </trkpt>
      <trkpt lat="44.48447" lon="-1.1998">
        <ele>18</ele>
        <time>2019-08-08T13:58:20Z</time>
      </trkpt>
      <trkpt lat="44.48447" lon="-1.1998">
        <ele>18</ele>
        <time>2019-08-08T13:58:25Z</time>
      </trkpt>
      <trkpt lat="44.48447" lon="-1.1998">
        <ele>18</ele>
        <time>2019-08-08T13:58:30Z</time>
      </trkpt>
      <trkpt lat="44.48447" lon="-1.1998">
        <ele>18</ele>
        <time>2019-08-08T13:58:35Z</time>
      </trkpt>
      <trkpt lat="44.48447" lon="-1.1998">
        <ele>18</ele>
        <time>2019-08-08T13:58:45Z</time>
      </trkpt>
      <trkpt lat="44.48447" lon="-1.1998">
        <ele>18</ele>
        <time>2019-08-08T13:58:50Z</time>
      </trkpt>
      <trkpt lat="44.48447" lon="-1.1998">
        <ele>18</ele>
        <time>2019-08-08T13:58:55Z</time>
      </trkpt>
      <trkpt lat="44.48447" lon="-1.1998">
        <ele>18</ele>
        <time>2019-08-08T13:59:00Z</time>
      </trkpt>
      <trkpt lat="44.48447" lon="-1.1998">
        <ele>18</ele>
        <time>2019-08-08T13:59:05Z</time>
      </trkpt>
      <trkpt lat="44.48448" lon="-1.1998">
        <ele>18</ele>
        <time>2019-08-08T13:59:10Z</time>
      </trkpt>
      <trkpt lat="44.48448" lon="-1.1998">
        <ele>18</ele>
        <time>2019-08-08T13:59:15Z</time>
      </trkpt>
      <trkpt lat="44.48448" lon="-1.1998">
        <ele>18</ele>
        <time>2019-08-08T13:59:20Z</time>
      </trkpt>
      <trkpt lat="44.48448" lon="-1.1998">
        <ele>18</ele>
        <time>2019-08-08T13:59:25Z</time>
      </trkpt>
      <trkpt lat="44.48448" lon="-1.1998">
        <ele>18</ele>
        <time>2019-08-08T13:59:35Z</time>
      </trkpt>
      <trkpt lat="44.48448" lon="-1.1998">
        <ele>18</ele>
        <time>2019-08-08T13:59:40Z</time>
      </trkpt>
      <trkpt lat="44.48448" lon="-1.1998">
        <ele>18</ele>
        <time>2019-08-08T13:59:45Z</time>
      </trkpt>
      <trkpt lat="44.48447" lon="-1.1998">
        <ele>18</ele>
        <time>2019-08-08T13:59:50Z</time>
      </trkpt>
      <trkpt lat="44.48447" lon="-1.1998">
        <ele>18</ele>
        <time>2019-08-08T13:59:55Z</time>
      </trkpt>
      <trkpt lat="44.48447" lon="-1.1998">
        <ele>18</ele>
        <time>2019-08-08T14:00:00Z</time>
      </trkpt>
      <trkpt lat="44.48447" lon="-1.1998">
        <ele>18</ele>
        <time>2019-08-08T14:00:05Z</time>
      </trkpt>
      <trkpt lat="44.48447" lon="-1.1998">
        <ele>18</ele>
        <time>2019-08-08T14:00:10Z</time>
      </trkpt>
      <trkpt lat="44.48447" lon="-1.1998">
        <ele>18</ele>
        <time>2019-08-08T14:00:20Z</time>
      </trkpt>
      <trkpt lat="44.48447" lon="-1.1998">
        <ele>18</ele>
        <time>2019-08-08T14:00:25Z</time>
      </trkpt>
      <trkpt lat="44.48447" lon="-1.1998">
        <ele>18</ele>
        <time>2019-08-08T14:00:30Z</time>
      </trkpt>
      <trkpt lat="44.48447" lon="-1.1998">
        <ele>18</ele>
        <time>2019-08-08T14:00:35Z</time>
      </trkpt>
      <trkpt lat="44.48447" lon="-1.1998">
        <ele>18</ele>
        <time>2019-08-08T14:00:40Z</time>
      </trkpt>
      <trkpt lat="44.48447" lon="-1.1998">
        <ele>18</ele>
        <time>2019-08-08T14:00:45Z</time>
      </trkpt>
      <trkpt lat="44.48448" lon="-1.19981">
        <ele>18</ele>
        <time>2019-08-08T14:00:50Z</time>
      </trkpt>
      <trkpt lat="44.48448" lon="-1.19982">
        <ele>18</ele>
        <time>2019-08-08T14:00:55Z</time>
      </trkpt>
      <trkpt lat="44.48448" lon="-1.19982">
        <ele>18</ele>
        <time>2019-08-08T14:01:00Z</time>
      </trkpt>
      <trkpt lat="44.48448" lon="-1.19982">
        <ele>18</ele>
        <time>2019-08-08T14:01:10Z</time>
      </trkpt>
      <trkpt lat="44.48448" lon="-1.19982">
        <ele>18</ele>
        <time>2019-08-08T14:01:15Z</time>
      </trkpt>
      <trkpt lat="44.48449" lon="-1.19982">
        <ele>18</ele>
        <time>2019-08-08T14:01:20Z</time>
      </trkpt>
      <trkpt lat="44.4845" lon="-1.19979">
        <ele>18</ele>
        <time>2019-08-08T14:01:25Z</time>
      </trkpt>
      <trkpt lat="44.4845" lon="-1.19978">
        <ele>18</ele>
        <time>2019-08-08T14:01:30Z</time>
      </trkpt>
      <trkpt lat="44.4845" lon="-1.19978">
        <ele>18</ele>
        <time>2019-08-08T14:01:35Z</time>
      </trkpt>
      <trkpt lat="44.4845" lon="-1.19978">
        <ele>18</ele>
        <time>2019-08-08T14:01:40Z</time>
      </trkpt>
      <trkpt lat="44.4845" lon="-1.19978">
        <ele>18</ele>
        <time>2019-08-08T14:01:45Z</time>
      </trkpt>
      <trkpt lat="44.48451" lon="-1.19978">
        <ele>18</ele>
        <time>2019-08-08T14:01:55Z</time>
      </trkpt>
      <trkpt lat="44.48451" lon="-1.19978">
        <ele>18</ele>
        <time>2019-08-08T14:02:00Z</time>
      </trkpt>
      <trkpt lat="44.48451" lon="-1.19978">
        <ele>18</ele>
        <time>2019-08-08T14:02:05Z</time>
      </trkpt>
      <trkpt lat="44.48451" lon="-1.19978">
        <ele>18</ele>
        <time>2019-08-08T14:02:10Z</time>
      </trkpt>
      <trkpt lat="44.48451" lon="-1.19978">
        <ele>18</ele>
        <time>2019-08-08T14:02:15Z</time>
      </trkpt>
      <trkpt lat="44.48451" lon="-1.19978">
        <ele>18</ele>
        <time>2019-08-08T14:02:20Z</time>
      </trkpt>
      <trkpt lat="44.48451" lon="-1.19978">
        <ele>18</ele>
        <time>2019-08-08T14:02:25Z</time>
      </trkpt>
      <trkpt lat="44.48451" lon="-1.19979">
        <ele>18</ele>
        <time>2019-08-08T14:02:30Z</time>
      </trkpt>
      <trkpt lat="44.48451" lon="-1.19979">
        <ele>18</ele>
        <time>2019-08-08T14:02:35Z</time>
      </trkpt>
      <trkpt lat="44.48451" lon="-1.19979">
        <ele>18</ele>
        <time>2019-08-08T14:02:45Z</time>
      </trkpt>
      <trkpt lat="44.4845" lon="-1.19979">
        <ele>18</ele>
        <time>2019-08-08T14:02:50Z</time>
      </trkpt>
      <trkpt lat="44.4845" lon="-1.19979">
        <ele>18</ele>
        <time>2019-08-08T14:02:55Z</time>
      </trkpt>
      <trkpt lat="44.4845" lon="-1.19979">
        <ele>18</ele>
        <time>2019-08-08T14:03:00Z</time>
      </trkpt>
      <trkpt lat="44.4845" lon="-1.19979">
        <ele>18</ele>
        <time>2019-08-08T14:03:05Z</time>
      </trkpt>
      <trkpt lat="44.4845" lon="-1.19979">
        <ele>18</ele>
        <time>2019-08-08T14:03:10Z</time>
      </trkpt>
      <trkpt lat="44.4845" lon="-1.19979">
        <ele>18</ele>
        <time>2019-08-08T14:03:15Z</time>
      </trkpt>
      <trkpt lat="44.4845" lon="-1.19979">
        <ele>18</ele>
        <time>2019-08-08T14:03:20Z</time>
      </trkpt>
      <trkpt lat="44.4845" lon="-1.19979">
        <ele>18</ele>
        <time>2019-08-08T14:03:30Z</time>
      </trkpt>
      <trkpt lat="44.4845" lon="-1.19979">
        <ele>18</ele>
        <time>2019-08-08T14:03:35Z</time>
      </trkpt>
      <trkpt lat="44.48449" lon="-1.19979">
        <ele>18</ele>
        <time>2019-08-08T14:03:40Z</time>
      </trkpt>
      <trkpt lat="44.48449" lon="-1.19979">
        <ele>18</ele>
        <time>2019-08-08T14:03:45Z</time>
      </trkpt>
      <trkpt lat="44.48449" lon="-1.19979">
        <ele>18</ele>
        <time>2019-08-08T14:03:50Z</time>
      </trkpt>
      <trkpt lat="44.48448" lon="-1.1998">
        <ele>18</ele>
        <time>2019-08-08T14:03:55Z</time>
      </trkpt>
      <trkpt lat="44.48448" lon="-1.1998">
        <ele>18</ele>
        <time>2019-08-08T14:04:00Z</time>
      </trkpt>
      <trkpt lat="44.48451" lon="-1.19981">
        <ele>18</ele>
        <time>2019-08-08T14:04:05Z</time>
      </trkpt>
      <trkpt lat="44.48453" lon="-1.19982">
        <ele>18</ele>
        <time>2019-08-08T14:04:10Z</time>
      </trkpt>
      <trkpt lat="44.48451" lon="-1.19981">
        <ele>18</ele>
        <time>2019-08-08T14:04:20Z</time>
      </trkpt>
      <trkpt lat="44.48451" lon="-1.19981">
        <ele>18</ele>
        <time>2019-08-08T14:04:25Z</time>
      </trkpt>
      <trkpt lat="44.48451" lon="-1.19982">
        <ele>18</ele>
        <time>2019-08-08T14:04:30Z</time>
      </trkpt>
      <trkpt lat="44.48452" lon="-1.19982">
        <ele>18</ele>
        <time>2019-08-08T14:04:35Z</time>
      </trkpt>
      <trkpt lat="44.48451" lon="-1.19981">
        <ele>18</ele>
        <time>2019-08-08T14:04:40Z</time>
      </trkpt>
      <trkpt lat="44.48452" lon="-1.1998">
        <ele>18</ele>
        <time>2019-08-08T14:04:45Z</time>
      </trkpt>
      <trkpt lat="44.48451" lon="-1.1998">
        <ele>18</ele>
        <time>2019-08-08T14:04:50Z</time>
      </trkpt>
      <trkpt lat="44.48452" lon="-1.1998">
        <ele>18</ele>
        <time>2019-08-08T14:04:55Z</time>
      </trkpt>
      <trkpt lat="44.48452" lon="-1.1998">
        <ele>18</ele>
        <time>2019-08-08T14:05:05Z</time>
      </trkpt>
      <trkpt lat="44.48452" lon="-1.1998">
        <ele>18</ele>
        <time>2019-08-08T14:05:10Z</time>
      </trkpt>
      <trkpt lat="44.48452" lon="-1.1998">
        <ele>18</ele>
        <time>2019-08-08T14:05:15Z</time>
      </trkpt>
      <trkpt lat="44.48452" lon="-1.1998">
        <ele>18</ele>
        <time>2019-08-08T14:05:20Z</time>
      </trkpt>
      <trkpt lat="44.48453" lon="-1.19983">
        <ele>18</ele>
        <time>2019-08-08T14:05:25Z</time>
      </trkpt>
      <trkpt lat="44.48454" lon="-1.19985">
        <ele>18</ele>
        <time>2019-08-08T14:05:30Z</time>
      </trkpt>
      <trkpt lat="44.48454" lon="-1.19985">
        <ele>18</ele>
        <time>2019-08-08T14:05:35Z</time>
      </trkpt>
      <trkpt lat="44.48454" lon="-1.19985">
        <ele>18</ele>
        <time>2019-08-08T14:05:40Z</time>
      </trkpt>
      <trkpt lat="44.48454" lon="-1.19985">
        <ele>18</ele>
        <time>2019-08-08T14:05:45Z</time>
      </trkpt>
      <trkpt lat="44.48453" lon="-1.19984">
        <ele>18</ele>
        <time>2019-08-08T14:05:55Z</time>
      </trkpt>
      <trkpt lat="44.48453" lon="-1.19985">
        <ele>18</ele>
        <time>2019-08-08T14:06:00Z</time>
      </trkpt>
      <trkpt lat="44.48454" lon="-1.19985">
        <ele>18</ele>
        <time>2019-08-08T14:06:05Z</time>
      </trkpt>
      <trkpt lat="44.48453" lon="-1.19985">
        <ele>18</ele>
        <time>2019-08-08T14:06:10Z</time>
      </trkpt>
      <trkpt lat="44.48454" lon="-1.19986">
        <ele>18</ele>
        <time>2019-08-08T14:06:15Z</time>
      </trkpt>
      <trkpt lat="44.48454" lon="-1.19986">
        <ele>18</ele>
        <time>2019-08-08T14:06:20Z</time>
      </trkpt>
      <trkpt lat="44.48454" lon="-1.19985">
        <ele>18</ele>
        <time>2019-08-08T14:06:25Z</time>
      </trkpt>
      <trkpt lat="44.48459" lon="-1.19982">
        <ele>18</ele>
        <time>2019-08-08T14:06:30Z</time>
      </trkpt>
      <trkpt lat="44.4846" lon="-1.19982">
        <ele>18</ele>
        <time>2019-08-08T14:06:40Z</time>
      </trkpt>
      <trkpt lat="44.4846" lon="-1.19983">
        <ele>18</ele>
        <time>2019-08-08T14:06:45Z</time>
      </trkpt>
      <trkpt lat="44.48461" lon="-1.19984">
        <ele>18</ele>
        <time>2019-08-08T14:06:50Z</time>
      </trkpt>
      <trkpt lat="44.48462" lon="-1.19984">
        <ele>18</ele>
        <time>2019-08-08T14:06:55Z</time>
      </trkpt>
      <trkpt lat="44.48462" lon="-1.19984">
        <ele>18</ele>
        <time>2019-08-08T14:07:00Z</time>
      </trkpt>
      <trkpt lat="44.48462" lon="-1.19984">
        <ele>18</ele>
        <time>2019-08-08T14:07:05Z</time>
      </trkpt>
      <trkpt lat="44.48462" lon="-1.19984">
        <ele>18</ele>
        <time>2019-08-08T14:07:10Z</time>
      </trkpt>
      <trkpt lat="44.48462" lon="-1.19984">
        <ele>18</ele>
        <time>2019-08-08T14:07:15Z</time>
      </trkpt>
      <trkpt lat="44.48462" lon="-1.19984">
        <ele>18</ele>
        <time>2019-08-08T14:07:20Z</time>
      </trkpt>
      <trkpt lat="44.48461" lon="-1.19984">
        <ele>18</ele>
        <time>2019-08-08T14:07:30Z</time>
      </trkpt>
      <trkpt lat="44.48461" lon="-1.19984">
        <ele>18</ele>
        <time>2019-08-08T14:07:35Z</time>
      </trkpt>
      <trkpt lat="44.48461" lon="-1.19984">
        <ele>18</ele>
        <time>2019-08-08T14:07:40Z</time>
      </trkpt>
      <trkpt lat="44.48461" lon="-1.19984">
        <ele>18</ele>
        <time>2019-08-08T14:07:45Z</time>
      </trkpt>
      <trkpt lat="44.48461" lon="-1.19984">
        <ele>18</ele>
        <time>2019-08-08T14:07:50Z</time>
      </trkpt>
      <trkpt lat="44.48461" lon="-1.19984">
        <ele>18</ele>
        <time>2019-08-08T14:07:55Z</time>
      </trkpt>
      <trkpt lat="44.48461" lon="-1.19984">
        <ele>18</ele>
        <time>2019-08-08T14:08:00Z</time>
      </trkpt>
      <trkpt lat="44.48459" lon="-1.19983">
        <ele>18</ele>
        <time>2019-08-08T14:08:05Z</time>
      </trkpt>
      <trkpt lat="44.48455" lon="-1.19979">
        <ele>18</ele>
        <time>2019-08-08T14:08:15Z</time>
      </trkpt>
      <trkpt lat="44.48451" lon="-1.19977">
        <ele>18</ele>
        <time>2019-08-08T14:08:20Z</time>
      </trkpt>
      <trkpt lat="44.48449" lon="-1.19977">
        <ele>18</ele>
        <time>2019-08-08T14:08:25Z</time>
      </trkpt>
      <trkpt lat="44.48449" lon="-1.19977">
        <ele>18</ele>
        <time>2019-08-08T14:08:30Z</time>
      </trkpt>
      <trkpt lat="44.48449" lon="-1.19977">
        <ele>18</ele>
        <time>2019-08-08T14:08:35Z</time>
      </trkpt>
      <trkpt lat="44.48449" lon="-1.19977">
        <ele>18</ele>
        <time>2019-08-08T14:08:40Z</time>
      </trkpt>
      <trkpt lat="44.48449" lon="-1.19978">
        <ele>18</ele>
        <time>2019-08-08T14:08:45Z</time>
      </trkpt>
      <trkpt lat="44.48449" lon="-1.19978">
        <ele>18</ele>
        <time>2019-08-08T14:08:50Z</time>
      </trkpt>
      <trkpt lat="44.48449" lon="-1.19978">
        <ele>18</ele>
        <time>2019-08-08T14:08:55Z</time>
      </trkpt>
      <trkpt lat="44.48449" lon="-1.19972">
        <ele>18</ele>
        <time>2019-08-08T14:09:05Z</time>
      </trkpt>
      <trkpt lat="44.4845" lon="-1.19972">
        <ele>18</ele>
        <time>2019-08-08T14:09:10Z</time>
      </trkpt>
      <trkpt lat="44.48449" lon="-1.19973">
        <ele>18</ele>
        <time>2019-08-08T14:09:15Z</time>
      </trkpt>
      <trkpt lat="44.48448" lon="-1.19974">
        <ele>18</ele>
        <time>2019-08-08T14:09:20Z</time>
      </trkpt>
      <trkpt lat="44.48448" lon="-1.19974">
        <ele>18</ele>
        <time>2019-08-08T14:09:25Z</time>
      </trkpt>
      <trkpt lat="44.48448" lon="-1.19975">
        <ele>18</ele>
        <time>2019-08-08T14:09:30Z</time>
      </trkpt>
      <trkpt lat="44.48448" lon="-1.19975">
        <ele>18</ele>
        <time>2019-08-08T14:09:35Z</time>
      </trkpt>
      <trkpt lat="44.48448" lon="-1.19974">
        <ele>18</ele>
        <time>2019-08-08T14:09:40Z</time>
      </trkpt>
      <trkpt lat="44.48448" lon="-1.19974">
        <ele>18</ele>
        <time>2019-08-08T14:09:50Z</time>
      </trkpt>
      <trkpt lat="44.48448" lon="-1.19974">
        <ele>18</ele>
        <time>2019-08-08T14:09:55Z</time>
      </trkpt>
      <trkpt lat="44.48448" lon="-1.19974">
        <ele>18</ele>
        <time>2019-08-08T14:10:00Z</time>
      </trkpt>
      <trkpt lat="44.48448" lon="-1.19974">
        <ele>18</ele>
        <time>2019-08-08T14:10:05Z</time>
      </trkpt>
      <trkpt lat="44.48448" lon="-1.19974">
        <ele>18</ele>
        <time>2019-08-08T14:10:10Z</time>
      </trkpt>
      <trkpt lat="44.48448" lon="-1.19975">
        <ele>18</ele>
        <time>2019-08-08T14:10:15Z</time>
      </trkpt>
      <trkpt lat="44.48448" lon="-1.19977">
        <ele>18</ele>
        <time>2019-08-08T14:10:20Z</time>
      </trkpt>
      <trkpt lat="44.48447" lon="-1.19977">
        <ele>18</ele>
        <time>2019-08-08T14:10:25Z</time>
      </trkpt>
      <trkpt lat="44.48447" lon="-1.19977">
        <ele>18</ele>
        <time>2019-08-08T14:10:35Z</time>
      </trkpt>
      <trkpt lat="44.48447" lon="-1.19977">
        <ele>18</ele>
        <time>2019-08-08T14:10:40Z</time>
      </trkpt>
      <trkpt lat="44.48447" lon="-1.19976">
        <ele>18</ele>
        <time>2019-08-08T14:10:45Z</time>
      </trkpt>
      <trkpt lat="44.48448" lon="-1.19975">
        <ele>18</ele>
        <time>2019-08-08T14:10:50Z</time>
      </trkpt>
      <trkpt lat="44.48449" lon="-1.19975">
        <ele>18</ele>
        <time>2019-08-08T14:10:55Z</time>
      </trkpt>
      <trkpt lat="44.4845" lon="-1.19975">
        <ele>18</ele>
        <time>2019-08-08T14:11:00Z</time>
      </trkpt>
      <trkpt lat="44.48452" lon="-1.19974">
        <ele>18</ele>
        <time>2019-08-08T14:11:05Z</time>
      </trkpt>
      <trkpt lat="44.48456" lon="-1.19973">
        <ele>18</ele>
        <time>2019-08-08T14:11:10Z</time>
      </trkpt>
      <trkpt lat="44.48457" lon="-1.19971">
        <ele>18</ele>
        <time>2019-08-08T14:11:15Z</time>
      </trkpt>
      <trkpt lat="44.4846" lon="-1.19968">
        <ele>18</ele>
        <time>2019-08-08T14:11:25Z</time>
      </trkpt>
      <trkpt lat="44.48462" lon="-1.19967">
        <ele>18</ele>
        <time>2019-08-08T14:11:30Z</time>
      </trkpt>
      <trkpt lat="44.48463" lon="-1.19965">
        <ele>18</ele>
        <time>2019-08-08T14:11:35Z</time>
      </trkpt>
      <trkpt lat="44.48464" lon="-1.19964">
        <ele>18</ele>
        <time>2019-08-08T14:11:40Z</time>
      </trkpt>
      <trkpt lat="44.48464" lon="-1.19965">
        <ele>18</ele>
        <time>2019-08-08T14:11:45Z</time>
      </trkpt>
      <trkpt lat="44.48465" lon="-1.19964">
        <ele>18</ele>
        <time>2019-08-08T14:11:50Z</time>
      </trkpt>
      <trkpt lat="44.48467" lon="-1.19962">
        <ele>18</ele>
        <time>2019-08-08T14:11:55Z</time>
      </trkpt>
      <trkpt lat="44.48469" lon="-1.19961">
        <ele>18</ele>
        <time>2019-08-08T14:12:00Z</time>
      </trkpt>
      <trkpt lat="44.48472" lon="-1.19958">
        <ele>18</ele>
        <time>2019-08-08T14:12:10Z</time>
      </trkpt>
      <trkpt lat="44.48472" lon="-1.19958">
        <ele>18</ele>
        <time>2019-08-08T14:12:15Z</time>
      </trkpt>
      <trkpt lat="44.48471" lon="-1.19958">
        <ele>18</ele>
        <time>2019-08-08T14:12:20Z</time>
      </trkpt>
      <trkpt lat="44.48471" lon="-1.19958">
        <ele>18</ele>
        <time>2019-08-08T14:12:25Z</time>
      </trkpt>
      <trkpt lat="44.48471" lon="-1.19958">
        <ele>18</ele>
        <time>2019-08-08T14:12:30Z</time>
      </trkpt>
      <trkpt lat="44.48471" lon="-1.19958">
        <ele>18</ele>
        <time>2019-08-08T14:12:35Z</time>
      </trkpt>
      <trkpt lat="44.48471" lon="-1.19958">
        <ele>18</ele>
        <time>2019-08-08T14:12:40Z</time>
      </trkpt>
      <trkpt lat="44.48471" lon="-1.19955">
        <ele>18</ele>
        <time>2019-08-08T14:12:45Z</time>
      </trkpt>
      <trkpt lat="44.48471" lon="-1.19954">
        <ele>18</ele>
        <time>2019-08-08T14:12:50Z</time>
      </trkpt>
      <trkpt lat="44.48473" lon="-1.19954">
        <ele>18</ele>
        <time>2019-08-08T14:13:00Z</time>
      </trkpt>
      <trkpt lat="44.48473" lon="-1.19953">
        <ele>18</ele>
        <time>2019-08-08T14:13:05Z</time>
      </trkpt>
      <trkpt lat="44.48473" lon="-1.19954">
        <ele>18</ele>
        <time>2019-08-08T14:13:10Z</time>
      </trkpt>
      <trkpt lat="44.48472" lon="-1.19954">
        <ele>18</ele>
        <time>2019-08-08T14:13:15Z</time>
      </trkpt>
      <trkpt lat="44.48468" lon="-1.19954">
        <ele>18</ele>
        <time>2019-08-08T14:13:20Z</time>
      </trkpt>
      <trkpt lat="44.48468" lon="-1.19954">
        <ele>18</ele>
        <time>2019-08-08T14:13:25Z</time>
      </trkpt>
      <trkpt lat="44.48467" lon="-1.19954">
        <ele>18</ele>
        <time>2019-08-08T14:13:30Z</time>
      </trkpt>
      <trkpt lat="44.48468" lon="-1.19954">
        <ele>18</ele>
        <time>2019-08-08T14:13:35Z</time>
      </trkpt>
      <trkpt lat="44.48469" lon="-1.19955">
        <ele>18</ele>
        <time>2019-08-08T14:13:45Z</time>
      </trkpt>
      <trkpt lat="44.48469" lon="-1.19954">
        <ele>18</ele>
        <time>2019-08-08T14:13:50Z</time>
      </trkpt>
      <trkpt lat="44.48469" lon="-1.19954">
        <ele>18</ele>
        <time>2019-08-08T14:13:55Z</time>
      </trkpt>
      <trkpt lat="44.48469" lon="-1.19954">
        <ele>18</ele>
        <time>2019-08-08T14:14:00Z</time>
      </trkpt>
      <trkpt lat="44.48469" lon="-1.19954">
        <ele>18</ele>
        <time>2019-08-08T14:14:05Z</time>
      </trkpt>
      <trkpt lat="44.48469" lon="-1.19955">
        <ele>18</ele>
        <time>2019-08-08T14:14:10Z</time>
      </trkpt>
      <trkpt lat="44.4847" lon="-1.19955">
        <ele>18</ele>
        <time>2019-08-08T14:14:15Z</time>
      </trkpt>
      <trkpt lat="44.4847" lon="-1.19955">
        <ele>18</ele>
        <time>2019-08-08T14:14:20Z</time>
      </trkpt>
      <trkpt lat="44.4847" lon="-1.19955">
        <ele>18</ele>
        <time>2019-08-08T14:14:25Z</time>
      </trkpt>
      <trkpt lat="44.4847" lon="-1.19955">
        <ele>18</ele>
        <time>2019-08-08T14:14:35Z</time>
      </trkpt>
      <trkpt lat="44.4847" lon="-1.19955">
        <ele>18</ele>
        <time>2019-08-08T14:14:40Z</time>
      </trkpt>
      <trkpt lat="44.4847" lon="-1.19955">
        <ele>18</ele>
        <time>2019-08-08T14:14:45Z</time>
      </trkpt>
      <trkpt lat="44.48467" lon="-1.19956">
        <ele>18</ele>
        <time>2019-08-08T14:14:50Z</time>
      </trkpt>
      <trkpt lat="44.48465" lon="-1.19958">
        <ele>18</ele>
        <time>2019-08-08T14:14:55Z</time>
      </trkpt>
      <trkpt lat="44.48465" lon="-1.19959">
        <ele>18</ele>
        <time>2019-08-08T14:15:00Z</time>
      </trkpt>
      <trkpt lat="44.48465" lon="-1.19959">
        <ele>18</ele>
        <time>2019-08-08T14:15:05Z</time>
      </trkpt>
      <trkpt lat="44.48465" lon="-1.19959">
        <ele>18</ele>
        <time>2019-08-08T14:15:10Z</time>
      </trkpt>
      <trkpt lat="44.48465" lon="-1.1996">
        <ele>18</ele>
        <time>2019-08-08T14:15:20Z</time>
      </trkpt>
      <trkpt lat="44.48465" lon="-1.1996">
        <ele>18</ele>
        <time>2019-08-08T14:15:25Z</time>
      </trkpt>
      <trkpt lat="44.48464" lon="-1.19959">
        <ele>18</ele>
        <time>2019-08-08T14:15:30Z</time>
      </trkpt>
      <trkpt lat="44.48465" lon="-1.19959">
        <ele>18</ele>
        <time>2019-08-08T14:15:35Z</time>
      </trkpt>
      <trkpt lat="44.48465" lon="-1.19957">
        <ele>18</ele>
        <time>2019-08-08T14:15:40Z</time>
      </trkpt>
      <trkpt lat="44.48464" lon="-1.19956">
        <ele>18</ele>
        <time>2019-08-08T14:15:45Z</time>
      </trkpt>
      <trkpt lat="44.48464" lon="-1.19956">
        <ele>18</ele>
        <time>2019-08-08T14:15:50Z</time>
      </trkpt>
      <trkpt lat="44.48465" lon="-1.19956">
        <ele>18</ele>
        <time>2019-08-08T14:15:55Z</time>
      </trkpt>
      <trkpt lat="44.48464" lon="-1.19955">
        <ele>18</ele>
        <time>2019-08-08T14:16:00Z</time>
      </trkpt>
      <trkpt lat="44.48463" lon="-1.19956">
        <ele>18</ele>
        <time>2019-08-08T14:16:10Z</time>
      </trkpt>
      <trkpt lat="44.48463" lon="-1.19956">
        <ele>18</ele>
        <time>2019-08-08T14:16:15Z</time>
      </trkpt>
      <trkpt lat="44.48463" lon="-1.19956">
        <ele>18</ele>
        <time>2019-08-08T14:16:20Z</time>
      </trkpt>
      <trkpt lat="44.48463" lon="-1.19956">
        <ele>18</ele>
        <time>2019-08-08T14:16:25Z</time>
      </trkpt>
      <trkpt lat="44.48463" lon="-1.19956">
        <ele>18</ele>
        <time>2019-08-08T14:16:30Z</time>
      </trkpt>
      <trkpt lat="44.48463" lon="-1.19956">
        <ele>18</ele>
        <time>2019-08-08T14:16:35Z</time>
      </trkpt>
      <trkpt lat="44.48463" lon="-1.19956">
        <ele>18</ele>
        <time>2019-08-08T14:16:40Z</time>
      </trkpt>
      <trkpt lat="44.48463" lon="-1.19956">
        <ele>18</ele>
        <time>2019-08-08T14:16:45Z</time>
      </trkpt>
      <trkpt lat="44.48462" lon="-1.19956">
        <ele>18</ele>
        <time>2019-08-08T14:16:55Z</time>
      </trkpt>
      <trkpt lat="44.48462" lon="-1.19956">
        <ele>18</ele>
        <time>2019-08-08T14:17:00Z</time>
      </trkpt>
      <trkpt lat="44.48462" lon="-1.19957">
        <ele>18</ele>
        <time>2019-08-08T14:17:05Z</time>
      </trkpt>
      <trkpt lat="44.48462" lon="-1.19957">
        <ele>18</ele>
        <time>2019-08-08T14:17:10Z</time>
      </trkpt>
      <trkpt lat="44.48462" lon="-1.19957">
        <ele>18</ele>
        <time>2019-08-08T14:17:15Z</time>
      </trkpt>
      <trkpt lat="44.48462" lon="-1.19957">
        <ele>18</ele>
        <time>2019-08-08T14:17:20Z</time>
      </trkpt>
      <trkpt lat="44.48462" lon="-1.19957">
        <ele>18</ele>
        <time>2019-08-08T14:17:25Z</time>
      </trkpt>
      <trkpt lat="44.48462" lon="-1.19956">
        <ele>18</ele>
        <time>2019-08-08T14:17:30Z</time>
      </trkpt>
      <trkpt lat="44.48462" lon="-1.19955">
        <ele>18</ele>
        <time>2019-08-08T14:17:35Z</time>
      </trkpt>
      <trkpt lat="44.48462" lon="-1.19955">
        <ele>18</ele>
        <time>2019-08-08T14:17:45Z</time>
      </trkpt>
      <trkpt lat="44.48463" lon="-1.19956">
        <ele>18</ele>
        <time>2019-08-08T14:17:50Z</time>
      </trkpt>
      <trkpt lat="44.48463" lon="-1.19956">
        <ele>18</ele>
        <time>2019-08-08T14:17:55Z</time>
      </trkpt>
      <trkpt lat="44.48463" lon="-1.19956">
        <ele>18</ele>
        <time>2019-08-08T14:18:00Z</time>
      </trkpt>
      <trkpt lat="44.48463" lon="-1.19956">
        <ele>18</ele>
        <time>2019-08-08T14:18:05Z</time>
      </trkpt>
      <trkpt lat="44.48464" lon="-1.19954">
        <ele>18</ele>
        <time>2019-08-08T14:18:10Z</time>
      </trkpt>
      <trkpt lat="44.48465" lon="-1.19954">
        <ele>18</ele>
        <time>2019-08-08T14:18:15Z</time>
      </trkpt>
      <trkpt lat="44.48464" lon="-1.19954">
        <ele>18</ele>
        <time>2019-08-08T14:18:20Z</time>
      </trkpt>
      <trkpt lat="44.48463" lon="-1.19955">
        <ele>18</ele>
        <time>2019-08-08T14:18:30Z</time>
      </trkpt>
      <trkpt lat="44.48463" lon="-1.19955">
        <ele>18</ele>
        <time>2019-08-08T14:18:35Z</time>
      </trkpt>
      <trkpt lat="44.48463" lon="-1.19955">
        <ele>18</ele>
        <time>2019-08-08T14:18:40Z</time>
      </trkpt>
      <trkpt lat="44.48463" lon="-1.19955">
        <ele>18</ele>
        <time>2019-08-08T14:18:45Z</time>
      </trkpt>
      <trkpt lat="44.48463" lon="-1.19955">
        <ele>18</ele>
        <time>2019-08-08T14:18:50Z</time>
      </trkpt>
      <trkpt lat="44.48463" lon="-1.19955">
        <ele>18</ele>
        <time>2019-08-08T14:18:55Z</time>
      </trkpt>
      <trkpt lat="44.48463" lon="-1.19955">
        <ele>18</ele>
        <time>2019-08-08T14:19:00Z</time>
      </trkpt>
      <trkpt lat="44.48463" lon="-1.19955">
        <ele>18</ele>
        <time>2019-08-08T14:19:05Z</time>
      </trkpt>
      <trkpt lat="44.48463" lon="-1.19955">
        <ele>18</ele>
        <time>2019-08-08T14:19:10Z</time>
      </trkpt>
      <trkpt lat="44.48463" lon="-1.19955">
        <ele>18</ele>
        <time>2019-08-08T14:19:20Z</time>
      </trkpt>
      <trkpt lat="44.48463" lon="-1.19954">
        <ele>18</ele>
        <time>2019-08-08T14:19:25Z</time>
      </trkpt>
      <trkpt lat="44.48463" lon="-1.19956">
        <ele>18</ele>
        <time>2019-08-08T14:19:30Z</time>
      </trkpt>
      <trkpt lat="44.48463" lon="-1.19955">
        <ele>18</ele>
        <time>2019-08-08T14:19:35Z</time>
      </trkpt>
      <trkpt lat="44.48463" lon="-1.19955">
        <ele>18</ele>
        <time>2019-08-08T14:19:40Z</time>
      </trkpt>
      <trkpt lat="44.48464" lon="-1.19954">
        <ele>18</ele>
        <time>2019-08-08T14:19:45Z</time>
      </trkpt>
      <trkpt lat="44.48464" lon="-1.19953">
        <ele>18</ele>
        <time>2019-08-08T14:19:50Z</time>
      </trkpt>
      <trkpt lat="44.48464" lon="-1.19953">
        <ele>18</ele>
        <time>2019-08-08T14:19:55Z</time>
      </trkpt>
      <trkpt lat="44.48464" lon="-1.19953">
        <ele>18</ele>
        <time>2019-08-08T14:20:05Z</time>
      </trkpt>
      <trkpt lat="44.48463" lon="-1.19955">
        <ele>18</ele>
        <time>2019-08-08T14:20:10Z</time>
      </trkpt>
      <trkpt lat="44.48463" lon="-1.19955">
        <ele>18</ele>
        <time>2019-08-08T14:20:15Z</time>
      </trkpt>
      <trkpt lat="44.48463" lon="-1.19953">
        <ele>18</ele>
        <time>2019-08-08T14:20:20Z</time>
      </trkpt>
      <trkpt lat="44.48462" lon="-1.19953">
        <ele>18</ele>
        <time>2019-08-08T14:20:25Z</time>
      </trkpt>
      <trkpt lat="44.48462" lon="-1.19954">
        <ele>18</ele>
        <time>2019-08-08T14:20:30Z</time>
      </trkpt>
      <trkpt lat="44.48465" lon="-1.19951">
        <ele>18</ele>
        <time>2019-08-08T14:20:35Z</time>
      </trkpt>
      <trkpt lat="44.48467" lon="-1.1995">
        <ele>18</ele>
        <time>2019-08-08T14:20:40Z</time>
      </trkpt>
      <trkpt lat="44.4847" lon="-1.19952">
        <ele>18</ele>
        <time>2019-08-08T14:20:45Z</time>
      </trkpt>
      <trkpt lat="44.48468" lon="-1.19951">
        <ele>18</ele>
        <time>2019-08-08T14:20:55Z</time>
      </trkpt>
      <trkpt lat="44.48465" lon="-1.19949">
        <ele>18</ele>
        <time>2019-08-08T14:21:00Z</time>
      </trkpt>
      <trkpt lat="44.48465" lon="-1.19949">
        <ele>18</ele>
        <time>2019-08-08T14:21:05Z</time>
      </trkpt>
      <trkpt lat="44.48467" lon="-1.19952">
        <ele>18</ele>
        <time>2019-08-08T14:21:10Z</time>
      </trkpt>
      <trkpt lat="44.48467" lon="-1.19951">
        <ele>18</ele>
        <time>2019-08-08T14:21:15Z</time>
      </trkpt>
      <trkpt lat="44.48468" lon="-1.19952">
        <ele>18</ele>
        <time>2019-08-08T14:21:20Z</time>
      </trkpt>
      <trkpt lat="44.48467" lon="-1.1995">
        <ele>18</ele>
        <time>2019-08-08T14:21:25Z</time>
      </trkpt>
      <trkpt lat="44.48466" lon="-1.19951">
        <ele>18</ele>
        <time>2019-08-08T14:21:30Z</time>
      </trkpt>
      <trkpt lat="44.48466" lon="-1.19951">
        <ele>18</ele>
        <time>2019-08-08T14:21:40Z</time>
      </trkpt>
      <trkpt lat="44.48467" lon="-1.19952">
        <ele>18</ele>
        <time>2019-08-08T14:21:45Z</time>
      </trkpt>
      <trkpt lat="44.48468" lon="-1.19953">
        <ele>18</ele>
        <time>2019-08-08T14:21:50Z</time>
      </trkpt>
      <trkpt lat="44.48468" lon="-1.19956">
        <ele>18</ele>
        <time>2019-08-08T14:21:55Z</time>
      </trkpt>
      <trkpt lat="44.48468" lon="-1.19958">
        <ele>18</ele>
        <time>2019-08-08T14:22:00Z</time>
      </trkpt>
      <trkpt lat="44.48468" lon="-1.19957">
        <ele>18</ele>
        <time>2019-08-08T14:22:05Z</time>
      </trkpt>
      <trkpt lat="44.48468" lon="-1.19957">
        <ele>18</ele>
        <time>2019-08-08T14:22:10Z</time>
      </trkpt>
      <trkpt lat="44.48468" lon="-1.19955">
        <ele>18</ele>
        <time>2019-08-08T14:22:15Z</time>
      </trkpt>
      <trkpt lat="44.48469" lon="-1.19954">
        <ele>18</ele>
        <time>2019-08-08T14:22:20Z</time>
      </trkpt>
      <trkpt lat="44.48469" lon="-1.19955">
        <ele>18</ele>
        <time>2019-08-08T14:22:30Z</time>
      </trkpt>
      <trkpt lat="44.48469" lon="-1.19955">
        <ele>18</ele>
        <time>2019-08-08T14:22:35Z</time>
      </trkpt>
      <trkpt lat="44.48469" lon="-1.19955">
        <ele>18</ele>
        <time>2019-08-08T14:22:40Z</time>
      </trkpt>
      <trkpt lat="44.48469" lon="-1.19954">
        <ele>18</ele>
        <time>2019-08-08T14:22:45Z</time>
      </trkpt>
      <trkpt lat="44.48469" lon="-1.19955">
        <ele>18</ele>
        <time>2019-08-08T14:22:50Z</time>
      </trkpt>
      <trkpt lat="44.48469" lon="-1.19955">
        <ele>18</ele>
        <time>2019-08-08T14:22:55Z</time>
      </trkpt>
      <trkpt lat="44.48469" lon="-1.19954">
        <ele>18</ele>
        <time>2019-08-08T14:23:00Z</time>
      </trkpt>
      <trkpt lat="44.48469" lon="-1.19954">
        <ele>18</ele>
        <time>2019-08-08T14:23:05Z</time>
      </trkpt>
      <trkpt lat="44.48469" lon="-1.19954">
        <ele>18</ele>
        <time>2019-08-08T14:23:15Z</time>
      </trkpt>
      <trkpt lat="44.4847" lon="-1.19954">
        <ele>18</ele>
        <time>2019-08-08T14:23:20Z</time>
      </trkpt>
      <trkpt lat="44.48469" lon="-1.19953">
        <ele>18</ele>
        <time>2019-08-08T14:23:25Z</time>
      </trkpt>
      <trkpt lat="44.48469" lon="-1.19953">
        <ele>18</ele>
        <time>2019-08-08T14:23:30Z</time>
      </trkpt>
      <trkpt lat="44.48469" lon="-1.19953">
        <ele>18</ele>
        <time>2019-08-08T14:23:35Z</time>
      </trkpt>
      <trkpt lat="44.48469" lon="-1.19953">
        <ele>18</ele>
        <time>2019-08-08T14:23:40Z</time>
      </trkpt>
      <trkpt lat="44.48469" lon="-1.19952">
        <ele>18</ele>
        <time>2019-08-08T14:23:45Z</time>
      </trkpt>
      <trkpt lat="44.48469" lon="-1.19951">
        <ele>18</ele>
        <time>2019-08-08T14:23:50Z</time>
      </trkpt>
      <trkpt lat="44.48469" lon="-1.19951">
        <ele>18</ele>
        <time>2019-08-08T14:23:55Z</time>
      </trkpt>
      <trkpt lat="44.4847" lon="-1.19951">
        <ele>18</ele>
        <time>2019-08-08T14:24:05Z</time>
      </trkpt>
      <trkpt lat="44.4847" lon="-1.19951">
        <ele>18</ele>
        <time>2019-08-08T14:24:10Z</time>
      </trkpt>
      <trkpt lat="44.4847" lon="-1.19951">
        <ele>18</ele>
        <time>2019-08-08T14:24:15Z</time>
      </trkpt>
      <trkpt lat="44.4847" lon="-1.19951">
        <ele>18</ele>
        <time>2019-08-08T14:24:20Z</time>
      </trkpt>
      <trkpt lat="44.4847" lon="-1.19952">
        <ele>18</ele>
        <time>2019-08-08T14:24:25Z</time>
      </trkpt>
      <trkpt lat="44.4847" lon="-1.19952">
        <ele>18</ele>
        <time>2019-08-08T14:24:30Z</time>
      </trkpt>
      <trkpt lat="44.4847" lon="-1.19952">
        <ele>18</ele>
        <time>2019-08-08T14:24:35Z</time>
      </trkpt>
      <trkpt lat="44.4847" lon="-1.19952">
        <ele>18</ele>
        <time>2019-08-08T14:24:40Z</time>
      </trkpt>
      <trkpt lat="44.4847" lon="-1.19952">
        <ele>18</ele>
        <time>2019-08-08T14:24:50Z</time>
      </trkpt>
      <trkpt lat="44.48471" lon="-1.19952">
        <ele>18</ele>
        <time>2019-08-08T14:24:55Z</time>
      </trkpt>
      <trkpt lat="44.48471" lon="-1.19952">
        <ele>18</ele>
        <time>2019-08-08T14:25:00Z</time>
      </trkpt>
      <trkpt lat="44.48472" lon="-1.19951">
        <ele>18</ele>
        <time>2019-08-08T14:25:05Z</time>
      </trkpt>
      <trkpt lat="44.48473" lon="-1.1995">
        <ele>18</ele>
        <time>2019-08-08T14:25:10Z</time>
      </trkpt>
      <trkpt lat="44.48472" lon="-1.19948">
        <ele>18</ele>
        <time>2019-08-08T14:25:15Z</time>
      </trkpt>
      <trkpt lat="44.48472" lon="-1.19946">
        <ele>18</ele>
        <time>2019-08-08T14:25:20Z</time>
      </trkpt>
      <trkpt lat="44.48472" lon="-1.19947">
        <ele>18</ele>
        <time>2019-08-08T14:25:25Z</time>
      </trkpt>
      <trkpt lat="44.48472" lon="-1.19952">
        <ele>18</ele>
        <time>2019-08-08T14:25:35Z</time>
      </trkpt>
      <trkpt lat="44.48472" lon="-1.19954">
        <ele>18</ele>
        <time>2019-08-08T14:25:40Z</time>
      </trkpt>
      <trkpt lat="44.48469" lon="-1.19956">
        <ele>18</ele>
        <time>2019-08-08T14:25:45Z</time>
      </trkpt>
      <trkpt lat="44.48469" lon="-1.19956">
        <ele>18</ele>
        <time>2019-08-08T14:25:50Z</time>
      </trkpt>
      <trkpt lat="44.48469" lon="-1.19956">
        <ele>18</ele>
        <time>2019-08-08T14:25:55Z</time>
      </trkpt>
      <trkpt lat="44.48469" lon="-1.19956">
        <ele>18</ele>
        <time>2019-08-08T14:26:00Z</time>
      </trkpt>
      <trkpt lat="44.48469" lon="-1.19956">
        <ele>18</ele>
        <time>2019-08-08T14:26:05Z</time>
      </trkpt>
      <trkpt lat="44.48469" lon="-1.19956">
        <ele>18</ele>
        <time>2019-08-08T14:26:10Z</time>
      </trkpt>
      <trkpt lat="44.48469" lon="-1.19956">
        <ele>18</ele>
        <time>2019-08-08T14:26:15Z</time>
      </trkpt>
      <trkpt lat="44.48469" lon="-1.19954">
        <ele>18</ele>
        <time>2019-08-08T14:26:25Z</time>
      </trkpt>
      <trkpt lat="44.48468" lon="-1.19953">
        <ele>18</ele>
        <time>2019-08-08T14:26:30Z</time>
      </trkpt>
      <trkpt lat="44.48468" lon="-1.19953">
        <ele>18</ele>
        <time>2019-08-08T14:26:35Z</time>
      </trkpt>
      <trkpt lat="44.48468" lon="-1.19954">
        <ele>18</ele>
        <time>2019-08-08T14:26:40Z</time>
      </trkpt>
      <trkpt lat="44.48468" lon="-1.19954">
        <ele>18</ele>
        <time>2019-08-08T14:26:45Z</time>
      </trkpt>
      <trkpt lat="44.48468" lon="-1.19954">
        <ele>18</ele>
        <time>2019-08-08T14:26:50Z</time>
      </trkpt>
      <trkpt lat="44.48468" lon="-1.19953">
        <ele>18</ele>
        <time>2019-08-08T14:26:55Z</time>
      </trkpt>
      <trkpt lat="44.48468" lon="-1.19953">
        <ele>18</ele>
        <time>2019-08-08T14:27:00Z</time>
      </trkpt>
      <trkpt lat="44.48468" lon="-1.19953">
        <ele>18</ele>
        <time>2019-08-08T14:27:10Z</time>
      </trkpt>
      <trkpt lat="44.48468" lon="-1.19955">
        <ele>18</ele>
        <time>2019-08-08T14:27:15Z</time>
      </trkpt>
      <trkpt lat="44.48468" lon="-1.19955">
        <ele>18</ele>
        <time>2019-08-08T14:27:20Z</time>
      </trkpt>
      <trkpt lat="44.48468" lon="-1.19954">
        <ele>18</ele>
        <time>2019-08-08T14:27:25Z</time>
      </trkpt>
      <trkpt lat="44.48468" lon="-1.19954">
        <ele>18</ele>
        <time>2019-08-08T14:27:30Z</time>
      </trkpt>
      <trkpt lat="44.48468" lon="-1.19954">
        <ele>18</ele>
        <time>2019-08-08T14:27:35Z</time>
      </trkpt>
      <trkpt lat="44.48468" lon="-1.19954">
        <ele>18</ele>
        <time>2019-08-08T14:27:40Z</time>
      </trkpt>
      <trkpt lat="44.48468" lon="-1.19954">
        <ele>18</ele>
        <time>2019-08-08T14:27:45Z</time>
      </trkpt>
      <trkpt lat="44.48468" lon="-1.19954">
        <ele>18</ele>
        <time>2019-08-08T14:27:50Z</time>
      </trkpt>
      <trkpt lat="44.48468" lon="-1.19954">
        <ele>18</ele>
        <time>2019-08-08T14:28:00Z</time>
      </trkpt>
      <trkpt lat="44.48468" lon="-1.19954">
        <ele>18</ele>
        <time>2019-08-08T14:28:05Z</time>
      </trkpt>
      <trkpt lat="44.48468" lon="-1.19954">
        <ele>18</ele>
        <time>2019-08-08T14:28:10Z</time>
      </trkpt>
      <trkpt lat="44.48468" lon="-1.19954">
        <ele>18</ele>
        <time>2019-08-08T14:28:15Z</time>
      </trkpt>
      <trkpt lat="44.48468" lon="-1.19954">
        <ele>18</ele>
        <time>2019-08-08T14:28:20Z</time>
      </trkpt>
      <trkpt lat="44.48468" lon="-1.19954">
        <ele>18</ele>
        <time>2019-08-08T14:28:25Z</time>
      </trkpt>
      <trkpt lat="44.48468" lon="-1.19954">
        <ele>18</ele>
        <time>2019-08-08T14:28:30Z</time>
      </trkpt>
      <trkpt lat="44.48468" lon="-1.19954">
        <ele>18</ele>
        <time>2019-08-08T14:28:35Z</time>
      </trkpt>
      <trkpt lat="44.48468" lon="-1.19954">
        <ele>18</ele>
        <time>2019-08-08T14:28:45Z</time>
      </trkpt>
      <trkpt lat="44.48468" lon="-1.19954">
        <ele>18</ele>
        <time>2019-08-08T14:28:50Z</time>
      </trkpt>
      <trkpt lat="44.48468" lon="-1.19954">
        <ele>18</ele>
        <time>2019-08-08T14:28:55Z</time>
      </trkpt>
      <trkpt lat="44.48468" lon="-1.19954">
        <ele>18</ele>
        <time>2019-08-08T14:29:00Z</time>
      </trkpt>
      <trkpt lat="44.48468" lon="-1.19954">
        <ele>18</ele>
        <time>2019-08-08T14:29:05Z</time>
      </trkpt>
      <trkpt lat="44.48468" lon="-1.19954">
        <ele>18</ele>
        <time>2019-08-08T14:29:10Z</time>
      </trkpt>
      <trkpt lat="44.48468" lon="-1.19954">
        <ele>18</ele>
        <time>2019-08-08T14:29:15Z</time>
      </trkpt>
      <trkpt lat="44.48468" lon="-1.19954">
        <ele>18</ele>
        <time>2019-08-08T14:29:20Z</time>
      </trkpt>
      <trkpt lat="44.48468" lon="-1.19954">
        <ele>18</ele>
        <time>2019-08-08T14:29:25Z</time>
      </trkpt>
      <trkpt lat="44.48469" lon="-1.19955">
        <ele>18</ele>
        <time>2019-08-08T14:29:35Z</time>
      </trkpt>
      <trkpt lat="44.48468" lon="-1.19955">
        <ele>18</ele>
        <time>2019-08-08T14:29:40Z</time>
      </trkpt>
      <trkpt lat="44.48469" lon="-1.19955">
        <ele>18</ele>
        <time>2019-08-08T14:29:45Z</time>
      </trkpt>
      <trkpt lat="44.48469" lon="-1.19955">
        <ele>18</ele>
        <time>2019-08-08T14:29:50Z</time>
      </trkpt>
      <trkpt lat="44.48469" lon="-1.19955">
        <ele>18</ele>
        <time>2019-08-08T14:29:55Z</time>
      </trkpt>
      <trkpt lat="44.48469" lon="-1.19955">
        <ele>18</ele>
        <time>2019-08-08T14:30:00Z</time>
      </trkpt>
      <trkpt lat="44.48469" lon="-1.19955">
        <ele>18</ele>
        <time>2019-08-08T14:30:05Z</time>
      </trkpt>
      <trkpt lat="44.48469" lon="-1.19955">
        <ele>18</ele>
        <time>2019-08-08T14:30:10Z</time>
      </trkpt>
      <trkpt lat="44.48469" lon="-1.19955">
        <ele>18</ele>
        <time>2019-08-08T14:30:20Z</time>
      </trkpt>
      <trkpt lat="44.48469" lon="-1.19955">
        <ele>18</ele>
        <time>2019-08-08T14:30:25Z</time>
      </trkpt>
      <trkpt lat="44.48469" lon="-1.19955">
        <ele>18</ele>
        <time>2019-08-08T14:30:30Z</time>
      </trkpt>
      <trkpt lat="44.48469" lon="-1.19955">
        <ele>18</ele>
        <time>2019-08-08T14:30:35Z</time>
      </trkpt>
      <trkpt lat="44.48469" lon="-1.19955">
        <ele>18</ele>
        <time>2019-08-08T14:30:40Z</time>
      </trkpt>
      <trkpt lat="44.48469" lon="-1.19955">
        <ele>18</ele>
        <time>2019-08-08T14:30:45Z</time>
      </trkpt>
      <trkpt lat="44.48469" lon="-1.19955">
        <ele>18</ele>
        <time>2019-08-08T14:30:50Z</time>
      </trkpt>
      <trkpt lat="44.48469" lon="-1.19955">
        <ele>18</ele>
        <time>2019-08-08T14:30:55Z</time>
      </trkpt>
      <trkpt lat="44.48469" lon="-1.19955">
        <ele>18</ele>
        <time>2019-08-08T14:31:00Z</time>
      </trkpt>
      <trkpt lat="44.48469" lon="-1.19954">
        <ele>18</ele>
        <time>2019-08-08T14:31:10Z</time>
      </trkpt>
      <trkpt lat="44.48468" lon="-1.1995">
        <ele>18</ele>
        <time>2019-08-08T14:31:15Z</time>
      </trkpt>
      <trkpt lat="44.48468" lon="-1.1995">
        <ele>18</ele>
        <time>2019-08-08T14:31:20Z</time>
      </trkpt>
      <trkpt lat="44.48468" lon="-1.1995">
        <ele>18</ele>
        <time>2019-08-08T14:31:25Z</time>
      </trkpt>
      <trkpt lat="44.48468" lon="-1.1995">
        <ele>18</ele>
        <time>2019-08-08T14:31:30Z</time>
      </trkpt>
      <trkpt lat="44.48468" lon="-1.1995">
        <ele>18</ele>
        <time>2019-08-08T14:31:35Z</time>
      </trkpt>
      <trkpt lat="44.48468" lon="-1.1995">
        <ele>18</ele>
        <time>2019-08-08T14:31:40Z</time>
      </trkpt>
      <trkpt lat="44.48468" lon="-1.19951">
        <ele>18</ele>
        <time>2019-08-08T14:31:45Z</time>
      </trkpt>
      <trkpt lat="44.48468" lon="-1.19951">
        <ele>18</ele>
        <time>2019-08-08T14:31:55Z</time>
      </trkpt>
      <trkpt lat="44.48467" lon="-1.19951">
        <ele>18</ele>
        <time>2019-08-08T14:32:00Z</time>
      </trkpt>
      <trkpt lat="44.48467" lon="-1.19951">
        <ele>18</ele>
        <time>2019-08-08T14:32:05Z</time>
      </trkpt>
      <trkpt lat="44.48467" lon="-1.19951">
        <ele>18</ele>
        <time>2019-08-08T14:32:10Z</time>
      </trkpt>
      <trkpt lat="44.48467" lon="-1.19951">
        <ele>18</ele>
        <time>2019-08-08T14:32:15Z</time>
      </trkpt>
      <trkpt lat="44.48467" lon="-1.19951">
        <ele>18</ele>
        <time>2019-08-08T14:32:20Z</time>
      </trkpt>
      <trkpt lat="44.48467" lon="-1.19951">
        <ele>18</ele>
        <time>2019-08-08T14:32:25Z</time>
      </trkpt>
      <trkpt lat="44.48468" lon="-1.19951">
        <ele>18</ele>
        <time>2019-08-08T14:32:30Z</time>
      </trkpt>
      <trkpt lat="44.48468" lon="-1.1995">
        <ele>18</ele>
        <time>2019-08-08T14:32:35Z</time>
      </trkpt>
      <trkpt lat="44.48468" lon="-1.1995">
        <ele>18</ele>
        <time>2019-08-08T14:32:45Z</time>
      </trkpt>
      <trkpt lat="44.48468" lon="-1.1995">
        <ele>18</ele>
        <time>2019-08-08T14:32:50Z</time>
      </trkpt>
      <trkpt lat="44.48468" lon="-1.1995">
        <ele>18</ele>
        <time>2019-08-08T14:32:55Z</time>
      </trkpt>
      <trkpt lat="44.48468" lon="-1.1995">
        <ele>18</ele>
        <time>2019-08-08T14:33:00Z</time>
      </trkpt>
      <trkpt lat="44.48468" lon="-1.1995">
        <ele>18</ele>
        <time>2019-08-08T14:33:05Z</time>
      </trkpt>
      <trkpt lat="44.48467" lon="-1.1995">
        <ele>18</ele>
        <time>2019-08-08T14:33:10Z</time>
      </trkpt>
      <trkpt lat="44.48467" lon="-1.1995">
        <ele>18</ele>
        <time>2019-08-08T14:33:15Z</time>
      </trkpt>
      <trkpt lat="44.48468" lon="-1.19947">
        <ele>18</ele>
        <time>2019-08-08T14:33:20Z</time>
      </trkpt>
      <trkpt lat="44.48468" lon="-1.19949">
        <ele>18</ele>
        <time>2019-08-08T14:33:30Z</time>
      </trkpt>
      <trkpt lat="44.48467" lon="-1.19951">
        <ele>18</ele>
        <time>2019-08-08T14:33:35Z</time>
      </trkpt>
      <trkpt lat="44.48467" lon="-1.19953">
        <ele>18</ele>
        <time>2019-08-08T14:33:40Z</time>
      </trkpt>
      <trkpt lat="44.48468" lon="-1.19952">
        <ele>18</ele>
        <time>2019-08-08T14:33:45Z</time>
      </trkpt>
      <trkpt lat="44.48467" lon="-1.19953">
        <ele>18</ele>
        <time>2019-08-08T14:33:50Z</time>
      </trkpt>
      <trkpt lat="44.48467" lon="-1.19953">
        <ele>18</ele>
        <time>2019-08-08T14:33:55Z</time>
      </trkpt>
      <trkpt lat="44.48467" lon="-1.19953">
        <ele>18</ele>
        <time>2019-08-08T14:34:00Z</time>
      </trkpt>
      <trkpt lat="44.48467" lon="-1.19953">
        <ele>18</ele>
        <time>2019-08-08T14:34:05Z</time>
      </trkpt>
      <trkpt lat="44.48468" lon="-1.19953">
        <ele>18</ele>
        <time>2019-08-08T14:34:10Z</time>
      </trkpt>
      <trkpt lat="44.48468" lon="-1.19953">
        <ele>18</ele>
        <time>2019-08-08T14:34:20Z</time>
      </trkpt>
      <trkpt lat="44.48468" lon="-1.19953">
        <ele>18</ele>
        <time>2019-08-08T14:34:25Z</time>
      </trkpt>
      <trkpt lat="44.48468" lon="-1.19953">
        <ele>18</ele>
        <time>2019-08-08T14:34:30Z</time>
      </trkpt>
      <trkpt lat="44.48466" lon="-1.19952">
        <ele>18</ele>
        <time>2019-08-08T14:34:35Z</time>
      </trkpt>
      <trkpt lat="44.48466" lon="-1.19952">
        <ele>18</ele>
        <time>2019-08-08T14:34:40Z</time>
      </trkpt>
      <trkpt lat="44.48466" lon="-1.19952">
        <ele>18</ele>
        <time>2019-08-08T14:34:45Z</time>
      </trkpt>
      <trkpt lat="44.48466" lon="-1.19952">
        <ele>18</ele>
        <time>2019-08-08T14:34:50Z</time>
      </trkpt>
      <trkpt lat="44.48466" lon="-1.19952">
        <ele>18</ele>
        <time>2019-08-08T14:34:55Z</time>
      </trkpt>
      <trkpt lat="44.48466" lon="-1.19952">
        <ele>18</ele>
        <time>2019-08-08T14:35:05Z</time>
      </trkpt>
      <trkpt lat="44.48466" lon="-1.19952">
        <ele>18</ele>
        <time>2019-08-08T14:35:10Z</time>
      </trkpt>
      <trkpt lat="44.48466" lon="-1.19952">
        <ele>18</ele>
        <time>2019-08-08T14:35:15Z</time>
      </trkpt>
      <trkpt lat="44.48466" lon="-1.19952">
        <ele>18</ele>
        <time>2019-08-08T14:35:20Z</time>
      </trkpt>
      <trkpt lat="44.48466" lon="-1.19952">
        <ele>18</ele>
        <time>2019-08-08T14:35:25Z</time>
      </trkpt>
      <trkpt lat="44.48466" lon="-1.19952">
        <ele>18</ele>
        <time>2019-08-08T14:35:30Z</time>
      </trkpt>
      <trkpt lat="44.48466" lon="-1.19952">
        <ele>18</ele>
        <time>2019-08-08T14:35:35Z</time>
      </trkpt>
      <trkpt lat="44.48466" lon="-1.19952">
        <ele>18</ele>
        <time>2019-08-08T14:35:40Z</time>
      </trkpt>
      <trkpt lat="44.48466" lon="-1.19952">
        <ele>18</ele>
        <time>2019-08-08T14:35:45Z</time>
      </trkpt>
      <trkpt lat="44.48466" lon="-1.19952">
        <ele>18</ele>
        <time>2019-08-08T14:35:55Z</time>
      </trkpt>
      <trkpt lat="44.48466" lon="-1.19952">
        <ele>18</ele>
        <time>2019-08-08T14:36:00Z</time>
      </trkpt>
      <trkpt lat="44.48466" lon="-1.19952">
        <ele>18</ele>
        <time>2019-08-08T14:36:05Z</time>
      </trkpt>
      <trkpt lat="44.48466" lon="-1.19952">
        <ele>18</ele>
        <time>2019-08-08T14:36:10Z</time>
      </trkpt>
      <trkpt lat="44.48466" lon="-1.19952">
        <ele>18</ele>
        <time>2019-08-08T14:36:15Z</time>
      </trkpt>
      <trkpt lat="44.48466" lon="-1.19952">
        <ele>18</ele>
        <time>2019-08-08T14:36:20Z</time>
      </trkpt>
      <trkpt lat="44.48466" lon="-1.19952">
        <ele>18</ele>
        <time>2019-08-08T14:36:25Z</time>
      </trkpt>
      <trkpt lat="44.48465" lon="-1.19952">
        <ele>18</ele>
        <time>2019-08-08T14:36:30Z</time>
      </trkpt>
      <trkpt lat="44.48465" lon="-1.19953">
        <ele>18</ele>
        <time>2019-08-08T14:36:40Z</time>
      </trkpt>
      <trkpt lat="44.48465" lon="-1.19952">
        <ele>18</ele>
        <time>2019-08-08T14:36:45Z</time>
      </trkpt>
      <trkpt lat="44.48465" lon="-1.19952">
        <ele>18</ele>
        <time>2019-08-08T14:36:50Z</time>
      </trkpt>
      <trkpt lat="44.48466" lon="-1.19952">
        <ele>18</ele>
        <time>2019-08-08T14:36:55Z</time>
      </trkpt>
      <trkpt lat="44.48466" lon="-1.19952">
        <ele>18</ele>
        <time>2019-08-08T14:37:00Z</time>
      </trkpt>
      <trkpt lat="44.48466" lon="-1.19952">
        <ele>18</ele>
        <time>2019-08-08T14:37:05Z</time>
      </trkpt>
      <trkpt lat="44.48466" lon="-1.19952">
        <ele>18</ele>
        <time>2019-08-08T14:37:10Z</time>
      </trkpt>
      <trkpt lat="44.48466" lon="-1.19952">
        <ele>18</ele>
        <time>2019-08-08T14:37:15Z</time>
      </trkpt>
      <trkpt lat="44.48466" lon="-1.19952">
        <ele>18</ele>
        <time>2019-08-08T14:37:20Z</time>
      </trkpt>
      <trkpt lat="44.48465" lon="-1.19955">
        <ele>18</ele>
        <time>2019-08-08T14:37:30Z</time>
      </trkpt>
      <trkpt lat="44.48464" lon="-1.19954">
        <ele>18</ele>
        <time>2019-08-08T14:37:35Z</time>
      </trkpt>
      <trkpt lat="44.48465" lon="-1.19954">
        <ele>18</ele>
        <time>2019-08-08T14:37:40Z</time>
      </trkpt>
      <trkpt lat="44.48465" lon="-1.19954">
        <ele>18</ele>
        <time>2019-08-08T14:37:45Z</time>
      </trkpt>
      <trkpt lat="44.48466" lon="-1.19954">
        <ele>18</ele>
        <time>2019-08-08T14:37:50Z</time>
      </trkpt>
      <trkpt lat="44.48467" lon="-1.19954">
        <ele>18</ele>
        <time>2019-08-08T14:37:55Z</time>
      </trkpt>
      <trkpt lat="44.48467" lon="-1.19953">
        <ele>18</ele>
        <time>2019-08-08T14:38:00Z</time>
      </trkpt>
      <trkpt lat="44.48467" lon="-1.19952">
        <ele>18</ele>
        <time>2019-08-08T14:38:05Z</time>
      </trkpt>
      <trkpt lat="44.48467" lon="-1.19952">
        <ele>18</ele>
        <time>2019-08-08T14:38:15Z</time>
      </trkpt>
      <trkpt lat="44.48467" lon="-1.19952">
        <ele>18</ele>
        <time>2019-08-08T14:38:20Z</time>
      </trkpt>
      <trkpt lat="44.48467" lon="-1.19952">
        <ele>18</ele>
        <time>2019-08-08T14:38:25Z</time>
      </trkpt>
      <trkpt lat="44.48467" lon="-1.19952">
        <ele>18</ele>
        <time>2019-08-08T14:38:30Z</time>
      </trkpt>
      <trkpt lat="44.48468" lon="-1.19952">
        <ele>18</ele>
        <time>2019-08-08T14:38:35Z</time>
      </trkpt>
      <trkpt lat="44.48467" lon="-1.19952">
        <ele>18</ele>
        <time>2019-08-08T14:38:40Z</time>
      </trkpt>
      <trkpt lat="44.48467" lon="-1.19953">
        <ele>18</ele>
        <time>2019-08-08T14:38:45Z</time>
      </trkpt>
      <trkpt lat="44.48467" lon="-1.19953">
        <ele>18</ele>
        <time>2019-08-08T14:38:50Z</time>
      </trkpt>
      <trkpt lat="44.48467" lon="-1.19953">
        <ele>18</ele>
        <time>2019-08-08T14:38:55Z</time>
      </trkpt>
      <trkpt lat="44.48467" lon="-1.19953">
        <ele>18</ele>
        <time>2019-08-08T14:39:05Z</time>
      </trkpt>
      <trkpt lat="44.48467" lon="-1.19953">
        <ele>18</ele>
        <time>2019-08-08T14:39:10Z</time>
      </trkpt>
      <trkpt lat="44.48467" lon="-1.19953">
        <ele>18</ele>
        <time>2019-08-08T14:39:15Z</time>
      </trkpt>
      <trkpt lat="44.48467" lon="-1.19953">
        <ele>18</ele>
        <time>2019-08-08T14:39:20Z</time>
      </trkpt>
      <trkpt lat="44.48467" lon="-1.19953">
        <ele>18</ele>
        <time>2019-08-08T14:39:25Z</time>
      </trkpt>
      <trkpt lat="44.48467" lon="-1.19953">
        <ele>18</ele>
        <time>2019-08-08T14:39:30Z</time>
      </trkpt>
      <trkpt lat="44.48467" lon="-1.19953">
        <ele>18</ele>
        <time>2019-08-08T14:39:35Z</time>
      </trkpt>
      <trkpt lat="44.48468" lon="-1.19953">
        <ele>18</ele>
        <time>2019-08-08T14:39:40Z</time>
      </trkpt>
      <trkpt lat="44.48468" lon="-1.19953">
        <ele>18</ele>
        <time>2019-08-08T14:39:50Z</time>
      </trkpt>
      <trkpt lat="44.48468" lon="-1.19953">
        <ele>18</ele>
        <time>2019-08-08T14:39:55Z</time>
      </trkpt>
      <trkpt lat="44.48468" lon="-1.19953">
        <ele>18</ele>
        <time>2019-08-08T14:40:00Z</time>
      </trkpt>
      <trkpt lat="44.48467" lon="-1.19953">
        <ele>18</ele>
        <time>2019-08-08T14:40:05Z</time>
      </trkpt>
      <trkpt lat="44.48467" lon="-1.19953">
        <ele>18</ele>
        <time>2019-08-08T14:40:10Z</time>
      </trkpt>
      <trkpt lat="44.48467" lon="-1.19953">
        <ele>18</ele>
        <time>2019-08-08T14:40:15Z</time>
      </trkpt>
      <trkpt lat="44.48467" lon="-1.19953">
        <ele>18</ele>
        <time>2019-08-08T14:40:20Z</time>
      </trkpt>
      <trkpt lat="44.48467" lon="-1.19953">
        <ele>18</ele>
        <time>2019-08-08T14:40:25Z</time>
      </trkpt>
      <trkpt lat="44.48467" lon="-1.19953">
        <ele>18</ele>
        <time>2019-08-08T14:40:35Z</time>
      </trkpt>
      <trkpt lat="44.48467" lon="-1.19953">
        <ele>18</ele>
        <time>2019-08-08T14:40:40Z</time>
      </trkpt>
      <trkpt lat="44.48467" lon="-1.19953">
        <ele>18</ele>
        <time>2019-08-08T14:40:45Z</time>
      </trkpt>
      <trkpt lat="44.48467" lon="-1.19953">
        <ele>18</ele>
        <time>2019-08-08T14:40:50Z</time>
      </trkpt>
      <trkpt lat="44.48467" lon="-1.19953">
        <ele>18</ele>
        <time>2019-08-08T14:40:55Z</time>
      </trkpt>
      <trkpt lat="44.48467" lon="-1.19953">
        <ele>18</ele>
        <time>2019-08-08T14:41:00Z</time>
      </trkpt>
      <trkpt lat="44.48467" lon="-1.19953">
        <ele>18</ele>
        <time>2019-08-08T14:41:05Z</time>
      </trkpt>
      <trkpt lat="44.48467" lon="-1.19953">
        <ele>18</ele>
        <time>2019-08-08T14:41:10Z</time>
      </trkpt>
      <trkpt lat="44.48467" lon="-1.19953">
        <ele>18</ele>
        <time>2019-08-08T14:41:15Z</time>
      </trkpt>
      <trkpt lat="44.48467" lon="-1.19953">
        <ele>18</ele>
        <time>2019-08-08T14:41:25Z</time>
      </trkpt>
      <trkpt lat="44.48467" lon="-1.19953">
        <ele>18</ele>
        <time>2019-08-08T14:41:30Z</time>
      </trkpt>
      <trkpt lat="44.48467" lon="-1.19953">
        <ele>18</ele>
        <time>2019-08-08T14:41:35Z</time>
      </trkpt>
      <trkpt lat="44.48467" lon="-1.19954">
        <ele>18</ele>
        <time>2019-08-08T14:41:40Z</time>
      </trkpt>
      <trkpt lat="44.48466" lon="-1.19955">
        <ele>18</ele>
        <time>2019-08-08T14:41:45Z</time>
      </trkpt>
      <trkpt lat="44.48465" lon="-1.19956">
        <ele>18</ele>
        <time>2019-08-08T14:41:50Z</time>
      </trkpt>
      <trkpt lat="44.48467" lon="-1.19955">
        <ele>18</ele>
        <time>2019-08-08T14:41:55Z</time>
      </trkpt>
      <trkpt lat="44.48466" lon="-1.19952">
        <ele>18</ele>
        <time>2019-08-08T14:42:00Z</time>
      </trkpt>
      <trkpt lat="44.48467" lon="-1.1995">
        <ele>18</ele>
        <time>2019-08-08T14:42:10Z</time>
      </trkpt>
      <trkpt lat="44.48467" lon="-1.1995">
        <ele>18</ele>
        <time>2019-08-08T14:42:15Z</time>
      </trkpt>
      <trkpt lat="44.48467" lon="-1.1995">
        <ele>18</ele>
        <time>2019-08-08T14:42:20Z</time>
      </trkpt>
      <trkpt lat="44.48467" lon="-1.1995">
        <ele>18</ele>
        <time>2019-08-08T14:42:25Z</time>
      </trkpt>
      <trkpt lat="44.48467" lon="-1.1995">
        <ele>18</ele>
        <time>2019-08-08T14:42:30Z</time>
      </trkpt>
      <trkpt lat="44.48467" lon="-1.1995">
        <ele>18</ele>
        <time>2019-08-08T14:42:35Z</time>
      </trkpt>
      <trkpt lat="44.48467" lon="-1.1995">
        <ele>18</ele>
        <time>2019-08-08T14:42:40Z</time>
      </trkpt>
      <trkpt lat="44.48467" lon="-1.1995">
        <ele>18</ele>
        <time>2019-08-08T14:42:45Z</time>
      </trkpt>
      <trkpt lat="44.48467" lon="-1.1995">
        <ele>18</ele>
        <time>2019-08-08T14:42:50Z</time>
      </trkpt>
      <trkpt lat="44.48467" lon="-1.1995">
        <ele>18</ele>
        <time>2019-08-08T14:43:00Z</time>
      </trkpt>
      <trkpt lat="44.48467" lon="-1.1995">
        <ele>18</ele>
        <time>2019-08-08T14:43:05Z</time>
      </trkpt>
      <trkpt lat="44.48467" lon="-1.1995">
        <ele>18</ele>
        <time>2019-08-08T14:43:10Z</time>
      </trkpt>
      <trkpt lat="44.48467" lon="-1.19951">
        <ele>18</ele>
        <time>2019-08-08T14:43:15Z</time>
      </trkpt>
      <trkpt lat="44.48466" lon="-1.1995">
        <ele>18</ele>
        <time>2019-08-08T14:43:20Z</time>
      </trkpt>
      <trkpt lat="44.48467" lon="-1.19948">
        <ele>18</ele>
        <time>2019-08-08T14:43:25Z</time>
      </trkpt>
      <trkpt lat="44.48467" lon="-1.19948">
        <ele>18</ele>
        <time>2019-08-08T14:43:30Z</time>
      </trkpt>
      <trkpt lat="44.48467" lon="-1.19948">
        <ele>18</ele>
        <time>2019-08-08T14:43:35Z</time>
      </trkpt>
      <trkpt lat="44.48467" lon="-1.19948">
        <ele>18</ele>
        <time>2019-08-08T14:43:45Z</time>
      </trkpt>
      <trkpt lat="44.48467" lon="-1.19948">
        <ele>18</ele>
        <time>2019-08-08T14:43:50Z</time>
      </trkpt>
      <trkpt lat="44.48468" lon="-1.19948">
        <ele>18</ele>
        <time>2019-08-08T14:43:55Z</time>
      </trkpt>
      <trkpt lat="44.48468" lon="-1.19947">
        <ele>18</ele>
        <time>2019-08-08T14:44:00Z</time>
      </trkpt>
      <trkpt lat="44.48468" lon="-1.19947">
        <ele>18</ele>
        <time>2019-08-08T14:44:05Z</time>
      </trkpt>
      <trkpt lat="44.48468" lon="-1.19947">
        <ele>18</ele>
        <time>2019-08-08T14:44:10Z</time>
      </trkpt>
      <trkpt lat="44.48468" lon="-1.19947">
        <ele>18</ele>
        <time>2019-08-08T14:44:15Z</time>
      </trkpt>
      <trkpt lat="44.48468" lon="-1.19947">
        <ele>18</ele>
        <time>2019-08-08T14:44:20Z</time>
      </trkpt>
      <trkpt lat="44.48468" lon="-1.19947">
        <ele>18</ele>
        <time>2019-08-08T14:44:25Z</time>
      </trkpt>
      <trkpt lat="44.48468" lon="-1.19947">
        <ele>18</ele>
        <time>2019-08-08T14:44:35Z</time>
      </trkpt>
      <trkpt lat="44.48468" lon="-1.19948">
        <ele>18</ele>
        <time>2019-08-08T14:44:40Z</time>
      </trkpt>
      <trkpt lat="44.48468" lon="-1.19948">
        <ele>18</ele>
        <time>2019-08-08T14:44:45Z</time>
      </trkpt>
      <trkpt lat="44.48468" lon="-1.19948">
        <ele>18</ele>
        <time>2019-08-08T14:44:50Z</time>
      </trkpt>
      <trkpt lat="44.48468" lon="-1.19948">
        <ele>18</ele>
        <time>2019-08-08T14:44:55Z</time>
      </trkpt>
      <trkpt lat="44.48468" lon="-1.19948">
        <ele>18</ele>
        <time>2019-08-08T14:45:00Z</time>
      </trkpt>
      <trkpt lat="44.48468" lon="-1.19948">
        <ele>18</ele>
        <time>2019-08-08T14:45:05Z</time>
      </trkpt>
      <trkpt lat="44.48468" lon="-1.19947">
        <ele>18</ele>
        <time>2019-08-08T14:45:10Z</time>
      </trkpt>
      <trkpt lat="44.4847" lon="-1.19946">
        <ele>18</ele>
        <time>2019-08-08T14:45:20Z</time>
      </trkpt>
      <trkpt lat="44.4847" lon="-1.19946">
        <ele>18</ele>
        <time>2019-08-08T14:45:25Z</time>
      </trkpt>
      <trkpt lat="44.4847" lon="-1.19947">
        <ele>18</ele>
        <time>2019-08-08T14:45:30Z</time>
      </trkpt>
      <trkpt lat="44.4847" lon="-1.19948">
        <ele>18</ele>
        <time>2019-08-08T14:45:35Z</time>
      </trkpt>
      <trkpt lat="44.4847" lon="-1.19948">
        <ele>18</ele>
        <time>2019-08-08T14:45:40Z</time>
      </trkpt>
      <trkpt lat="44.4847" lon="-1.19948">
        <ele>18</ele>
        <time>2019-08-08T14:45:45Z</time>
      </trkpt>
      <trkpt lat="44.4847" lon="-1.19948">
        <ele>18</ele>
        <time>2019-08-08T14:45:50Z</time>
      </trkpt>
      <trkpt lat="44.4847" lon="-1.19948">
        <ele>18</ele>
        <time>2019-08-08T14:45:55Z</time>
      </trkpt>
      <trkpt lat="44.4847" lon="-1.19948">
        <ele>18</ele>
        <time>2019-08-08T14:46:00Z</time>
      </trkpt>
      <trkpt lat="44.4847" lon="-1.19948">
        <ele>18</ele>
        <time>2019-08-08T14:46:10Z</time>
      </trkpt>
      <trkpt lat="44.4847" lon="-1.19948">
        <ele>18</ele>
        <time>2019-08-08T14:46:15Z</time>
      </trkpt>
      <trkpt lat="44.4847" lon="-1.19948">
        <ele>18</ele>
        <time>2019-08-08T14:46:20Z</time>
      </trkpt>
      <trkpt lat="44.4847" lon="-1.19949">
        <ele>18</ele>
        <time>2019-08-08T14:46:25Z</time>
      </trkpt>
      <trkpt lat="44.48468" lon="-1.19947">
        <ele>18</ele>
        <time>2019-08-08T14:46:30Z</time>
      </trkpt>
      <trkpt lat="44.48467" lon="-1.19952">
        <ele>18</ele>
        <time>2019-08-08T14:46:35Z</time>
      </trkpt>
      <trkpt lat="44.48465" lon="-1.19949">
        <ele>18</ele>
        <time>2019-08-08T14:46:40Z</time>
      </trkpt>
      <trkpt lat="44.48466" lon="-1.19948">
        <ele>18</ele>
        <time>2019-08-08T14:46:45Z</time>
      </trkpt>
      <trkpt lat="44.48464" lon="-1.19946">
        <ele>18</ele>
        <time>2019-08-08T14:46:55Z</time>
      </trkpt>
      <trkpt lat="44.48465" lon="-1.19947">
        <ele>18</ele>
        <time>2019-08-08T14:47:00Z</time>
      </trkpt>
      <trkpt lat="44.48465" lon="-1.19947">
        <ele>18</ele>
        <time>2019-08-08T14:47:05Z</time>
      </trkpt>
      <trkpt lat="44.48465" lon="-1.19947">
        <ele>18</ele>
        <time>2019-08-08T14:47:10Z</time>
      </trkpt>
      <trkpt lat="44.48465" lon="-1.19947">
        <ele>18</ele>
        <time>2019-08-08T14:47:15Z</time>
      </trkpt>
      <trkpt lat="44.48465" lon="-1.19946">
        <ele>18</ele>
        <time>2019-08-08T14:47:20Z</time>
      </trkpt>
      <trkpt lat="44.48465" lon="-1.19946">
        <ele>18</ele>
        <time>2019-08-08T14:47:25Z</time>
      </trkpt>
      <trkpt lat="44.48465" lon="-1.19946">
        <ele>18</ele>
        <time>2019-08-08T14:47:30Z</time>
      </trkpt>
      <trkpt lat="44.48465" lon="-1.19946">
        <ele>18</ele>
        <time>2019-08-08T14:47:35Z</time>
      </trkpt>
      <trkpt lat="44.48465" lon="-1.19945">
        <ele>18</ele>
        <time>2019-08-08T14:47:45Z</time>
      </trkpt>
      <trkpt lat="44.48468" lon="-1.19945">
        <ele>18</ele>
        <time>2019-08-08T14:47:50Z</time>
      </trkpt>
      <trkpt lat="44.48468" lon="-1.19945">
        <ele>18</ele>
        <time>2019-08-08T14:47:55Z</time>
      </trkpt>
      <trkpt lat="44.48468" lon="-1.19945">
        <ele>18</ele>
        <time>2019-08-08T14:48:00Z</time>
      </trkpt>
      <trkpt lat="44.48468" lon="-1.19945">
        <ele>18</ele>
        <time>2019-08-08T14:48:05Z</time>
      </trkpt>
      <trkpt lat="44.48468" lon="-1.19945">
        <ele>18</ele>
        <time>2019-08-08T14:48:10Z</time>
      </trkpt>
      <trkpt lat="44.48468" lon="-1.19945">
        <ele>18</ele>
        <time>2019-08-08T14:48:15Z</time>
      </trkpt>
      <trkpt lat="44.48468" lon="-1.19945">
        <ele>18</ele>
        <time>2019-08-08T14:48:20Z</time>
      </trkpt>
      <trkpt lat="44.48468" lon="-1.19945">
        <ele>18</ele>
        <time>2019-08-08T14:48:30Z</time>
      </trkpt>
      <trkpt lat="44.48468" lon="-1.19945">
        <ele>18</ele>
        <time>2019-08-08T14:48:35Z</time>
      </trkpt>
      <trkpt lat="44.48468" lon="-1.19945">
        <ele>18</ele>
        <time>2019-08-08T14:48:40Z</time>
      </trkpt>
      <trkpt lat="44.48468" lon="-1.19945">
        <ele>18</ele>
        <time>2019-08-08T14:48:45Z</time>
      </trkpt>
      <trkpt lat="44.48466" lon="-1.19946">
        <ele>18</ele>
        <time>2019-08-08T14:48:50Z</time>
      </trkpt>
      <trkpt lat="44.48465" lon="-1.19945">
        <ele>18</ele>
        <time>2019-08-08T14:48:55Z</time>
      </trkpt>
      <trkpt lat="44.48465" lon="-1.19945">
        <ele>18</ele>
        <time>2019-08-08T14:49:00Z</time>
      </trkpt>
      <trkpt lat="44.48465" lon="-1.19946">
        <ele>18</ele>
        <time>2019-08-08T14:49:05Z</time>
      </trkpt>
      <trkpt lat="44.48465" lon="-1.19947">
        <ele>18</ele>
        <time>2019-08-08T14:49:10Z</time>
      </trkpt>
      <trkpt lat="44.48464" lon="-1.19946">
        <ele>18</ele>
        <time>2019-08-08T14:49:20Z</time>
      </trkpt>
      <trkpt lat="44.48464" lon="-1.19946">
        <ele>18</ele>
        <time>2019-08-08T14:49:25Z</time>
      </trkpt>
      <trkpt lat="44.48464" lon="-1.19946">
        <ele>18</ele>
        <time>2019-08-08T14:49:30Z</time>
      </trkpt>
      <trkpt lat="44.48464" lon="-1.19946">
        <ele>18</ele>
        <time>2019-08-08T14:49:35Z</time>
      </trkpt>
      <trkpt lat="44.48464" lon="-1.19946">
        <ele>18</ele>
        <time>2019-08-08T14:49:40Z</time>
      </trkpt>
      <trkpt lat="44.48464" lon="-1.19946">
        <ele>18</ele>
        <time>2019-08-08T14:49:45Z</time>
      </trkpt>
      <trkpt lat="44.48465" lon="-1.19947">
        <ele>18</ele>
        <time>2019-08-08T14:49:50Z</time>
      </trkpt>
      <trkpt lat="44.48466" lon="-1.19947">
        <ele>18</ele>
        <time>2019-08-08T14:49:55Z</time>
      </trkpt>
      <trkpt lat="44.48463" lon="-1.19952">
        <ele>18</ele>
        <time>2019-08-08T14:50:05Z</time>
      </trkpt>
      <trkpt lat="44.48464" lon="-1.19951">
        <ele>18</ele>
        <time>2019-08-08T14:50:10Z</time>
      </trkpt>
      <trkpt lat="44.48465" lon="-1.19955">
        <ele>18</ele>
        <time>2019-08-08T14:50:15Z</time>
      </trkpt>
      <trkpt lat="44.48465" lon="-1.19953">
        <ele>18</ele>
        <time>2019-08-08T14:50:20Z</time>
      </trkpt>
      <trkpt lat="44.48465" lon="-1.1995">
        <ele>18</ele>
        <time>2019-08-08T14:50:25Z</time>
      </trkpt>
      <trkpt lat="44.48465" lon="-1.19951">
        <ele>18</ele>
        <time>2019-08-08T14:50:30Z</time>
      </trkpt>
      <trkpt lat="44.48464" lon="-1.19952">
        <ele>18</ele>
        <time>2019-08-08T14:50:35Z</time>
      </trkpt>
      <trkpt lat="44.48464" lon="-1.19952">
        <ele>18</ele>
        <time>2019-08-08T14:50:40Z</time>
      </trkpt>
      <trkpt lat="44.48464" lon="-1.19952">
        <ele>18</ele>
        <time>2019-08-08T14:50:45Z</time>
      </trkpt>
      <trkpt lat="44.48466" lon="-1.19953">
        <ele>18</ele>
        <time>2019-08-08T14:50:55Z</time>
      </trkpt>
      <trkpt lat="44.48466" lon="-1.19953">
        <ele>18</ele>
        <time>2019-08-08T14:51:00Z</time>
      </trkpt>
      <trkpt lat="44.48467" lon="-1.19953">
        <ele>18</ele>
        <time>2019-08-08T14:51:05Z</time>
      </trkpt>
      <trkpt lat="44.48464" lon="-1.19953">
        <ele>18</ele>
        <time>2019-08-08T14:51:10Z</time>
      </trkpt>
      <trkpt lat="44.4846" lon="-1.19954">
        <ele>18</ele>
        <time>2019-08-08T14:51:15Z</time>
      </trkpt>
      <trkpt lat="44.48461" lon="-1.19954">
        <ele>18</ele>
        <time>2019-08-08T14:51:20Z</time>
      </trkpt>
      <trkpt lat="44.48463" lon="-1.19956">
        <ele>18</ele>
        <time>2019-08-08T14:51:25Z</time>
      </trkpt>
      <trkpt lat="44.48468" lon="-1.19953">
        <ele>18</ele>
        <time>2019-08-08T14:51:30Z</time>
      </trkpt>
      <trkpt lat="44.48464" lon="-1.19952">
        <ele>18</ele>
        <time>2019-08-08T14:51:40Z</time>
      </trkpt>
      <trkpt lat="44.48464" lon="-1.19952">
        <ele>18</ele>
        <time>2019-08-08T14:51:45Z</time>
      </trkpt>
      <trkpt lat="44.48464" lon="-1.19952">
        <ele>18</ele>
        <time>2019-08-08T14:51:50Z</time>
      </trkpt>
      <trkpt lat="44.48464" lon="-1.19952">
        <ele>18</ele>
        <time>2019-08-08T14:51:55Z</time>
      </trkpt>
      <trkpt lat="44.48464" lon="-1.19952">
        <ele>18</ele>
        <time>2019-08-08T14:52:00Z</time>
      </trkpt>
      <trkpt lat="44.48464" lon="-1.19951">
        <ele>18</ele>
        <time>2019-08-08T14:52:05Z</time>
      </trkpt>
      <trkpt lat="44.48464" lon="-1.19952">
        <ele>18</ele>
        <time>2019-08-08T14:52:10Z</time>
      </trkpt>
      <trkpt lat="44.48464" lon="-1.19952">
        <ele>18</ele>
        <time>2019-08-08T14:52:15Z</time>
      </trkpt>
      <trkpt lat="44.48464" lon="-1.19952">
        <ele>18</ele>
        <time>2019-08-08T14:52:20Z</time>
      </trkpt>
      <trkpt lat="44.48464" lon="-1.19952">
        <ele>18</ele>
        <time>2019-08-08T14:52:30Z</time>
      </trkpt>
      <trkpt lat="44.48464" lon="-1.19952">
        <ele>18</ele>
        <time>2019-08-08T14:52:35Z</time>
      </trkpt>
      <trkpt lat="44.48464" lon="-1.19952">
        <ele>18</ele>
        <time>2019-08-08T14:52:40Z</time>
      </trkpt>
      <trkpt lat="44.48464" lon="-1.19952">
        <ele>18</ele>
        <time>2019-08-08T14:52:45Z</time>
      </trkpt>
      <trkpt lat="44.48464" lon="-1.19952">
        <ele>18</ele>
        <time>2019-08-08T14:52:50Z</time>
      </trkpt>
      <trkpt lat="44.48464" lon="-1.19952">
        <ele>18</ele>
        <time>2019-08-08T14:52:55Z</time>
      </trkpt>
      <trkpt lat="44.48464" lon="-1.19952">
        <ele>18</ele>
        <time>2019-08-08T14:53:00Z</time>
      </trkpt>
      <trkpt lat="44.48465" lon="-1.19951">
        <ele>18</ele>
        <time>2019-08-08T14:53:05Z</time>
      </trkpt>
      <trkpt lat="44.48465" lon="-1.19951">
        <ele>18</ele>
        <time>2019-08-08T14:53:15Z</time>
      </trkpt>
      <trkpt lat="44.48465" lon="-1.19951">
        <ele>18</ele>
        <time>2019-08-08T14:53:20Z</time>
      </trkpt>
      <trkpt lat="44.48468" lon="-1.19948">
        <ele>18</ele>
        <time>2019-08-08T14:53:25Z</time>
      </trkpt>
      <trkpt lat="44.48465" lon="-1.19944">
        <ele>18</ele>
        <time>2019-08-08T14:53:30Z</time>
      </trkpt>
      <trkpt lat="44.48463" lon="-1.19945">
        <ele>18</ele>
        <time>2019-08-08T14:53:35Z</time>
      </trkpt>
      <trkpt lat="44.48463" lon="-1.19945">
        <ele>18</ele>
        <time>2019-08-08T14:53:40Z</time>
      </trkpt>
      <trkpt lat="44.48463" lon="-1.19945">
        <ele>18</ele>
        <time>2019-08-08T14:53:45Z</time>
      </trkpt>
      <trkpt lat="44.48464" lon="-1.19947">
        <ele>18</ele>
        <time>2019-08-08T14:53:50Z</time>
      </trkpt>
      <trkpt lat="44.48465" lon="-1.1995">
        <ele>18</ele>
        <time>2019-08-08T14:53:55Z</time>
      </trkpt>
      <trkpt lat="44.48464" lon="-1.19953">
        <ele>18</ele>
        <time>2019-08-08T14:54:05Z</time>
      </trkpt>
      <trkpt lat="44.48463" lon="-1.19956">
        <ele>18</ele>
        <time>2019-08-08T14:54:10Z</time>
      </trkpt>
      <trkpt lat="44.48463" lon="-1.19957">
        <ele>18</ele>
        <time>2019-08-08T14:54:15Z</time>
      </trkpt>
      <trkpt lat="44.48463" lon="-1.19959">
        <ele>18</ele>
        <time>2019-08-08T14:54:20Z</time>
      </trkpt>
      <trkpt lat="44.48463" lon="-1.19958">
        <ele>18</ele>
        <time>2019-08-08T14:54:25Z</time>
      </trkpt>
      <trkpt lat="44.48465" lon="-1.19957">
        <ele>18</ele>
        <time>2019-08-08T14:54:30Z</time>
      </trkpt>
      <trkpt lat="44.48466" lon="-1.19955">
        <ele>18</ele>
        <time>2019-08-08T14:54:35Z</time>
      </trkpt>
      <trkpt lat="44.48466" lon="-1.19954">
        <ele>18</ele>
        <time>2019-08-08T14:54:40Z</time>
      </trkpt>
      <trkpt lat="44.48466" lon="-1.19955">
        <ele>18</ele>
        <time>2019-08-08T14:54:50Z</time>
      </trkpt>
      <trkpt lat="44.48465" lon="-1.19956">
        <ele>18</ele>
        <time>2019-08-08T14:54:55Z</time>
      </trkpt>
      <trkpt lat="44.48464" lon="-1.19958">
        <ele>18</ele>
        <time>2019-08-08T14:55:00Z</time>
      </trkpt>
      <trkpt lat="44.48464" lon="-1.19958">
        <ele>18</ele>
        <time>2019-08-08T14:55:05Z</time>
      </trkpt>
      <trkpt lat="44.48464" lon="-1.19958">
        <ele>18</ele>
        <time>2019-08-08T14:55:10Z</time>
      </trkpt>
      <trkpt lat="44.48464" lon="-1.19957">
        <ele>18</ele>
        <time>2019-08-08T14:55:15Z</time>
      </trkpt>
      <trkpt lat="44.48465" lon="-1.19956">
        <ele>18</ele>
        <time>2019-08-08T14:55:20Z</time>
      </trkpt>
      <trkpt lat="44.48465" lon="-1.19956">
        <ele>18</ele>
        <time>2019-08-08T14:55:25Z</time>
      </trkpt>
      <trkpt lat="44.48465" lon="-1.19956">
        <ele>18</ele>
        <time>2019-08-08T14:55:30Z</time>
      </trkpt>
      <trkpt lat="44.48466" lon="-1.19964">
        <ele>18</ele>
        <time>2019-08-08T14:55:40Z</time>
      </trkpt>
      <trkpt lat="44.48465" lon="-1.19965">
        <ele>18</ele>
        <time>2019-08-08T14:55:45Z</time>
      </trkpt>
      <trkpt lat="44.48466" lon="-1.19964">
        <ele>18</ele>
        <time>2019-08-08T14:55:50Z</time>
      </trkpt>
      <trkpt lat="44.48467" lon="-1.19963">
        <ele>18</ele>
        <time>2019-08-08T14:55:55Z</time>
      </trkpt>
      <trkpt lat="44.48467" lon="-1.19962">
        <ele>18</ele>
        <time>2019-08-08T14:56:00Z</time>
      </trkpt>
      <trkpt lat="44.48468" lon="-1.1996">
        <ele>18</ele>
        <time>2019-08-08T14:56:05Z</time>
      </trkpt>
      <trkpt lat="44.4847" lon="-1.19958">
        <ele>18</ele>
        <time>2019-08-08T14:56:10Z</time>
      </trkpt>
      <trkpt lat="44.4847" lon="-1.19957">
        <ele>18</ele>
        <time>2019-08-08T14:56:15Z</time>
      </trkpt>
      <trkpt lat="44.48468" lon="-1.19957">
        <ele>18</ele>
        <time>2019-08-08T14:56:25Z</time>
      </trkpt>
      <trkpt lat="44.48468" lon="-1.19957">
        <ele>18</ele>
        <time>2019-08-08T14:56:30Z</time>
      </trkpt>
      <trkpt lat="44.48468" lon="-1.19957">
        <ele>18</ele>
        <time>2019-08-08T14:56:35Z</time>
      </trkpt>
      <trkpt lat="44.48468" lon="-1.19957">
        <ele>18</ele>
        <time>2019-08-08T14:56:40Z</time>
      </trkpt>
      <trkpt lat="44.48468" lon="-1.19957">
        <ele>18</ele>
        <time>2019-08-08T14:56:45Z</time>
      </trkpt>
      <trkpt lat="44.48468" lon="-1.19957">
        <ele>18</ele>
        <time>2019-08-08T14:56:50Z</time>
      </trkpt>
      <trkpt lat="44.48467" lon="-1.19959">
        <ele>18</ele>
        <time>2019-08-08T14:56:55Z</time>
      </trkpt>
      <trkpt lat="44.48466" lon="-1.1996">
        <ele>18</ele>
        <time>2019-08-08T14:57:00Z</time>
      </trkpt>
      <trkpt lat="44.48466" lon="-1.19958">
        <ele>18</ele>
        <time>2019-08-08T14:57:10Z</time>
      </trkpt>
      <trkpt lat="44.48465" lon="-1.19959">
        <ele>18</ele>
        <time>2019-08-08T14:57:15Z</time>
      </trkpt>
      <trkpt lat="44.48466" lon="-1.1996">
        <ele>18</ele>
        <time>2019-08-08T14:57:20Z</time>
      </trkpt>
      <trkpt lat="44.48466" lon="-1.1996">
        <ele>18</ele>
        <time>2019-08-08T14:57:25Z</time>
      </trkpt>
      <trkpt lat="44.48466" lon="-1.19958">
        <ele>18</ele>
        <time>2019-08-08T14:57:30Z</time>
      </trkpt>
      <trkpt lat="44.48465" lon="-1.19958">
        <ele>18</ele>
        <time>2019-08-08T14:57:35Z</time>
      </trkpt>
      <trkpt lat="44.48464" lon="-1.19957">
        <ele>18</ele>
        <time>2019-08-08T14:57:40Z</time>
      </trkpt>
      <trkpt lat="44.48464" lon="-1.19955">
        <ele>18</ele>
        <time>2019-08-08T14:57:45Z</time>
      </trkpt>
      <trkpt lat="44.48465" lon="-1.19954">
        <ele>18</ele>
        <time>2019-08-08T14:57:50Z</time>
      </trkpt>
      <trkpt lat="44.48466" lon="-1.19953">
        <ele>18</ele>
        <time>2019-08-08T14:58:00Z</time>
      </trkpt>
      <trkpt lat="44.48465" lon="-1.19956">
        <ele>18</ele>
        <time>2019-08-08T14:58:05Z</time>
      </trkpt>
      <trkpt lat="44.48466" lon="-1.19962">
        <ele>18</ele>
        <time>2019-08-08T14:58:10Z</time>
      </trkpt>
      <trkpt lat="44.48469" lon="-1.19962">
        <ele>18</ele>
        <time>2019-08-08T14:58:15Z</time>
      </trkpt>
      <trkpt lat="44.48468" lon="-1.19962">
        <ele>18</ele>
        <time>2019-08-08T14:58:20Z</time>
      </trkpt>
      <trkpt lat="44.48468" lon="-1.1996">
        <ele>18</ele>
        <time>2019-08-08T14:58:25Z</time>
      </trkpt>
      <trkpt lat="44.48467" lon="-1.19958">
        <ele>18</ele>
        <time>2019-08-08T14:58:30Z</time>
      </trkpt>
      <trkpt lat="44.48467" lon="-1.19957">
        <ele>18</ele>
        <time>2019-08-08T14:58:35Z</time>
      </trkpt>
      <trkpt lat="44.48467" lon="-1.19952">
        <ele>18</ele>
        <time>2019-08-08T14:58:45Z</time>
      </trkpt>
      <trkpt lat="44.48468" lon="-1.19948">
        <ele>18</ele>
        <time>2019-08-08T14:58:50Z</time>
      </trkpt>
      <trkpt lat="44.48468" lon="-1.19946">
        <ele>18</ele>
        <time>2019-08-08T14:58:55Z</time>
      </trkpt>
      <trkpt lat="44.48468" lon="-1.19945">
        <ele>18</ele>
        <time>2019-08-08T14:59:00Z</time>
      </trkpt>
      <trkpt lat="44.4847" lon="-1.19942">
        <ele>18</ele>
        <time>2019-08-08T14:59:05Z</time>
      </trkpt>
      <trkpt lat="44.4847" lon="-1.1994">
        <ele>18</ele>
        <time>2019-08-08T14:59:10Z</time>
      </trkpt>
      <trkpt lat="44.4847" lon="-1.19938">
        <ele>18</ele>
        <time>2019-08-08T14:59:15Z</time>
      </trkpt>
      <trkpt lat="44.48471" lon="-1.19936">
        <ele>18</ele>
        <time>2019-08-08T14:59:20Z</time>
      </trkpt>
      <trkpt lat="44.4847" lon="-1.19933">
        <ele>18</ele>
        <time>2019-08-08T14:59:25Z</time>
      </trkpt>
      <trkpt lat="44.48472" lon="-1.1993">
        <ele>18</ele>
        <time>2019-08-08T14:59:35Z</time>
      </trkpt>
      <trkpt lat="44.48472" lon="-1.19928">
        <ele>18</ele>
        <time>2019-08-08T14:59:40Z</time>
      </trkpt>
      <trkpt lat="44.48473" lon="-1.19925">
        <ele>18</ele>
        <time>2019-08-08T14:59:45Z</time>
      </trkpt>
      <trkpt lat="44.48473" lon="-1.19921">
        <ele>18</ele>
        <time>2019-08-08T14:59:50Z</time>
      </trkpt>
      <trkpt lat="44.48473" lon="-1.19917">
        <ele>18</ele>
        <time>2019-08-08T14:59:55Z</time>
      </trkpt>
      <trkpt lat="44.48474" lon="-1.19913">
        <ele>18</ele>
        <time>2019-08-08T15:00:00Z</time>
      </trkpt>
      <trkpt lat="44.48474" lon="-1.19907">
        <ele>18</ele>
        <time>2019-08-08T15:00:05Z</time>
      </trkpt>
      <trkpt lat="44.48476" lon="-1.19901">
        <ele>18</ele>
        <time>2019-08-08T15:00:10Z</time>
      </trkpt>
      <trkpt lat="44.48478" lon="-1.19889">
        <ele>18</ele>
        <time>2019-08-08T15:00:20Z</time>
      </trkpt>
      <trkpt lat="44.48479" lon="-1.19884">
        <ele>18</ele>
        <time>2019-08-08T15:00:25Z</time>
      </trkpt>
      <trkpt lat="44.48481" lon="-1.19878">
        <ele>18</ele>
        <time>2019-08-08T15:00:30Z</time>
      </trkpt>
      <trkpt lat="44.48483" lon="-1.19871">
        <ele>18</ele>
        <time>2019-08-08T15:00:35Z</time>
      </trkpt>
      <trkpt lat="44.48485" lon="-1.19863">
        <ele>18</ele>
        <time>2019-08-08T15:00:40Z</time>
      </trkpt>
      <trkpt lat="44.48486" lon="-1.19853">
        <ele>18</ele>
        <time>2019-08-08T15:00:45Z</time>
      </trkpt>
      <trkpt lat="44.48484" lon="-1.19843">
        <ele>18</ele>
        <time>2019-08-08T15:00:50Z</time>
      </trkpt>
      <trkpt lat="44.48484" lon="-1.19836">
        <ele>18</ele>
        <time>2019-08-08T15:00:55Z</time>
      </trkpt>
      <trkpt lat="44.48483" lon="-1.19827">
        <ele>18</ele>
        <time>2019-08-08T15:01:00Z</time>
      </trkpt>
      <trkpt lat="44.48483" lon="-1.19807">
        <ele>18</ele>
        <time>2019-08-08T15:01:10Z</time>
      </trkpt>
      <trkpt lat="44.48484" lon="-1.19797">
        <ele>18</ele>
        <time>2019-08-08T15:01:15Z</time>
      </trkpt>
      <trkpt lat="44.48484" lon="-1.19788">
        <ele>18</ele>
        <time>2019-08-08T15:01:20Z</time>
      </trkpt>
      <trkpt lat="44.48485" lon="-1.1978">
        <ele>18</ele>
        <time>2019-08-08T15:01:25Z</time>
      </trkpt>
      <trkpt lat="44.48486" lon="-1.19772">
        <ele>18</ele>
        <time>2019-08-08T15:01:30Z</time>
      </trkpt>
      <trkpt lat="44.48487" lon="-1.19765">
        <ele>18</ele>
        <time>2019-08-08T15:01:35Z</time>
      </trkpt>
      <trkpt lat="44.48487" lon="-1.19757">
        <ele>18</ele>
        <time>2019-08-08T15:01:40Z</time>
      </trkpt>
      <trkpt lat="44.48488" lon="-1.19749">
        <ele>18</ele>
        <time>2019-08-08T15:01:45Z</time>
      </trkpt>
      <trkpt lat="44.48491" lon="-1.19734">
        <ele>18</ele>
        <time>2019-08-08T15:01:55Z</time>
      </trkpt>
      <trkpt lat="44.48493" lon="-1.19725">
        <ele>18</ele>
        <time>2019-08-08T15:02:00Z</time>
      </trkpt>
      <trkpt lat="44.48495" lon="-1.19716">
        <ele>18</ele>
        <time>2019-08-08T15:02:05Z</time>
      </trkpt>
      <trkpt lat="44.48497" lon="-1.19706">
        <ele>18</ele>
        <time>2019-08-08T15:02:10Z</time>
      </trkpt>
      <trkpt lat="44.48498" lon="-1.19696">
        <ele>18</ele>
        <time>2019-08-08T15:02:15Z</time>
      </trkpt>
      <trkpt lat="44.48499" lon="-1.19685">
        <ele>18</ele>
        <time>2019-08-08T15:02:20Z</time>
      </trkpt>
      <trkpt lat="44.48501" lon="-1.19675">
        <ele>18</ele>
        <time>2019-08-08T15:02:25Z</time>
      </trkpt>
      <trkpt lat="44.48503" lon="-1.19664">
        <ele>18</ele>
        <time>2019-08-08T15:02:30Z</time>
      </trkpt>
      <trkpt lat="44.48505" lon="-1.19654">
        <ele>18</ele>
        <time>2019-08-08T15:02:35Z</time>
      </trkpt>
      <trkpt lat="44.48508" lon="-1.19636">
        <ele>18</ele>
        <time>2019-08-08T15:02:45Z</time>
      </trkpt>
      <trkpt lat="44.48509" lon="-1.19626">
        <ele>18</ele>
        <time>2019-08-08T15:02:50Z</time>
      </trkpt>
      <trkpt lat="44.48511" lon="-1.19615">
        <ele>18</ele>
        <time>2019-08-08T15:02:55Z</time>
      </trkpt>
      <trkpt lat="44.48513" lon="-1.19604">
        <ele>18</ele>
        <time>2019-08-08T15:03:00Z</time>
      </trkpt>
      <trkpt lat="44.48514" lon="-1.19593">
        <ele>18</ele>
        <time>2019-08-08T15:03:05Z</time>
      </trkpt>
      <trkpt lat="44.48516" lon="-1.19583">
        <ele>18</ele>
        <time>2019-08-08T15:03:10Z</time>
      </trkpt>
      <trkpt lat="44.48517" lon="-1.19573">
        <ele>18</ele>
        <time>2019-08-08T15:03:15Z</time>
      </trkpt>
      <trkpt lat="44.48519" lon="-1.19563">
        <ele>18</ele>
        <time>2019-08-08T15:03:20Z</time>
      </trkpt>
      <trkpt lat="44.48523" lon="-1.19544">
        <ele>18</ele>
        <time>2019-08-08T15:03:30Z</time>
      </trkpt>
      <trkpt lat="44.48525" lon="-1.19535">
        <ele>18</ele>
        <time>2019-08-08T15:03:35Z</time>
      </trkpt>
      <trkpt lat="44.48525" lon="-1.19527">
        <ele>18</ele>
        <time>2019-08-08T15:03:40Z</time>
      </trkpt>
      <trkpt lat="44.48526" lon="-1.19519">
        <ele>18</ele>
        <time>2019-08-08T15:03:45Z</time>
      </trkpt>
      <trkpt lat="44.48527" lon="-1.19511">
        <ele>18</ele>
        <time>2019-08-08T15:03:50Z</time>
      </trkpt>
      <trkpt lat="44.48529" lon="-1.19502">
        <ele>18</ele>
        <time>2019-08-08T15:03:55Z</time>
      </trkpt>
      <trkpt lat="44.4853" lon="-1.19491">
        <ele>18</ele>
        <time>2019-08-08T15:04:00Z</time>
      </trkpt>
      <trkpt lat="44.48531" lon="-1.1948">
        <ele>18</ele>
        <time>2019-08-08T15:04:05Z</time>
      </trkpt>
      <trkpt lat="44.48531" lon="-1.19469">
        <ele>18</ele>
        <time>2019-08-08T15:04:10Z</time>
      </trkpt>
      <trkpt lat="44.48535" lon="-1.19444">
        <ele>18</ele>
        <time>2019-08-08T15:04:20Z</time>
      </trkpt>
      <trkpt lat="44.48538" lon="-1.1943">
        <ele>18</ele>
        <time>2019-08-08T15:04:25Z</time>
      </trkpt>
      <trkpt lat="44.4854" lon="-1.19416">
        <ele>18</ele>
        <time>2019-08-08T15:04:30Z</time>
      </trkpt>
      <trkpt lat="44.48541" lon="-1.19399">
        <ele>18</ele>
        <time>2019-08-08T15:04:35Z</time>
      </trkpt>
      <trkpt lat="44.48541" lon="-1.19382">
        <ele>18</ele>
        <time>2019-08-08T15:04:40Z</time>
      </trkpt>
      <trkpt lat="44.4854" lon="-1.19364">
        <ele>18</ele>
        <time>2019-08-08T15:04:45Z</time>
      </trkpt>
      <trkpt lat="44.4854" lon="-1.19348">
        <ele>18</ele>
        <time>2019-08-08T15:04:50Z</time>
      </trkpt>
      <trkpt lat="44.4854" lon="-1.19332">
        <ele>18</ele>
        <time>2019-08-08T15:04:55Z</time>
      </trkpt>
      <trkpt lat="44.48538" lon="-1.19301">
        <ele>18</ele>
        <time>2019-08-08T15:05:05Z</time>
      </trkpt>
      <trkpt lat="44.48537" lon="-1.19285">
        <ele>18</ele>
        <time>2019-08-08T15:05:10Z</time>
      </trkpt>
      <trkpt lat="44.48537" lon="-1.1927">
        <ele>18</ele>
        <time>2019-08-08T15:05:15Z</time>
      </trkpt>
      <trkpt lat="44.48537" lon="-1.19255">
        <ele>18</ele>
        <time>2019-08-08T15:05:20Z</time>
      </trkpt>
      <trkpt lat="44.48537" lon="-1.1924">
        <ele>18</ele>
        <time>2019-08-08T15:05:25Z</time>
      </trkpt>
      <trkpt lat="44.48537" lon="-1.19225">
        <ele>18</ele>
        <time>2019-08-08T15:05:30Z</time>
      </trkpt>
      <trkpt lat="44.48535" lon="-1.19211">
        <ele>18</ele>
        <time>2019-08-08T15:05:35Z</time>
      </trkpt>
      <trkpt lat="44.48536" lon="-1.19196">
        <ele>18</ele>
        <time>2019-08-08T15:05:40Z</time>
      </trkpt>
      <trkpt lat="44.48537" lon="-1.19182">
        <ele>18</ele>
        <time>2019-08-08T15:05:45Z</time>
      </trkpt>
      <trkpt lat="44.48539" lon="-1.19154">
        <ele>18</ele>
        <time>2019-08-08T15:05:55Z</time>
      </trkpt>
      <trkpt lat="44.4854" lon="-1.19139">
        <ele>18</ele>
        <time>2019-08-08T15:06:00Z</time>
      </trkpt>
      <trkpt lat="44.4854" lon="-1.19123">
        <ele>18</ele>
        <time>2019-08-08T15:06:05Z</time>
      </trkpt>
      <trkpt lat="44.48542" lon="-1.19106">
        <ele>18</ele>
        <time>2019-08-08T15:06:10Z</time>
      </trkpt>
      <trkpt lat="44.48542" lon="-1.19089">
        <ele>18</ele>
        <time>2019-08-08T15:06:15Z</time>
      </trkpt>
      <trkpt lat="44.48544" lon="-1.19073">
        <ele>18</ele>
        <time>2019-08-08T15:06:20Z</time>
      </trkpt>
      <trkpt lat="44.48545" lon="-1.19057">
        <ele>18</ele>
        <time>2019-08-08T15:06:25Z</time>
      </trkpt>
      <trkpt lat="44.48546" lon="-1.19042">
        <ele>18</ele>
        <time>2019-08-08T15:06:30Z</time>
      </trkpt>
      <trkpt lat="44.48545" lon="-1.19013">
        <ele>18</ele>
        <time>2019-08-08T15:06:40Z</time>
      </trkpt>
      <trkpt lat="44.48546" lon="-1.18998">
        <ele>18</ele>
        <time>2019-08-08T15:06:45Z</time>
      </trkpt>
      <trkpt lat="44.48546" lon="-1.1898">
        <ele>18</ele>
        <time>2019-08-08T15:06:50Z</time>
      </trkpt>
      <trkpt lat="44.48547" lon="-1.18964">
        <ele>18</ele>
        <time>2019-08-08T15:06:55Z</time>
      </trkpt>
      <trkpt lat="44.48548" lon="-1.18949">
        <ele>18</ele>
        <time>2019-08-08T15:07:00Z</time>
      </trkpt>
      <trkpt lat="44.48548" lon="-1.18934">
        <ele>18</ele>
        <time>2019-08-08T15:07:05Z</time>
      </trkpt>
      <trkpt lat="44.48549" lon="-1.18919">
        <ele>18</ele>
        <time>2019-08-08T15:07:10Z</time>
      </trkpt>
      <trkpt lat="44.4855" lon="-1.18903">
        <ele>18</ele>
        <time>2019-08-08T15:07:15Z</time>
      </trkpt>
      <trkpt lat="44.48551" lon="-1.18888">
        <ele>18</ele>
        <time>2019-08-08T15:07:20Z</time>
      </trkpt>
      <trkpt lat="44.48555" lon="-1.18858">
        <ele>18</ele>
        <time>2019-08-08T15:07:30Z</time>
      </trkpt>
      <trkpt lat="44.48557" lon="-1.18843">
        <ele>18</ele>
        <time>2019-08-08T15:07:35Z</time>
      </trkpt>
      <trkpt lat="44.48558" lon="-1.18828">
        <ele>18</ele>
        <time>2019-08-08T15:07:40Z</time>
      </trkpt>
      <trkpt lat="44.4856" lon="-1.18814">
        <ele>18</ele>
        <time>2019-08-08T15:07:45Z</time>
      </trkpt>
      <trkpt lat="44.48563" lon="-1.188">
        <ele>18</ele>
        <time>2019-08-08T15:07:50Z</time>
      </trkpt>
      <trkpt lat="44.48566" lon="-1.18787">
        <ele>18</ele>
        <time>2019-08-08T15:07:55Z</time>
      </trkpt>
      <trkpt lat="44.48569" lon="-1.18775">
        <ele>18</ele>
        <time>2019-08-08T15:08:00Z</time>
      </trkpt>
      <trkpt lat="44.48572" lon="-1.18762">
        <ele>18</ele>
        <time>2019-08-08T15:08:05Z</time>
      </trkpt>
      <trkpt lat="44.48576" lon="-1.18744">
        <ele>18</ele>
        <time>2019-08-08T15:08:15Z</time>
      </trkpt>
      <trkpt lat="44.48576" lon="-1.18733">
        <ele>18</ele>
        <time>2019-08-08T15:08:20Z</time>
      </trkpt>
      <trkpt lat="44.48577" lon="-1.18721">
        <ele>18</ele>
        <time>2019-08-08T15:08:25Z</time>
      </trkpt>
      <trkpt lat="44.48577" lon="-1.18709">
        <ele>18</ele>
        <time>2019-08-08T15:08:30Z</time>
      </trkpt>
      <trkpt lat="44.48578" lon="-1.18697">
        <ele>18</ele>
        <time>2019-08-08T15:08:35Z</time>
      </trkpt>
      <trkpt lat="44.4858" lon="-1.18687">
        <ele>18</ele>
        <time>2019-08-08T15:08:40Z</time>
      </trkpt>
      <trkpt lat="44.48582" lon="-1.18675">
        <ele>18</ele>
        <time>2019-08-08T15:08:45Z</time>
      </trkpt>
      <trkpt lat="44.48584" lon="-1.18663">
        <ele>18</ele>
        <time>2019-08-08T15:08:50Z</time>
      </trkpt>
      <trkpt lat="44.48585" lon="-1.18651">
        <ele>18</ele>
        <time>2019-08-08T15:08:55Z</time>
      </trkpt>
      <trkpt lat="44.48588" lon="-1.18627">
        <ele>18</ele>
        <time>2019-08-08T15:09:05Z</time>
      </trkpt>
      <trkpt lat="44.48588" lon="-1.18616">
        <ele>18</ele>
        <time>2019-08-08T15:09:10Z</time>
      </trkpt>
      <trkpt lat="44.48589" lon="-1.18604">
        <ele>18</ele>
        <time>2019-08-08T15:09:15Z</time>
      </trkpt>
      <trkpt lat="44.48589" lon="-1.18592">
        <ele>18</ele>
        <time>2019-08-08T15:09:20Z</time>
      </trkpt>
      <trkpt lat="44.4859" lon="-1.18581">
        <ele>18</ele>
        <time>2019-08-08T15:09:25Z</time>
      </trkpt>
      <trkpt lat="44.48591" lon="-1.1857">
        <ele>18</ele>
        <time>2019-08-08T15:09:30Z</time>
      </trkpt>
      <trkpt lat="44.48592" lon="-1.18559">
        <ele>18</ele>
        <time>2019-08-08T15:09:35Z</time>
      </trkpt>
      <trkpt lat="44.48592" lon="-1.18548">
        <ele>18</ele>
        <time>2019-08-08T15:09:40Z</time>
      </trkpt>
      <trkpt lat="44.48593" lon="-1.18526">
        <ele>18</ele>
        <time>2019-08-08T15:09:50Z</time>
      </trkpt>
      <trkpt lat="44.48593" lon="-1.18514">
        <ele>18</ele>
        <time>2019-08-08T15:09:55Z</time>
      </trkpt>
      <trkpt lat="44.48594" lon="-1.185">
        <ele>18</ele>
        <time>2019-08-08T15:10:00Z</time>
      </trkpt>
      <trkpt lat="44.48594" lon="-1.18487">
        <ele>18</ele>
        <time>2019-08-08T15:10:05Z</time>
      </trkpt>
      <trkpt lat="44.48596" lon="-1.18472">
        <ele>18</ele>
        <time>2019-08-08T15:10:10Z</time>
      </trkpt>
      <trkpt lat="44.48595" lon="-1.18458">
        <ele>18</ele>
        <time>2019-08-08T15:10:15Z</time>
      </trkpt>
      <trkpt lat="44.48595" lon="-1.18445">
        <ele>18</ele>
        <time>2019-08-08T15:10:20Z</time>
      </trkpt>
      <trkpt lat="44.48595" lon="-1.18432">
        <ele>18</ele>
        <time>2019-08-08T15:10:25Z</time>
      </trkpt>
      <trkpt lat="44.48595" lon="-1.18418">
        <ele>18</ele>
        <time>2019-08-08T15:10:30Z</time>
      </trkpt>
      <trkpt lat="44.48596" lon="-1.18391">
        <ele>18</ele>
        <time>2019-08-08T15:10:40Z</time>
      </trkpt>
      <trkpt lat="44.48597" lon="-1.18377">
        <ele>18</ele>
        <time>2019-08-08T15:10:45Z</time>
      </trkpt>
      <trkpt lat="44.48597" lon="-1.18365">
        <ele>18</ele>
        <time>2019-08-08T15:10:50Z</time>
      </trkpt>
      <trkpt lat="44.48597" lon="-1.18352">
        <ele>18</ele>
        <time>2019-08-08T15:10:55Z</time>
      </trkpt>
      <trkpt lat="44.48596" lon="-1.18339">
        <ele>18</ele>
        <time>2019-08-08T15:11:00Z</time>
      </trkpt>
      <trkpt lat="44.48595" lon="-1.18327">
        <ele>18</ele>
        <time>2019-08-08T15:11:05Z</time>
      </trkpt>
      <trkpt lat="44.48596" lon="-1.18314">
        <ele>18</ele>
        <time>2019-08-08T15:11:10Z</time>
      </trkpt>
      <trkpt lat="44.48596" lon="-1.18299">
        <ele>18</ele>
        <time>2019-08-08T15:11:15Z</time>
      </trkpt>
      <trkpt lat="44.48595" lon="-1.18274">
        <ele>18</ele>
        <time>2019-08-08T15:11:25Z</time>
      </trkpt>
      <trkpt lat="44.48595" lon="-1.18262">
        <ele>18</ele>
        <time>2019-08-08T15:11:30Z</time>
      </trkpt>
      <trkpt lat="44.48595" lon="-1.1825">
        <ele>18</ele>
        <time>2019-08-08T15:11:35Z</time>
      </trkpt>
      <trkpt lat="44.48595" lon="-1.18238">
        <ele>18</ele>
        <time>2019-08-08T15:11:40Z</time>
      </trkpt>
      <trkpt lat="44.48595" lon="-1.18224">
        <ele>18</ele>
        <time>2019-08-08T15:11:45Z</time>
      </trkpt>
      <trkpt lat="44.48595" lon="-1.18212">
        <ele>18</ele>
        <time>2019-08-08T15:11:50Z</time>
      </trkpt>
      <trkpt lat="44.48595" lon="-1.18199">
        <ele>18</ele>
        <time>2019-08-08T15:11:55Z</time>
      </trkpt>
      <trkpt lat="44.48595" lon="-1.18187">
        <ele>18</ele>
        <time>2019-08-08T15:12:00Z</time>
      </trkpt>
      <trkpt lat="44.48594" lon="-1.18161">
        <ele>18</ele>
        <time>2019-08-08T15:12:10Z</time>
      </trkpt>
      <trkpt lat="44.48594" lon="-1.18148">
        <ele>18</ele>
        <time>2019-08-08T15:12:15Z</time>
      </trkpt>
      <trkpt lat="44.48594" lon="-1.18135">
        <ele>18</ele>
        <time>2019-08-08T15:12:20Z</time>
      </trkpt>
      <trkpt lat="44.48594" lon="-1.18122">
        <ele>18</ele>
        <time>2019-08-08T15:12:25Z</time>
      </trkpt>
      <trkpt lat="44.48594" lon="-1.18109">
        <ele>18</ele>
        <time>2019-08-08T15:12:30Z</time>
      </trkpt>
      <trkpt lat="44.48595" lon="-1.18097">
        <ele>18</ele>
        <time>2019-08-08T15:12:35Z</time>
      </trkpt>
      <trkpt lat="44.48596" lon="-1.18085">
        <ele>18</ele>
        <time>2019-08-08T15:12:40Z</time>
      </trkpt>
      <trkpt lat="44.48596" lon="-1.18075">
        <ele>18</ele>
        <time>2019-08-08T15:12:45Z</time>
      </trkpt>
      <trkpt lat="44.48596" lon="-1.18065">
        <ele>18</ele>
        <time>2019-08-08T15:12:50Z</time>
      </trkpt>
      <trkpt lat="44.48597" lon="-1.18038">
        <ele>18</ele>
        <time>2019-08-08T15:13:00Z</time>
      </trkpt>
      <trkpt lat="44.48598" lon="-1.18024">
        <ele>18</ele>
        <time>2019-08-08T15:13:05Z</time>
      </trkpt>
      <trkpt lat="44.48598" lon="-1.18012">
        <ele>18</ele>
        <time>2019-08-08T15:13:10Z</time>
      </trkpt>
      <trkpt lat="44.48599" lon="-1.17999">
        <ele>18</ele>
        <time>2019-08-08T15:13:15Z</time>
      </trkpt>
      <trkpt lat="44.48599" lon="-1.17986">
        <ele>18</ele>
        <time>2019-08-08T15:13:20Z</time>
      </trkpt>
      <trkpt lat="44.486" lon="-1.17973">
        <ele>18</ele>
        <time>2019-08-08T15:13:25Z</time>
      </trkpt>
      <trkpt lat="44.486" lon="-1.17961">
        <ele>18</ele>
        <time>2019-08-08T15:13:30Z</time>
      </trkpt>
      <trkpt lat="44.486" lon="-1.17947">
        <ele>18</ele>
        <time>2019-08-08T15:13:35Z</time>
      </trkpt>
      <trkpt lat="44.48598" lon="-1.17921">
        <ele>18</ele>
        <time>2019-08-08T15:13:45Z</time>
      </trkpt>
      <trkpt lat="44.48598" lon="-1.17908">
        <ele>18</ele>
        <time>2019-08-08T15:13:50Z</time>
      </trkpt>
      <trkpt lat="44.48599" lon="-1.17894">
        <ele>18</ele>
        <time>2019-08-08T15:13:55Z</time>
      </trkpt>
      <trkpt lat="44.48599" lon="-1.17882">
        <ele>18</ele>
        <time>2019-08-08T15:14:00Z</time>
      </trkpt>
      <trkpt lat="44.48599" lon="-1.1787">
        <ele>18</ele>
        <time>2019-08-08T15:14:05Z</time>
      </trkpt>
      <trkpt lat="44.48598" lon="-1.17856">
        <ele>18</ele>
        <time>2019-08-08T15:14:10Z</time>
      </trkpt>
      <trkpt lat="44.48598" lon="-1.17843">
        <ele>18</ele>
        <time>2019-08-08T15:14:15Z</time>
      </trkpt>
      <trkpt lat="44.48598" lon="-1.1783">
        <ele>18</ele>
        <time>2019-08-08T15:14:20Z</time>
      </trkpt>
      <trkpt lat="44.48598" lon="-1.17817">
        <ele>18</ele>
        <time>2019-08-08T15:14:25Z</time>
      </trkpt>
      <trkpt lat="44.48598" lon="-1.17793">
        <ele>18</ele>
        <time>2019-08-08T15:14:35Z</time>
      </trkpt>
      <trkpt lat="44.48598" lon="-1.17781">
        <ele>18</ele>
        <time>2019-08-08T15:14:40Z</time>
      </trkpt>
      <trkpt lat="44.48598" lon="-1.17769">
        <ele>18</ele>
        <time>2019-08-08T15:14:45Z</time>
      </trkpt>
      <trkpt lat="44.48597" lon="-1.17756">
        <ele>18</ele>
        <time>2019-08-08T15:14:50Z</time>
      </trkpt>
      <trkpt lat="44.48597" lon="-1.17744">
        <ele>18</ele>
        <time>2019-08-08T15:14:55Z</time>
      </trkpt>
      <trkpt lat="44.48597" lon="-1.17731">
        <ele>18</ele>
        <time>2019-08-08T15:15:00Z</time>
      </trkpt>
      <trkpt lat="44.48597" lon="-1.1772">
        <ele>18</ele>
        <time>2019-08-08T15:15:05Z</time>
      </trkpt>
      <trkpt lat="44.48596" lon="-1.17708">
        <ele>18</ele>
        <time>2019-08-08T15:15:10Z</time>
      </trkpt>
      <trkpt lat="44.48596" lon="-1.17685">
        <ele>18</ele>
        <time>2019-08-08T15:15:20Z</time>
      </trkpt>
      <trkpt lat="44.48596" lon="-1.17674">
        <ele>18</ele>
        <time>2019-08-08T15:15:25Z</time>
      </trkpt>
      <trkpt lat="44.48597" lon="-1.17662">
        <ele>18</ele>
        <time>2019-08-08T15:15:30Z</time>
      </trkpt>
      <trkpt lat="44.48597" lon="-1.17651">
        <ele>18</ele>
        <time>2019-08-08T15:15:35Z</time>
      </trkpt>
      <trkpt lat="44.48597" lon="-1.1764">
        <ele>18</ele>
        <time>2019-08-08T15:15:40Z</time>
      </trkpt>
      <trkpt lat="44.48597" lon="-1.17628">
        <ele>18</ele>
        <time>2019-08-08T15:15:45Z</time>
      </trkpt>
      <trkpt lat="44.48597" lon="-1.17616">
        <ele>18</ele>
        <time>2019-08-08T15:15:50Z</time>
      </trkpt>
      <trkpt lat="44.48599" lon="-1.17604">
        <ele>18</ele>
        <time>2019-08-08T15:15:55Z</time>
      </trkpt>
      <trkpt lat="44.486" lon="-1.17592">
        <ele>18</ele>
        <time>2019-08-08T15:16:00Z</time>
      </trkpt>
      <trkpt lat="44.48603" lon="-1.17566">
        <ele>18</ele>
        <time>2019-08-08T15:16:10Z</time>
      </trkpt>
      <trkpt lat="44.48604" lon="-1.17553">
        <ele>18</ele>
        <time>2019-08-08T15:16:15Z</time>
      </trkpt>
      <trkpt lat="44.48605" lon="-1.17541">
        <ele>18</ele>
        <time>2019-08-08T15:16:20Z</time>
      </trkpt>
      <trkpt lat="44.48606" lon="-1.17529">
        <ele>18</ele>
        <time>2019-08-08T15:16:25Z</time>
      </trkpt>
      <trkpt lat="44.48607" lon="-1.17517">
        <ele>18</ele>
        <time>2019-08-08T15:16:30Z</time>
      </trkpt>
      <trkpt lat="44.48607" lon="-1.17504">
        <ele>18</ele>
        <time>2019-08-08T15:16:35Z</time>
      </trkpt>
      <trkpt lat="44.48607" lon="-1.17494">
        <ele>18</ele>
        <time>2019-08-08T15:16:40Z</time>
      </trkpt>
      <trkpt lat="44.48608" lon="-1.17482">
        <ele>18</ele>
        <time>2019-08-08T15:16:45Z</time>
      </trkpt>
      <trkpt lat="44.48608" lon="-1.1746">
        <ele>18</ele>
        <time>2019-08-08T15:16:55Z</time>
      </trkpt>
      <trkpt lat="44.48607" lon="-1.1745">
        <ele>18</ele>
        <time>2019-08-08T15:17:00Z</time>
      </trkpt>
      <trkpt lat="44.48607" lon="-1.17439">
        <ele>18</ele>
        <time>2019-08-08T15:17:05Z</time>
      </trkpt>
      <trkpt lat="44.48608" lon="-1.17428">
        <ele>18</ele>
        <time>2019-08-08T15:17:10Z</time>
      </trkpt>
      <trkpt lat="44.48609" lon="-1.17416">
        <ele>18</ele>
        <time>2019-08-08T15:17:15Z</time>
      </trkpt>
      <trkpt lat="44.48609" lon="-1.17405">
        <ele>18</ele>
        <time>2019-08-08T15:17:20Z</time>
      </trkpt>
      <trkpt lat="44.4861" lon="-1.17393">
        <ele>18</ele>
        <time>2019-08-08T15:17:25Z</time>
      </trkpt>
      <trkpt lat="44.48611" lon="-1.1738">
        <ele>18</ele>
        <time>2019-08-08T15:17:30Z</time>
      </trkpt>
      <trkpt lat="44.48613" lon="-1.17368">
        <ele>18</ele>
        <time>2019-08-08T15:17:35Z</time>
      </trkpt>
      <trkpt lat="44.48615" lon="-1.17343">
        <ele>18</ele>
        <time>2019-08-08T15:17:45Z</time>
      </trkpt>
      <trkpt lat="44.48616" lon="-1.1733">
        <ele>18</ele>
        <time>2019-08-08T15:17:50Z</time>
      </trkpt>
      <trkpt lat="44.48616" lon="-1.17317">
        <ele>18</ele>
        <time>2019-08-08T15:17:55Z</time>
      </trkpt>
      <trkpt lat="44.48617" lon="-1.17304">
        <ele>18</ele>
        <time>2019-08-08T15:18:00Z</time>
      </trkpt>
      <trkpt lat="44.48619" lon="-1.17291">
        <ele>18</ele>
        <time>2019-08-08T15:18:05Z</time>
      </trkpt>
      <trkpt lat="44.48619" lon="-1.17277">
        <ele>18</ele>
        <time>2019-08-08T15:18:10Z</time>
      </trkpt>
      <trkpt lat="44.4862" lon="-1.17263">
        <ele>18</ele>
        <time>2019-08-08T15:18:15Z</time>
      </trkpt>
      <trkpt lat="44.48622" lon="-1.1725">
        <ele>18</ele>
        <time>2019-08-08T15:18:20Z</time>
      </trkpt>
      <trkpt lat="44.48624" lon="-1.17223">
        <ele>18</ele>
        <time>2019-08-08T15:18:30Z</time>
      </trkpt>
      <trkpt lat="44.48624" lon="-1.17211">
        <ele>18</ele>
        <time>2019-08-08T15:18:35Z</time>
      </trkpt>
      <trkpt lat="44.48624" lon="-1.17198">
        <ele>18</ele>
        <time>2019-08-08T15:18:40Z</time>
      </trkpt>
      <trkpt lat="44.48623" lon="-1.17184">
        <ele>18</ele>
        <time>2019-08-08T15:18:45Z</time>
      </trkpt>
      <trkpt lat="44.48623" lon="-1.17172">
        <ele>18</ele>
        <time>2019-08-08T15:18:50Z</time>
      </trkpt>
      <trkpt lat="44.48624" lon="-1.1716">
        <ele>18</ele>
        <time>2019-08-08T15:18:55Z</time>
      </trkpt>
      <trkpt lat="44.48626" lon="-1.17149">
        <ele>18</ele>
        <time>2019-08-08T15:19:00Z</time>
      </trkpt>
      <trkpt lat="44.48627" lon="-1.17136">
        <ele>18</ele>
        <time>2019-08-08T15:19:05Z</time>
      </trkpt>
      <trkpt lat="44.48628" lon="-1.17124">
        <ele>18</ele>
        <time>2019-08-08T15:19:10Z</time>
      </trkpt>
      <trkpt lat="44.4863" lon="-1.171">
        <ele>18</ele>
        <time>2019-08-08T15:19:20Z</time>
      </trkpt>
      <trkpt lat="44.48631" lon="-1.17088">
        <ele>18</ele>
        <time>2019-08-08T15:19:25Z</time>
      </trkpt>
      <trkpt lat="44.48631" lon="-1.17075">
        <ele>18</ele>
        <time>2019-08-08T15:19:30Z</time>
      </trkpt>
      <trkpt lat="44.48632" lon="-1.17063">
        <ele>18</ele>
        <time>2019-08-08T15:19:35Z</time>
      </trkpt>
      <trkpt lat="44.48633" lon="-1.17051">
        <ele>18</ele>
        <time>2019-08-08T15:19:40Z</time>
      </trkpt>
      <trkpt lat="44.48633" lon="-1.1704">
        <ele>18</ele>
        <time>2019-08-08T15:19:45Z</time>
      </trkpt>
      <trkpt lat="44.48633" lon="-1.17028">
        <ele>18</ele>
        <time>2019-08-08T15:19:50Z</time>
      </trkpt>
      <trkpt lat="44.48634" lon="-1.17017">
        <ele>18</ele>
        <time>2019-08-08T15:19:55Z</time>
      </trkpt>
      <trkpt lat="44.48635" lon="-1.16995">
        <ele>18</ele>
        <time>2019-08-08T15:20:05Z</time>
      </trkpt>
      <trkpt lat="44.48636" lon="-1.16984">
        <ele>18</ele>
        <time>2019-08-08T15:20:10Z</time>
      </trkpt>
      <trkpt lat="44.48636" lon="-1.16974">
        <ele>18</ele>
        <time>2019-08-08T15:20:15Z</time>
      </trkpt>
      <trkpt lat="44.48637" lon="-1.16963">
        <ele>18</ele>
        <time>2019-08-08T15:20:20Z</time>
      </trkpt>
      <trkpt lat="44.48638" lon="-1.16952">
        <ele>18</ele>
        <time>2019-08-08T15:20:25Z</time>
      </trkpt>
      <trkpt lat="44.48638" lon="-1.16941">
        <ele>18</ele>
        <time>2019-08-08T15:20:30Z</time>
      </trkpt>
      <trkpt lat="44.48638" lon="-1.16929">
        <ele>18</ele>
        <time>2019-08-08T15:20:35Z</time>
      </trkpt>
      <trkpt lat="44.48638" lon="-1.16918">
        <ele>18</ele>
        <time>2019-08-08T15:20:40Z</time>
      </trkpt>
      <trkpt lat="44.48638" lon="-1.16907">
        <ele>18</ele>
        <time>2019-08-08T15:20:45Z</time>
      </trkpt>
      <trkpt lat="44.48638" lon="-1.16884">
        <ele>18</ele>
        <time>2019-08-08T15:20:55Z</time>
      </trkpt>
      <trkpt lat="44.48639" lon="-1.16873">
        <ele>18</ele>
        <time>2019-08-08T15:21:00Z</time>
      </trkpt>
      <trkpt lat="44.48641" lon="-1.16862">
        <ele>18</ele>
        <time>2019-08-08T15:21:05Z</time>
      </trkpt>
      <trkpt lat="44.48642" lon="-1.16851">
        <ele>18</ele>
        <time>2019-08-08T15:21:10Z</time>
      </trkpt>
      <trkpt lat="44.48644" lon="-1.1684">
        <ele>18</ele>
        <time>2019-08-08T15:21:15Z</time>
      </trkpt>
      <trkpt lat="44.48646" lon="-1.16828">
        <ele>18</ele>
        <time>2019-08-08T15:21:20Z</time>
      </trkpt>
      <trkpt lat="44.48649" lon="-1.16817">
        <ele>18</ele>
        <time>2019-08-08T15:21:25Z</time>
      </trkpt>
      <trkpt lat="44.4865" lon="-1.16806">
        <ele>18</ele>
        <time>2019-08-08T15:21:30Z</time>
      </trkpt>
      <trkpt lat="44.48651" lon="-1.16783">
        <ele>18</ele>
        <time>2019-08-08T15:21:40Z</time>
      </trkpt>
      <trkpt lat="44.48652" lon="-1.16771">
        <ele>18</ele>
        <time>2019-08-08T15:21:45Z</time>
      </trkpt>
      <trkpt lat="44.48654" lon="-1.1676">
        <ele>18</ele>
        <time>2019-08-08T15:21:50Z</time>
      </trkpt>
      <trkpt lat="44.48654" lon="-1.16749">
        <ele>18</ele>
        <time>2019-08-08T15:21:55Z</time>
      </trkpt>
      <trkpt lat="44.48655" lon="-1.16738">
        <ele>18</ele>
        <time>2019-08-08T15:22:00Z</time>
      </trkpt>
      <trkpt lat="44.48656" lon="-1.16727">
        <ele>18</ele>
        <time>2019-08-08T15:22:05Z</time>
      </trkpt>
      <trkpt lat="44.48656" lon="-1.16715">
        <ele>18</ele>
        <time>2019-08-08T15:22:10Z</time>
      </trkpt>
      <trkpt lat="44.48657" lon="-1.16704">
        <ele>18</ele>
        <time>2019-08-08T15:22:15Z</time>
      </trkpt>
      <trkpt lat="44.48658" lon="-1.16693">
        <ele>18</ele>
        <time>2019-08-08T15:22:20Z</time>
      </trkpt>
      <trkpt lat="44.48659" lon="-1.1667">
        <ele>18</ele>
        <time>2019-08-08T15:22:30Z</time>
      </trkpt>
      <trkpt lat="44.4866" lon="-1.16658">
        <ele>18</ele>
        <time>2019-08-08T15:22:35Z</time>
      </trkpt>
      <trkpt lat="44.4866" lon="-1.16646">
        <ele>18</ele>
        <time>2019-08-08T15:22:40Z</time>
      </trkpt>
      <trkpt lat="44.48661" lon="-1.16633">
        <ele>18</ele>
        <time>2019-08-08T15:22:45Z</time>
      </trkpt>
      <trkpt lat="44.48662" lon="-1.1662">
        <ele>18</ele>
        <time>2019-08-08T15:22:50Z</time>
      </trkpt>
      <trkpt lat="44.48663" lon="-1.16609">
        <ele>18</ele>
        <time>2019-08-08T15:22:55Z</time>
      </trkpt>
      <trkpt lat="44.48664" lon="-1.16596">
        <ele>18</ele>
        <time>2019-08-08T15:23:00Z</time>
      </trkpt>
      <trkpt lat="44.48665" lon="-1.16582">
        <ele>18</ele>
        <time>2019-08-08T15:23:05Z</time>
      </trkpt>
      <trkpt lat="44.48665" lon="-1.16555">
        <ele>18</ele>
        <time>2019-08-08T15:23:15Z</time>
      </trkpt>
      <trkpt lat="44.48665" lon="-1.16542">
        <ele>18</ele>
        <time>2019-08-08T15:23:20Z</time>
      </trkpt>
      <trkpt lat="44.48666" lon="-1.1653">
        <ele>18</ele>
        <time>2019-08-08T15:23:25Z</time>
      </trkpt>
      <trkpt lat="44.48666" lon="-1.16518">
        <ele>18</ele>
        <time>2019-08-08T15:23:30Z</time>
      </trkpt>
      <trkpt lat="44.48667" lon="-1.16507">
        <ele>18</ele>
        <time>2019-08-08T15:23:35Z</time>
      </trkpt>
      <trkpt lat="44.48667" lon="-1.16496">
        <ele>18</ele>
        <time>2019-08-08T15:23:40Z</time>
      </trkpt>
      <trkpt lat="44.48667" lon="-1.16484">
        <ele>18</ele>
        <time>2019-08-08T15:23:45Z</time>
      </trkpt>
      <trkpt lat="44.48667" lon="-1.16472">
        <ele>18</ele>
        <time>2019-08-08T15:23:50Z</time>
      </trkpt>
      <trkpt lat="44.48668" lon="-1.16459">
        <ele>18</ele>
        <time>2019-08-08T15:23:55Z</time>
      </trkpt>
      <trkpt lat="44.48668" lon="-1.16434">
        <ele>18</ele>
        <time>2019-08-08T15:24:05Z</time>
      </trkpt>
      <trkpt lat="44.48669" lon="-1.16422">
        <ele>18</ele>
        <time>2019-08-08T15:24:10Z</time>
      </trkpt>
      <trkpt lat="44.48669" lon="-1.1641">
        <ele>18</ele>
        <time>2019-08-08T15:24:15Z</time>
      </trkpt>
      <trkpt lat="44.48669" lon="-1.16399">
        <ele>18</ele>
        <time>2019-08-08T15:24:20Z</time>
      </trkpt>
      <trkpt lat="44.48669" lon="-1.16387">
        <ele>18</ele>
        <time>2019-08-08T15:24:25Z</time>
      </trkpt>
      <trkpt lat="44.48669" lon="-1.16376">
        <ele>18</ele>
        <time>2019-08-08T15:24:30Z</time>
      </trkpt>
      <trkpt lat="44.48669" lon="-1.16364">
        <ele>18</ele>
        <time>2019-08-08T15:24:35Z</time>
      </trkpt>
      <trkpt lat="44.48669" lon="-1.16353">
        <ele>18</ele>
        <time>2019-08-08T15:24:40Z</time>
      </trkpt>
      <trkpt lat="44.48669" lon="-1.16331">
        <ele>18</ele>
        <time>2019-08-08T15:24:50Z</time>
      </trkpt>
      <trkpt lat="44.48669" lon="-1.1632">
        <ele>18</ele>
        <time>2019-08-08T15:24:55Z</time>
      </trkpt>
      <trkpt lat="44.48671" lon="-1.16309">
        <ele>18</ele>
        <time>2019-08-08T15:25:00Z</time>
      </trkpt>
      <trkpt lat="44.48672" lon="-1.16297">
        <ele>18</ele>
        <time>2019-08-08T15:25:05Z</time>
      </trkpt>
      <trkpt lat="44.48674" lon="-1.16286">
        <ele>18</ele>
        <time>2019-08-08T15:25:10Z</time>
      </trkpt>
      <trkpt lat="44.48675" lon="-1.16275">
        <ele>18</ele>
        <time>2019-08-08T15:25:15Z</time>
      </trkpt>
      <trkpt lat="44.48676" lon="-1.16264">
        <ele>18</ele>
        <time>2019-08-08T15:25:20Z</time>
      </trkpt>
      <trkpt lat="44.48676" lon="-1.16253">
        <ele>18</ele>
        <time>2019-08-08T15:25:25Z</time>
      </trkpt>
      <trkpt lat="44.48677" lon="-1.16242">
        <ele>18</ele>
        <time>2019-08-08T15:25:30Z</time>
      </trkpt>
      <trkpt lat="44.48679" lon="-1.16221">
        <ele>18</ele>
        <time>2019-08-08T15:25:40Z</time>
      </trkpt>
      <trkpt lat="44.4868" lon="-1.1621">
        <ele>18</ele>
        <time>2019-08-08T15:25:45Z</time>
      </trkpt>
      <trkpt lat="44.4868" lon="-1.162">
        <ele>18</ele>
        <time>2019-08-08T15:25:50Z</time>
      </trkpt>
      <trkpt lat="44.48681" lon="-1.16189">
        <ele>18</ele>
        <time>2019-08-08T15:25:55Z</time>
      </trkpt>
      <trkpt lat="44.48682" lon="-1.16179">
        <ele>18</ele>
        <time>2019-08-08T15:26:00Z</time>
      </trkpt>
      <trkpt lat="44.48683" lon="-1.16167">
        <ele>18</ele>
        <time>2019-08-08T15:26:05Z</time>
      </trkpt>
      <trkpt lat="44.48684" lon="-1.16156">
        <ele>18</ele>
        <time>2019-08-08T15:26:10Z</time>
      </trkpt>
      <trkpt lat="44.48684" lon="-1.16145">
        <ele>18</ele>
        <time>2019-08-08T15:26:15Z</time>
      </trkpt>
      <trkpt lat="44.48685" lon="-1.16126">
        <ele>18</ele>
        <time>2019-08-08T15:26:25Z</time>
      </trkpt>
      <trkpt lat="44.48686" lon="-1.16115">
        <ele>18</ele>
        <time>2019-08-08T15:26:30Z</time>
      </trkpt>
      <trkpt lat="44.48688" lon="-1.16103">
        <ele>18</ele>
        <time>2019-08-08T15:26:35Z</time>
      </trkpt>
      <trkpt lat="44.48689" lon="-1.16091">
        <ele>18</ele>
        <time>2019-08-08T15:26:40Z</time>
      </trkpt>
      <trkpt lat="44.48691" lon="-1.16079">
        <ele>18</ele>
        <time>2019-08-08T15:26:45Z</time>
      </trkpt>
      <trkpt lat="44.48692" lon="-1.16066">
        <ele>18</ele>
        <time>2019-08-08T15:26:50Z</time>
      </trkpt>
      <trkpt lat="44.48694" lon="-1.16054">
        <ele>18</ele>
        <time>2019-08-08T15:26:55Z</time>
      </trkpt>
      <trkpt lat="44.48697" lon="-1.1604">
        <ele>18</ele>
        <time>2019-08-08T15:27:00Z</time>
      </trkpt>
      <trkpt lat="44.48699" lon="-1.16013">
        <ele>18</ele>
        <time>2019-08-08T15:27:10Z</time>
      </trkpt>
      <trkpt lat="44.487" lon="-1.16">
        <ele>18</ele>
        <time>2019-08-08T15:27:15Z</time>
      </trkpt>
      <trkpt lat="44.487" lon="-1.15987">
        <ele>18</ele>
        <time>2019-08-08T15:27:20Z</time>
      </trkpt>
      <trkpt lat="44.487" lon="-1.15974">
        <ele>18</ele>
        <time>2019-08-08T15:27:25Z</time>
      </trkpt>
      <trkpt lat="44.48701" lon="-1.15961">
        <ele>18</ele>
        <time>2019-08-08T15:27:30Z</time>
      </trkpt>
      <trkpt lat="44.48701" lon="-1.15948">
        <ele>18</ele>
        <time>2019-08-08T15:27:35Z</time>
      </trkpt>
      <trkpt lat="44.48702" lon="-1.15935">
        <ele>18</ele>
        <time>2019-08-08T15:27:40Z</time>
      </trkpt>
      <trkpt lat="44.48702" lon="-1.15922">
        <ele>18</ele>
        <time>2019-08-08T15:27:45Z</time>
      </trkpt>
      <trkpt lat="44.48703" lon="-1.15909">
        <ele>18</ele>
        <time>2019-08-08T15:27:50Z</time>
      </trkpt>
      <trkpt lat="44.48704" lon="-1.15884">
        <ele>18</ele>
        <time>2019-08-08T15:28:00Z</time>
      </trkpt>
      <trkpt lat="44.48704" lon="-1.15871">
        <ele>18</ele>
        <time>2019-08-08T15:28:05Z</time>
      </trkpt>
      <trkpt lat="44.48704" lon="-1.15859">
        <ele>18</ele>
        <time>2019-08-08T15:28:10Z</time>
      </trkpt>
      <trkpt lat="44.48705" lon="-1.15847">
        <ele>18</ele>
        <time>2019-08-08T15:28:15Z</time>
      </trkpt>
      <trkpt lat="44.48706" lon="-1.15835">
        <ele>18</ele>
        <time>2019-08-08T15:28:20Z</time>
      </trkpt>
      <trkpt lat="44.48707" lon="-1.15824">
        <ele>18</ele>
        <time>2019-08-08T15:28:25Z</time>
      </trkpt>
      <trkpt lat="44.48708" lon="-1.15813">
        <ele>18</ele>
        <time>2019-08-08T15:28:30Z</time>
      </trkpt>
      <trkpt lat="44.48709" lon="-1.15803">
        <ele>18</ele>
        <time>2019-08-08T15:28:35Z</time>
      </trkpt>
      <trkpt lat="44.4871" lon="-1.15782">
        <ele>18</ele>
        <time>2019-08-08T15:28:45Z</time>
      </trkpt>
      <trkpt lat="44.48711" lon="-1.1577">
        <ele>18</ele>
        <time>2019-08-08T15:28:50Z</time>
      </trkpt>
      <trkpt lat="44.48712" lon="-1.1576">
        <ele>18</ele>
        <time>2019-08-08T15:28:55Z</time>
      </trkpt>
      <trkpt lat="44.48712" lon="-1.15749">
        <ele>18</ele>
        <time>2019-08-08T15:29:00Z</time>
      </trkpt>
      <trkpt lat="44.48713" lon="-1.15737">
        <ele>18</ele>
        <time>2019-08-08T15:29:05Z</time>
      </trkpt>
      <trkpt lat="44.48714" lon="-1.15725">
        <ele>18</ele>
        <time>2019-08-08T15:29:10Z</time>
      </trkpt>
      <trkpt lat="44.48714" lon="-1.15713">
        <ele>18</ele>
        <time>2019-08-08T15:29:15Z</time>
      </trkpt>
      <trkpt lat="44.48715" lon="-1.157">
        <ele>18</ele>
        <time>2019-08-08T15:29:20Z</time>
      </trkpt>
      <trkpt lat="44.48715" lon="-1.15688">
        <ele>18</ele>
        <time>2019-08-08T15:29:25Z</time>
      </trkpt>
      <trkpt lat="44.48713" lon="-1.15664">
        <ele>18</ele>
        <time>2019-08-08T15:29:35Z</time>
      </trkpt>
      <trkpt lat="44.48713" lon="-1.15652">
        <ele>18</ele>
        <time>2019-08-08T15:29:40Z</time>
      </trkpt>
      <trkpt lat="44.48713" lon="-1.1564">
        <ele>18</ele>
        <time>2019-08-08T15:29:45Z</time>
      </trkpt>
      <trkpt lat="44.48713" lon="-1.15628">
        <ele>18</ele>
        <time>2019-08-08T15:29:50Z</time>
      </trkpt>
      <trkpt lat="44.48713" lon="-1.15617">
        <ele>18</ele>
        <time>2019-08-08T15:29:55Z</time>
      </trkpt>
      <trkpt lat="44.48713" lon="-1.15605">
        <ele>18</ele>
        <time>2019-08-08T15:30:00Z</time>
      </trkpt>
      <trkpt lat="44.48714" lon="-1.15593">
        <ele>18</ele>
        <time>2019-08-08T15:30:05Z</time>
      </trkpt>
      <trkpt lat="44.48714" lon="-1.1558">
        <ele>18</ele>
        <time>2019-08-08T15:30:10Z</time>
      </trkpt>
      <trkpt lat="44.48716" lon="-1.15557">
        <ele>18</ele>
        <time>2019-08-08T15:30:20Z</time>
      </trkpt>
      <trkpt lat="44.48716" lon="-1.15546">
        <ele>18</ele>
        <time>2019-08-08T15:30:25Z</time>
      </trkpt>
      <trkpt lat="44.48717" lon="-1.15535">
        <ele>18</ele>
        <time>2019-08-08T15:30:30Z</time>
      </trkpt>
      <trkpt lat="44.48718" lon="-1.15523">
        <ele>18</ele>
        <time>2019-08-08T15:30:35Z</time>
      </trkpt>
      <trkpt lat="44.48718" lon="-1.15511">
        <ele>18</ele>
        <time>2019-08-08T15:30:40Z</time>
      </trkpt>
      <trkpt lat="44.48719" lon="-1.15499">
        <ele>18</ele>
        <time>2019-08-08T15:30:45Z</time>
      </trkpt>
      <trkpt lat="44.48719" lon="-1.15488">
        <ele>18</ele>
        <time>2019-08-08T15:30:50Z</time>
      </trkpt>
      <trkpt lat="44.48719" lon="-1.15477">
        <ele>18</ele>
        <time>2019-08-08T15:30:55Z</time>
      </trkpt>
      <trkpt lat="44.48719" lon="-1.15466">
        <ele>18</ele>
        <time>2019-08-08T15:31:00Z</time>
      </trkpt>
      <trkpt lat="44.4872" lon="-1.15444">
        <ele>18</ele>
        <time>2019-08-08T15:31:10Z</time>
      </trkpt>
      <trkpt lat="44.48721" lon="-1.15434">
        <ele>18</ele>
        <time>2019-08-08T15:31:15Z</time>
      </trkpt>
      <trkpt lat="44.48721" lon="-1.15423">
        <ele>18</ele>
        <time>2019-08-08T15:31:20Z</time>
      </trkpt>
      <trkpt lat="44.48722" lon="-1.15413">
        <ele>18</ele>
        <time>2019-08-08T15:31:25Z</time>
      </trkpt>
      <trkpt lat="44.48721" lon="-1.15402">
        <ele>18</ele>
        <time>2019-08-08T15:31:30Z</time>
      </trkpt>
      <trkpt lat="44.48721" lon="-1.15391">
        <ele>18</ele>
        <time>2019-08-08T15:31:35Z</time>
      </trkpt>
      <trkpt lat="44.48721" lon="-1.15382">
        <ele>18</ele>
        <time>2019-08-08T15:31:40Z</time>
      </trkpt>
      <trkpt lat="44.48721" lon="-1.15372">
        <ele>18</ele>
        <time>2019-08-08T15:31:45Z</time>
      </trkpt>
      <trkpt lat="44.48721" lon="-1.15352">
        <ele>18</ele>
        <time>2019-08-08T15:31:55Z</time>
      </trkpt>
      <trkpt lat="44.48722" lon="-1.15341">
        <ele>18</ele>
        <time>2019-08-08T15:32:00Z</time>
      </trkpt>
      <trkpt lat="44.48723" lon="-1.15331">
        <ele>18</ele>
        <time>2019-08-08T15:32:05Z</time>
      </trkpt>
      <trkpt lat="44.48723" lon="-1.15321">
        <ele>18</ele>
        <time>2019-08-08T15:32:10Z</time>
      </trkpt>
      <trkpt lat="44.48723" lon="-1.1531">
        <ele>18</ele>
        <time>2019-08-08T15:32:15Z</time>
      </trkpt>
      <trkpt lat="44.48724" lon="-1.15298">
        <ele>18</ele>
        <time>2019-08-08T15:32:20Z</time>
      </trkpt>
      <trkpt lat="44.48724" lon="-1.15288">
        <ele>18</ele>
        <time>2019-08-08T15:32:25Z</time>
      </trkpt>
      <trkpt lat="44.48725" lon="-1.15277">
        <ele>18</ele>
        <time>2019-08-08T15:32:30Z</time>
      </trkpt>
      <trkpt lat="44.48726" lon="-1.15266">
        <ele>18</ele>
        <time>2019-08-08T15:32:35Z</time>
      </trkpt>
      <trkpt lat="44.48728" lon="-1.15244">
        <ele>18</ele>
        <time>2019-08-08T15:32:45Z</time>
      </trkpt>
      <trkpt lat="44.4873" lon="-1.15233">
        <ele>18</ele>
        <time>2019-08-08T15:32:50Z</time>
      </trkpt>
      <trkpt lat="44.4873" lon="-1.15223">
        <ele>18</ele>
        <time>2019-08-08T15:32:55Z</time>
      </trkpt>
      <trkpt lat="44.48731" lon="-1.15213">
        <ele>18</ele>
        <time>2019-08-08T15:33:00Z</time>
      </trkpt>
      <trkpt lat="44.48732" lon="-1.15204">
        <ele>18</ele>
        <time>2019-08-08T15:33:05Z</time>
      </trkpt>
      <trkpt lat="44.48733" lon="-1.15194">
        <ele>18</ele>
        <time>2019-08-08T15:33:10Z</time>
      </trkpt>
      <trkpt lat="44.48734" lon="-1.15185">
        <ele>18</ele>
        <time>2019-08-08T15:33:15Z</time>
      </trkpt>
      <trkpt lat="44.48734" lon="-1.15176">
        <ele>18</ele>
        <time>2019-08-08T15:33:20Z</time>
      </trkpt>
      <trkpt lat="44.48736" lon="-1.15156">
        <ele>18</ele>
        <time>2019-08-08T15:33:30Z</time>
      </trkpt>
      <trkpt lat="44.48738" lon="-1.15146">
        <ele>18</ele>
        <time>2019-08-08T15:33:35Z</time>
      </trkpt>
      <trkpt lat="44.4874" lon="-1.15136">
        <ele>18</ele>
        <time>2019-08-08T15:33:40Z</time>
      </trkpt>
      <trkpt lat="44.48741" lon="-1.15125">
        <ele>18</ele>
        <time>2019-08-08T15:33:45Z</time>
      </trkpt>
      <trkpt lat="44.48743" lon="-1.15114">
        <ele>18</ele>
        <time>2019-08-08T15:33:50Z</time>
      </trkpt>
      <trkpt lat="44.48744" lon="-1.15103">
        <ele>18</ele>
        <time>2019-08-08T15:33:55Z</time>
      </trkpt>
      <trkpt lat="44.48745" lon="-1.15091">
        <ele>18</ele>
        <time>2019-08-08T15:34:00Z</time>
      </trkpt>
      <trkpt lat="44.48747" lon="-1.1508">
        <ele>18</ele>
        <time>2019-08-08T15:34:05Z</time>
      </trkpt>
      <trkpt lat="44.48748" lon="-1.15068">
        <ele>18</ele>
        <time>2019-08-08T15:34:10Z</time>
      </trkpt>
      <trkpt lat="44.4875" lon="-1.15044">
        <ele>18</ele>
        <time>2019-08-08T15:34:20Z</time>
      </trkpt>
      <trkpt lat="44.48751" lon="-1.15032">
        <ele>18</ele>
        <time>2019-08-08T15:34:25Z</time>
      </trkpt>
      <trkpt lat="44.48752" lon="-1.1502">
        <ele>18</ele>
        <time>2019-08-08T15:34:30Z</time>
      </trkpt>
      <trkpt lat="44.48753" lon="-1.15009">
        <ele>18</ele>
        <time>2019-08-08T15:34:35Z</time>
      </trkpt>
      <trkpt lat="44.48755" lon="-1.14997">
        <ele>18</ele>
        <time>2019-08-08T15:34:40Z</time>
      </trkpt>
      <trkpt lat="44.48756" lon="-1.14986">
        <ele>18</ele>
        <time>2019-08-08T15:34:45Z</time>
      </trkpt>
      <trkpt lat="44.48758" lon="-1.14974">
        <ele>18</ele>
        <time>2019-08-08T15:34:50Z</time>
      </trkpt>
      <trkpt lat="44.48759" lon="-1.14963">
        <ele>18</ele>
        <time>2019-08-08T15:34:55Z</time>
      </trkpt>
      <trkpt lat="44.48761" lon="-1.14941">
        <ele>18</ele>
        <time>2019-08-08T15:35:05Z</time>
      </trkpt>
      <trkpt lat="44.48763" lon="-1.1493">
        <ele>18</ele>
        <time>2019-08-08T15:35:10Z</time>
      </trkpt>
      <trkpt lat="44.48765" lon="-1.14919">
        <ele>18</ele>
        <time>2019-08-08T15:35:15Z</time>
      </trkpt>
      <trkpt lat="44.48766" lon="-1.14908">
        <ele>18</ele>
        <time>2019-08-08T15:35:20Z</time>
      </trkpt>
      <trkpt lat="44.48767" lon="-1.14897">
        <ele>18</ele>
        <time>2019-08-08T15:35:25Z</time>
      </trkpt>
      <trkpt lat="44.48768" lon="-1.14886">
        <ele>18</ele>
        <time>2019-08-08T15:35:30Z</time>
      </trkpt>
      <trkpt lat="44.48769" lon="-1.14875">
        <ele>18</ele>
        <time>2019-08-08T15:35:35Z</time>
      </trkpt>
      <trkpt lat="44.4877" lon="-1.14863">
        <ele>18</ele>
        <time>2019-08-08T15:35:40Z</time>
      </trkpt>
      <trkpt lat="44.48772" lon="-1.14851">
        <ele>18</ele>
        <time>2019-08-08T15:35:45Z</time>
      </trkpt>
      <trkpt lat="44.48774" lon="-1.14828">
        <ele>18</ele>
        <time>2019-08-08T15:35:55Z</time>
      </trkpt>
      <trkpt lat="44.48775" lon="-1.14816">
        <ele>18</ele>
        <time>2019-08-08T15:36:00Z</time>
      </trkpt>
      <trkpt lat="44.48777" lon="-1.14805">
        <ele>18</ele>
        <time>2019-08-08T15:36:05Z</time>
      </trkpt>
      <trkpt lat="44.48779" lon="-1.14793">
        <ele>18</ele>
        <time>2019-08-08T15:36:10Z</time>
      </trkpt>
      <trkpt lat="44.48781" lon="-1.14781">
        <ele>18</ele>
        <time>2019-08-08T15:36:15Z</time>
      </trkpt>
      <trkpt lat="44.48783" lon="-1.14769">
        <ele>18</ele>
        <time>2019-08-08T15:36:20Z</time>
      </trkpt>
      <trkpt lat="44.48786" lon="-1.14757">
        <ele>18</ele>
        <time>2019-08-08T15:36:25Z</time>
      </trkpt>
      <trkpt lat="44.48788" lon="-1.14745">
        <ele>18</ele>
        <time>2019-08-08T15:36:30Z</time>
      </trkpt>
      <trkpt lat="44.48791" lon="-1.14722">
        <ele>18</ele>
        <time>2019-08-08T15:36:40Z</time>
      </trkpt>
      <trkpt lat="44.48793" lon="-1.14711">
        <ele>18</ele>
        <time>2019-08-08T15:36:45Z</time>
      </trkpt>
      <trkpt lat="44.48795" lon="-1.14701">
        <ele>18</ele>
        <time>2019-08-08T15:36:50Z</time>
      </trkpt>
      <trkpt lat="44.48796" lon="-1.1469">
        <ele>18</ele>
        <time>2019-08-08T15:36:55Z</time>
      </trkpt>
      <trkpt lat="44.48798" lon="-1.14679">
        <ele>18</ele>
        <time>2019-08-08T15:37:00Z</time>
      </trkpt>
      <trkpt lat="44.48799" lon="-1.14668">
        <ele>18</ele>
        <time>2019-08-08T15:37:05Z</time>
      </trkpt>
      <trkpt lat="44.48801" lon="-1.14657">
        <ele>18</ele>
        <time>2019-08-08T15:37:10Z</time>
      </trkpt>
      <trkpt lat="44.48802" lon="-1.14647">
        <ele>18</ele>
        <time>2019-08-08T15:37:15Z</time>
      </trkpt>
      <trkpt lat="44.48804" lon="-1.14637">
        <ele>18</ele>
        <time>2019-08-08T15:37:20Z</time>
      </trkpt>
      <trkpt lat="44.48807" lon="-1.14617">
        <ele>18</ele>
        <time>2019-08-08T15:37:30Z</time>
      </trkpt>
      <trkpt lat="44.48808" lon="-1.14608">
        <ele>18</ele>
        <time>2019-08-08T15:37:35Z</time>
      </trkpt>
      <trkpt lat="44.48811" lon="-1.14598">
        <ele>18</ele>
        <time>2019-08-08T15:37:40Z</time>
      </trkpt>
      <trkpt lat="44.48813" lon="-1.14588">
        <ele>18</ele>
        <time>2019-08-08T15:37:45Z</time>
      </trkpt>
      <trkpt lat="44.48815" lon="-1.14577">
        <ele>18</ele>
        <time>2019-08-08T15:37:50Z</time>
      </trkpt>
      <trkpt lat="44.48817" lon="-1.14567">
        <ele>18</ele>
        <time>2019-08-08T15:37:55Z</time>
      </trkpt>
      <trkpt lat="44.48819" lon="-1.14556">
        <ele>18</ele>
        <time>2019-08-08T15:38:00Z</time>
      </trkpt>
      <trkpt lat="44.48822" lon="-1.14545">
        <ele>18</ele>
        <time>2019-08-08T15:38:05Z</time>
      </trkpt>
      <trkpt lat="44.48827" lon="-1.14522">
        <ele>18</ele>
        <time>2019-08-08T15:38:15Z</time>
      </trkpt>
      <trkpt lat="44.4883" lon="-1.14511">
        <ele>18</ele>
        <time>2019-08-08T15:38:20Z</time>
      </trkpt>
      <trkpt lat="44.48833" lon="-1.14499">
        <ele>18</ele>
        <time>2019-08-08T15:38:25Z</time>
      </trkpt>
      <trkpt lat="44.48835" lon="-1.14488">
        <ele>18</ele>
        <time>2019-08-08T15:38:30Z</time>
      </trkpt>
      <trkpt lat="44.48837" lon="-1.14477">
        <ele>18</ele>
        <time>2019-08-08T15:38:35Z</time>
      </trkpt>
      <trkpt lat="44.4884" lon="-1.14466">
        <ele>18</ele>
        <time>2019-08-08T15:38:40Z</time>
      </trkpt>
      <trkpt lat="44.48843" lon="-1.14454">
        <ele>18</ele>
        <time>2019-08-08T15:38:45Z</time>
      </trkpt>
      <trkpt lat="44.48846" lon="-1.14443">
        <ele>18</ele>
        <time>2019-08-08T15:38:50Z</time>
      </trkpt>
      <trkpt lat="44.4885" lon="-1.14432">
        <ele>18</ele>
        <time>2019-08-08T15:38:55Z</time>
      </trkpt>
      <trkpt lat="44.48855" lon="-1.1441">
        <ele>18</ele>
        <time>2019-08-08T15:39:05Z</time>
      </trkpt>
      <trkpt lat="44.48858" lon="-1.14399">
        <ele>18</ele>
        <time>2019-08-08T15:39:10Z</time>
      </trkpt>
      <trkpt lat="44.48861" lon="-1.14388">
        <ele>18</ele>
        <time>2019-08-08T15:39:15Z</time>
      </trkpt>
      <trkpt lat="44.48864" lon="-1.14377">
        <ele>18</ele>
        <time>2019-08-08T15:39:20Z</time>
      </trkpt>
      <trkpt lat="44.48866" lon="-1.14367">
        <ele>18</ele>
        <time>2019-08-08T15:39:25Z</time>
      </trkpt>
      <trkpt lat="44.48869" lon="-1.14357">
        <ele>18</ele>
        <time>2019-08-08T15:39:30Z</time>
      </trkpt>
      <trkpt lat="44.48871" lon="-1.14347">
        <ele>18</ele>
        <time>2019-08-08T15:39:35Z</time>
      </trkpt>
      <trkpt lat="44.48873" lon="-1.14336">
        <ele>18</ele>
        <time>2019-08-08T15:39:40Z</time>
      </trkpt>
      <trkpt lat="44.48876" lon="-1.14316">
        <ele>18</ele>
        <time>2019-08-08T15:39:50Z</time>
      </trkpt>
      <trkpt lat="44.48877" lon="-1.14305">
        <ele>18</ele>
        <time>2019-08-08T15:39:55Z</time>
      </trkpt>
      <trkpt lat="44.48879" lon="-1.14294">
        <ele>18</ele>
        <time>2019-08-08T15:40:00Z</time>
      </trkpt>
      <trkpt lat="44.48881" lon="-1.14282">
        <ele>18</ele>
        <time>2019-08-08T15:40:05Z</time>
      </trkpt>
      <trkpt lat="44.48884" lon="-1.14271">
        <ele>18</ele>
        <time>2019-08-08T15:40:10Z</time>
      </trkpt>
      <trkpt lat="44.48886" lon="-1.14258">
        <ele>18</ele>
        <time>2019-08-08T15:40:15Z</time>
      </trkpt>
      <trkpt lat="44.48887" lon="-1.14246">
        <ele>18</ele>
        <time>2019-08-08T15:40:20Z</time>
      </trkpt>
      <trkpt lat="44.48889" lon="-1.14234">
        <ele>18</ele>
        <time>2019-08-08T15:40:25Z</time>
      </trkpt>
      <trkpt lat="44.48891" lon="-1.14221">
        <ele>18</ele>
        <time>2019-08-08T15:40:30Z</time>
      </trkpt>
      <trkpt lat="44.48894" lon="-1.14196">
        <ele>18</ele>
        <time>2019-08-08T15:40:40Z</time>
      </trkpt>
      <trkpt lat="44.48895" lon="-1.14184">
        <ele>18</ele>
        <time>2019-08-08T15:40:45Z</time>
      </trkpt>
      <trkpt lat="44.48897" lon="-1.14172">
        <ele>18</ele>
        <time>2019-08-08T15:40:50Z</time>
      </trkpt>
      <trkpt lat="44.48899" lon="-1.14159">
        <ele>18</ele>
        <time>2019-08-08T15:40:55Z</time>
      </trkpt>
      <trkpt lat="44.48901" lon="-1.14147">
        <ele>18</ele>
        <time>2019-08-08T15:41:00Z</time>
      </trkpt>
      <trkpt lat="44.48903" lon="-1.14135">
        <ele>18</ele>
        <time>2019-08-08T15:41:05Z</time>
      </trkpt>
      <trkpt lat="44.48904" lon="-1.14123">
        <ele>18</ele>
        <time>2019-08-08T15:41:10Z</time>
      </trkpt>
      <trkpt lat="44.48906" lon="-1.14112">
        <ele>18</ele>
        <time>2019-08-08T15:41:15Z</time>
      </trkpt>
      <trkpt lat="44.48909" lon="-1.14089">
        <ele>18</ele>
        <time>2019-08-08T15:41:25Z</time>
      </trkpt>
      <trkpt lat="44.48911" lon="-1.14078">
        <ele>18</ele>
        <time>2019-08-08T15:41:30Z</time>
      </trkpt>
      <trkpt lat="44.48912" lon="-1.14066">
        <ele>18</ele>
        <time>2019-08-08T15:41:35Z</time>
      </trkpt>
      <trkpt lat="44.48913" lon="-1.14054">
        <ele>18</ele>
        <time>2019-08-08T15:41:40Z</time>
      </trkpt>
      <trkpt lat="44.48915" lon="-1.14042">
        <ele>18</ele>
        <time>2019-08-08T15:41:45Z</time>
      </trkpt>
      <trkpt lat="44.48916" lon="-1.1403">
        <ele>18</ele>
        <time>2019-08-08T15:41:50Z</time>
      </trkpt>
      <trkpt lat="44.48917" lon="-1.14019">
        <ele>18</ele>
        <time>2019-08-08T15:41:55Z</time>
      </trkpt>
      <trkpt lat="44.48918" lon="-1.14008">
        <ele>18</ele>
        <time>2019-08-08T15:42:00Z</time>
      </trkpt>
      <trkpt lat="44.48919" lon="-1.13997">
        <ele>18</ele>
        <time>2019-08-08T15:42:05Z</time>
      </trkpt>
      <trkpt lat="44.4892" lon="-1.13975">
        <ele>18</ele>
        <time>2019-08-08T15:42:15Z</time>
      </trkpt>
      <trkpt lat="44.48921" lon="-1.13963">
        <ele>18</ele>
        <time>2019-08-08T15:42:20Z</time>
      </trkpt>
      <trkpt lat="44.4892" lon="-1.13952">
        <ele>18</ele>
        <time>2019-08-08T15:42:25Z</time>
      </trkpt>
      <trkpt lat="44.4892" lon="-1.13941">
        <ele>18</ele>
        <time>2019-08-08T15:42:30Z</time>
      </trkpt>
      <trkpt lat="44.4892" lon="-1.13931">
        <ele>18</ele>
        <time>2019-08-08T15:42:35Z</time>
      </trkpt>
      <trkpt lat="44.48919" lon="-1.13919">
        <ele>18</ele>
        <time>2019-08-08T15:42:40Z</time>
      </trkpt>
      <trkpt lat="44.48919" lon="-1.13907">
        <ele>18</ele>
        <time>2019-08-08T15:42:45Z</time>
      </trkpt>
      <trkpt lat="44.4892" lon="-1.13895">
        <ele>18</ele>
        <time>2019-08-08T15:42:50Z</time>
      </trkpt>
      <trkpt lat="44.48922" lon="-1.13869">
        <ele>18</ele>
        <time>2019-08-08T15:43:00Z</time>
      </trkpt>
      <trkpt lat="44.48922" lon="-1.13856">
        <ele>18</ele>
        <time>2019-08-08T15:43:05Z</time>
      </trkpt>
      <trkpt lat="44.48923" lon="-1.13843">
        <ele>18</ele>
        <time>2019-08-08T15:43:10Z</time>
      </trkpt>
      <trkpt lat="44.48924" lon="-1.1383">
        <ele>18</ele>
        <time>2019-08-08T15:43:15Z</time>
      </trkpt>
      <trkpt lat="44.48925" lon="-1.13818">
        <ele>18</ele>
        <time>2019-08-08T15:43:20Z</time>
      </trkpt>
      <trkpt lat="44.48927" lon="-1.13806">
        <ele>18</ele>
        <time>2019-08-08T15:43:25Z</time>
      </trkpt>
      <trkpt lat="44.48927" lon="-1.13794">
        <ele>18</ele>
        <time>2019-08-08T15:43:30Z</time>
      </trkpt>
      <trkpt lat="44.48928" lon="-1.13783">
        <ele>18</ele>
        <time>2019-08-08T15:43:35Z</time>
      </trkpt>
      <trkpt lat="44.48929" lon="-1.1376">
        <ele>18</ele>
        <time>2019-08-08T15:43:45Z</time>
      </trkpt>
      <trkpt lat="44.48929" lon="-1.13748">
        <ele>18</ele>
        <time>2019-08-08T15:43:50Z</time>
      </trkpt>
      <trkpt lat="44.4893" lon="-1.13736">
        <ele>18</ele>
        <time>2019-08-08T15:43:55Z</time>
      </trkpt>
      <trkpt lat="44.4893" lon="-1.13724">
        <ele>18</ele>
        <time>2019-08-08T15:44:00Z</time>
      </trkpt>
      <trkpt lat="44.48931" lon="-1.13712">
        <ele>18</ele>
        <time>2019-08-08T15:44:05Z</time>
      </trkpt>
      <trkpt lat="44.48931" lon="-1.13699">
        <ele>18</ele>
        <time>2019-08-08T15:44:10Z</time>
      </trkpt>
      <trkpt lat="44.48932" lon="-1.13687">
        <ele>18</ele>
        <time>2019-08-08T15:44:15Z</time>
      </trkpt>
      <trkpt lat="44.48934" lon="-1.13675">
        <ele>18</ele>
        <time>2019-08-08T15:44:20Z</time>
      </trkpt>
      <trkpt lat="44.48936" lon="-1.13662">
        <ele>18</ele>
        <time>2019-08-08T15:44:25Z</time>
      </trkpt>
      <trkpt lat="44.48938" lon="-1.13637">
        <ele>18</ele>
        <time>2019-08-08T15:44:35Z</time>
      </trkpt>
      <trkpt lat="44.4894" lon="-1.13624">
        <ele>18</ele>
        <time>2019-08-08T15:44:40Z</time>
      </trkpt>
      <trkpt lat="44.48942" lon="-1.13611">
        <ele>18</ele>
        <time>2019-08-08T15:44:45Z</time>
      </trkpt>
      <trkpt lat="44.48943" lon="-1.13599">
        <ele>18</ele>
        <time>2019-08-08T15:44:50Z</time>
      </trkpt>
      <trkpt lat="44.48944" lon="-1.13586">
        <ele>18</ele>
        <time>2019-08-08T15:44:55Z</time>
      </trkpt>
      <trkpt lat="44.48945" lon="-1.13574">
        <ele>18</ele>
        <time>2019-08-08T15:45:00Z</time>
      </trkpt>
      <trkpt lat="44.48947" lon="-1.13562">
        <ele>18</ele>
        <time>2019-08-08T15:45:05Z</time>
      </trkpt>
      <trkpt lat="44.48948" lon="-1.1355">
        <ele>18</ele>
        <time>2019-08-08T15:45:10Z</time>
      </trkpt>
      <trkpt lat="44.4895" lon="-1.13523">
        <ele>18</ele>
        <time>2019-08-08T15:45:20Z</time>
      </trkpt>
      <trkpt lat="44.48952" lon="-1.1351">
        <ele>18</ele>
        <time>2019-08-08T15:45:25Z</time>
      </trkpt>
      <trkpt lat="44.48954" lon="-1.13496">
        <ele>18</ele>
        <time>2019-08-08T15:45:30Z</time>
      </trkpt>
      <trkpt lat="44.48956" lon="-1.13481">
        <ele>18</ele>
        <time>2019-08-08T15:45:35Z</time>
      </trkpt>
      <trkpt lat="44.48958" lon="-1.13467">
        <ele>18</ele>
        <time>2019-08-08T15:45:40Z</time>
      </trkpt>
      <trkpt lat="44.48959" lon="-1.13452">
        <ele>18</ele>
        <time>2019-08-08T15:45:45Z</time>
      </trkpt>
      <trkpt lat="44.48961" lon="-1.13438">
        <ele>18</ele>
        <time>2019-08-08T15:45:50Z</time>
      </trkpt>
      <trkpt lat="44.48963" lon="-1.13424">
        <ele>18</ele>
        <time>2019-08-08T15:45:55Z</time>
      </trkpt>
      <trkpt lat="44.48965" lon="-1.1341">
        <ele>18</ele>
        <time>2019-08-08T15:46:00Z</time>
      </trkpt>
      <trkpt lat="44.48971" lon="-1.13382">
        <ele>18</ele>
        <time>2019-08-08T15:46:10Z</time>
      </trkpt>
      <trkpt lat="44.48974" lon="-1.13367">
        <ele>18</ele>
        <time>2019-08-08T15:46:15Z</time>
      </trkpt>
      <trkpt lat="44.48975" lon="-1.13352">
        <ele>18</ele>
        <time>2019-08-08T15:46:20Z</time>
      </trkpt>
      <trkpt lat="44.48977" lon="-1.13338">
        <ele>18</ele>
        <time>2019-08-08T15:46:25Z</time>
      </trkpt>
      <trkpt lat="44.48979" lon="-1.13323">
        <ele>18</ele>
        <time>2019-08-08T15:46:30Z</time>
      </trkpt>
      <trkpt lat="44.4898" lon="-1.13309">
        <ele>18</ele>
        <time>2019-08-08T15:46:35Z</time>
      </trkpt>
      <trkpt lat="44.48981" lon="-1.13295">
        <ele>18</ele>
        <time>2019-08-08T15:46:40Z</time>
      </trkpt>
      <trkpt lat="44.48982" lon="-1.13283">
        <ele>18</ele>
        <time>2019-08-08T15:46:45Z</time>
      </trkpt>
      <trkpt lat="44.48985" lon="-1.13257">
        <ele>18</ele>
        <time>2019-08-08T15:46:55Z</time>
      </trkpt>
      <trkpt lat="44.48986" lon="-1.13244">
        <ele>18</ele>
        <time>2019-08-08T15:47:00Z</time>
      </trkpt>
      <trkpt lat="44.48987" lon="-1.13232">
        <ele>18</ele>
        <time>2019-08-08T15:47:05Z</time>
      </trkpt>
      <trkpt lat="44.48988" lon="-1.13219">
        <ele>18</ele>
        <time>2019-08-08T15:47:10Z</time>
      </trkpt>
      <trkpt lat="44.48988" lon="-1.13206">
        <ele>18</ele>
        <time>2019-08-08T15:47:15Z</time>
      </trkpt>
      <trkpt lat="44.48989" lon="-1.13194">
        <ele>18</ele>
        <time>2019-08-08T15:47:20Z</time>
      </trkpt>
      <trkpt lat="44.48991" lon="-1.13182">
        <ele>18</ele>
        <time>2019-08-08T15:47:25Z</time>
      </trkpt>
      <trkpt lat="44.48992" lon="-1.13169">
        <ele>18</ele>
        <time>2019-08-08T15:47:30Z</time>
      </trkpt>
      <trkpt lat="44.48993" lon="-1.13156">
        <ele>18</ele>
        <time>2019-08-08T15:47:35Z</time>
      </trkpt>
      <trkpt lat="44.48997" lon="-1.13129">
        <ele>18</ele>
        <time>2019-08-08T15:47:45Z</time>
      </trkpt>
      <trkpt lat="44.48999" lon="-1.13116">
        <ele>18</ele>
        <time>2019-08-08T15:47:50Z</time>
      </trkpt>
      <trkpt lat="44.49001" lon="-1.13103">
        <ele>18</ele>
        <time>2019-08-08T15:47:55Z</time>
      </trkpt>
      <trkpt lat="44.49003" lon="-1.1309">
        <ele>18</ele>
        <time>2019-08-08T15:48:00Z</time>
      </trkpt>
      <trkpt lat="44.49004" lon="-1.13078">
        <ele>18</ele>
        <time>2019-08-08T15:48:05Z</time>
      </trkpt>
      <trkpt lat="44.49005" lon="-1.13065">
        <ele>18</ele>
        <time>2019-08-08T15:48:10Z</time>
      </trkpt>
      <trkpt lat="44.49007" lon="-1.13052">
        <ele>18</ele>
        <time>2019-08-08T15:48:15Z</time>
      </trkpt>
      <trkpt lat="44.49009" lon="-1.13039">
        <ele>18</ele>
        <time>2019-08-08T15:48:20Z</time>
      </trkpt>
      <trkpt lat="44.49012" lon="-1.13015">
        <ele>18</ele>
        <time>2019-08-08T15:48:30Z</time>
      </trkpt>
      <trkpt lat="44.49013" lon="-1.13004">
        <ele>18</ele>
        <time>2019-08-08T15:48:35Z</time>
      </trkpt>
      <trkpt lat="44.49014" lon="-1.12993">
        <ele>18</ele>
        <time>2019-08-08T15:48:40Z</time>
      </trkpt>
      <trkpt lat="44.49015" lon="-1.12982">
        <ele>18</ele>
        <time>2019-08-08T15:48:45Z</time>
      </trkpt>
      <trkpt lat="44.49015" lon="-1.12971">
        <ele>18</ele>
        <time>2019-08-08T15:48:50Z</time>
      </trkpt>
      <trkpt lat="44.49016" lon="-1.1296">
        <ele>18</ele>
        <time>2019-08-08T15:48:55Z</time>
      </trkpt>
      <trkpt lat="44.49017" lon="-1.12948">
        <ele>18</ele>
        <time>2019-08-08T15:49:00Z</time>
      </trkpt>
      <trkpt lat="44.49018" lon="-1.12937">
        <ele>18</ele>
        <time>2019-08-08T15:49:05Z</time>
      </trkpt>
      <trkpt lat="44.49019" lon="-1.12925">
        <ele>18</ele>
        <time>2019-08-08T15:49:10Z</time>
      </trkpt>
      <trkpt lat="44.49022" lon="-1.12899">
        <ele>18</ele>
        <time>2019-08-08T15:49:20Z</time>
      </trkpt>
      <trkpt lat="44.49025" lon="-1.12886">
        <ele>18</ele>
        <time>2019-08-08T15:49:25Z</time>
      </trkpt>
      <trkpt lat="44.49026" lon="-1.12873">
        <ele>18</ele>
        <time>2019-08-08T15:49:30Z</time>
      </trkpt>
      <trkpt lat="44.49029" lon="-1.1286">
        <ele>18</ele>
        <time>2019-08-08T15:49:35Z</time>
      </trkpt>
      <trkpt lat="44.4903" lon="-1.12846">
        <ele>18</ele>
        <time>2019-08-08T15:49:40Z</time>
      </trkpt>
      <trkpt lat="44.49032" lon="-1.12832">
        <ele>18</ele>
        <time>2019-08-08T15:49:45Z</time>
      </trkpt>
      <trkpt lat="44.49034" lon="-1.12818">
        <ele>18</ele>
        <time>2019-08-08T15:49:50Z</time>
      </trkpt>
      <trkpt lat="44.49036" lon="-1.12806">
        <ele>18</ele>
        <time>2019-08-08T15:49:55Z</time>
      </trkpt>
      <trkpt lat="44.4904" lon="-1.12782">
        <ele>18</ele>
        <time>2019-08-08T15:50:05Z</time>
      </trkpt>
      <trkpt lat="44.49041" lon="-1.12769">
        <ele>18</ele>
        <time>2019-08-08T15:50:10Z</time>
      </trkpt>
      <trkpt lat="44.49043" lon="-1.12756">
        <ele>18</ele>
        <time>2019-08-08T15:50:15Z</time>
      </trkpt>
      <trkpt lat="44.49045" lon="-1.12744">
        <ele>18</ele>
        <time>2019-08-08T15:50:20Z</time>
      </trkpt>
      <trkpt lat="44.49048" lon="-1.12731">
        <ele>18</ele>
        <time>2019-08-08T15:50:25Z</time>
      </trkpt>
      <trkpt lat="44.4905" lon="-1.12715">
        <ele>18</ele>
        <time>2019-08-08T15:50:30Z</time>
      </trkpt>
      <trkpt lat="44.49052" lon="-1.12703">
        <ele>18</ele>
        <time>2019-08-08T15:50:35Z</time>
      </trkpt>
      <trkpt lat="44.49054" lon="-1.12691">
        <ele>18</ele>
        <time>2019-08-08T15:50:40Z</time>
      </trkpt>
      <trkpt lat="44.49056" lon="-1.12678">
        <ele>18</ele>
        <time>2019-08-08T15:50:45Z</time>
      </trkpt>
      <trkpt lat="44.49061" lon="-1.12652">
        <ele>18</ele>
        <time>2019-08-08T15:50:55Z</time>
      </trkpt>
      <trkpt lat="44.49063" lon="-1.12638">
        <ele>18</ele>
        <time>2019-08-08T15:51:00Z</time>
      </trkpt>
      <trkpt lat="44.49065" lon="-1.12624">
        <ele>18</ele>
        <time>2019-08-08T15:51:05Z</time>
      </trkpt>
      <trkpt lat="44.49068" lon="-1.12609">
        <ele>18</ele>
        <time>2019-08-08T15:51:10Z</time>
      </trkpt>
      <trkpt lat="44.4907" lon="-1.12594">
        <ele>18</ele>
        <time>2019-08-08T15:51:15Z</time>
      </trkpt>
      <trkpt lat="44.49072" lon="-1.12579">
        <ele>18</ele>
        <time>2019-08-08T15:51:20Z</time>
      </trkpt>
      <trkpt lat="44.49074" lon="-1.12565">
        <ele>18</ele>
        <time>2019-08-08T15:51:25Z</time>
      </trkpt>
      <trkpt lat="44.49077" lon="-1.12551">
        <ele>18</ele>
        <time>2019-08-08T15:51:30Z</time>
      </trkpt>
      <trkpt lat="44.49081" lon="-1.12521">
        <ele>18</ele>
        <time>2019-08-08T15:51:40Z</time>
      </trkpt>
      <trkpt lat="44.49083" lon="-1.12506">
        <ele>18</ele>
        <time>2019-08-08T15:51:45Z</time>
      </trkpt>
      <trkpt lat="44.49084" lon="-1.12492">
        <ele>18</ele>
        <time>2019-08-08T15:51:50Z</time>
      </trkpt>
      <trkpt lat="44.49085" lon="-1.12477">
        <ele>18</ele>
        <time>2019-08-08T15:51:55Z</time>
      </trkpt>
      <trkpt lat="44.49087" lon="-1.12462">
        <ele>18</ele>
        <time>2019-08-08T15:52:00Z</time>
      </trkpt>
      <trkpt lat="44.49089" lon="-1.12446">
        <ele>18</ele>
        <time>2019-08-08T15:52:05Z</time>
      </trkpt>
      <trkpt lat="44.49092" lon="-1.12429">
        <ele>18</ele>
        <time>2019-08-08T15:52:10Z</time>
      </trkpt>
      <trkpt lat="44.49094" lon="-1.12414">
        <ele>18</ele>
        <time>2019-08-08T15:52:15Z</time>
      </trkpt>
      <trkpt lat="44.49096" lon="-1.12399">
        <ele>18</ele>
        <time>2019-08-08T15:52:20Z</time>
      </trkpt>
      <trkpt lat="44.49099" lon="-1.12371">
        <ele>18</ele>
        <time>2019-08-08T15:52:30Z</time>
      </trkpt>
      <trkpt lat="44.49101" lon="-1.12357">
        <ele>18</ele>
        <time>2019-08-08T15:52:35Z</time>
      </trkpt>
      <trkpt lat="44.49102" lon="-1.12343">
        <ele>18</ele>
        <time>2019-08-08T15:52:40Z</time>
      </trkpt>
      <trkpt lat="44.49103" lon="-1.1233">
        <ele>18</ele>
        <time>2019-08-08T15:52:45Z</time>
      </trkpt>
      <trkpt lat="44.49103" lon="-1.12316">
        <ele>18</ele>
        <time>2019-08-08T15:52:50Z</time>
      </trkpt>
      <trkpt lat="44.49103" lon="-1.12302">
        <ele>18</ele>
        <time>2019-08-08T15:52:55Z</time>
      </trkpt>
      <trkpt lat="44.49103" lon="-1.12289">
        <ele>18</ele>
        <time>2019-08-08T15:53:00Z</time>
      </trkpt>
      <trkpt lat="44.49104" lon="-1.12276">
        <ele>18</ele>
        <time>2019-08-08T15:53:05Z</time>
      </trkpt>
      <trkpt lat="44.49107" lon="-1.12252">
        <ele>18</ele>
        <time>2019-08-08T15:53:15Z</time>
      </trkpt>
      <trkpt lat="44.49108" lon="-1.12238">
        <ele>18</ele>
        <time>2019-08-08T15:53:20Z</time>
      </trkpt>
      <trkpt lat="44.49109" lon="-1.12224">
        <ele>18</ele>
        <time>2019-08-08T15:53:25Z</time>
      </trkpt>
      <trkpt lat="44.4911" lon="-1.12211">
        <ele>18</ele>
        <time>2019-08-08T15:53:30Z</time>
      </trkpt>
      <trkpt lat="44.49112" lon="-1.12197">
        <ele>18</ele>
        <time>2019-08-08T15:53:35Z</time>
      </trkpt>
      <trkpt lat="44.49113" lon="-1.12184">
        <ele>18</ele>
        <time>2019-08-08T15:53:40Z</time>
      </trkpt>
      <trkpt lat="44.49115" lon="-1.1217">
        <ele>18</ele>
        <time>2019-08-08T15:53:45Z</time>
      </trkpt>
      <trkpt lat="44.49117" lon="-1.12155">
        <ele>18</ele>
        <time>2019-08-08T15:53:50Z</time>
      </trkpt>
      <trkpt lat="44.49118" lon="-1.12142">
        <ele>18</ele>
        <time>2019-08-08T15:53:55Z</time>
      </trkpt>
      <trkpt lat="44.4912" lon="-1.12112">
        <ele>18</ele>
        <time>2019-08-08T15:54:05Z</time>
      </trkpt>
      <trkpt lat="44.49121" lon="-1.12098">
        <ele>18</ele>
        <time>2019-08-08T15:54:10Z</time>
      </trkpt>
      <trkpt lat="44.49122" lon="-1.12084">
        <ele>18</ele>
        <time>2019-08-08T15:54:15Z</time>
      </trkpt>
      <trkpt lat="44.49123" lon="-1.12071">
        <ele>18</ele>
        <time>2019-08-08T15:54:20Z</time>
      </trkpt>
      <trkpt lat="44.49124" lon="-1.12058">
        <ele>18</ele>
        <time>2019-08-08T15:54:25Z</time>
      </trkpt>
      <trkpt lat="44.49125" lon="-1.12044">
        <ele>18</ele>
        <time>2019-08-08T15:54:30Z</time>
      </trkpt>
      <trkpt lat="44.49127" lon="-1.1203">
        <ele>18</ele>
        <time>2019-08-08T15:54:35Z</time>
      </trkpt>
      <trkpt lat="44.4913" lon="-1.12015">
        <ele>18</ele>
        <time>2019-08-08T15:54:40Z</time>
      </trkpt>
      <trkpt lat="44.49134" lon="-1.11984">
        <ele>18</ele>
        <time>2019-08-08T15:54:50Z</time>
      </trkpt>
      <trkpt lat="44.49136" lon="-1.1197">
        <ele>18</ele>
        <time>2019-08-08T15:54:55Z</time>
      </trkpt>
      <trkpt lat="44.49138" lon="-1.11956">
        <ele>18</ele>
        <time>2019-08-08T15:55:00Z</time>
      </trkpt>
      <trkpt lat="44.49139" lon="-1.11943">
        <ele>18</ele>
        <time>2019-08-08T15:55:05Z</time>
      </trkpt>
      <trkpt lat="44.49139" lon="-1.1193">
        <ele>18</ele>
        <time>2019-08-08T15:55:10Z</time>
      </trkpt>
      <trkpt lat="44.4914" lon="-1.11917">
        <ele>18</ele>
        <time>2019-08-08T15:55:15Z</time>
      </trkpt>
      <trkpt lat="44.49142" lon="-1.11905">
        <ele>18</ele>
        <time>2019-08-08T15:55:20Z</time>
      </trkpt>
      <trkpt lat="44.49143" lon="-1.11893">
        <ele>18</ele>
        <time>2019-08-08T15:55:25Z</time>
      </trkpt>
      <trkpt lat="44.49144" lon="-1.1188">
        <ele>18</ele>
        <time>2019-08-08T15:55:30Z</time>
      </trkpt>
      <trkpt lat="44.49147" lon="-1.11856">
        <ele>18</ele>
        <time>2019-08-08T15:55:40Z</time>
      </trkpt>
      <trkpt lat="44.49148" lon="-1.11843">
        <ele>18</ele>
        <time>2019-08-08T15:55:45Z</time>
      </trkpt>
      <trkpt lat="44.49149" lon="-1.11831">
        <ele>18</ele>
        <time>2019-08-08T15:55:50Z</time>
      </trkpt>
      <trkpt lat="44.4915" lon="-1.11819">
        <ele>18</ele>
        <time>2019-08-08T15:55:55Z</time>
      </trkpt>
      <trkpt lat="44.49152" lon="-1.11806">
        <ele>18</ele>
        <time>2019-08-08T15:56:00Z</time>
      </trkpt>
      <trkpt lat="44.49153" lon="-1.11794">
        <ele>18</ele>
        <time>2019-08-08T15:56:05Z</time>
      </trkpt>
      <trkpt lat="44.49153" lon="-1.11781">
        <ele>18</ele>
        <time>2019-08-08T15:56:10Z</time>
      </trkpt>
      <trkpt lat="44.49154" lon="-1.11769">
        <ele>18</ele>
        <time>2019-08-08T15:56:15Z</time>
      </trkpt>
      <trkpt lat="44.49156" lon="-1.11745">
        <ele>18</ele>
        <time>2019-08-08T15:56:25Z</time>
      </trkpt>
      <trkpt lat="44.49157" lon="-1.11733">
        <ele>18</ele>
        <time>2019-08-08T15:56:30Z</time>
      </trkpt>
      <trkpt lat="44.49157" lon="-1.11721">
        <ele>18</ele>
        <time>2019-08-08T15:56:35Z</time>
      </trkpt>
      <trkpt lat="44.49159" lon="-1.11709">
        <ele>18</ele>
        <time>2019-08-08T15:56:40Z</time>
      </trkpt>
      <trkpt lat="44.49159" lon="-1.11696">
        <ele>18</ele>
        <time>2019-08-08T15:56:45Z</time>
      </trkpt>
      <trkpt lat="44.4916" lon="-1.11683">
        <ele>18</ele>
        <time>2019-08-08T15:56:50Z</time>
      </trkpt>
      <trkpt lat="44.4916" lon="-1.11671">
        <ele>18</ele>
        <time>2019-08-08T15:56:55Z</time>
      </trkpt>
      <trkpt lat="44.49162" lon="-1.1166">
        <ele>18</ele>
        <time>2019-08-08T15:57:00Z</time>
      </trkpt>
      <trkpt lat="44.49163" lon="-1.11648">
        <ele>18</ele>
        <time>2019-08-08T15:57:05Z</time>
      </trkpt>
      <trkpt lat="44.49165" lon="-1.11626">
        <ele>18</ele>
        <time>2019-08-08T15:57:15Z</time>
      </trkpt>
      <trkpt lat="44.49166" lon="-1.11616">
        <ele>18</ele>
        <time>2019-08-08T15:57:20Z</time>
      </trkpt>
      <trkpt lat="44.49166" lon="-1.11605">
        <ele>18</ele>
        <time>2019-08-08T15:57:25Z</time>
      </trkpt>
      <trkpt lat="44.49166" lon="-1.11594">
        <ele>18</ele>
        <time>2019-08-08T15:57:30Z</time>
      </trkpt>
      <trkpt lat="44.49167" lon="-1.11583">
        <ele>18</ele>
        <time>2019-08-08T15:57:35Z</time>
      </trkpt>
      <trkpt lat="44.49168" lon="-1.11572">
        <ele>18</ele>
        <time>2019-08-08T15:57:40Z</time>
      </trkpt>
      <trkpt lat="44.49168" lon="-1.11561">
        <ele>18</ele>
        <time>2019-08-08T15:57:45Z</time>
      </trkpt>
      <trkpt lat="44.49169" lon="-1.1155">
        <ele>18</ele>
        <time>2019-08-08T15:57:50Z</time>
      </trkpt>
      <trkpt lat="44.49171" lon="-1.11529">
        <ele>18</ele>
        <time>2019-08-08T15:58:00Z</time>
      </trkpt>
      <trkpt lat="44.49172" lon="-1.11517">
        <ele>18</ele>
        <time>2019-08-08T15:58:05Z</time>
      </trkpt>
      <trkpt lat="44.49173" lon="-1.11506">
        <ele>18</ele>
        <time>2019-08-08T15:58:10Z</time>
      </trkpt>
      <trkpt lat="44.49173" lon="-1.11495">
        <ele>18</ele>
        <time>2019-08-08T15:58:15Z</time>
      </trkpt>
      <trkpt lat="44.49174" lon="-1.11484">
        <ele>18</ele>
        <time>2019-08-08T15:58:20Z</time>
      </trkpt>
      <trkpt lat="44.49174" lon="-1.11473">
        <ele>18</ele>
        <time>2019-08-08T15:58:25Z</time>
      </trkpt>
      <trkpt lat="44.49174" lon="-1.11462">
        <ele>18</ele>
        <time>2019-08-08T15:58:30Z</time>
      </trkpt>
      <trkpt lat="44.49175" lon="-1.11452">
        <ele>18</ele>
        <time>2019-08-08T15:58:35Z</time>
      </trkpt>
      <trkpt lat="44.49175" lon="-1.11432">
        <ele>18</ele>
        <time>2019-08-08T15:58:45Z</time>
      </trkpt>
      <trkpt lat="44.49176" lon="-1.11423">
        <ele>18</ele>
        <time>2019-08-08T15:58:50Z</time>
      </trkpt>
      <trkpt lat="44.49176" lon="-1.11413">
        <ele>18</ele>
        <time>2019-08-08T15:58:55Z</time>
      </trkpt>
      <trkpt lat="44.49176" lon="-1.11403">
        <ele>18</ele>
        <time>2019-08-08T15:59:00Z</time>
      </trkpt>
      <trkpt lat="44.49177" lon="-1.11393">
        <ele>18</ele>
        <time>2019-08-08T15:59:05Z</time>
      </trkpt>
      <trkpt lat="44.49177" lon="-1.11384">
        <ele>18</ele>
        <time>2019-08-08T15:59:10Z</time>
      </trkpt>
      <trkpt lat="44.49178" lon="-1.11374">
        <ele>18</ele>
        <time>2019-08-08T15:59:15Z</time>
      </trkpt>
      <trkpt lat="44.49179" lon="-1.11364">
        <ele>18</ele>
        <time>2019-08-08T15:59:20Z</time>
      </trkpt>
      <trkpt lat="44.49179" lon="-1.11355">
        <ele>18</ele>
        <time>2019-08-08T15:59:25Z</time>
      </trkpt>
      <trkpt lat="44.49181" lon="-1.11336">
        <ele>18</ele>
        <time>2019-08-08T15:59:35Z</time>
      </trkpt>
      <trkpt lat="44.49182" lon="-1.11326">
        <ele>18</ele>
        <time>2019-08-08T15:59:40Z</time>
      </trkpt>
      <trkpt lat="44.49183" lon="-1.11316">
        <ele>18</ele>
        <time>2019-08-08T15:59:45Z</time>
      </trkpt>
      <trkpt lat="44.49184" lon="-1.11306">
        <ele>18</ele>
        <time>2019-08-08T15:59:50Z</time>
      </trkpt>
      <trkpt lat="44.49185" lon="-1.11295">
        <ele>18</ele>
        <time>2019-08-08T15:59:55Z</time>
      </trkpt>
      <trkpt lat="44.49186" lon="-1.11284">
        <ele>18</ele>
        <time>2019-08-08T16:00:00Z</time>
      </trkpt>
      <trkpt lat="44.49186" lon="-1.11273">
        <ele>18</ele>
        <time>2019-08-08T16:00:05Z</time>
      </trkpt>
      <trkpt lat="44.49186" lon="-1.11261">
        <ele>18</ele>
        <time>2019-08-08T16:00:10Z</time>
      </trkpt>
      <trkpt lat="44.49187" lon="-1.11236">
        <ele>18</ele>
        <time>2019-08-08T16:00:20Z</time>
      </trkpt>
      <trkpt lat="44.49188" lon="-1.11223">
        <ele>18</ele>
        <time>2019-08-08T16:00:25Z</time>
      </trkpt>
      <trkpt lat="44.49189" lon="-1.1121">
        <ele>18</ele>
        <time>2019-08-08T16:00:30Z</time>
      </trkpt>
      <trkpt lat="44.49189" lon="-1.11199">
        <ele>18</ele>
        <time>2019-08-08T16:00:35Z</time>
      </trkpt>
      <trkpt lat="44.4919" lon="-1.11187">
        <ele>18</ele>
        <time>2019-08-08T16:00:40Z</time>
      </trkpt>
      <trkpt lat="44.49191" lon="-1.11175">
        <ele>18</ele>
        <time>2019-08-08T16:00:45Z</time>
      </trkpt>
      <trkpt lat="44.49191" lon="-1.11164">
        <ele>18</ele>
        <time>2019-08-08T16:00:50Z</time>
      </trkpt>
      <trkpt lat="44.49192" lon="-1.11153">
        <ele>18</ele>
        <time>2019-08-08T16:00:55Z</time>
      </trkpt>
      <trkpt lat="44.49192" lon="-1.11141">
        <ele>18</ele>
        <time>2019-08-08T16:01:00Z</time>
      </trkpt>
      <trkpt lat="44.49193" lon="-1.11119">
        <ele>18</ele>
        <time>2019-08-08T16:01:10Z</time>
      </trkpt>
      <trkpt lat="44.49194" lon="-1.11107">
        <ele>18</ele>
        <time>2019-08-08T16:01:15Z</time>
      </trkpt>
      <trkpt lat="44.49195" lon="-1.11095">
        <ele>18</ele>
        <time>2019-08-08T16:01:20Z</time>
      </trkpt>
      <trkpt lat="44.49196" lon="-1.11084">
        <ele>18</ele>
        <time>2019-08-08T16:01:25Z</time>
      </trkpt>
      <trkpt lat="44.49197" lon="-1.11072">
        <ele>18</ele>
        <time>2019-08-08T16:01:30Z</time>
      </trkpt>
      <trkpt lat="44.49198" lon="-1.11061">
        <ele>18</ele>
        <time>2019-08-08T16:01:35Z</time>
      </trkpt>
      <trkpt lat="44.49199" lon="-1.11049">
        <ele>18</ele>
        <time>2019-08-08T16:01:40Z</time>
      </trkpt>
      <trkpt lat="44.49198" lon="-1.11037">
        <ele>18</ele>
        <time>2019-08-08T16:01:45Z</time>
      </trkpt>
      <trkpt lat="44.49198" lon="-1.11012">
        <ele>18</ele>
        <time>2019-08-08T16:01:55Z</time>
      </trkpt>
      <trkpt lat="44.49198" lon="-1.11">
        <ele>18</ele>
        <time>2019-08-08T16:02:00Z</time>
      </trkpt>
      <trkpt lat="44.49199" lon="-1.10988">
        <ele>18</ele>
        <time>2019-08-08T16:02:05Z</time>
      </trkpt>
      <trkpt lat="44.492" lon="-1.10976">
        <ele>18</ele>
        <time>2019-08-08T16:02:10Z</time>
      </trkpt>
      <trkpt lat="44.49201" lon="-1.10964">
        <ele>18</ele>
        <time>2019-08-08T16:02:15Z</time>
      </trkpt>
      <trkpt lat="44.49202" lon="-1.10952">
        <ele>18</ele>
        <time>2019-08-08T16:02:20Z</time>
      </trkpt>
      <trkpt lat="44.49202" lon="-1.1094">
        <ele>18</ele>
        <time>2019-08-08T16:02:25Z</time>
      </trkpt>
      <trkpt lat="44.49202" lon="-1.10926">
        <ele>18</ele>
        <time>2019-08-08T16:02:30Z</time>
      </trkpt>
      <trkpt lat="44.49204" lon="-1.10913">
        <ele>18</ele>
        <time>2019-08-08T16:02:35Z</time>
      </trkpt>
      <trkpt lat="44.49206" lon="-1.10887">
        <ele>18</ele>
        <time>2019-08-08T16:02:45Z</time>
      </trkpt>
      <trkpt lat="44.49207" lon="-1.10873">
        <ele>18</ele>
        <time>2019-08-08T16:02:50Z</time>
      </trkpt>
      <trkpt lat="44.49209" lon="-1.10859">
        <ele>18</ele>
        <time>2019-08-08T16:02:55Z</time>
      </trkpt>
      <trkpt lat="44.49211" lon="-1.10845">
        <ele>18</ele>
        <time>2019-08-08T16:03:00Z</time>
      </trkpt>
      <trkpt lat="44.49213" lon="-1.10831">
        <ele>18</ele>
        <time>2019-08-08T16:03:05Z</time>
      </trkpt>
      <trkpt lat="44.49215" lon="-1.10817">
        <ele>18</ele>
        <time>2019-08-08T16:03:10Z</time>
      </trkpt>
      <trkpt lat="44.49218" lon="-1.10804">
        <ele>18</ele>
        <time>2019-08-08T16:03:15Z</time>
      </trkpt>
      <trkpt lat="44.4922" lon="-1.1079">
        <ele>18</ele>
        <time>2019-08-08T16:03:20Z</time>
      </trkpt>
      <trkpt lat="44.49223" lon="-1.10765">
        <ele>18</ele>
        <time>2019-08-08T16:03:30Z</time>
      </trkpt>
      <trkpt lat="44.49224" lon="-1.10752">
        <ele>18</ele>
        <time>2019-08-08T16:03:35Z</time>
      </trkpt>
      <trkpt lat="44.49225" lon="-1.1074">
        <ele>18</ele>
        <time>2019-08-08T16:03:40Z</time>
      </trkpt>
      <trkpt lat="44.49227" lon="-1.10727">
        <ele>18</ele>
        <time>2019-08-08T16:03:45Z</time>
      </trkpt>
      <trkpt lat="44.49228" lon="-1.10715">
        <ele>18</ele>
        <time>2019-08-08T16:03:50Z</time>
      </trkpt>
      <trkpt lat="44.4923" lon="-1.10702">
        <ele>18</ele>
        <time>2019-08-08T16:03:55Z</time>
      </trkpt>
      <trkpt lat="44.49232" lon="-1.10691">
        <ele>18</ele>
        <time>2019-08-08T16:04:00Z</time>
      </trkpt>
      <trkpt lat="44.49233" lon="-1.10679">
        <ele>18</ele>
        <time>2019-08-08T16:04:05Z</time>
      </trkpt>
      <trkpt lat="44.49235" lon="-1.10668">
        <ele>18</ele>
        <time>2019-08-08T16:04:10Z</time>
      </trkpt>
      <trkpt lat="44.49238" lon="-1.10646">
        <ele>18</ele>
        <time>2019-08-08T16:04:20Z</time>
      </trkpt>
      <trkpt lat="44.49239" lon="-1.10634">
        <ele>18</ele>
        <time>2019-08-08T16:04:25Z</time>
      </trkpt>
      <trkpt lat="44.4924" lon="-1.10621">
        <ele>18</ele>
        <time>2019-08-08T16:04:30Z</time>
      </trkpt>
      <trkpt lat="44.49242" lon="-1.10608">
        <ele>18</ele>
        <time>2019-08-08T16:04:35Z</time>
      </trkpt>
      <trkpt lat="44.49244" lon="-1.10596">
        <ele>18</ele>
        <time>2019-08-08T16:04:40Z</time>
      </trkpt>
      <trkpt lat="44.49246" lon="-1.10584">
        <ele>18</ele>
        <time>2019-08-08T16:04:45Z</time>
      </trkpt>
      <trkpt lat="44.49247" lon="-1.10572">
        <ele>18</ele>
        <time>2019-08-08T16:04:50Z</time>
      </trkpt>
      <trkpt lat="44.49249" lon="-1.10559">
        <ele>18</ele>
        <time>2019-08-08T16:04:55Z</time>
      </trkpt>
      <trkpt lat="44.4925" lon="-1.10535">
        <ele>18</ele>
        <time>2019-08-08T16:05:05Z</time>
      </trkpt>
      <trkpt lat="44.4925" lon="-1.10523">
        <ele>18</ele>
        <time>2019-08-08T16:05:10Z</time>
      </trkpt>
      <trkpt lat="44.49249" lon="-1.10512">
        <ele>18</ele>
        <time>2019-08-08T16:05:15Z</time>
      </trkpt>
      <trkpt lat="44.49249" lon="-1.10501">
        <ele>18</ele>
        <time>2019-08-08T16:05:20Z</time>
      </trkpt>
      <trkpt lat="44.49248" lon="-1.1049">
        <ele>18</ele>
        <time>2019-08-08T16:05:25Z</time>
      </trkpt>
      <trkpt lat="44.49247" lon="-1.1048">
        <ele>18</ele>
        <time>2019-08-08T16:05:30Z</time>
      </trkpt>
      <trkpt lat="44.49247" lon="-1.1047">
        <ele>18</ele>
        <time>2019-08-08T16:05:35Z</time>
      </trkpt>
      <trkpt lat="44.49246" lon="-1.10459">
        <ele>18</ele>
        <time>2019-08-08T16:05:40Z</time>
      </trkpt>
      <trkpt lat="44.49245" lon="-1.10448">
        <ele>18</ele>
        <time>2019-08-08T16:05:45Z</time>
      </trkpt>
      <trkpt lat="44.49244" lon="-1.10426">
        <ele>18</ele>
        <time>2019-08-08T16:05:55Z</time>
      </trkpt>
      <trkpt lat="44.49244" lon="-1.10414">
        <ele>18</ele>
        <time>2019-08-08T16:06:00Z</time>
      </trkpt>
      <trkpt lat="44.49243" lon="-1.10402">
        <ele>18</ele>
        <time>2019-08-08T16:06:05Z</time>
      </trkpt>
      <trkpt lat="44.49242" lon="-1.1039">
        <ele>18</ele>
        <time>2019-08-08T16:06:10Z</time>
      </trkpt>
      <trkpt lat="44.49242" lon="-1.10378">
        <ele>18</ele>
        <time>2019-08-08T16:06:15Z</time>
      </trkpt>
      <trkpt lat="44.49241" lon="-1.10366">
        <ele>18</ele>
        <time>2019-08-08T16:06:20Z</time>
      </trkpt>
      <trkpt lat="44.49241" lon="-1.10353">
        <ele>18</ele>
        <time>2019-08-08T16:06:25Z</time>
      </trkpt>
      <trkpt lat="44.4924" lon="-1.10342">
        <ele>18</ele>
        <time>2019-08-08T16:06:30Z</time>
      </trkpt>
      <trkpt lat="44.49239" lon="-1.1032">
        <ele>18</ele>
        <time>2019-08-08T16:06:40Z</time>
      </trkpt>
      <trkpt lat="44.49238" lon="-1.10308">
        <ele>18</ele>
        <time>2019-08-08T16:06:45Z</time>
      </trkpt>
      <trkpt lat="44.49237" lon="-1.10296">
        <ele>18</ele>
        <time>2019-08-08T16:06:50Z</time>
      </trkpt>
      <trkpt lat="44.49237" lon="-1.10285">
        <ele>18</ele>
        <time>2019-08-08T16:06:55Z</time>
      </trkpt>
      <trkpt lat="44.49236" lon="-1.10273">
        <ele>18</ele>
        <time>2019-08-08T16:07:00Z</time>
      </trkpt>
      <trkpt lat="44.49235" lon="-1.10261">
        <ele>18</ele>
        <time>2019-08-08T16:07:05Z</time>
      </trkpt>
      <trkpt lat="44.49234" lon="-1.1025">
        <ele>18</ele>
        <time>2019-08-08T16:07:10Z</time>
      </trkpt>
      <trkpt lat="44.49233" lon="-1.10239">
        <ele>18</ele>
        <time>2019-08-08T16:07:15Z</time>
      </trkpt>
      <trkpt lat="44.49233" lon="-1.10228">
        <ele>18</ele>
        <time>2019-08-08T16:07:20Z</time>
      </trkpt>
      <trkpt lat="44.49231" lon="-1.10207">
        <ele>18</ele>
        <time>2019-08-08T16:07:30Z</time>
      </trkpt>
      <trkpt lat="44.49231" lon="-1.10196">
        <ele>18</ele>
        <time>2019-08-08T16:07:35Z</time>
      </trkpt>
      <trkpt lat="44.49229" lon="-1.10186">
        <ele>18</ele>
        <time>2019-08-08T16:07:40Z</time>
      </trkpt>
      <trkpt lat="44.49228" lon="-1.10176">
        <ele>18</ele>
        <time>2019-08-08T16:07:45Z</time>
      </trkpt>
      <trkpt lat="44.49227" lon="-1.10165">
        <ele>18</ele>
        <time>2019-08-08T16:07:50Z</time>
      </trkpt>
      <trkpt lat="44.49226" lon="-1.10154">
        <ele>18</ele>
        <time>2019-08-08T16:07:55Z</time>
      </trkpt>
      <trkpt lat="44.49224" lon="-1.10143">
        <ele>18</ele>
        <time>2019-08-08T16:08:00Z</time>
      </trkpt>
      <trkpt lat="44.49224" lon="-1.10132">
        <ele>18</ele>
        <time>2019-08-08T16:08:05Z</time>
      </trkpt>
      <trkpt lat="44.49223" lon="-1.10111">
        <ele>18</ele>
        <time>2019-08-08T16:08:15Z</time>
      </trkpt>
      <trkpt lat="44.49222" lon="-1.101">
        <ele>18</ele>
        <time>2019-08-08T16:08:20Z</time>
      </trkpt>
      <trkpt lat="44.49221" lon="-1.10088">
        <ele>18</ele>
        <time>2019-08-08T16:08:25Z</time>
      </trkpt>
      <trkpt lat="44.49219" lon="-1.10077">
        <ele>18</ele>
        <time>2019-08-08T16:08:30Z</time>
      </trkpt>
      <trkpt lat="44.49218" lon="-1.10065">
        <ele>18</ele>
        <time>2019-08-08T16:08:35Z</time>
      </trkpt>
      <trkpt lat="44.49217" lon="-1.10052">
        <ele>18</ele>
        <time>2019-08-08T16:08:40Z</time>
      </trkpt>
      <trkpt lat="44.49216" lon="-1.10038">
        <ele>18</ele>
        <time>2019-08-08T16:08:45Z</time>
      </trkpt>
      <trkpt lat="44.49216" lon="-1.10024">
        <ele>18</ele>
        <time>2019-08-08T16:08:50Z</time>
      </trkpt>
      <trkpt lat="44.49215" lon="-1.10011">
        <ele>18</ele>
        <time>2019-08-08T16:08:55Z</time>
      </trkpt>
      <trkpt lat="44.49213" lon="-1.09987">
        <ele>18</ele>
        <time>2019-08-08T16:09:05Z</time>
      </trkpt>
      <trkpt lat="44.49213" lon="-1.09973">
        <ele>18</ele>
        <time>2019-08-08T16:09:10Z</time>
      </trkpt>
      <trkpt lat="44.49212" lon="-1.09958">
        <ele>18</ele>
        <time>2019-08-08T16:09:15Z</time>
      </trkpt>
      <trkpt lat="44.49211" lon="-1.09944">
        <ele>18</ele>
        <time>2019-08-08T16:09:20Z</time>
      </trkpt>
      <trkpt lat="44.4921" lon="-1.09932">
        <ele>18</ele>
        <time>2019-08-08T16:09:25Z</time>
      </trkpt>
      <trkpt lat="44.4921" lon="-1.09919">
        <ele>18</ele>
        <time>2019-08-08T16:09:30Z</time>
      </trkpt>
      <trkpt lat="44.49209" lon="-1.09908">
        <ele>18</ele>
        <time>2019-08-08T16:09:35Z</time>
      </trkpt>
      <trkpt lat="44.49208" lon="-1.09897">
        <ele>18</ele>
        <time>2019-08-08T16:09:40Z</time>
      </trkpt>
      <trkpt lat="44.49206" lon="-1.09875">
        <ele>18</ele>
        <time>2019-08-08T16:09:50Z</time>
      </trkpt>
      <trkpt lat="44.49206" lon="-1.09864">
        <ele>18</ele>
        <time>2019-08-08T16:09:55Z</time>
      </trkpt>
      <trkpt lat="44.49205" lon="-1.09852">
        <ele>18</ele>
        <time>2019-08-08T16:10:00Z</time>
      </trkpt>
      <trkpt lat="44.49204" lon="-1.09841">
        <ele>18</ele>
        <time>2019-08-08T16:10:05Z</time>
      </trkpt>
      <trkpt lat="44.49202" lon="-1.0983">
        <ele>18</ele>
        <time>2019-08-08T16:10:10Z</time>
      </trkpt>
      <trkpt lat="44.49201" lon="-1.09818">
        <ele>18</ele>
        <time>2019-08-08T16:10:15Z</time>
      </trkpt>
      <trkpt lat="44.492" lon="-1.09806">
        <ele>18</ele>
        <time>2019-08-08T16:10:20Z</time>
      </trkpt>
      <trkpt lat="44.49198" lon="-1.09793">
        <ele>18</ele>
        <time>2019-08-08T16:10:25Z</time>
      </trkpt>
      <trkpt lat="44.49197" lon="-1.0978">
        <ele>18</ele>
        <time>2019-08-08T16:10:30Z</time>
      </trkpt>
      <trkpt lat="44.49196" lon="-1.09756">
        <ele>18</ele>
        <time>2019-08-08T16:10:40Z</time>
      </trkpt>
      <trkpt lat="44.49195" lon="-1.09745">
        <ele>18</ele>
        <time>2019-08-08T16:10:45Z</time>
      </trkpt>
      <trkpt lat="44.49194" lon="-1.09732">
        <ele>18</ele>
        <time>2019-08-08T16:10:50Z</time>
      </trkpt>
      <trkpt lat="44.49194" lon="-1.0972">
        <ele>18</ele>
        <time>2019-08-08T16:10:55Z</time>
      </trkpt>
      <trkpt lat="44.49193" lon="-1.09707">
        <ele>18</ele>
        <time>2019-08-08T16:11:00Z</time>
      </trkpt>
      <trkpt lat="44.49193" lon="-1.09696">
        <ele>18</ele>
        <time>2019-08-08T16:11:05Z</time>
      </trkpt>
      <trkpt lat="44.49192" lon="-1.09685">
        <ele>18</ele>
        <time>2019-08-08T16:11:10Z</time>
      </trkpt>
      <trkpt lat="44.49192" lon="-1.09673">
        <ele>18</ele>
        <time>2019-08-08T16:11:15Z</time>
      </trkpt>
      <trkpt lat="44.49192" lon="-1.0965">
        <ele>18</ele>
        <time>2019-08-08T16:11:25Z</time>
      </trkpt>
      <trkpt lat="44.49192" lon="-1.09638">
        <ele>18</ele>
        <time>2019-08-08T16:11:30Z</time>
      </trkpt>
      <trkpt lat="44.49192" lon="-1.09626">
        <ele>18</ele>
        <time>2019-08-08T16:11:35Z</time>
      </trkpt>
      <trkpt lat="44.49191" lon="-1.09614">
        <ele>18</ele>
        <time>2019-08-08T16:11:40Z</time>
      </trkpt>
      <trkpt lat="44.49191" lon="-1.09602">
        <ele>18</ele>
        <time>2019-08-08T16:11:45Z</time>
      </trkpt>
      <trkpt lat="44.49191" lon="-1.09589">
        <ele>18</ele>
        <time>2019-08-08T16:11:50Z</time>
      </trkpt>
      <trkpt lat="44.49192" lon="-1.09576">
        <ele>18</ele>
        <time>2019-08-08T16:11:55Z</time>
      </trkpt>
      <trkpt lat="44.49193" lon="-1.09562">
        <ele>18</ele>
        <time>2019-08-08T16:12:00Z</time>
      </trkpt>
      <trkpt lat="44.49194" lon="-1.09549">
        <ele>18</ele>
        <time>2019-08-08T16:12:05Z</time>
      </trkpt>
      <trkpt lat="44.49195" lon="-1.09522">
        <ele>18</ele>
        <time>2019-08-08T16:12:15Z</time>
      </trkpt>
      <trkpt lat="44.49196" lon="-1.09508">
        <ele>18</ele>
        <time>2019-08-08T16:12:20Z</time>
      </trkpt>
      <trkpt lat="44.49197" lon="-1.09494">
        <ele>18</ele>
        <time>2019-08-08T16:12:25Z</time>
      </trkpt>
      <trkpt lat="44.49198" lon="-1.0948">
        <ele>18</ele>
        <time>2019-08-08T16:12:30Z</time>
      </trkpt>
      <trkpt lat="44.49199" lon="-1.09465">
        <ele>18</ele>
        <time>2019-08-08T16:12:35Z</time>
      </trkpt>
      <trkpt lat="44.492" lon="-1.09451">
        <ele>18</ele>
        <time>2019-08-08T16:12:40Z</time>
      </trkpt>
      <trkpt lat="44.49201" lon="-1.09437">
        <ele>18</ele>
        <time>2019-08-08T16:12:45Z</time>
      </trkpt>
      <trkpt lat="44.49203" lon="-1.09424">
        <ele>18</ele>
        <time>2019-08-08T16:12:50Z</time>
      </trkpt>
      <trkpt lat="44.49205" lon="-1.09396">
        <ele>18</ele>
        <time>2019-08-08T16:13:00Z</time>
      </trkpt>
      <trkpt lat="44.49206" lon="-1.09382">
        <ele>18</ele>
        <time>2019-08-08T16:13:05Z</time>
      </trkpt>
      <trkpt lat="44.49206" lon="-1.09369">
        <ele>18</ele>
        <time>2019-08-08T16:13:10Z</time>
      </trkpt>
      <trkpt lat="44.49207" lon="-1.09356">
        <ele>18</ele>
        <time>2019-08-08T16:13:15Z</time>
      </trkpt>
      <trkpt lat="44.49208" lon="-1.09343">
        <ele>18</ele>
        <time>2019-08-08T16:13:20Z</time>
      </trkpt>
      <trkpt lat="44.49208" lon="-1.0933">
        <ele>18</ele>
        <time>2019-08-08T16:13:25Z</time>
      </trkpt>
      <trkpt lat="44.49209" lon="-1.09318">
        <ele>18</ele>
        <time>2019-08-08T16:13:30Z</time>
      </trkpt>
      <trkpt lat="44.49208" lon="-1.09306">
        <ele>18</ele>
        <time>2019-08-08T16:13:35Z</time>
      </trkpt>
      <trkpt lat="44.49206" lon="-1.09282">
        <ele>18</ele>
        <time>2019-08-08T16:13:45Z</time>
      </trkpt>
      <trkpt lat="44.49205" lon="-1.0927">
        <ele>18</ele>
        <time>2019-08-08T16:13:50Z</time>
      </trkpt>
      <trkpt lat="44.49204" lon="-1.09258">
        <ele>18</ele>
        <time>2019-08-08T16:13:55Z</time>
      </trkpt>
      <trkpt lat="44.49204" lon="-1.09245">
        <ele>18</ele>
        <time>2019-08-08T16:14:00Z</time>
      </trkpt>
      <trkpt lat="44.49203" lon="-1.09233">
        <ele>18</ele>
        <time>2019-08-08T16:14:05Z</time>
      </trkpt>
      <trkpt lat="44.49203" lon="-1.09221">
        <ele>18</ele>
        <time>2019-08-08T16:14:10Z</time>
      </trkpt>
      <trkpt lat="44.49203" lon="-1.09209">
        <ele>18</ele>
        <time>2019-08-08T16:14:15Z</time>
      </trkpt>
      <trkpt lat="44.49202" lon="-1.09196">
        <ele>18</ele>
        <time>2019-08-08T16:14:20Z</time>
      </trkpt>
      <trkpt lat="44.49201" lon="-1.09184">
        <ele>18</ele>
        <time>2019-08-08T16:14:25Z</time>
      </trkpt>
      <trkpt lat="44.49201" lon="-1.0916">
        <ele>18</ele>
        <time>2019-08-08T16:14:35Z</time>
      </trkpt>
      <trkpt lat="44.49201" lon="-1.09148">
        <ele>18</ele>
        <time>2019-08-08T16:14:40Z</time>
      </trkpt>
      <trkpt lat="44.49201" lon="-1.09136">
        <ele>18</ele>
        <time>2019-08-08T16:14:45Z</time>
      </trkpt>
      <trkpt lat="44.49201" lon="-1.09123">
        <ele>18</ele>
        <time>2019-08-08T16:14:50Z</time>
      </trkpt>
      <trkpt lat="44.49201" lon="-1.09111">
        <ele>18</ele>
        <time>2019-08-08T16:14:55Z</time>
      </trkpt>
      <trkpt lat="44.492" lon="-1.09099">
        <ele>18</ele>
        <time>2019-08-08T16:15:00Z</time>
      </trkpt>
      <trkpt lat="44.492" lon="-1.09087">
        <ele>18</ele>
        <time>2019-08-08T16:15:05Z</time>
      </trkpt>
      <trkpt lat="44.49199" lon="-1.09075">
        <ele>18</ele>
        <time>2019-08-08T16:15:10Z</time>
      </trkpt>
      <trkpt lat="44.49199" lon="-1.09048">
        <ele>18</ele>
        <time>2019-08-08T16:15:20Z</time>
      </trkpt>
      <trkpt lat="44.49198" lon="-1.09036">
        <ele>18</ele>
        <time>2019-08-08T16:15:25Z</time>
      </trkpt>
      <trkpt lat="44.49198" lon="-1.09024">
        <ele>18</ele>
        <time>2019-08-08T16:15:30Z</time>
      </trkpt>
      <trkpt lat="44.49197" lon="-1.09013">
        <ele>18</ele>
        <time>2019-08-08T16:15:35Z</time>
      </trkpt>
      <trkpt lat="44.49197" lon="-1.09003">
        <ele>18</ele>
        <time>2019-08-08T16:15:40Z</time>
      </trkpt>
      <trkpt lat="44.49197" lon="-1.08992">
        <ele>18</ele>
        <time>2019-08-08T16:15:45Z</time>
      </trkpt>
      <trkpt lat="44.49196" lon="-1.08981">
        <ele>18</ele>
        <time>2019-08-08T16:15:50Z</time>
      </trkpt>
      <trkpt lat="44.49195" lon="-1.08969">
        <ele>18</ele>
        <time>2019-08-08T16:15:55Z</time>
      </trkpt>
      <trkpt lat="44.49195" lon="-1.08957">
        <ele>18</ele>
        <time>2019-08-08T16:16:00Z</time>
      </trkpt>
      <trkpt lat="44.49195" lon="-1.08934">
        <ele>18</ele>
        <time>2019-08-08T16:16:10Z</time>
      </trkpt>
      <trkpt lat="44.49195" lon="-1.08923">
        <ele>18</ele>
        <time>2019-08-08T16:16:15Z</time>
      </trkpt>
      <trkpt lat="44.49195" lon="-1.08911">
        <ele>18</ele>
        <time>2019-08-08T16:16:20Z</time>
      </trkpt>
      <trkpt lat="44.49196" lon="-1.08898">
        <ele>18</ele>
        <time>2019-08-08T16:16:25Z</time>
      </trkpt>
      <trkpt lat="44.49197" lon="-1.08884">
        <ele>18</ele>
        <time>2019-08-08T16:16:30Z</time>
      </trkpt>
      <trkpt lat="44.49197" lon="-1.08871">
        <ele>18</ele>
        <time>2019-08-08T16:16:35Z</time>
      </trkpt>
      <trkpt lat="44.49198" lon="-1.08855">
        <ele>18</ele>
        <time>2019-08-08T16:16:40Z</time>
      </trkpt>
      <trkpt lat="44.49197" lon="-1.0884">
        <ele>18</ele>
        <time>2019-08-08T16:16:45Z</time>
      </trkpt>
      <trkpt lat="44.49198" lon="-1.08814">
        <ele>18</ele>
        <time>2019-08-08T16:16:55Z</time>
      </trkpt>
      <trkpt lat="44.49198" lon="-1.08801">
        <ele>18</ele>
        <time>2019-08-08T16:17:00Z</time>
      </trkpt>
      <trkpt lat="44.49197" lon="-1.0879">
        <ele>18</ele>
        <time>2019-08-08T16:17:05Z</time>
      </trkpt>
      <trkpt lat="44.49197" lon="-1.08778">
        <ele>18</ele>
        <time>2019-08-08T16:17:10Z</time>
      </trkpt>
      <trkpt lat="44.49196" lon="-1.08765">
        <ele>18</ele>
        <time>2019-08-08T16:17:15Z</time>
      </trkpt>
      <trkpt lat="44.49196" lon="-1.08753">
        <ele>18</ele>
        <time>2019-08-08T16:17:20Z</time>
      </trkpt>
      <trkpt lat="44.49196" lon="-1.08739">
        <ele>18</ele>
        <time>2019-08-08T16:17:25Z</time>
      </trkpt>
      <trkpt lat="44.49196" lon="-1.08727">
        <ele>18</ele>
        <time>2019-08-08T16:17:30Z</time>
      </trkpt>
      <trkpt lat="44.49196" lon="-1.08715">
        <ele>18</ele>
        <time>2019-08-08T16:17:35Z</time>
      </trkpt>
      <trkpt lat="44.49195" lon="-1.0869">
        <ele>18</ele>
        <time>2019-08-08T16:17:45Z</time>
      </trkpt>
      <trkpt lat="44.49195" lon="-1.08678">
        <ele>18</ele>
        <time>2019-08-08T16:17:50Z</time>
      </trkpt>
      <trkpt lat="44.49195" lon="-1.08665">
        <ele>18</ele>
        <time>2019-08-08T16:17:55Z</time>
      </trkpt>
      <trkpt lat="44.49195" lon="-1.08651">
        <ele>18</ele>
        <time>2019-08-08T16:18:00Z</time>
      </trkpt>
      <trkpt lat="44.49196" lon="-1.08638">
        <ele>18</ele>
        <time>2019-08-08T16:18:05Z</time>
      </trkpt>
      <trkpt lat="44.49198" lon="-1.08624">
        <ele>18</ele>
        <time>2019-08-08T16:18:10Z</time>
      </trkpt>
      <trkpt lat="44.49201" lon="-1.08611">
        <ele>18</ele>
        <time>2019-08-08T16:18:15Z</time>
      </trkpt>
      <trkpt lat="44.49204" lon="-1.08597">
        <ele>18</ele>
        <time>2019-08-08T16:18:20Z</time>
      </trkpt>
      <trkpt lat="44.49211" lon="-1.08571">
        <ele>18</ele>
        <time>2019-08-08T16:18:30Z</time>
      </trkpt>
      <trkpt lat="44.49214" lon="-1.08558">
        <ele>18</ele>
        <time>2019-08-08T16:18:35Z</time>
      </trkpt>
      <trkpt lat="44.49218" lon="-1.08546">
        <ele>18</ele>
        <time>2019-08-08T16:18:40Z</time>
      </trkpt>
      <trkpt lat="44.49222" lon="-1.08535">
        <ele>18</ele>
        <time>2019-08-08T16:18:45Z</time>
      </trkpt>
      <trkpt lat="44.49226" lon="-1.08525">
        <ele>18</ele>
        <time>2019-08-08T16:18:50Z</time>
      </trkpt>
      <trkpt lat="44.49229" lon="-1.08513">
        <ele>18</ele>
        <time>2019-08-08T16:18:55Z</time>
      </trkpt>
      <trkpt lat="44.49233" lon="-1.08502">
        <ele>18</ele>
        <time>2019-08-08T16:19:00Z</time>
      </trkpt>
      <trkpt lat="44.49236" lon="-1.0849">
        <ele>18</ele>
        <time>2019-08-08T16:19:05Z</time>
      </trkpt>
      <trkpt lat="44.49241" lon="-1.08476">
        <ele>18</ele>
        <time>2019-08-08T16:19:10Z</time>
      </trkpt>
      <trkpt lat="44.49249" lon="-1.08448">
        <ele>18</ele>
        <time>2019-08-08T16:19:20Z</time>
      </trkpt>
      <trkpt lat="44.49253" lon="-1.08434">
        <ele>18</ele>
        <time>2019-08-08T16:19:25Z</time>
      </trkpt>
      <trkpt lat="44.49256" lon="-1.08421">
        <ele>18</ele>
        <time>2019-08-08T16:19:30Z</time>
      </trkpt>
      <trkpt lat="44.49261" lon="-1.08408">
        <ele>18</ele>
        <time>2019-08-08T16:19:35Z</time>
      </trkpt>
      <trkpt lat="44.49267" lon="-1.08394">
        <ele>18</ele>
        <time>2019-08-08T16:19:40Z</time>
      </trkpt>
      <trkpt lat="44.49273" lon="-1.08381">
        <ele>18</ele>
        <time>2019-08-08T16:19:45Z</time>
      </trkpt>
      <trkpt lat="44.49278" lon="-1.08368">
        <ele>18</ele>
        <time>2019-08-08T16:19:50Z</time>
      </trkpt>
      <trkpt lat="44.49283" lon="-1.08354">
        <ele>18</ele>
        <time>2019-08-08T16:19:55Z</time>
      </trkpt>
      <trkpt lat="44.49292" lon="-1.08326">
        <ele>18</ele>
        <time>2019-08-08T16:20:05Z</time>
      </trkpt>
      <trkpt lat="44.49295" lon="-1.08313">
        <ele>18</ele>
        <time>2019-08-08T16:20:10Z</time>
      </trkpt>
      <trkpt lat="44.49298" lon="-1.083">
        <ele>18</ele>
        <time>2019-08-08T16:20:15Z</time>
      </trkpt>
      <trkpt lat="44.49302" lon="-1.08287">
        <ele>18</ele>
        <time>2019-08-08T16:20:20Z</time>
      </trkpt>
      <trkpt lat="44.49305" lon="-1.08275">
        <ele>18</ele>
        <time>2019-08-08T16:20:25Z</time>
      </trkpt>
      <trkpt lat="44.49309" lon="-1.08263">
        <ele>18</ele>
        <time>2019-08-08T16:20:30Z</time>
      </trkpt>
      <trkpt lat="44.49314" lon="-1.0825">
        <ele>18</ele>
        <time>2019-08-08T16:20:35Z</time>
      </trkpt>
      <trkpt lat="44.49317" lon="-1.08236">
        <ele>18</ele>
        <time>2019-08-08T16:20:40Z</time>
      </trkpt>
      <trkpt lat="44.49321" lon="-1.08223">
        <ele>18</ele>
        <time>2019-08-08T16:20:45Z</time>
      </trkpt>
      <trkpt lat="44.49327" lon="-1.08198">
        <ele>18</ele>
        <time>2019-08-08T16:20:55Z</time>
      </trkpt>
      <trkpt lat="44.49331" lon="-1.08185">
        <ele>18</ele>
        <time>2019-08-08T16:21:00Z</time>
      </trkpt>
      <trkpt lat="44.49334" lon="-1.08173">
        <ele>18</ele>
        <time>2019-08-08T16:21:05Z</time>
      </trkpt>
      <trkpt lat="44.49336" lon="-1.08161">
        <ele>18</ele>
        <time>2019-08-08T16:21:10Z</time>
      </trkpt>
      <trkpt lat="44.49339" lon="-1.08149">
        <ele>18</ele>
        <time>2019-08-08T16:21:15Z</time>
      </trkpt>
      <trkpt lat="44.49343" lon="-1.08136">
        <ele>18</ele>
        <time>2019-08-08T16:21:20Z</time>
      </trkpt>
      <trkpt lat="44.49346" lon="-1.08123">
        <ele>18</ele>
        <time>2019-08-08T16:21:25Z</time>
      </trkpt>
      <trkpt lat="44.49349" lon="-1.08112">
        <ele>18</ele>
        <time>2019-08-08T16:21:30Z</time>
      </trkpt>
      <trkpt lat="44.49356" lon="-1.08089">
        <ele>18</ele>
        <time>2019-08-08T16:21:40Z</time>
      </trkpt>
      <trkpt lat="44.49359" lon="-1.08078">
        <ele>18</ele>
        <time>2019-08-08T16:21:45Z</time>
      </trkpt>
      <trkpt lat="44.49363" lon="-1.08068">
        <ele>18</ele>
        <time>2019-08-08T16:21:50Z</time>
      </trkpt>
      <trkpt lat="44.49367" lon="-1.08057">
        <ele>18</ele>
        <time>2019-08-08T16:21:55Z</time>
      </trkpt>
      <trkpt lat="44.49371" lon="-1.08047">
        <ele>18</ele>
        <time>2019-08-08T16:22:00Z</time>
      </trkpt>
      <trkpt lat="44.49375" lon="-1.08036">
        <ele>18</ele>
        <time>2019-08-08T16:22:05Z</time>
      </trkpt>
      <trkpt lat="44.49379" lon="-1.08024">
        <ele>18</ele>
        <time>2019-08-08T16:22:10Z</time>
      </trkpt>
      <trkpt lat="44.49381" lon="-1.08015">
        <ele>18</ele>
        <time>2019-08-08T16:22:15Z</time>
      </trkpt>
      <trkpt lat="44.49384" lon="-1.08007">
        <ele>18</ele>
        <time>2019-08-08T16:22:20Z</time>
      </trkpt>
      <trkpt lat="44.49392" lon="-1.07985">
        <ele>18</ele>
        <time>2019-08-08T16:22:30Z</time>
      </trkpt>
      <trkpt lat="44.49396" lon="-1.07973">
        <ele>18</ele>
        <time>2019-08-08T16:22:35Z</time>
      </trkpt>
      <trkpt lat="44.494" lon="-1.07963">
        <ele>18</ele>
        <time>2019-08-08T16:22:40Z</time>
      </trkpt>
      <trkpt lat="44.49404" lon="-1.07951">
        <ele>18</ele>
        <time>2019-08-08T16:22:45Z</time>
      </trkpt>
      <trkpt lat="44.49408" lon="-1.07941">
        <ele>18</ele>
        <time>2019-08-08T16:22:50Z</time>
      </trkpt>
      <trkpt lat="44.49414" lon="-1.07933">
        <ele>18</ele>
        <time>2019-08-08T16:22:55Z</time>
      </trkpt>
      <trkpt lat="44.49419" lon="-1.07936">
        <ele>18</ele>
        <time>2019-08-08T16:23:00Z</time>
      </trkpt>
      <trkpt lat="44.49421" lon="-1.07941">
        <ele>18</ele>
        <time>2019-08-08T16:23:05Z</time>
      </trkpt>
      <trkpt lat="44.49424" lon="-1.07946">
        <ele>18</ele>
        <time>2019-08-08T16:23:15Z</time>
      </trkpt>
      <trkpt lat="44.49424" lon="-1.07947">
        <ele>18</ele>
        <time>2019-08-08T16:23:20Z</time>
      </trkpt>
      <trkpt lat="44.49425" lon="-1.07949">
        <ele>18</ele>
        <time>2019-08-08T16:23:25Z</time>
      </trkpt>
      <trkpt lat="44.49426" lon="-1.0795">
        <ele>18</ele>
        <time>2019-08-08T16:23:30Z</time>
      </trkpt>
      <trkpt lat="44.49426" lon="-1.07951">
        <ele>18</ele>
        <time>2019-08-08T16:23:35Z</time>
      </trkpt>
      <trkpt lat="44.49426" lon="-1.07952">
        <ele>18</ele>
        <time>2019-08-08T16:23:40Z</time>
      </trkpt>
      <trkpt lat="44.49425" lon="-1.07952">
        <ele>18</ele>
        <time>2019-08-08T16:23:45Z</time>
      </trkpt>
      <trkpt lat="44.49425" lon="-1.07952">
        <ele>18</ele>
        <time>2019-08-08T16:23:50Z</time>
      </trkpt>
      <trkpt lat="44.49424" lon="-1.07951">
        <ele>18</ele>
        <time>2019-08-08T16:23:55Z</time>
      </trkpt>
      <trkpt lat="44.49424" lon="-1.07951">
        <ele>18</ele>
        <time>2019-08-08T16:24:05Z</time>
      </trkpt>
      <trkpt lat="44.49424" lon="-1.07952">
        <ele>18</ele>
        <time>2019-08-08T16:24:10Z</time>
      </trkpt>
      <trkpt lat="44.49424" lon="-1.07954">
        <ele>18</ele>
        <time>2019-08-08T16:24:15Z</time>
      </trkpt>
      <trkpt lat="44.49424" lon="-1.07954">
        <ele>18</ele>
        <time>2019-08-08T16:24:20Z</time>
      </trkpt>
      <trkpt lat="44.49424" lon="-1.07954">
        <ele>18</ele>
        <time>2019-08-08T16:24:25Z</time>
      </trkpt>
      <trkpt lat="44.49423" lon="-1.07954">
        <ele>18</ele>
        <time>2019-08-08T16:24:30Z</time>
      </trkpt>
      <trkpt lat="44.49424" lon="-1.07954">
        <ele>18</ele>
        <time>2019-08-08T16:24:35Z</time>
      </trkpt>
      <trkpt lat="44.49423" lon="-1.07954">
        <ele>18</ele>
        <time>2019-08-08T16:24:40Z</time>
      </trkpt>
      <trkpt lat="44.49423" lon="-1.07954">
        <ele>18</ele>
        <time>2019-08-08T16:24:50Z</time>
      </trkpt>
      <trkpt lat="44.49423" lon="-1.07954">
        <ele>18</ele>
        <time>2019-08-08T16:24:55Z</time>
      </trkpt>
      <trkpt lat="44.49423" lon="-1.07954">
        <ele>18</ele>
        <time>2019-08-08T16:25:00Z</time>
      </trkpt>
      <trkpt lat="44.49423" lon="-1.07954">
        <ele>18</ele>
        <time>2019-08-08T16:25:05Z</time>
      </trkpt>
      <trkpt lat="44.49423" lon="-1.07954">
        <ele>18</ele>
        <time>2019-08-08T16:25:10Z</time>
      </trkpt>
      <trkpt lat="44.49423" lon="-1.07954">
        <ele>18</ele>
        <time>2019-08-08T16:25:15Z</time>
      </trkpt>
      <trkpt lat="44.49423" lon="-1.07955">
        <ele>18</ele>
        <time>2019-08-08T16:25:20Z</time>
      </trkpt>
      <trkpt lat="44.49423" lon="-1.07953">
        <ele>18</ele>
        <time>2019-08-08T16:25:25Z</time>
      </trkpt>
      <trkpt lat="44.49423" lon="-1.07952">
        <ele>18</ele>
        <time>2019-08-08T16:25:30Z</time>
      </trkpt>
      <trkpt lat="44.49423" lon="-1.07952">
        <ele>18</ele>
        <time>2019-08-08T16:25:40Z</time>
      </trkpt>
      <trkpt lat="44.49423" lon="-1.07953">
        <ele>18</ele>
        <time>2019-08-08T16:25:45Z</time>
      </trkpt>
      <trkpt lat="44.49423" lon="-1.07952">
        <ele>18</ele>
        <time>2019-08-08T16:25:50Z</time>
      </trkpt>
      <trkpt lat="44.49423" lon="-1.07952">
        <ele>18</ele>
        <time>2019-08-08T16:25:55Z</time>
      </trkpt>
      <trkpt lat="44.49423" lon="-1.07952">
        <ele>18</ele>
        <time>2019-08-08T16:26:00Z</time>
      </trkpt>
      <trkpt lat="44.49423" lon="-1.07953">
        <ele>18</ele>
        <time>2019-08-08T16:26:05Z</time>
      </trkpt>
      <trkpt lat="44.49424" lon="-1.07953">
        <ele>18</ele>
        <time>2019-08-08T16:26:10Z</time>
      </trkpt>
      <trkpt lat="44.49424" lon="-1.07951">
        <ele>18</ele>
        <time>2019-08-08T16:26:15Z</time>
      </trkpt>
      <trkpt lat="44.49424" lon="-1.07949">
        <ele>18</ele>
        <time>2019-08-08T16:26:25Z</time>
      </trkpt>
      <trkpt lat="44.49424" lon="-1.07945">
        <ele>18</ele>
        <time>2019-08-08T16:26:30Z</time>
      </trkpt>
      <trkpt lat="44.49424" lon="-1.07946">
        <ele>18</ele>
        <time>2019-08-08T16:26:35Z</time>
      </trkpt>
      <trkpt lat="44.49423" lon="-1.07949">
        <ele>18</ele>
        <time>2019-08-08T16:26:40Z</time>
      </trkpt>
      <trkpt lat="44.49423" lon="-1.0795">
        <ele>18</ele>
        <time>2019-08-08T16:26:45Z</time>
      </trkpt>
      <trkpt lat="44.49424" lon="-1.0795">
        <ele>18</ele>
        <time>2019-08-08T16:26:50Z</time>
      </trkpt>
      <trkpt lat="44.49424" lon="-1.0795">
        <ele>18</ele>
        <time>2019-08-08T16:26:55Z</time>
      </trkpt>
      <trkpt lat="44.49424" lon="-1.0795">
        <ele>18</ele>
        <time>2019-08-08T16:27:00Z</time>
      </trkpt>
      <trkpt lat="44.49423" lon="-1.07951">
        <ele>18</ele>
        <time>2019-08-08T16:27:05Z</time>
      </trkpt>
      <trkpt lat="44.49424" lon="-1.07951">
        <ele>18</ele>
        <time>2019-08-08T16:27:15Z</time>
      </trkpt>
      <trkpt lat="44.49424" lon="-1.07951">
        <ele>18</ele>
        <time>2019-08-08T16:27:20Z</time>
      </trkpt>
      <trkpt lat="44.49424" lon="-1.07951">
        <ele>18</ele>
        <time>2019-08-08T16:27:25Z</time>
      </trkpt>
      <trkpt lat="44.49424" lon="-1.07951">
        <ele>18</ele>
        <time>2019-08-08T16:27:30Z</time>
      </trkpt>
      <trkpt lat="44.49424" lon="-1.0795">
        <ele>18</ele>
        <time>2019-08-08T16:27:35Z</time>
      </trkpt>
      <trkpt lat="44.49424" lon="-1.0795">
        <ele>18</ele>
        <time>2019-08-08T16:27:40Z</time>
      </trkpt>
      <trkpt lat="44.49424" lon="-1.07951">
        <ele>18</ele>
        <time>2019-08-08T16:27:45Z</time>
      </trkpt>
      <trkpt lat="44.49424" lon="-1.07951">
        <ele>18</ele>
        <time>2019-08-08T16:27:50Z</time>
      </trkpt>
      <trkpt lat="44.49424" lon="-1.07951">
        <ele>18</ele>
        <time>2019-08-08T16:28:00Z</time>
      </trkpt>
      <trkpt lat="44.49424" lon="-1.07951">
        <ele>18</ele>
        <time>2019-08-08T16:28:05Z</time>
      </trkpt>
      <trkpt lat="44.49424" lon="-1.07951">
        <ele>18</ele>
        <time>2019-08-08T16:28:10Z</time>
      </trkpt>
      <trkpt lat="44.49424" lon="-1.0795">
        <ele>18</ele>
        <time>2019-08-08T16:28:15Z</time>
      </trkpt>
      <trkpt lat="44.49424" lon="-1.0795">
        <ele>18</ele>
        <time>2019-08-08T16:28:20Z</time>
      </trkpt>
      <trkpt lat="44.49424" lon="-1.0795">
        <ele>18</ele>
        <time>2019-08-08T16:28:25Z</time>
      </trkpt>
      <trkpt lat="44.49424" lon="-1.07951">
        <ele>18</ele>
        <time>2019-08-08T16:28:30Z</time>
      </trkpt>
      <trkpt lat="44.49424" lon="-1.07951">
        <ele>18</ele>
        <time>2019-08-08T16:28:35Z</time>
      </trkpt>
      <trkpt lat="44.49424" lon="-1.07951">
        <ele>18</ele>
        <time>2019-08-08T16:28:38Z</time>
      </trkpt>
    </trkseg>
  </trk>
</gpx>